<?xml version='1.0' encoding='UTF-8'?><gpx version="1.1" creator="JPX - https://github.com/jenetics/jpx" xmlns="http://www.topografix.com/GPX/1/1"><trk><trkseg><trkpt lat="44.67255334403074" lon="11.652322525775752"><ele>7.0</ele><time>2026-04-19T12:16:44.801Z</time></trkpt><trkpt lat="44.672516242155396" lon="11.652209782498419"><ele>6.999999999999999</ele><time>2026-04-19T12:20:47Z</time></trkpt><trkpt lat="44.67253673485926" lon="11.652353563692627"><ele>6.999999999999999</ele><time>2026-04-19T12:20:57.001Z</time></trkpt><trkpt lat="44.67245144315776" lon="11.652404564866055"><ele>7.0</ele><time>2026-04-19T12:21:01.001Z</time></trkpt><trkpt lat="44.67247730191111" lon="11.652485837354453"><ele>7.0</ele><time>2026-04-19T12:21:02.998Z</time></trkpt><trkpt lat="44.672315445636784" lon="11.652608616608582"><ele>7.0</ele><time>2026-04-19T12:21:07.998Z</time></trkpt><trkpt lat="44.672207061328315" lon="11.652683620044668"><ele>6.999999999999999</ele><time>2026-04-19T12:21:09.999Z</time></trkpt><trkpt lat="44.67213805949875" lon="11.652737947014852"><ele>6.999999999999999</ele><time>2026-04-19T12:21:10.999Z</time></trkpt><trkpt lat="44.67206352742068" lon="11.652787765475223"><ele>7.0</ele><time>2026-04-19T12:21:11.999Z</time></trkpt><trkpt lat="44.67199017097721" lon="11.65283984461565"><ele>7.0</ele><time>2026-04-19T12:21:12.999Z</time></trkpt><trkpt lat="44.671890761298435" lon="11.652865987291154"><ele>7.199999999999999</ele><time>2026-04-19T12:21:13.999Z</time></trkpt><trkpt lat="44.671806343406665" lon="11.652863701726474"><ele>7.3999999999999995</ele><time>2026-04-19T12:21:14.999Z</time></trkpt><trkpt lat="44.67171340620936" lon="11.652946855556474"><ele>7.6000000000000005</ele><time>2026-04-19T12:21:16.999Z</time></trkpt><trkpt lat="44.67162697284975" lon="11.653005787146602"><ele>7.800000000000001</ele><time>2026-04-19T12:21:18.999Z</time></trkpt><trkpt lat="44.67157211270571" lon="11.653058374938487"><ele>8.0</ele><time>2026-04-19T12:21:23.999Z</time></trkpt><trkpt lat="44.671660657416844" lon="11.653239895607186"><ele>8.0</ele><time>2026-04-19T12:21:24.999Z</time></trkpt><trkpt lat="44.67171536227098" lon="11.653311873751466"><ele>8.0</ele><time>2026-04-19T12:21:25.999Z</time></trkpt><trkpt lat="44.671782659988224" lon="11.65340006230158"><ele>8.0</ele><time>2026-04-19T12:21:26.999Z</time></trkpt><trkpt lat="44.67185074898106" lon="11.653500430297175"><ele>8.0</ele><time>2026-04-19T12:21:27.999Z</time></trkpt><trkpt lat="44.671925362664666" lon="11.65360789125336"><ele>8.0</ele><time>2026-04-19T12:21:28.999Z</time></trkpt><trkpt lat="44.671995370143335" lon="11.653730603177502"><ele>7.5</ele><time>2026-04-19T12:21:29.999Z</time></trkpt><trkpt lat="44.67206735060108" lon="11.653878745742032"><ele>7.0</ele><time>2026-04-19T12:21:30.999Z</time></trkpt><trkpt lat="44.67212084770665" lon="11.65402613594997"><ele>6.5</ele><time>2026-04-19T12:21:31.999Z</time></trkpt><trkpt lat="44.672173046372976" lon="11.654185046920292"><ele>6.0</ele><time>2026-04-19T12:21:32.999Z</time></trkpt><trkpt lat="44.6722270076884" lon="11.654347502963697"><ele>6.5</ele><time>2026-04-19T12:21:33.999Z</time></trkpt><trkpt lat="44.67227747621753" lon="11.6545022308141"><ele>7.0</ele><time>2026-04-19T12:21:34.999Z</time></trkpt><trkpt lat="44.67233520536875" lon="11.654648568848186"><ele>7.5</ele><time>2026-04-19T12:21:35.999Z</time></trkpt><trkpt lat="44.67238287569124" lon="11.65479690510889"><ele>8.0</ele><time>2026-04-19T12:21:36.999Z</time></trkpt><trkpt lat="44.67242900661177" lon="11.654942195392394"><ele>8.0</ele><time>2026-04-19T12:21:37.999Z</time></trkpt><trkpt lat="44.67247522083315" lon="11.655086360385237"><ele>8.0</ele><time>2026-04-19T12:21:38.999Z</time></trkpt><trkpt lat="44.672523032359244" lon="11.655234055704998"><ele>8.0</ele><time>2026-04-19T12:21:39.999Z</time></trkpt><trkpt lat="44.67257678365252" lon="11.655384176214508"><ele>8.0</ele><time>2026-04-19T12:21:40.999Z</time></trkpt><trkpt lat="44.6726313515558" lon="11.65554006320159"><ele>8.0</ele><time>2026-04-19T12:21:41.999Z</time></trkpt><trkpt lat="44.672688673928185" lon="11.655695926991699"><ele>8.0</ele><time>2026-04-19T12:21:42.999Z</time></trkpt><trkpt lat="44.672744508503804" lon="11.655851877247105"><ele>8.0</ele><time>2026-04-19T12:21:43.999Z</time></trkpt><trkpt lat="44.67279806131811" lon="11.656008495575017"><ele>8.0</ele><time>2026-04-19T12:21:45Z</time></trkpt><trkpt lat="44.67285745130374" lon="11.656172849503744"><ele>7.75</ele><time>2026-04-19T12:21:46Z</time></trkpt><trkpt lat="44.672916114568075" lon="11.65633648352056"><ele>7.5</ele><time>2026-04-19T12:21:47Z</time></trkpt><trkpt lat="44.67297207484655" lon="11.656504645177197"><ele>7.25</ele><time>2026-04-19T12:21:48Z</time></trkpt><trkpt lat="44.67303244653519" lon="11.656671703274636"><ele>7.0</ele><time>2026-04-19T12:21:49Z</time></trkpt><trkpt lat="44.67308913381228" lon="11.656843351253892"><ele>7.0</ele><time>2026-04-19T12:21:50Z</time></trkpt><trkpt lat="44.67313694875635" lon="11.657017549187755"><ele>7.0</ele><time>2026-04-19T12:21:51Z</time></trkpt><trkpt lat="44.6731820051641" lon="11.657194346394697"><ele>7.0</ele><time>2026-04-19T12:21:52Z</time></trkpt><trkpt lat="44.6732221458777" lon="11.657375723630732"><ele>7.0</ele><time>2026-04-19T12:21:53Z</time></trkpt><trkpt lat="44.67325747912066" lon="11.65755328181989"><ele>7.0</ele><time>2026-04-19T12:21:54Z</time></trkpt><trkpt lat="44.67331099907435" lon="11.657731467952786"><ele>7.0</ele><time>2026-04-19T12:21:55Z</time></trkpt><trkpt lat="44.673383762103676" lon="11.657898438960418"><ele>7.0</ele><time>2026-04-19T12:21:56Z</time></trkpt><trkpt lat="44.673457415213214" lon="11.658037718390132"><ele>7.0</ele><time>2026-04-19T12:21:57Z</time></trkpt><trkpt lat="44.673530457947265" lon="11.658157449141221"><ele>6.8</ele><time>2026-04-19T12:21:58Z</time></trkpt><trkpt lat="44.673595700968356" lon="11.658267325471444"><ele>6.6</ele><time>2026-04-19T12:21:59Z</time></trkpt><trkpt lat="44.67365319222243" lon="11.658365188682907"><ele>6.3999999999999995</ele><time>2026-04-19T12:22:00Z</time></trkpt><trkpt lat="44.67370366200097" lon="11.658446498958417"><ele>6.199999999999999</ele><time>2026-04-19T12:22:01Z</time></trkpt><trkpt lat="44.67384780176546" lon="11.658491711843315"><ele>6.0</ele><time>2026-04-19T12:22:03Z</time></trkpt><trkpt lat="44.67394779215683" lon="11.658433316007562"><ele>6.0</ele><time>2026-04-19T12:22:04Z</time></trkpt><trkpt lat="44.67405402163913" lon="11.658353618245723"><ele>6.0</ele><time>2026-04-19T12:22:05Z</time></trkpt><trkpt lat="44.67417052599229" lon="11.658310184864092"><ele>6.0</ele><time>2026-04-19T12:22:06Z</time></trkpt><trkpt lat="44.67429731949653" lon="11.658272734223305"><ele>6.0</ele><time>2026-04-19T12:22:07Z</time></trkpt><trkpt lat="44.67443096593755" lon="11.658292537266773"><ele>6.0</ele><time>2026-04-19T12:22:08Z</time></trkpt><trkpt lat="44.67457201663119" lon="11.658313656475796"><ele>6.0</ele><time>2026-04-19T12:22:09Z</time></trkpt><trkpt lat="44.67472039253382" lon="11.65833086603037"><ele>6.0</ele><time>2026-04-19T12:22:10Z</time></trkpt><trkpt lat="44.67486228442737" lon="11.658359078355884"><ele>6.0</ele><time>2026-04-19T12:22:11Z</time></trkpt><trkpt lat="44.67501220296336" lon="11.658385717337058"><ele>6.0</ele><time>2026-04-19T12:22:12Z</time></trkpt><trkpt lat="44.67515660939105" lon="11.658413940486994"><ele>6.0</ele><time>2026-04-19T12:22:13Z</time></trkpt><trkpt lat="44.675295979661925" lon="11.658440081862768"><ele>6.0</ele><time>2026-04-19T12:22:14Z</time></trkpt><trkpt lat="44.67542838822912" lon="11.658461499458863"><ele>6.0</ele><time>2026-04-19T12:22:15Z</time></trkpt><trkpt lat="44.675555949970665" lon="11.658483266506463"><ele>6.0</ele><time>2026-04-19T12:22:16Z</time></trkpt><trkpt lat="44.67568228059606" lon="11.658508239536369"><ele>6.0</ele><time>2026-04-19T12:22:17Z</time></trkpt><trkpt lat="44.67580234778289" lon="11.658535074612555"><ele>6.0</ele><time>2026-04-19T12:22:18Z</time></trkpt><trkpt lat="44.675923989807565" lon="11.658552303567632"><ele>6.0</ele><time>2026-04-19T12:22:19Z</time></trkpt><trkpt lat="44.67604461057081" lon="11.65857943788386"><ele>5.75</ele><time>2026-04-19T12:22:20Z</time></trkpt><trkpt lat="44.67616502539024" lon="11.65859354339786"><ele>5.5</ele><time>2026-04-19T12:22:21Z</time></trkpt><trkpt lat="44.6762828694207" lon="11.658617655253094"><ele>5.25</ele><time>2026-04-19T12:22:22Z</time></trkpt><trkpt lat="44.67640062230834" lon="11.658641685282166"><ele>5.0</ele><time>2026-04-19T12:22:23Z</time></trkpt><trkpt lat="44.67651207180148" lon="11.658657963331768"><ele>5.0</ele><time>2026-04-19T12:22:24Z</time></trkpt><trkpt lat="44.67660731224142" lon="11.658678121611933"><ele>5.0</ele><time>2026-04-19T12:22:25Z</time></trkpt><trkpt lat="44.676711838131894" lon="11.658705374030664"><ele>5.0</ele><time>2026-04-19T12:22:26Z</time></trkpt><trkpt lat="44.676816152422155" lon="11.658761522537898"><ele>5.0</ele><time>2026-04-19T12:22:27Z</time></trkpt><trkpt lat="44.67690420309501" lon="11.658863740777123"><ele>5.0</ele><time>2026-04-19T12:22:28Z</time></trkpt><trkpt lat="44.676954634948835" lon="11.659016518058248"><ele>5.0</ele><time>2026-04-19T12:22:29Z</time></trkpt><trkpt lat="44.67698043965254" lon="11.6591829115033"><ele>5.0</ele><time>2026-04-19T12:22:30Z</time></trkpt><trkpt lat="44.67696828204539" lon="11.659346483767068"><ele>5.0</ele><time>2026-04-19T12:22:31Z</time></trkpt><trkpt lat="44.676936496008665" lon="11.659507837582696"><ele>5.0</ele><time>2026-04-19T12:22:32Z</time></trkpt><trkpt lat="44.6769058328115" lon="11.659657618049883"><ele>5.0</ele><time>2026-04-19T12:22:33Z</time></trkpt><trkpt lat="44.67690140135538" lon="11.659814485985715"><ele>5.0</ele><time>2026-04-19T12:22:34Z</time></trkpt><trkpt lat="44.676942496034926" lon="11.659964237583461"><ele>5.0</ele><time>2026-04-19T12:22:35Z</time></trkpt><trkpt lat="44.677030490831356" lon="11.66008644379632"><ele>5.0</ele><time>2026-04-19T12:22:36Z</time></trkpt><trkpt lat="44.67714458742848" lon="11.660159361363993"><ele>5.0</ele><time>2026-04-19T12:22:37Z</time></trkpt><trkpt lat="44.677270017970486" lon="11.660194830769928"><ele>5.0</ele><time>2026-04-19T12:22:38Z</time></trkpt><trkpt lat="44.677404167516734" lon="11.660211062556064"><ele>5.0</ele><time>2026-04-19T12:22:39Z</time></trkpt><trkpt lat="44.677537612304015" lon="11.660226945392186"><ele>5.0</ele><time>2026-04-19T12:22:40Z</time></trkpt><trkpt lat="44.677671028837935" lon="11.660246258963271"><ele>5.25</ele><time>2026-04-19T12:22:41Z</time></trkpt><trkpt lat="44.677802919696084" lon="11.660267842754786"><ele>5.5</ele><time>2026-04-19T12:22:42Z</time></trkpt><trkpt lat="44.677936835828866" lon="11.660287680270601"><ele>5.75</ele><time>2026-04-19T12:22:43Z</time></trkpt><trkpt lat="44.67806803657089" lon="11.660305706855198"><ele>6.0</ele><time>2026-04-19T12:22:44Z</time></trkpt><trkpt lat="44.6781913604345" lon="11.660308262932267"><ele>6.0</ele><time>2026-04-19T12:22:45Z</time></trkpt><trkpt lat="44.67831291171433" lon="11.660303592842194"><ele>6.0</ele><time>2026-04-19T12:22:46Z</time></trkpt><trkpt lat="44.678444182576946" lon="11.660298239296052"><ele>6.0</ele><time>2026-04-19T12:22:47Z</time></trkpt><trkpt lat="44.67856853120191" lon="11.660281947095568"><ele>6.0</ele><time>2026-04-19T12:22:48.001Z</time></trkpt><trkpt lat="44.678696270801844" lon="11.660258400534492"><ele>5.5</ele><time>2026-04-19T12:22:49.001Z</time></trkpt><trkpt lat="44.678822170545736" lon="11.660244414929675"><ele>5.0</ele><time>2026-04-19T12:22:50.001Z</time></trkpt><trkpt lat="44.678957330714404" lon="11.660228291825092"><ele>4.5</ele><time>2026-04-19T12:22:51.001Z</time></trkpt><trkpt lat="44.679098615023975" lon="11.660206234320858"><ele>4.0</ele><time>2026-04-19T12:22:52.001Z</time></trkpt><trkpt lat="44.679239020949495" lon="11.660178454689671"><ele>4.0</ele><time>2026-04-19T12:22:53.001Z</time></trkpt><trkpt lat="44.67938309031231" lon="11.66014373151294"><ele>4.0</ele><time>2026-04-19T12:22:54.001Z</time></trkpt><trkpt lat="44.67953156946765" lon="11.66010479744949"><ele>4.0</ele><time>2026-04-19T12:22:55.001Z</time></trkpt><trkpt lat="44.6796836362999" lon="11.660063164634137"><ele>4.0</ele><time>2026-04-19T12:22:56.001Z</time></trkpt><trkpt lat="44.679846096648475" lon="11.660011315641547"><ele>4.0</ele><time>2026-04-19T12:22:57.001Z</time></trkpt><trkpt lat="44.68000041555695" lon="11.659963219047501"><ele>4.0</ele><time>2026-04-19T12:22:58.001Z</time></trkpt><trkpt lat="44.680136742229664" lon="11.659919220815729"><ele>4.0</ele><time>2026-04-19T12:22:59.001Z</time></trkpt><trkpt lat="44.68026087386933" lon="11.659877021489391"><ele>4.0</ele><time>2026-04-19T12:23:00.001Z</time></trkpt><trkpt lat="44.680373461067255" lon="11.659836611788483"><ele>4.0</ele><time>2026-04-19T12:23:01.001Z</time></trkpt><trkpt lat="44.68047543557324" lon="11.65979371841595"><ele>4.0</ele><time>2026-04-19T12:23:02.001Z</time></trkpt><trkpt lat="44.68056696598399" lon="11.659766138122254"><ele>4.0</ele><time>2026-04-19T12:23:03.001Z</time></trkpt><trkpt lat="44.680672704433476" lon="11.659769716097934"><ele>4.25</ele><time>2026-04-19T12:23:04.001Z</time></trkpt><trkpt lat="44.68078089833496" lon="11.659842341925085"><ele>4.5</ele><time>2026-04-19T12:23:05.001Z</time></trkpt><trkpt lat="44.68086898758925" lon="11.659975090135196"><ele>4.75</ele><time>2026-04-19T12:23:06.001Z</time></trkpt><trkpt lat="44.680920042466184" lon="11.660146934639911"><ele>5.0</ele><time>2026-04-19T12:23:07.001Z</time></trkpt><trkpt lat="44.68096192577564" lon="11.660335018265112"><ele>5.0</ele><time>2026-04-19T12:23:07.997Z</time></trkpt><trkpt lat="44.68101604743323" lon="11.660515802839056"><ele>5.0</ele><time>2026-04-19T12:23:08.997Z</time></trkpt><trkpt lat="44.68107169418382" lon="11.660696346543697"><ele>5.0</ele><time>2026-04-19T12:23:09.998Z</time></trkpt><trkpt lat="44.681132577122746" lon="11.660885358834488"><ele>5.0</ele><time>2026-04-19T12:23:10.998Z</time></trkpt><trkpt lat="44.68119206500531" lon="11.661074706697857"><ele>5.0</ele><time>2026-04-19T12:23:11.998Z</time></trkpt><trkpt lat="44.68125033989848" lon="11.66126997172486"><ele>5.0</ele><time>2026-04-19T12:23:12.998Z</time></trkpt><trkpt lat="44.68131534695065" lon="11.66146955561156"><ele>5.0</ele><time>2026-04-19T12:23:13.998Z</time></trkpt><trkpt lat="44.68138008445156" lon="11.661670950601858"><ele>5.0</ele><time>2026-04-19T12:23:14.998Z</time></trkpt><trkpt lat="44.681447731951884" lon="11.661868338412814"><ele>5.0</ele><time>2026-04-19T12:23:15.998Z</time></trkpt><trkpt lat="44.6815306125547" lon="11.662061832828645"><ele>5.0</ele><time>2026-04-19T12:23:16.998Z</time></trkpt><trkpt lat="44.68162559328138" lon="11.662239628508903"><ele>5.0</ele><time>2026-04-19T12:23:17.998Z</time></trkpt><trkpt lat="44.681735624182465" lon="11.662398149756973"><ele>5.0</ele><time>2026-04-19T12:23:18.998Z</time></trkpt><trkpt lat="44.68186006627856" lon="11.662548226757362"><ele>5.0</ele><time>2026-04-19T12:23:19.998Z</time></trkpt><trkpt lat="44.68199009148019" lon="11.662676966571658"><ele>5.0</ele><time>2026-04-19T12:23:20.998Z</time></trkpt><trkpt lat="44.68212946718126" lon="11.662786661054223"><ele>5.0</ele><time>2026-04-19T12:23:21.998Z</time></trkpt><trkpt lat="44.68228434394197" lon="11.662862509521345"><ele>5.0</ele><time>2026-04-19T12:23:22.998Z</time></trkpt><trkpt lat="44.68244826790305" lon="11.66289892508971"><ele>5.0</ele><time>2026-04-19T12:23:23.998Z</time></trkpt><trkpt lat="44.6826138213441" lon="11.66291150439259"><ele>5.0</ele><time>2026-04-19T12:23:24.998Z</time></trkpt><trkpt lat="44.68277253140786" lon="11.662923315147957"><ele>5.0</ele><time>2026-04-19T12:23:25.998Z</time></trkpt><trkpt lat="44.68291699949479" lon="11.662937311472154"><ele>4.75</ele><time>2026-04-19T12:23:26.999Z</time></trkpt><trkpt lat="44.68305852142584" lon="11.662957054648567"><ele>4.5</ele><time>2026-04-19T12:23:27.999Z</time></trkpt><trkpt lat="44.68319200476542" lon="11.66297350395499"><ele>4.25</ele><time>2026-04-19T12:23:28.999Z</time></trkpt><trkpt lat="44.68332464602362" lon="11.662986726956037"><ele>4.0</ele><time>2026-04-19T12:23:29.999Z</time></trkpt><trkpt lat="44.6834458995989" lon="11.66300578810384"><ele>4.0</ele><time>2026-04-19T12:23:30.999Z</time></trkpt><trkpt lat="44.68355986384975" lon="11.663063984579388"><ele>4.0</ele><time>2026-04-19T12:23:31.999Z</time></trkpt><trkpt lat="44.68366648408756" lon="11.663170178599067"><ele>4.0</ele><time>2026-04-19T12:23:32.999Z</time></trkpt><trkpt lat="44.6837484878871" lon="11.663326911344285"><ele>4.0</ele><time>2026-04-19T12:23:33.999Z</time></trkpt><trkpt lat="44.683799778280324" lon="11.663516847301977"><ele>4.333333333333333</ele><time>2026-04-19T12:23:34.999Z</time></trkpt><trkpt lat="44.683830661647946" lon="11.66372488828209"><ele>4.666666666666667</ele><time>2026-04-19T12:23:35.999Z</time></trkpt><trkpt lat="44.68386044878633" lon="11.663942365564548"><ele>5.0</ele><time>2026-04-19T12:23:36.999Z</time></trkpt><trkpt lat="44.683893831248355" lon="11.664148145673494"><ele>5.0</ele><time>2026-04-19T12:23:37.999Z</time></trkpt><trkpt lat="44.683939535917176" lon="11.664361184827008"><ele>5.0</ele><time>2026-04-19T12:23:38.999Z</time></trkpt><trkpt lat="44.6840024380589" lon="11.664566902425383"><ele>5.0</ele><time>2026-04-19T12:23:39.999Z</time></trkpt><trkpt lat="44.68407702124595" lon="11.664757734935144"><ele>5.0</ele><time>2026-04-19T12:23:40.999Z</time></trkpt><trkpt lat="44.684162804994955" lon="11.66494554529895"><ele>5.0</ele><time>2026-04-19T12:23:41.999Z</time></trkpt><trkpt lat="44.68425521999772" lon="11.66512672751163"><ele>5.0</ele><time>2026-04-19T12:23:42.999Z</time></trkpt><trkpt lat="44.684365076144545" lon="11.665303039370999"><ele>5.333333333333334</ele><time>2026-04-19T12:23:43.999Z</time></trkpt><trkpt lat="44.684491693407836" lon="11.665465323787899"><ele>5.666666666666667</ele><time>2026-04-19T12:23:44.999Z</time></trkpt><trkpt lat="44.684623010858914" lon="11.665627496598631"><ele>6.0</ele><time>2026-04-19T12:23:45.999Z</time></trkpt><trkpt lat="44.6847471871602" lon="11.665787773538018"><ele>6.0</ele><time>2026-04-19T12:23:46.999Z</time></trkpt><trkpt lat="44.68486505211708" lon="11.6659601150546"><ele>6.0</ele><time>2026-04-19T12:23:48Z</time></trkpt><trkpt lat="44.684975227054544" lon="11.666145234714328"><ele>6.0</ele><time>2026-04-19T12:23:49Z</time></trkpt><trkpt lat="44.68508126511017" lon="11.666337897769933"><ele>5.666666666666667</ele><time>2026-04-19T12:23:50Z</time></trkpt><trkpt lat="44.6851842782179" lon="11.666533277089227"><ele>5.333333333333334</ele><time>2026-04-19T12:23:51Z</time></trkpt><trkpt lat="44.68528713555873" lon="11.66672718166637"><ele>5.0</ele><time>2026-04-19T12:23:52Z</time></trkpt><trkpt lat="44.685392124511644" lon="11.666923975105446"><ele>5.0</ele><time>2026-04-19T12:23:53Z</time></trkpt><trkpt lat="44.68549662153078" lon="11.667121974674824"><ele>5.0</ele><time>2026-04-19T12:23:54Z</time></trkpt><trkpt lat="44.68560111722148" lon="11.667314041689936"><ele>5.0</ele><time>2026-04-19T12:23:55Z</time></trkpt><trkpt lat="44.6857125801801" lon="11.66750853257039"><ele>5.0</ele><time>2026-04-19T12:23:56Z</time></trkpt><trkpt lat="44.685825848364" lon="11.66770328112549"><ele>5.0</ele><time>2026-04-19T12:23:57Z</time></trkpt><trkpt lat="44.685943309617315" lon="11.66789787861145"><ele>5.0</ele><time>2026-04-19T12:23:58Z</time></trkpt><trkpt lat="44.686061440106954" lon="11.668084477660635"><ele>5.0</ele><time>2026-04-19T12:23:59Z</time></trkpt><trkpt lat="44.68618169407885" lon="11.668277018946407"><ele>5.0</ele><time>2026-04-19T12:24:00Z</time></trkpt><trkpt lat="44.68630271407285" lon="11.668468524612242"><ele>5.0</ele><time>2026-04-19T12:24:01Z</time></trkpt><trkpt lat="44.686419653103314" lon="11.668653847741464"><ele>5.0</ele><time>2026-04-19T12:24:02Z</time></trkpt><trkpt lat="44.68653682919887" lon="11.668841232084802"><ele>5.0</ele><time>2026-04-19T12:24:03Z</time></trkpt><trkpt lat="44.68665194408256" lon="11.6690274042363"><ele>5.0</ele><time>2026-04-19T12:24:04Z</time></trkpt><trkpt lat="44.68675948471336" lon="11.669199907214166"><ele>5.0</ele><time>2026-04-19T12:24:05Z</time></trkpt><trkpt lat="44.686856433748076" lon="11.669354826376752"><ele>5.0</ele><time>2026-04-19T12:24:06Z</time></trkpt><trkpt lat="44.686944879656835" lon="11.669494927246143"><ele>5.0</ele><time>2026-04-19T12:24:07Z</time></trkpt><trkpt lat="44.6870278052435" lon="11.669625469034166"><ele>5.0</ele><time>2026-04-19T12:24:08Z</time></trkpt><trkpt lat="44.68710551810308" lon="11.669747013786099"><ele>5.0</ele><time>2026-04-19T12:24:09Z</time></trkpt><trkpt lat="44.68717103311434" lon="11.669839633711515"><ele>5.0</ele><time>2026-04-19T12:24:10Z</time></trkpt><trkpt lat="44.687222481943714" lon="11.669914393349064"><ele>5.0</ele><time>2026-04-19T12:24:11Z</time></trkpt><trkpt lat="44.68725500336216" lon="11.66999340005097"><ele>5.0</ele><time>2026-04-19T12:24:12Z</time></trkpt><trkpt lat="44.68724811896272" lon="11.670102588836407"><ele>5.0</ele><time>2026-04-19T12:24:13Z</time></trkpt><trkpt lat="44.687206511143714" lon="11.670216830748604"><ele>5.0</ele><time>2026-04-19T12:24:14Z</time></trkpt><trkpt lat="44.68710887880909" lon="11.670250201911124"><ele>5.0</ele><time>2026-04-19T12:24:15Z</time></trkpt><trkpt lat="44.687012384002436" lon="11.670311083466405"><ele>5.0</ele><time>2026-04-19T12:24:16Z</time></trkpt><trkpt lat="44.686915438029644" lon="11.670380491211063"><ele>5.0</ele><time>2026-04-19T12:24:17Z</time></trkpt><trkpt lat="44.68681882160568" lon="11.670436753920512"><ele>5.0</ele><time>2026-04-19T12:24:18Z</time></trkpt><trkpt lat="44.68672317238887" lon="11.6704919629016"><ele>5.0</ele><time>2026-04-19T12:24:19Z</time></trkpt><trkpt lat="44.686631311242884" lon="11.67054468894774"><ele>5.2</ele><time>2026-04-19T12:24:20Z</time></trkpt><trkpt lat="44.68654959001914" lon="11.670592446694654"><ele>5.4</ele><time>2026-04-19T12:24:21Z</time></trkpt><trkpt lat="44.68647861514524" lon="11.670658762461672"><ele>5.6</ele><time>2026-04-19T12:24:22Z</time></trkpt><trkpt lat="44.686435826277176" lon="11.670766763670626"><ele>5.8</ele><time>2026-04-19T12:24:23Z</time></trkpt><trkpt lat="44.68643174848075" lon="11.670916347345493"><ele>6.0</ele><time>2026-04-19T12:24:24Z</time></trkpt><trkpt lat="44.686464175572944" lon="11.671081817512395"><ele>5.75</ele><time>2026-04-19T12:24:25Z</time></trkpt><trkpt lat="44.686510364991136" lon="11.6712530631198"><ele>5.5</ele><time>2026-04-19T12:24:26Z</time></trkpt><trkpt lat="44.686557246995" lon="11.671422912730648"><ele>5.25</ele><time>2026-04-19T12:24:27Z</time></trkpt><trkpt lat="44.68659684207125" lon="11.67159632253046"><ele>5.0</ele><time>2026-04-19T12:24:28.001Z</time></trkpt><trkpt lat="44.68664073815382" lon="11.671779343361193"><ele>4.5</ele><time>2026-04-19T12:24:29.001Z</time></trkpt><trkpt lat="44.68668552526373" lon="11.671971637763313"><ele>4.0</ele><time>2026-04-19T12:24:30.001Z</time></trkpt><trkpt lat="44.68673299907398" lon="11.67216493937179"><ele>3.5</ele><time>2026-04-19T12:24:31.001Z</time></trkpt><trkpt lat="44.68677831982496" lon="11.672358339827248"><ele>3.0</ele><time>2026-04-19T12:24:32.001Z</time></trkpt><trkpt lat="44.686823983846224" lon="11.672560099684087"><ele>3.0</ele><time>2026-04-19T12:24:33.001Z</time></trkpt><trkpt lat="44.68687392565206" lon="11.672770700014743"><ele>3.0</ele><time>2026-04-19T12:24:34.001Z</time></trkpt><trkpt lat="44.686924620999214" lon="11.672983555974751"><ele>3.0</ele><time>2026-04-19T12:24:35.001Z</time></trkpt><trkpt lat="44.68697427009122" lon="11.673199016766503"><ele>4.0</ele><time>2026-04-19T12:24:36.001Z</time></trkpt><trkpt lat="44.68701862871425" lon="11.673413633996628"><ele>5.0</ele><time>2026-04-19T12:24:37.001Z</time></trkpt><trkpt lat="44.68705933071435" lon="11.673632597469744"><ele>6.0</ele><time>2026-04-19T12:24:38.001Z</time></trkpt><trkpt lat="44.687094910637875" lon="11.673865993048224"><ele>6.0</ele><time>2026-04-19T12:24:39.001Z</time></trkpt><trkpt lat="44.68712694643666" lon="11.674107815567135"><ele>6.0</ele><time>2026-04-19T12:24:40.001Z</time></trkpt><trkpt lat="44.68715983950952" lon="11.674350061353412"><ele>6.0</ele><time>2026-04-19T12:24:41.001Z</time></trkpt><trkpt lat="44.6871958443609" lon="11.674595100496175"><ele>5.666666666666667</ele><time>2026-04-19T12:24:42.001Z</time></trkpt><trkpt lat="44.6872356298794" lon="11.674838724916535"><ele>5.333333333333334</ele><time>2026-04-19T12:24:43.001Z</time></trkpt><trkpt lat="44.68728023093118" lon="11.675089062333171"><ele>5.0</ele><time>2026-04-19T12:24:44.001Z</time></trkpt><trkpt lat="44.687322930754426" lon="11.675338951836476"><ele>4.666666666666667</ele><time>2026-04-19T12:24:45.001Z</time></trkpt><trkpt lat="44.68736483472073" lon="11.67559092167853"><ele>4.333333333333333</ele><time>2026-04-19T12:24:46.001Z</time></trkpt><trkpt lat="44.68740856647744" lon="11.675838287717497"><ele>4.0</ele><time>2026-04-19T12:24:47.001Z</time></trkpt><trkpt lat="44.68745511862647" lon="11.67608620803836"><ele>4.0</ele><time>2026-04-19T12:24:48.001Z</time></trkpt><trkpt lat="44.68750245802306" lon="11.676336558010448"><ele>4.0</ele><time>2026-04-19T12:24:49.001Z</time></trkpt><trkpt lat="44.68755095191519" lon="11.676592292943786"><ele>4.0</ele><time>2026-04-19T12:24:50.001Z</time></trkpt><trkpt lat="44.687601326680394" lon="11.676845883262432"><ele>4.333333333333333</ele><time>2026-04-19T12:24:51.001Z</time></trkpt><trkpt lat="44.687650719255615" lon="11.677098935934637"><ele>4.666666666666667</ele><time>2026-04-19T12:24:52.001Z</time></trkpt><trkpt lat="44.687703686430936" lon="11.677353463371237"><ele>5.0</ele><time>2026-04-19T12:24:53.001Z</time></trkpt><trkpt lat="44.687755134830496" lon="11.67760939975503"><ele>4.666666666666667</ele><time>2026-04-19T12:24:54.001Z</time></trkpt><trkpt lat="44.68780698463472" lon="11.677873245725829"><ele>4.333333333333333</ele><time>2026-04-19T12:24:55.001Z</time></trkpt><trkpt lat="44.68786185272279" lon="11.678145693598983"><ele>4.0</ele><time>2026-04-19T12:24:56.001Z</time></trkpt><trkpt lat="44.68791644216203" lon="11.678422711464833"><ele>4.0</ele><time>2026-04-19T12:24:57.001Z</time></trkpt><trkpt lat="44.68797306910402" lon="11.678704098624529"><ele>4.0</ele><time>2026-04-19T12:24:58.001Z</time></trkpt><trkpt lat="44.68802294944295" lon="11.678982685095784"><ele>4.0</ele><time>2026-04-19T12:24:59.001Z</time></trkpt><trkpt lat="44.68806958227308" lon="11.679264877756143"><ele>4.0</ele><time>2026-04-19T12:25:00.001Z</time></trkpt><trkpt lat="44.68812010463125" lon="11.679539187617557"><ele>4.0</ele><time>2026-04-19T12:25:01.001Z</time></trkpt><trkpt lat="44.68816913526481" lon="11.67981795858641"><ele>4.0</ele><time>2026-04-19T12:25:02.001Z</time></trkpt><trkpt lat="44.68821639949614" lon="11.680101721096907"><ele>4.0</ele><time>2026-04-19T12:25:03.001Z</time></trkpt><trkpt lat="44.688262442858246" lon="11.68038213215148"><ele>4.0</ele><time>2026-04-19T12:25:04.001Z</time></trkpt><trkpt lat="44.68830948962457" lon="11.68066316184986"><ele>4.0</ele><time>2026-04-19T12:25:05.001Z</time></trkpt><trkpt lat="44.68835645419609" lon="11.680935780297524"><ele>4.0</ele><time>2026-04-19T12:25:06.001Z</time></trkpt><trkpt lat="44.688402294189835" lon="11.681212965762738"><ele>4.0</ele><time>2026-04-19T12:25:07.001Z</time></trkpt><trkpt lat="44.688452829101436" lon="11.681495193712545"><ele>4.0</ele><time>2026-04-19T12:25:08.001Z</time></trkpt><trkpt lat="44.688502353810534" lon="11.681770285585575"><ele>4.0</ele><time>2026-04-19T12:25:09.001Z</time></trkpt><trkpt lat="44.68855593463777" lon="11.682040747340999"><ele>4.0</ele><time>2026-04-19T12:25:10.001Z</time></trkpt><trkpt lat="44.68861282066557" lon="11.682344825983094"><ele>4.0</ele><time>2026-04-19T12:25:11.001Z</time></trkpt><trkpt lat="44.68865234806393" lon="11.682621161525752"><ele>4.333333333333333</ele><time>2026-04-19T12:25:12.001Z</time></trkpt><trkpt lat="44.68871235009871" lon="11.682897139013294"><ele>4.666666666666667</ele><time>2026-04-19T12:25:13.001Z</time></trkpt><trkpt lat="44.68876514744634" lon="11.683175138349181"><ele>5.0</ele><time>2026-04-19T12:25:13.999Z</time></trkpt><trkpt lat="44.68881818847985" lon="11.683457013035342"><ele>5.0</ele><time>2026-04-19T12:25:14.999Z</time></trkpt><trkpt lat="44.68887213739701" lon="11.683741168576066"><ele>5.0</ele><time>2026-04-19T12:25:15.999Z</time></trkpt><trkpt lat="44.68892720833199" lon="11.684028206935402"><ele>5.0</ele><time>2026-04-19T12:25:16.999Z</time></trkpt><trkpt lat="44.68898131136458" lon="11.684317775729161"><ele>4.0</ele><time>2026-04-19T12:25:17.999Z</time></trkpt><trkpt lat="44.68903720242579" lon="11.684607124347817"><ele>3.0</ele><time>2026-04-19T12:25:18.999Z</time></trkpt><trkpt lat="44.689091848448314" lon="11.684888956275637"><ele>2.0</ele><time>2026-04-19T12:25:19.999Z</time></trkpt><trkpt lat="44.68914171543252" lon="11.685160471276088"><ele>1.6666666666666665</ele><time>2026-04-19T12:25:20.999Z</time></trkpt><trkpt lat="44.68919422878426" lon="11.685437314161021"><ele>1.3333333333333333</ele><time>2026-04-19T12:25:21.999Z</time></trkpt><trkpt lat="44.68924989819719" lon="11.685722449796138"><ele>1.0</ele><time>2026-04-19T12:25:22.999Z</time></trkpt><trkpt lat="44.6892965462482" lon="11.68599650169892"><ele>1.3333333333333333</ele><time>2026-04-19T12:25:23.999Z</time></trkpt><trkpt lat="44.689345283539865" lon="11.686270626682264"><ele>1.6666666666666665</ele><time>2026-04-19T12:25:24.999Z</time></trkpt><trkpt lat="44.689393609022574" lon="11.686544064704044"><ele>2.0</ele><time>2026-04-19T12:25:25.999Z</time></trkpt><trkpt lat="44.68944257891811" lon="11.686812616394212"><ele>2.6666666666666665</ele><time>2026-04-19T12:25:26.999Z</time></trkpt><trkpt lat="44.68949671529143" lon="11.687086219758573"><ele>3.333333333333333</ele><time>2026-04-19T12:25:27.999Z</time></trkpt><trkpt lat="44.68954710632513" lon="11.687355475016025"><ele>4.0</ele><time>2026-04-19T12:25:28.999Z</time></trkpt><trkpt lat="44.68959734505592" lon="11.68762561390472"><ele>3.6666666666666665</ele><time>2026-04-19T12:25:29.999Z</time></trkpt><trkpt lat="44.68964514842182" lon="11.687889572400502"><ele>3.333333333333333</ele><time>2026-04-19T12:25:30.999Z</time></trkpt><trkpt lat="44.68969880690741" lon="11.688154986770275"><ele>3.0</ele><time>2026-04-19T12:25:31.999Z</time></trkpt><trkpt lat="44.68974858163201" lon="11.688411442741527"><ele>3.0</ele><time>2026-04-19T12:25:32.999Z</time></trkpt><trkpt lat="44.689794513970725" lon="11.688657872292806"><ele>3.0</ele><time>2026-04-19T12:25:33.999Z</time></trkpt><trkpt lat="44.689835562042674" lon="11.688883262796171"><ele>3.0</ele><time>2026-04-19T12:25:34.999Z</time></trkpt><trkpt lat="44.68987805495884" lon="11.68910010795144"><ele>3.0</ele><time>2026-04-19T12:25:35.999Z</time></trkpt><trkpt lat="44.689922298082095" lon="11.689332215052316"><ele>3.0</ele><time>2026-04-19T12:25:36.999Z</time></trkpt><trkpt lat="44.68996683671755" lon="11.689550824512683"><ele>3.0</ele><time>2026-04-19T12:25:38Z</time></trkpt><trkpt lat="44.69001706239817" lon="11.689762750521163"><ele>3.5</ele><time>2026-04-19T12:25:39Z</time></trkpt><trkpt lat="44.69005608157656" lon="11.689956974638177"><ele>4.0</ele><time>2026-04-19T12:25:40Z</time></trkpt><trkpt lat="44.69008944747707" lon="11.69013305652616"><ele>4.5</ele><time>2026-04-19T12:25:41Z</time></trkpt><trkpt lat="44.69012190099146" lon="11.69028933361005"><ele>5.0</ele><time>2026-04-19T12:25:42Z</time></trkpt><trkpt lat="44.69017201547115" lon="11.690438448982981"><ele>5.0</ele><time>2026-04-19T12:25:43Z</time></trkpt><trkpt lat="44.69021698642545" lon="11.690579007816813"><ele>5.0</ele><time>2026-04-19T12:25:44Z</time></trkpt><trkpt lat="44.69025779473649" lon="11.690712238267977"><ele>5.0</ele><time>2026-04-19T12:25:45Z</time></trkpt><trkpt lat="44.6903028413546" lon="11.690835017558166"><ele>5.0</ele><time>2026-04-19T12:25:46Z</time></trkpt><trkpt lat="44.690338976929375" lon="11.690950142598167"><ele>5.0</ele><time>2026-04-19T12:25:47Z</time></trkpt><trkpt lat="44.690370984425975" lon="11.691051001442824"><ele>5.0</ele><time>2026-04-19T12:25:48Z</time></trkpt><trkpt lat="44.690400719691176" lon="11.691145662151445"><ele>5.0</ele><time>2026-04-19T12:25:49Z</time></trkpt><trkpt lat="44.690432879549896" lon="11.691229176275758"><ele>5.0</ele><time>2026-04-19T12:25:50Z</time></trkpt><trkpt lat="44.69046137862233" lon="11.691352937651049"><ele>5.0</ele><time>2026-04-19T12:25:52Z</time></trkpt><trkpt lat="44.69052708105053" lon="11.69143210541554"><ele>5.0</ele><time>2026-04-19T12:26:00Z</time></trkpt><trkpt lat="44.69064686611835" lon="11.691377727989936"><ele>5.0</ele><time>2026-04-19T12:26:02Z</time></trkpt><trkpt lat="44.69071320493929" lon="11.691309429303264"><ele>5.0</ele><time>2026-04-19T12:26:03Z</time></trkpt><trkpt lat="44.690788539912305" lon="11.691240685413696"><ele>5.0</ele><time>2026-04-19T12:26:04Z</time></trkpt><trkpt lat="44.69087597075441" lon="11.6911671380742"><ele>5.0</ele><time>2026-04-19T12:26:05Z</time></trkpt><trkpt lat="44.69096766645953" lon="11.691094239397197"><ele>5.0</ele><time>2026-04-19T12:26:06Z</time></trkpt><trkpt lat="44.69107576553382" lon="11.69101417452511"><ele>5.0</ele><time>2026-04-19T12:26:07Z</time></trkpt><trkpt lat="44.69119821116596" lon="11.690945843150972"><ele>5.0</ele><time>2026-04-19T12:26:08Z</time></trkpt><trkpt lat="44.69132935563697" lon="11.69089804965373"><ele>5.0</ele><time>2026-04-19T12:26:09.001Z</time></trkpt><trkpt lat="44.691464051858" lon="11.690856663513479"><ele>5.0</ele><time>2026-04-19T12:26:10.001Z</time></trkpt><trkpt lat="44.69160604035766" lon="11.69081227065435"><ele>5.0</ele><time>2026-04-19T12:26:11.001Z</time></trkpt><trkpt lat="44.69174667401981" lon="11.690768997020719"><ele>5.0</ele><time>2026-04-19T12:26:12.001Z</time></trkpt><trkpt lat="44.69190046372218" lon="11.690734715105966"><ele>5.0</ele><time>2026-04-19T12:26:13.001Z</time></trkpt><trkpt lat="44.69206349256584" lon="11.69069996451445"><ele>5.0</ele><time>2026-04-19T12:26:14.001Z</time></trkpt><trkpt lat="44.692230730507035" lon="11.690668001482027"><ele>5.0</ele><time>2026-04-19T12:26:15.001Z</time></trkpt><trkpt lat="44.69240205190492" lon="11.690640476271161"><ele>5.0</ele><time>2026-04-19T12:26:16.001Z</time></trkpt><trkpt lat="44.69258166720433" lon="11.690611066865817"><ele>5.0</ele><time>2026-04-19T12:26:17.001Z</time></trkpt><trkpt lat="44.692761791590684" lon="11.69058469765492"><ele>5.0</ele><time>2026-04-19T12:26:18.001Z</time></trkpt><trkpt lat="44.69293810267562" lon="11.690566323380718"><ele>5.0</ele><time>2026-04-19T12:26:19.001Z</time></trkpt><trkpt lat="44.693117138765984" lon="11.690562745340312"><ele>5.0</ele><time>2026-04-19T12:26:20.001Z</time></trkpt><trkpt lat="44.693298706031065" lon="11.690569733975208"><ele>5.0</ele><time>2026-04-19T12:26:21.001Z</time></trkpt><trkpt lat="44.69348438625812" lon="11.690597780598582"><ele>5.0</ele><time>2026-04-19T12:26:22.001Z</time></trkpt><trkpt lat="44.693667047735815" lon="11.690640625274757"><ele>5.0</ele><time>2026-04-19T12:26:23.001Z</time></trkpt><trkpt lat="44.693857594011114" lon="11.69069113323358"><ele>4.666666666666667</ele><time>2026-04-19T12:26:24.001Z</time></trkpt><trkpt lat="44.694040926809976" lon="11.690729588657453"><ele>4.333333333333333</ele><time>2026-04-19T12:26:25.001Z</time></trkpt><trkpt lat="44.694223955110225" lon="11.690770168039842"><ele>4.0</ele><time>2026-04-19T12:26:26.001Z</time></trkpt><trkpt lat="44.694413648704185" lon="11.690819024990029"><ele>4.0</ele><time>2026-04-19T12:26:27.001Z</time></trkpt><trkpt lat="44.69460452358992" lon="11.690867312283455"><ele>4.0</ele><time>2026-04-19T12:26:28.001Z</time></trkpt><trkpt lat="44.69479763698357" lon="11.690917431264689"><ele>4.0</ele><time>2026-04-19T12:26:29.001Z</time></trkpt><trkpt lat="44.69499614441744" lon="11.690963399317251"><ele>4.0</ele><time>2026-04-19T12:26:30.001Z</time></trkpt><trkpt lat="44.69519493301249" lon="11.691007656750815"><ele>4.0</ele><time>2026-04-19T12:26:31.001Z</time></trkpt><trkpt lat="44.69538964005217" lon="11.691056074967706"><ele>4.0</ele><time>2026-04-19T12:26:32.001Z</time></trkpt><trkpt lat="44.695584515642686" lon="11.691105269513864"><ele>3.6666666666666665</ele><time>2026-04-19T12:26:33.001Z</time></trkpt><trkpt lat="44.69577654904802" lon="11.691153891698725"><ele>3.333333333333333</ele><time>2026-04-19T12:26:34.001Z</time></trkpt><trkpt lat="44.69595781161198" lon="11.691213436199076"><ele>3.0</ele><time>2026-04-19T12:26:35.001Z</time></trkpt><trkpt lat="44.69612610525624" lon="11.691276215290877"><ele>3.5</ele><time>2026-04-19T12:26:36.001Z</time></trkpt><trkpt lat="44.69628008818513" lon="11.691342572955513"><ele>4.0</ele><time>2026-04-19T12:26:37.001Z</time></trkpt><trkpt lat="44.696406884005384" lon="11.691395178961502"><ele>4.5</ele><time>2026-04-19T12:26:38.001Z</time></trkpt><trkpt lat="44.69652265016838" lon="11.691445748600767"><ele>5.0</ele><time>2026-04-19T12:26:39.001Z</time></trkpt><trkpt lat="44.6966493856212" lon="11.691502436198208"><ele>5.0</ele><time>2026-04-19T12:26:40.001Z</time></trkpt><trkpt lat="44.69678973429471" lon="11.69156714507811"><ele>5.0</ele><time>2026-04-19T12:26:41.001Z</time></trkpt><trkpt lat="44.696937042015364" lon="11.69162822565989"><ele>5.0</ele><time>2026-04-19T12:26:42.001Z</time></trkpt><trkpt lat="44.697087051726285" lon="11.69169146954979"><ele>4.666666666666667</ele><time>2026-04-19T12:26:43.001Z</time></trkpt><trkpt lat="44.69723255971005" lon="11.691766077926097"><ele>4.333333333333333</ele><time>2026-04-19T12:26:44.001Z</time></trkpt><trkpt lat="44.69738439708016" lon="11.691847706676391"><ele>4.0</ele><time>2026-04-19T12:26:45.001Z</time></trkpt><trkpt lat="44.697539751067744" lon="11.6919361171338"><ele>4.0</ele><time>2026-04-19T12:26:46.001Z</time></trkpt><trkpt lat="44.6976951017414" lon="11.692023128991128"><ele>4.0</ele><time>2026-04-19T12:26:47.001Z</time></trkpt><trkpt lat="44.69785132001428" lon="11.692119701653088"><ele>4.0</ele><time>2026-04-19T12:26:48.001Z</time></trkpt><trkpt lat="44.69800668276389" lon="11.692213545438962"><ele>4.333333333333333</ele><time>2026-04-19T12:26:49.002Z</time></trkpt><trkpt lat="44.69817109420445" lon="11.692303717098879"><ele>4.666666666666667</ele><time>2026-04-19T12:26:50.002Z</time></trkpt><trkpt lat="44.69833274785459" lon="11.692399136884058"><ele>5.0</ele><time>2026-04-19T12:26:51.002Z</time></trkpt><trkpt lat="44.69849150430357" lon="11.692497321213313"><ele>4.666666666666667</ele><time>2026-04-19T12:26:52.002Z</time></trkpt><trkpt lat="44.698654562013225" lon="11.692593574231282"><ele>4.333333333333333</ele><time>2026-04-19T12:26:53.002Z</time></trkpt><trkpt lat="44.69881852023644" lon="11.692693872609167"><ele>4.0</ele><time>2026-04-19T12:26:54.002Z</time></trkpt><trkpt lat="44.69897385644536" lon="11.692802021814188"><ele>4.0</ele><time>2026-04-19T12:26:55.002Z</time></trkpt><trkpt lat="44.6991243508473" lon="11.692927912593236"><ele>4.0</ele><time>2026-04-19T12:26:56.002Z</time></trkpt><trkpt lat="44.699272297522036" lon="11.693088381532716"><ele>4.0</ele><time>2026-04-19T12:26:57.002Z</time></trkpt><trkpt lat="44.69940766136945" lon="11.693275807043905"><ele>4.666666666666666</ele><time>2026-04-19T12:26:58.002Z</time></trkpt><trkpt lat="44.699535085805046" lon="11.693474969099295"><ele>5.333333333333333</ele><time>2026-04-19T12:26:59.002Z</time></trkpt><trkpt lat="44.69965957601314" lon="11.693687070918573"><ele>6.0</ele><time>2026-04-19T12:27:00.002Z</time></trkpt><trkpt lat="44.69977788278091" lon="11.693894785886421"><ele>6.0</ele><time>2026-04-19T12:27:01.002Z</time></trkpt><trkpt lat="44.69989592521938" lon="11.694107085232801"><ele>6.0</ele><time>2026-04-19T12:27:02.002Z</time></trkpt><trkpt lat="44.70001297994881" lon="11.694321341736854"><ele>6.0</ele><time>2026-04-19T12:27:03.002Z</time></trkpt><trkpt lat="44.7001298876505" lon="11.69453462584183"><ele>5.666666666666667</ele><time>2026-04-19T12:27:04.002Z</time></trkpt><trkpt lat="44.700240695868544" lon="11.69474706042106"><ele>5.333333333333334</ele><time>2026-04-19T12:27:05.002Z</time></trkpt><trkpt lat="44.70035423028583" lon="11.694963216731873"><ele>5.0</ele><time>2026-04-19T12:27:06.002Z</time></trkpt><trkpt lat="44.7004657826985" lon="11.695178951337958"><ele>4.666666666666667</ele><time>2026-04-19T12:27:07.002Z</time></trkpt><trkpt lat="44.70057768078424" lon="11.695397724482016"><ele>4.333333333333333</ele><time>2026-04-19T12:27:08.002Z</time></trkpt><trkpt lat="44.70068417958643" lon="11.695613174638767"><ele>4.0</ele><time>2026-04-19T12:27:09.002Z</time></trkpt><trkpt lat="44.70079064316921" lon="11.695834572195666"><ele>4.0</ele><time>2026-04-19T12:27:10.002Z</time></trkpt><trkpt lat="44.700891234528996" lon="11.696058593625214"><ele>4.0</ele><time>2026-04-19T12:27:11.002Z</time></trkpt><trkpt lat="44.70098886923992" lon="11.696286270279542"><ele>4.0</ele><time>2026-04-19T12:27:12.002Z</time></trkpt><trkpt lat="44.70108146536358" lon="11.696515424710869"><ele>4.0</ele><time>2026-04-19T12:27:13.002Z</time></trkpt><trkpt lat="44.701172492604776" lon="11.696746357292906"><ele>4.0</ele><time>2026-04-19T12:27:14.002Z</time></trkpt><trkpt lat="44.70125940770648" lon="11.696977011281604"><ele>4.0</ele><time>2026-04-19T12:27:15.002Z</time></trkpt><trkpt lat="44.70135039875888" lon="11.697218218967869"><ele>4.0</ele><time>2026-04-19T12:27:16.002Z</time></trkpt><trkpt lat="44.701438065152026" lon="11.697461688961287"><ele>4.0</ele><time>2026-04-19T12:27:17.002Z</time></trkpt><trkpt lat="44.70151985661575" lon="11.697711412510563"><ele>4.0</ele><time>2026-04-19T12:27:18.002Z</time></trkpt><trkpt lat="44.70160208994864" lon="11.697974881699107"><ele>4.0</ele><time>2026-04-19T12:27:19.002Z</time></trkpt><trkpt lat="44.701678704033924" lon="11.698234105115276"><ele>4.0</ele><time>2026-04-19T12:27:20Z</time></trkpt><trkpt lat="44.70175885882818" lon="11.698501313443984"><ele>4.0</ele><time>2026-04-19T12:27:21Z</time></trkpt><trkpt lat="44.70184049878949" lon="11.698769497090039"><ele>4.333333333333333</ele><time>2026-04-19T12:27:22Z</time></trkpt><trkpt lat="44.70192147757006" lon="11.699039596875958"><ele>4.666666666666667</ele><time>2026-04-19T12:27:23Z</time></trkpt><trkpt lat="44.70199920416778" lon="11.699314597650796"><ele>5.0</ele><time>2026-04-19T12:27:24Z</time></trkpt><trkpt lat="44.702072728744625" lon="11.699592546183275"><ele>5.0</ele><time>2026-04-19T12:27:25Z</time></trkpt><trkpt lat="44.7021352246787" lon="11.699859992926662"><ele>5.0</ele><time>2026-04-19T12:27:26Z</time></trkpt><trkpt lat="44.70219427685849" lon="11.700129835918696"><ele>5.0</ele><time>2026-04-19T12:27:27Z</time></trkpt><trkpt lat="44.7022529067997" lon="11.700398167464895"><ele>4.666666666666667</ele><time>2026-04-19T12:27:28Z</time></trkpt><trkpt lat="44.70230395928525" lon="11.70066395046061"><ele>4.333333333333333</ele><time>2026-04-19T12:27:29Z</time></trkpt><trkpt lat="44.70236592883488" lon="11.700929911759212"><ele>4.0</ele><time>2026-04-19T12:27:30Z</time></trkpt><trkpt lat="44.70243850808924" lon="11.70118641806273"><ele>3.0</ele><time>2026-04-19T12:27:31Z</time></trkpt><trkpt lat="44.7025154645773" lon="11.701445041590812"><ele>2.0</ele><time>2026-04-19T12:27:32Z</time></trkpt><trkpt lat="44.70259340057768" lon="11.701700477820664"><ele>1.0</ele><time>2026-04-19T12:27:33Z</time></trkpt><trkpt lat="44.70266807736596" lon="11.70195382014645"><ele>0.6666666666666666</ele><time>2026-04-19T12:27:34Z</time></trkpt><trkpt lat="44.70273986982176" lon="11.70220893761483"><ele>0.3333333333333333</ele><time>2026-04-19T12:27:35Z</time></trkpt><trkpt lat="44.70280940341336" lon="11.702463366081542"><ele>0.0</ele><time>2026-04-19T12:27:36Z</time></trkpt><trkpt lat="44.70288090476524" lon="11.702713788366914"><ele>1.0</ele><time>2026-04-19T12:27:37Z</time></trkpt><trkpt lat="44.702969664049185" lon="11.702959202548964"><ele>2.0</ele><time>2026-04-19T12:27:38Z</time></trkpt><trkpt lat="44.70306439233372" lon="11.70320182886766"><ele>3.0</ele><time>2026-04-19T12:27:39Z</time></trkpt><trkpt lat="44.70316259968307" lon="11.703441726130308"><ele>2.3333333333333335</ele><time>2026-04-19T12:27:40Z</time></trkpt><trkpt lat="44.703259143116085" lon="11.703666542430978"><ele>1.6666666666666665</ele><time>2026-04-19T12:27:41Z</time></trkpt><trkpt lat="44.703361154947004" lon="11.703898087566126"><ele>1.0</ele><time>2026-04-19T12:27:42Z</time></trkpt><trkpt lat="44.703469753624404" lon="11.704109485245777"><ele>1.6666666666666665</ele><time>2026-04-19T12:27:43Z</time></trkpt><trkpt lat="44.703600707864496" lon="11.704309570545389"><ele>2.3333333333333335</ele><time>2026-04-19T12:27:44Z</time></trkpt><trkpt lat="44.70374111430366" lon="11.70449042598519"><ele>3.0</ele><time>2026-04-19T12:27:45Z</time></trkpt><trkpt lat="44.70388708223737" lon="11.704674201727322"><ele>3.666666666666667</ele><time>2026-04-19T12:27:46Z</time></trkpt><trkpt lat="44.70402415209448" lon="11.70483637271304"><ele>4.333333333333334</ele><time>2026-04-19T12:27:47Z</time></trkpt><trkpt lat="44.70414828727474" lon="11.70498751967886"><ele>5.0</ele><time>2026-04-19T12:27:48Z</time></trkpt><trkpt lat="44.704268182481854" lon="11.705134185023896"><ele>5.0</ele><time>2026-04-19T12:27:49Z</time></trkpt><trkpt lat="44.70439107282072" lon="11.705271543006274"><ele>5.0</ele><time>2026-04-19T12:27:50Z</time></trkpt><trkpt lat="44.70451533114502" lon="11.70541258321508"><ele>5.0</ele><time>2026-04-19T12:27:51Z</time></trkpt><trkpt lat="44.70462027884448" lon="11.705544043366094"><ele>5.0</ele><time>2026-04-19T12:27:52Z</time></trkpt><trkpt lat="44.70472036790962" lon="11.705667299385293"><ele>5.0</ele><time>2026-04-19T12:27:53Z</time></trkpt><trkpt lat="44.704818236043366" lon="11.705796054727648"><ele>5.0</ele><time>2026-04-19T12:27:54Z</time></trkpt><trkpt lat="44.70491443087004" lon="11.705922028964977"><ele>5.0</ele><time>2026-04-19T12:27:55Z</time></trkpt><trkpt lat="44.70500550609475" lon="11.70606039555154"><ele>5.0</ele><time>2026-04-19T12:27:56.001Z</time></trkpt><trkpt lat="44.70509855753956" lon="11.70618718213417"><ele>5.0</ele><time>2026-04-19T12:27:57.001Z</time></trkpt><trkpt lat="44.70518826569345" lon="11.70631842564702"><ele>5.0</ele><time>2026-04-19T12:27:58.001Z</time></trkpt><trkpt lat="44.70528635373582" lon="11.706455009787517"><ele>5.0</ele><time>2026-04-19T12:27:59.001Z</time></trkpt><trkpt lat="44.70538531455564" lon="11.70658472079526"><ele>5.0</ele><time>2026-04-19T12:28:00.001Z</time></trkpt><trkpt lat="44.70547972734623" lon="11.706716643756135"><ele>5.0</ele><time>2026-04-19T12:28:01.001Z</time></trkpt><trkpt lat="44.705571488082676" lon="11.706850951765551"><ele>5.0</ele><time>2026-04-19T12:28:02.001Z</time></trkpt><trkpt lat="44.70566309268626" lon="11.70698233649922"><ele>5.0</ele><time>2026-04-19T12:28:03.001Z</time></trkpt><trkpt lat="44.70575403284525" lon="11.707105339440318"><ele>5.25</ele><time>2026-04-19T12:28:04.001Z</time></trkpt><trkpt lat="44.70583414890466" lon="11.707223350001986"><ele>5.5</ele><time>2026-04-19T12:28:05.001Z</time></trkpt><trkpt lat="44.70591508725912" lon="11.707334686797756"><ele>5.75</ele><time>2026-04-19T12:28:06.001Z</time></trkpt><trkpt lat="44.705999830757456" lon="11.70744532027027"><ele>6.0</ele><time>2026-04-19T12:28:07.001Z</time></trkpt><trkpt lat="44.70608129159303" lon="11.707556595591546"><ele>6.0</ele><time>2026-04-19T12:28:08.001Z</time></trkpt><trkpt lat="44.70615103062321" lon="11.70765240882947"><ele>6.0</ele><time>2026-04-19T12:28:09.001Z</time></trkpt><trkpt lat="44.70621113123319" lon="11.707740157645633"><ele>6.0</ele><time>2026-04-19T12:28:10.001Z</time></trkpt><trkpt lat="44.706262282190806" lon="11.707815664505349"><ele>6.0</ele><time>2026-04-19T12:28:11.001Z</time></trkpt><trkpt lat="44.70633367064498" lon="11.707918218835493"><ele>6.0</ele><time>2026-04-19T12:28:13.001Z</time></trkpt><trkpt lat="44.70637161626805" lon="11.708000252462858"><ele>6.0</ele><time>2026-04-19T12:28:16.001Z</time></trkpt><trkpt lat="44.70641810721065" lon="11.708111598867474"><ele>6.0</ele><time>2026-04-19T12:28:18.001Z</time></trkpt><trkpt lat="44.70655127240176" lon="11.708076285199315"><ele>6.0</ele><time>2026-04-19T12:28:19.001Z</time></trkpt><trkpt lat="44.7066386090248" lon="11.708070671987382"><ele>6.0</ele><time>2026-04-19T12:28:20.001Z</time></trkpt><trkpt lat="44.70673915469897" lon="11.708059863348392"><ele>6.0</ele><time>2026-04-19T12:28:21.001Z</time></trkpt><trkpt lat="44.7068360809926" lon="11.708052479730915"><ele>6.0</ele><time>2026-04-19T12:28:22.001Z</time></trkpt><trkpt lat="44.70694823305576" lon="11.708039525338293"><ele>6.0</ele><time>2026-04-19T12:28:23.001Z</time></trkpt><trkpt lat="44.70705840707381" lon="11.708013915263189"><ele>6.0</ele><time>2026-04-19T12:28:24.001Z</time></trkpt><trkpt lat="44.70716428961643" lon="11.707977666568246"><ele>6.0</ele><time>2026-04-19T12:28:25.001Z</time></trkpt><trkpt lat="44.70727544742754" lon="11.707947951459204"><ele>6.0</ele><time>2026-04-19T12:28:26.001Z</time></trkpt><trkpt lat="44.70739187302271" lon="11.70792353786072"><ele>6.0</ele><time>2026-04-19T12:28:27.001Z</time></trkpt><trkpt lat="44.7075006339342" lon="11.707907537636679"><ele>6.0</ele><time>2026-04-19T12:28:28.001Z</time></trkpt><trkpt lat="44.70761239975805" lon="11.707894097755771"><ele>6.0</ele><time>2026-04-19T12:28:29.001Z</time></trkpt><trkpt lat="44.70772565930609" lon="11.70790157054748"><ele>6.0</ele><time>2026-04-19T12:28:30.001Z</time></trkpt><trkpt lat="44.707840141896675" lon="11.707913159479803"><ele>6.0</ele><time>2026-04-19T12:28:31.001Z</time></trkpt><trkpt lat="44.70797193075751" lon="11.707931561109804"><ele>6.0</ele><time>2026-04-19T12:28:32.001Z</time></trkpt><trkpt lat="44.70810532410347" lon="11.707949728693327"><ele>6.0</ele><time>2026-04-19T12:28:33.001Z</time></trkpt><trkpt lat="44.708233324860124" lon="11.707968471236429"><ele>6.0</ele><time>2026-04-19T12:28:34.001Z</time></trkpt><trkpt lat="44.70836778404464" lon="11.707983028843199"><ele>6.0</ele><time>2026-04-19T12:28:35.002Z</time></trkpt><trkpt lat="44.70850070901944" lon="11.708003420715333"><ele>6.0</ele><time>2026-04-19T12:28:36.002Z</time></trkpt><trkpt lat="44.70863379846954" lon="11.70802386297202"><ele>6.0</ele><time>2026-04-19T12:28:37.002Z</time></trkpt><trkpt lat="44.70877214174998" lon="11.708069607824736"><ele>6.0</ele><time>2026-04-19T12:28:38.002Z</time></trkpt><trkpt lat="44.70890856343828" lon="11.70808561248943"><ele>6.666666666666666</ele><time>2026-04-19T12:28:39.002Z</time></trkpt><trkpt lat="44.70904780410608" lon="11.70813043536545"><ele>7.333333333333333</ele><time>2026-04-19T12:28:40.002Z</time></trkpt><trkpt lat="44.709188294568506" lon="11.708169500280063"><ele>8.0</ele><time>2026-04-19T12:28:41.002Z</time></trkpt><trkpt lat="44.70935225913507" lon="11.708225286528865"><ele>7.333333333333333</ele><time>2026-04-19T12:28:42.002Z</time></trkpt><trkpt lat="44.70950413308039" lon="11.70825601843934"><ele>6.666666666666666</ele><time>2026-04-19T12:28:43.002Z</time></trkpt><trkpt lat="44.709662132518446" lon="11.70827735639046"><ele>6.0</ele><time>2026-04-19T12:28:44.002Z</time></trkpt><trkpt lat="44.709810645314114" lon="11.708292471395051"><ele>6.0</ele><time>2026-04-19T12:28:45.002Z</time></trkpt><trkpt lat="44.709956789467284" lon="11.708311507042309"><ele>6.0</ele><time>2026-04-19T12:28:46.002Z</time></trkpt><trkpt lat="44.710098555393" lon="11.708326204742091"><ele>6.0</ele><time>2026-04-19T12:28:47.002Z</time></trkpt><trkpt lat="44.71024509464476" lon="11.708343786139528"><ele>6.0</ele><time>2026-04-19T12:28:48.002Z</time></trkpt><trkpt lat="44.71039700046377" lon="11.70835928027891"><ele>6.0</ele><time>2026-04-19T12:28:49.002Z</time></trkpt><trkpt lat="44.71053792206577" lon="11.708390691168384"><ele>6.0</ele><time>2026-04-19T12:28:50.002Z</time></trkpt><trkpt lat="44.71068983827927" lon="11.70840314718114"><ele>6.0</ele><time>2026-04-19T12:28:51.002Z</time></trkpt><trkpt lat="44.7108387401357" lon="11.708421264461904"><ele>6.0</ele><time>2026-04-19T12:28:52.002Z</time></trkpt><trkpt lat="44.710985657208504" lon="11.7084439660415"><ele>5.333333333333333</ele><time>2026-04-19T12:28:53.002Z</time></trkpt><trkpt lat="44.711137919022626" lon="11.708463239274264"><ele>4.666666666666666</ele><time>2026-04-19T12:28:54.002Z</time></trkpt><trkpt lat="44.7112952851541" lon="11.708477827951599"><ele>4.0</ele><time>2026-04-19T12:28:55.002Z</time></trkpt><trkpt lat="44.71146336237264" lon="11.708493303769524"><ele>4.0</ele><time>2026-04-19T12:28:56.002Z</time></trkpt><trkpt lat="44.71161860243765" lon="11.7085101463394"><ele>4.0</ele><time>2026-04-19T12:28:57.002Z</time></trkpt><trkpt lat="44.71178094288586" lon="11.708532439869275"><ele>4.0</ele><time>2026-04-19T12:28:58.002Z</time></trkpt><trkpt lat="44.71194993799329" lon="11.708558872574972"><ele>3.333333333333333</ele><time>2026-04-19T12:28:59.002Z</time></trkpt><trkpt lat="44.71212290303644" lon="11.708593697015182"><ele>2.6666666666666665</ele><time>2026-04-19T12:29:00.002Z</time></trkpt><trkpt lat="44.712297515058594" lon="11.708647438547208"><ele>2.0</ele><time>2026-04-19T12:29:01.002Z</time></trkpt><trkpt lat="44.712460816481425" lon="11.708732471299772"><ele>2.0</ele><time>2026-04-19T12:29:02.002Z</time></trkpt><trkpt lat="44.71262656429917" lon="11.708802733839056"><ele>2.0</ele><time>2026-04-19T12:29:03.002Z</time></trkpt><trkpt lat="44.712797497790746" lon="11.708860985359077"><ele>2.0</ele><time>2026-04-19T12:29:04.002Z</time></trkpt><trkpt lat="44.71296075836678" lon="11.708937568345211"><ele>2.333333333333333</ele><time>2026-04-19T12:29:05.002Z</time></trkpt><trkpt lat="44.71312662520937" lon="11.709011336344194"><ele>2.6666666666666665</ele><time>2026-04-19T12:29:06.002Z</time></trkpt><trkpt lat="44.713283436591794" lon="11.709088946585483"><ele>3.0</ele><time>2026-04-19T12:29:07.002Z</time></trkpt><trkpt lat="44.71344933074628" lon="11.709159856577697"><ele>3.333333333333333</ele><time>2026-04-19T12:29:08.002Z</time></trkpt><trkpt lat="44.71360811098158" lon="11.709228344398356"><ele>3.6666666666666665</ele><time>2026-04-19T12:29:09.002Z</time></trkpt><trkpt lat="44.713766670089996" lon="11.709297820767357"><ele>4.0</ele><time>2026-04-19T12:29:10.002Z</time></trkpt><trkpt lat="44.71392132115139" lon="11.709349069077922"><ele>4.0</ele><time>2026-04-19T12:29:11.002Z</time></trkpt><trkpt lat="44.71407230812244" lon="11.709381565477226"><ele>4.0</ele><time>2026-04-19T12:29:12.002Z</time></trkpt><trkpt lat="44.714220873921604" lon="11.709395197459047"><ele>4.0</ele><time>2026-04-19T12:29:13.002Z</time></trkpt><trkpt lat="44.71437343150612" lon="11.709381656212553"><ele>3.6666666666666665</ele><time>2026-04-19T12:29:14.002Z</time></trkpt><trkpt lat="44.7145263859303" lon="11.709343375654111"><ele>3.333333333333333</ele><time>2026-04-19T12:29:15.003Z</time></trkpt><trkpt lat="44.71467859582893" lon="11.709283918214162"><ele>3.0</ele><time>2026-04-19T12:29:16.003Z</time></trkpt><trkpt lat="44.7148211697819" lon="11.709207560804332"><ele>3.0</ele><time>2026-04-19T12:29:17.003Z</time></trkpt><trkpt lat="44.71497076199263" lon="11.709118107859208"><ele>3.0</ele><time>2026-04-19T12:29:18.003Z</time></trkpt><trkpt lat="44.71511733996338" lon="11.709026484987437"><ele>3.0</ele><time>2026-04-19T12:29:19.003Z</time></trkpt><trkpt lat="44.715240851565696" lon="11.708933402352686"><ele>3.0</ele><time>2026-04-19T12:29:20.003Z</time></trkpt><trkpt lat="44.71535494225331" lon="11.708846367763778"><ele>3.0</ele><time>2026-04-19T12:29:21.003Z</time></trkpt><trkpt lat="44.71545962972922" lon="11.70876530586316"><ele>3.0</ele><time>2026-04-19T12:29:22.003Z</time></trkpt><trkpt lat="44.715553237557174" lon="11.708688894110777"><ele>3.0</ele><time>2026-04-19T12:29:23.003Z</time></trkpt><trkpt lat="44.71564423761693" lon="11.708611371915064"><ele>3.1666666666666665</ele><time>2026-04-19T12:29:24.003Z</time></trkpt><trkpt lat="44.715729310386415" lon="11.70854375980383"><ele>3.333333333333333</ele><time>2026-04-19T12:29:25.003Z</time></trkpt><trkpt lat="44.71580284559423" lon="11.708485811856594"><ele>3.5</ele><time>2026-04-19T12:29:26.001Z</time></trkpt><trkpt lat="44.71587390942305" lon="11.708435275615953"><ele>3.6666666666666665</ele><time>2026-04-19T12:29:27.001Z</time></trkpt><trkpt lat="44.71593656334941" lon="11.70836758643212"><ele>3.833333333333333</ele><time>2026-04-19T12:29:28.001Z</time></trkpt><trkpt lat="44.715993799089425" lon="11.708307896475954"><ele>4.0</ele><time>2026-04-19T12:29:29.001Z</time></trkpt><trkpt lat="44.71604928968832" lon="11.708243597856871"><ele>3.8000000000000003</ele><time>2026-04-19T12:29:30.001Z</time></trkpt><trkpt lat="44.71609615006832" lon="11.708180163250027"><ele>3.6000000000000005</ele><time>2026-04-19T12:29:31.001Z</time></trkpt><trkpt lat="44.71614072109539" lon="11.708115506591176"><ele>3.4</ele><time>2026-04-19T12:29:32.001Z</time></trkpt><trkpt lat="44.71623051210475" lon="11.708073473792695"><ele>3.2</ele><time>2026-04-19T12:29:34.001Z</time></trkpt><trkpt lat="44.71632675905706" lon="11.708224634215322"><ele>3.0</ele><time>2026-04-19T12:29:36.001Z</time></trkpt><trkpt lat="44.716354543552725" lon="11.708356818126653"><ele>3.0</ele><time>2026-04-19T12:29:37.001Z</time></trkpt><trkpt lat="44.716379919808624" lon="11.708504188495352"><ele>3.0</ele><time>2026-04-19T12:29:38.001Z</time></trkpt><trkpt lat="44.716406658086434" lon="11.708642937234647"><ele>3.0</ele><time>2026-04-19T12:29:39.001Z</time></trkpt><trkpt lat="44.71643800849991" lon="11.70879719914088"><ele>3.0</ele><time>2026-04-19T12:29:40.001Z</time></trkpt><trkpt lat="44.71647140432653" lon="11.708971213281234"><ele>2.75</ele><time>2026-04-19T12:29:41.001Z</time></trkpt><trkpt lat="44.716507155825724" lon="11.709128863977819"><ele>2.5</ele><time>2026-04-19T12:29:42.001Z</time></trkpt><trkpt lat="44.716541219842476" lon="11.709289916889801"><ele>2.25</ele><time>2026-04-19T12:29:43.001Z</time></trkpt><trkpt lat="44.71657928245348" lon="11.709463171286211"><ele>2.0</ele><time>2026-04-19T12:29:44.001Z</time></trkpt><trkpt lat="44.71661604421701" lon="11.709639905521392"><ele>2.0</ele><time>2026-04-19T12:29:45.001Z</time></trkpt><trkpt lat="44.71665656337929" lon="11.709823652045937"><ele>2.0</ele><time>2026-04-19T12:29:46.001Z</time></trkpt><trkpt lat="44.71669961946669" lon="11.710002848765754"><ele>2.0</ele><time>2026-04-19T12:29:47.001Z</time></trkpt><trkpt lat="44.716744171620746" lon="11.710176725508694"><ele>2.0</ele><time>2026-04-19T12:29:48.001Z</time></trkpt><trkpt lat="44.71679670814483" lon="11.710339576566547"><ele>2.0</ele><time>2026-04-19T12:29:49.001Z</time></trkpt><trkpt lat="44.71688837335627" lon="11.710481780170566"><ele>2.0</ele><time>2026-04-19T12:29:50.001Z</time></trkpt><trkpt lat="44.71701210093943" lon="11.710597387355927"><ele>2.0</ele><time>2026-04-19T12:29:51.001Z</time></trkpt><trkpt lat="44.71715053783716" lon="11.710689353494724"><ele>2.0</ele><time>2026-04-19T12:29:52.001Z</time></trkpt><trkpt lat="44.71728655546878" lon="11.710784123173635"><ele>1.6666666666666665</ele><time>2026-04-19T12:29:53.001Z</time></trkpt><trkpt lat="44.717421470349485" lon="11.710890908365693"><ele>1.3333333333333333</ele><time>2026-04-19T12:29:54.001Z</time></trkpt><trkpt lat="44.717561769666915" lon="11.711005054860273"><ele>1.0</ele><time>2026-04-19T12:29:55.001Z</time></trkpt><trkpt lat="44.71771479968298" lon="11.711121506721947"><ele>0.6666666666666666</ele><time>2026-04-19T12:29:56.001Z</time></trkpt><trkpt lat="44.71786823599989" lon="11.711240141560992"><ele>0.3333333333333333</ele><time>2026-04-19T12:29:57.001Z</time></trkpt><trkpt lat="44.71801423430587" lon="11.71135613333261"><ele>0.0</ele><time>2026-04-19T12:29:58.001Z</time></trkpt><trkpt lat="44.71816811627427" lon="11.711476223586343"><ele>0.0</ele><time>2026-04-19T12:29:59.001Z</time></trkpt><trkpt lat="44.71832432732854" lon="11.711595904612096"><ele>0.0</ele><time>2026-04-19T12:30:00.001Z</time></trkpt><trkpt lat="44.71848417030352" lon="11.711719111239715"><ele>0.0</ele><time>2026-04-19T12:30:01.001Z</time></trkpt><trkpt lat="44.718643515129784" lon="11.711845031140966"><ele>0.0</ele><time>2026-04-19T12:30:02.001Z</time></trkpt><trkpt lat="44.71880416771897" lon="11.711973936858682"><ele>0.0</ele><time>2026-04-19T12:30:03.001Z</time></trkpt><trkpt lat="44.7189702809592" lon="11.712106086008031"><ele>0.0</ele><time>2026-04-19T12:30:04.001Z</time></trkpt><trkpt lat="44.71913993238794" lon="11.712239434364351"><ele>0.0</ele><time>2026-04-19T12:30:05.001Z</time></trkpt><trkpt lat="44.71931141148932" lon="11.712373243174763"><ele>0.0</ele><time>2026-04-19T12:30:06.001Z</time></trkpt><trkpt lat="44.71947630165659" lon="11.712502251325265"><ele>0.0</ele><time>2026-04-19T12:30:07.001Z</time></trkpt><trkpt lat="44.719639020167314" lon="11.712629717610445"><ele>0.6666666666666666</ele><time>2026-04-19T12:30:08.001Z</time></trkpt><trkpt lat="44.71980235480357" lon="11.71275756651635"><ele>1.3333333333333333</ele><time>2026-04-19T12:30:09.001Z</time></trkpt><trkpt lat="44.71996569077967" lon="11.712884062262646"><ele>2.0</ele><time>2026-04-19T12:30:10.001Z</time></trkpt><trkpt lat="44.72013011479568" lon="11.713012861320864"><ele>1.3333333333333333</ele><time>2026-04-19T12:30:11.001Z</time></trkpt><trkpt lat="44.720290101234184" lon="11.713142837202914"><ele>0.6666666666666666</ele><time>2026-04-19T12:30:12.001Z</time></trkpt><trkpt lat="44.72045249060375" lon="11.713268726094375"><ele>0.0</ele><time>2026-04-19T12:30:13.001Z</time></trkpt><trkpt lat="44.72061779259878" lon="11.713401534739813"><ele>0.0</ele><time>2026-04-19T12:30:14.001Z</time></trkpt><trkpt lat="44.72077945711538" lon="11.713530419957964"><ele>0.0</ele><time>2026-04-19T12:30:15.001Z</time></trkpt><trkpt lat="44.72094081372761" lon="11.713657212887115"><ele>0.0</ele><time>2026-04-19T12:30:16.001Z</time></trkpt><trkpt lat="44.72110615229559" lon="11.713784083611941"><ele>0.0</ele><time>2026-04-19T12:30:17.001Z</time></trkpt><trkpt lat="44.7212697885011" lon="11.713911902914301"><ele>0.0</ele><time>2026-04-19T12:30:18.001Z</time></trkpt><trkpt lat="44.72142996400105" lon="11.714040044678258"><ele>0.0</ele><time>2026-04-19T12:30:19.001Z</time></trkpt><trkpt lat="44.72158859804166" lon="11.714162819673916"><ele>0.0</ele><time>2026-04-19T12:30:20.001Z</time></trkpt><trkpt lat="44.7217490546403" lon="11.714287552106246"><ele>0.0</ele><time>2026-04-19T12:30:21.001Z</time></trkpt><trkpt lat="44.72190817986701" lon="11.714412913562759"><ele>0.0</ele><time>2026-04-19T12:30:22.001Z</time></trkpt><trkpt lat="44.72206972783238" lon="11.714538810340041"><ele>0.0</ele><time>2026-04-19T12:30:23.001Z</time></trkpt><trkpt lat="44.722228780408" lon="11.714661347270864"><ele>0.0</ele><time>2026-04-19T12:30:24.001Z</time></trkpt><trkpt lat="44.722392455928365" lon="11.714777675994684"><ele>0.0</ele><time>2026-04-19T12:30:25.001Z</time></trkpt><trkpt lat="44.7225626626639" lon="11.714865627372824"><ele>0.0</ele><time>2026-04-19T12:30:26.001Z</time></trkpt><trkpt lat="44.72274376433292" lon="11.714920737492243"><ele>0.0</ele><time>2026-04-19T12:30:27.001Z</time></trkpt><trkpt lat="44.72292447778753" lon="11.71496333068009"><ele>0.0</ele><time>2026-04-19T12:30:28.001Z</time></trkpt><trkpt lat="44.723106985353915" lon="11.715027770738025"><ele>0.0</ele><time>2026-04-19T12:30:29.001Z</time></trkpt><trkpt lat="44.723282430204854" lon="11.71507606599709"><ele>0.0</ele><time>2026-04-19T12:30:30.001Z</time></trkpt><trkpt lat="44.72346125966109" lon="11.71512805428088"><ele>0.0</ele><time>2026-04-19T12:30:31.002Z</time></trkpt><trkpt lat="44.72364580680222" lon="11.715178903417257"><ele>0.3333333333333333</ele><time>2026-04-19T12:30:32.002Z</time></trkpt><trkpt lat="44.72381619312554" lon="11.715223287848088"><ele>0.6666666666666666</ele><time>2026-04-19T12:30:33.002Z</time></trkpt><trkpt lat="44.72398774609467" lon="11.715267817972999"><ele>1.0</ele><time>2026-04-19T12:30:34.002Z</time></trkpt><trkpt lat="44.72415682643136" lon="11.71531301379369"><ele>1.0</ele><time>2026-04-19T12:30:35.002Z</time></trkpt><trkpt lat="44.724330449886615" lon="11.715358736090515"><ele>1.0</ele><time>2026-04-19T12:30:36.002Z</time></trkpt><trkpt lat="44.7245105825387" lon="11.71540647045291"><ele>1.0</ele><time>2026-04-19T12:30:37.002Z</time></trkpt><trkpt lat="44.72469999468825" lon="11.715458587932522"><ele>1.0</ele><time>2026-04-19T12:30:38.002Z</time></trkpt><trkpt lat="44.72489461755892" lon="11.715510408280547"><ele>1.0</ele><time>2026-04-19T12:30:39.002Z</time></trkpt><trkpt lat="44.72508685136633" lon="11.715561186812943"><ele>1.0</ele><time>2026-04-19T12:30:40.002Z</time></trkpt><trkpt lat="44.72528780625087" lon="11.715614611396417"><ele>1.0</ele><time>2026-04-19T12:30:41.002Z</time></trkpt><trkpt lat="44.72548775044184" lon="11.715665129949592"><ele>1.0</ele><time>2026-04-19T12:30:42.002Z</time></trkpt><trkpt lat="44.72569401247005" lon="11.715714607144951"><ele>1.0</ele><time>2026-04-19T12:30:43.002Z</time></trkpt><trkpt lat="44.725894952682786" lon="11.715762787532706"><ele>0.6666666666666666</ele><time>2026-04-19T12:30:44.002Z</time></trkpt><trkpt lat="44.7260909406003" lon="11.715813491132606"><ele>0.3333333333333333</ele><time>2026-04-19T12:30:45.002Z</time></trkpt><trkpt lat="44.72629134456999" lon="11.715866093636187"><ele>0.0</ele><time>2026-04-19T12:30:46.002Z</time></trkpt><trkpt lat="44.726486935336744" lon="11.71591518507508"><ele>0.0</ele><time>2026-04-19T12:30:47.002Z</time></trkpt><trkpt lat="44.726683235536136" lon="11.71596817458374"><ele>0.0</ele><time>2026-04-19T12:30:48.002Z</time></trkpt><trkpt lat="44.72687601120853" lon="11.71602227636604"><ele>0.0</ele><time>2026-04-19T12:30:49.002Z</time></trkpt><trkpt lat="44.7270748802128" lon="11.7160752633377"><ele>0.0</ele><time>2026-04-19T12:30:50.002Z</time></trkpt><trkpt lat="44.727270272714314" lon="11.716127186191121"><ele>0.0</ele><time>2026-04-19T12:30:51.002Z</time></trkpt><trkpt lat="44.72747070357615" lon="11.716178967708776"><ele>0.0</ele><time>2026-04-19T12:30:52.002Z</time></trkpt><trkpt lat="44.72766813101478" lon="11.716229919708788"><ele>0.3333333333333333</ele><time>2026-04-19T12:30:53.002Z</time></trkpt><trkpt lat="44.72786619379642" lon="11.716281626431789"><ele>0.6666666666666666</ele><time>2026-04-19T12:30:54.002Z</time></trkpt><trkpt lat="44.72806457779096" lon="11.716332536952013"><ele>1.0</ele><time>2026-04-19T12:30:55.002Z</time></trkpt><trkpt lat="44.72825691752072" lon="11.716384312898985"><ele>1.0</ele><time>2026-04-19T12:30:56.002Z</time></trkpt><trkpt lat="44.72845156758906" lon="11.716434344584153"><ele>1.0</ele><time>2026-04-19T12:30:57.002Z</time></trkpt><trkpt lat="44.728645777622695" lon="11.716482255077892"><ele>1.0</ele><time>2026-04-19T12:30:58.002Z</time></trkpt><trkpt lat="44.72883907367665" lon="11.716531348094934"><ele>1.0</ele><time>2026-04-19T12:30:59.002Z</time></trkpt><trkpt lat="44.729030209054045" lon="11.716581030230852"><ele>1.0</ele><time>2026-04-19T12:31:00.002Z</time></trkpt><trkpt lat="44.72921858380426" lon="11.71663403963145"><ele>1.0</ele><time>2026-04-19T12:31:01.002Z</time></trkpt><trkpt lat="44.72940647651226" lon="11.71668624786938"><ele>1.0</ele><time>2026-04-19T12:31:02.002Z</time></trkpt><trkpt lat="44.72959870231971" lon="11.716737099871278"><ele>1.0</ele><time>2026-04-19T12:31:03.002Z</time></trkpt><trkpt lat="44.72978139774979" lon="11.716784755813835"><ele>1.0</ele><time>2026-04-19T12:31:04.002Z</time></trkpt><trkpt lat="44.72995324503061" lon="11.716830066824677"><ele>1.0</ele><time>2026-04-19T12:31:05.002Z</time></trkpt><trkpt lat="44.7301127876745" lon="11.716873736258982"><ele>1.0</ele><time>2026-04-19T12:31:06.002Z</time></trkpt><trkpt lat="44.73026428183608" lon="11.716914949861867"><ele>1.0</ele><time>2026-04-19T12:31:07.002Z</time></trkpt><trkpt lat="44.730410834298986" lon="11.716958040415435"><ele>1.25</ele><time>2026-04-19T12:31:08.002Z</time></trkpt><trkpt lat="44.73054824609285" lon="11.716994751420795"><ele>1.5</ele><time>2026-04-19T12:31:09.002Z</time></trkpt><trkpt lat="44.73067465348858" lon="11.717026189739807"><ele>1.75</ele><time>2026-04-19T12:31:10.002Z</time></trkpt><trkpt lat="44.73079279524591" lon="11.717056868763214"><ele>2.0</ele><time>2026-04-19T12:31:11.002Z</time></trkpt><trkpt lat="44.730901042668236" lon="11.71708706159731"><ele>1.9999999999999998</ele><time>2026-04-19T12:31:12.002Z</time></trkpt><trkpt lat="44.7309971288999" lon="11.717110076186621"><ele>2.0</ele><time>2026-04-19T12:31:13.002Z</time></trkpt><trkpt lat="44.731088026283075" lon="11.71712921049771"><ele>2.0</ele><time>2026-04-19T12:31:14.003Z</time></trkpt><trkpt lat="44.731171905140236" lon="11.717143445062222"><ele>2.0</ele><time>2026-04-19T12:31:15.003Z</time></trkpt><trkpt lat="44.73123950728243" lon="11.717165684171539"><ele>1.9999999999999998</ele><time>2026-04-19T12:31:16.003Z</time></trkpt><trkpt lat="44.73128970328117" lon="11.717223319018968"><ele>2.0</ele><time>2026-04-19T12:31:17.003Z</time></trkpt><trkpt lat="44.73131587489154" lon="11.7173337032529"><ele>2.0</ele><time>2026-04-19T12:31:18.003Z</time></trkpt><trkpt lat="44.7312999966554" lon="11.717470521290227"><ele>2.0</ele><time>2026-04-19T12:31:19.003Z</time></trkpt><trkpt lat="44.73125211842995" lon="11.71760931432081"><ele>2.0</ele><time>2026-04-19T12:31:20.003Z</time></trkpt><trkpt lat="44.7312057883174" lon="11.717756985805153"><ele>2.0</ele><time>2026-04-19T12:31:21.003Z</time></trkpt><trkpt lat="44.73116491179476" lon="11.717911281347956"><ele>2.0</ele><time>2026-04-19T12:31:22.003Z</time></trkpt><trkpt lat="44.731124891985196" lon="11.718065702941644"><ele>2.0</ele><time>2026-04-19T12:31:23.003Z</time></trkpt><trkpt lat="44.731081448069496" lon="11.718228083551754"><ele>2.0</ele><time>2026-04-19T12:31:24.003Z</time></trkpt><trkpt lat="44.731038316525655" lon="11.718403866528217"><ele>2.0</ele><time>2026-04-19T12:31:25.003Z</time></trkpt><trkpt lat="44.73098278075596" lon="11.718574085354028"><ele>2.0</ele><time>2026-04-19T12:31:26.003Z</time></trkpt><trkpt lat="44.73092433052834" lon="11.718737014904764"><ele>2.0</ele><time>2026-04-19T12:31:27.003Z</time></trkpt><trkpt lat="44.730869311142804" lon="11.71890100808125"><ele>2.0</ele><time>2026-04-19T12:31:28.003Z</time></trkpt><trkpt lat="44.73081634064968" lon="11.719079652570837"><ele>2.0</ele><time>2026-04-19T12:31:29.003Z</time></trkpt><trkpt lat="44.73079331397693" lon="11.719270311523207"><ele>2.0</ele><time>2026-04-19T12:31:30.003Z</time></trkpt><trkpt lat="44.7307880767568" lon="11.719466167964804"><ele>2.0</ele><time>2026-04-19T12:31:31.003Z</time></trkpt><trkpt lat="44.73077510504971" lon="11.719656808872347"><ele>2.0</ele><time>2026-04-19T12:31:32.001Z</time></trkpt><trkpt lat="44.7307512168033" lon="11.719851343166221"><ele>2.0</ele><time>2026-04-19T12:31:33.001Z</time></trkpt><trkpt lat="44.730718466697304" lon="11.720049278053489"><ele>2.0</ele><time>2026-04-19T12:31:34.001Z</time></trkpt><trkpt lat="44.73068403235198" lon="11.720245483014667"><ele>1.75</ele><time>2026-04-19T12:31:35.001Z</time></trkpt><trkpt lat="44.73064548622711" lon="11.720443322694832"><ele>1.5</ele><time>2026-04-19T12:31:36.001Z</time></trkpt><trkpt lat="44.730613660702836" lon="11.720644169340376"><ele>1.25</ele><time>2026-04-19T12:31:37.001Z</time></trkpt><trkpt lat="44.730586564397356" lon="11.720847868300027"><ele>1.0</ele><time>2026-04-19T12:31:38.001Z</time></trkpt><trkpt lat="44.7305710798949" lon="11.721050713211953"><ele>1.0</ele><time>2026-04-19T12:31:39.001Z</time></trkpt><trkpt lat="44.73055478414912" lon="11.721255464353316"><ele>1.0</ele><time>2026-04-19T12:31:40.001Z</time></trkpt><trkpt lat="44.73052219722808" lon="11.721450221696577"><ele>1.0</ele><time>2026-04-19T12:31:41.001Z</time></trkpt><trkpt lat="44.73048705864989" lon="11.721653133072635"><ele>1.0</ele><time>2026-04-19T12:31:42.001Z</time></trkpt><trkpt lat="44.73045338661928" lon="11.721850049696073"><ele>1.25</ele><time>2026-04-19T12:31:43.001Z</time></trkpt><trkpt lat="44.73042037646173" lon="11.722040076176704"><ele>1.5</ele><time>2026-04-19T12:31:44.001Z</time></trkpt><trkpt lat="44.730385285769216" lon="11.722226051191162"><ele>1.75</ele><time>2026-04-19T12:31:45.001Z</time></trkpt><trkpt lat="44.73035509791974" lon="11.722392882483037"><ele>2.0</ele><time>2026-04-19T12:31:46.001Z</time></trkpt><trkpt lat="44.73032240351948" lon="11.722568821494857"><ele>2.0</ele><time>2026-04-19T12:31:47.001Z</time></trkpt><trkpt lat="44.730295182830886" lon="11.722748630550221"><ele>2.0</ele><time>2026-04-19T12:31:48.001Z</time></trkpt><trkpt lat="44.73028279987499" lon="11.72293227207051"><ele>2.0</ele><time>2026-04-19T12:31:49.001Z</time></trkpt><trkpt lat="44.73029567475437" lon="11.723121951142481"><ele>2.0</ele><time>2026-04-19T12:31:50.001Z</time></trkpt><trkpt lat="44.73032706452956" lon="11.723309208873019"><ele>2.0</ele><time>2026-04-19T12:31:51.001Z</time></trkpt><trkpt lat="44.73036017711383" lon="11.723501994065483"><ele>2.0</ele><time>2026-04-19T12:31:52.001Z</time></trkpt><trkpt lat="44.730388143513075" lon="11.723686257236125"><ele>2.0</ele><time>2026-04-19T12:31:53.001Z</time></trkpt><trkpt lat="44.73042103861463" lon="11.723870513641089"><ele>2.0</ele><time>2026-04-19T12:31:54.001Z</time></trkpt><trkpt lat="44.73044463964894" lon="11.724054289282725"><ele>1.75</ele><time>2026-04-19T12:31:55.001Z</time></trkpt><trkpt lat="44.73046371980623" lon="11.724234157008018"><ele>1.5</ele><time>2026-04-19T12:31:56.001Z</time></trkpt><trkpt lat="44.730467462550315" lon="11.724417286130628"><ele>1.25</ele><time>2026-04-19T12:31:57.001Z</time></trkpt><trkpt lat="44.73044472489022" lon="11.72459521592008"><ele>1.0</ele><time>2026-04-19T12:31:58.001Z</time></trkpt><trkpt lat="44.73039804876456" lon="11.724764484204469"><ele>1.0</ele><time>2026-04-19T12:31:59.001Z</time></trkpt><trkpt lat="44.730339975264855" lon="11.724926609266856"><ele>1.0</ele><time>2026-04-19T12:32:00.001Z</time></trkpt><trkpt lat="44.73027971462167" lon="11.725088811947623"><ele>1.0</ele><time>2026-04-19T12:32:01.001Z</time></trkpt><trkpt lat="44.7302125020688" lon="11.725248253738512"><ele>1.0</ele><time>2026-04-19T12:32:02.001Z</time></trkpt><trkpt lat="44.73014571889231" lon="11.725405534714335"><ele>1.25</ele><time>2026-04-19T12:32:03.001Z</time></trkpt><trkpt lat="44.73008415340336" lon="11.725554137667816"><ele>1.5</ele><time>2026-04-19T12:32:04.001Z</time></trkpt><trkpt lat="44.73003576524488" lon="11.725701785832953"><ele>1.75</ele><time>2026-04-19T12:32:05.001Z</time></trkpt><trkpt lat="44.72998253164288" lon="11.725845980772446"><ele>2.0</ele><time>2026-04-19T12:32:06.001Z</time></trkpt><trkpt lat="44.729947525538165" lon="11.725985923088736"><ele>1.8</ele><time>2026-04-19T12:32:07.001Z</time></trkpt><trkpt lat="44.72992548638793" lon="11.726126160560083"><ele>1.6</ele><time>2026-04-19T12:32:08.001Z</time></trkpt><trkpt lat="44.72991504257255" lon="11.726268256762427"><ele>1.4000000000000001</ele><time>2026-04-19T12:32:09.001Z</time></trkpt><trkpt lat="44.72992526815287" lon="11.726410292825761"><ele>1.2000000000000002</ele><time>2026-04-19T12:32:10.001Z</time></trkpt><trkpt lat="44.72995374748627" lon="11.72654303667536"><ele>1.0</ele><time>2026-04-19T12:32:11.001Z</time></trkpt><trkpt lat="44.73002054118945" lon="11.726646997399211"><ele>1.0</ele><time>2026-04-19T12:32:12.001Z</time></trkpt><trkpt lat="44.730113870702716" lon="11.726720074578669"><ele>1.0</ele><time>2026-04-19T12:32:13.001Z</time></trkpt><trkpt lat="44.73022389636073" lon="11.7267896216991"><ele>1.0</ele><time>2026-04-19T12:32:14.001Z</time></trkpt><trkpt lat="44.73033209657937" lon="11.726870063139069"><ele>1.0</ele><time>2026-04-19T12:32:15.001Z</time></trkpt><trkpt lat="44.73043341586391" lon="11.726959920422813"><ele>1.25</ele><time>2026-04-19T12:32:16.001Z</time></trkpt><trkpt lat="44.73053484216043" lon="11.727042795275924"><ele>1.5</ele><time>2026-04-19T12:32:17.001Z</time></trkpt><trkpt lat="44.73063646195247" lon="11.727129958074302"><ele>1.75</ele><time>2026-04-19T12:32:18.001Z</time></trkpt><trkpt lat="44.7307411641922" lon="11.72721751468015"><ele>2.0</ele><time>2026-04-19T12:32:19.001Z</time></trkpt><trkpt lat="44.730842697996756" lon="11.727307763059942"><ele>2.0</ele><time>2026-04-19T12:32:20.001Z</time></trkpt><trkpt lat="44.73094490251716" lon="11.727401546315123"><ele>2.0</ele><time>2026-04-19T12:32:21.001Z</time></trkpt><trkpt lat="44.73104869231013" lon="11.727494414716668"><ele>2.0</ele><time>2026-04-19T12:32:22.001Z</time></trkpt><trkpt lat="44.73115930738658" lon="11.72759199992389"><ele>2.0</ele><time>2026-04-19T12:32:23.001Z</time></trkpt><trkpt lat="44.73128642859627" lon="11.727702399589887"><ele>2.333333333333333</ele><time>2026-04-19T12:32:24.001Z</time></trkpt><trkpt lat="44.73140992264781" lon="11.727811361618937"><ele>2.6666666666666665</ele><time>2026-04-19T12:32:25.001Z</time></trkpt><trkpt lat="44.731538595732694" lon="11.72792564808394"><ele>3.0</ele><time>2026-04-19T12:32:26.001Z</time></trkpt><trkpt lat="44.73167663100285" lon="11.728046708559981"><ele>3.0</ele><time>2026-04-19T12:32:27.001Z</time></trkpt><trkpt lat="44.73181665258932" lon="11.72816820831952"><ele>3.0</ele><time>2026-04-19T12:32:28.001Z</time></trkpt><trkpt lat="44.73195626187664" lon="11.728290398904136"><ele>3.0</ele><time>2026-04-19T12:32:29.001Z</time></trkpt><trkpt lat="44.73209686948405" lon="11.728407276907344"><ele>2.3333333333333335</ele><time>2026-04-19T12:32:30.001Z</time></trkpt><trkpt lat="44.732241278131404" lon="11.728523245078204"><ele>1.6666666666666665</ele><time>2026-04-19T12:32:31.001Z</time></trkpt><trkpt lat="44.73238714653451" lon="11.728646919331085"><ele>1.0</ele><time>2026-04-19T12:32:32.001Z</time></trkpt><trkpt lat="44.73255065850047" lon="11.72879020409375"><ele>0.6666666666666666</ele><time>2026-04-19T12:32:33.001Z</time></trkpt><trkpt lat="44.73272280848561" lon="11.728937383519094"><ele>0.3333333333333333</ele><time>2026-04-19T12:32:34.001Z</time></trkpt><trkpt lat="44.732886906419836" lon="11.729079940741443"><ele>0.0</ele><time>2026-04-19T12:32:35.002Z</time></trkpt><trkpt lat="44.73304305476372" lon="11.729221208561842"><ele>0.0</ele><time>2026-04-19T12:32:36.002Z</time></trkpt><trkpt lat="44.733197656842165" lon="11.729358380854878"><ele>0.0</ele><time>2026-04-19T12:32:37.002Z</time></trkpt><trkpt lat="44.733349038822944" lon="11.729492653669736"><ele>0.0</ele><time>2026-04-19T12:32:38.002Z</time></trkpt><trkpt lat="44.73349792163874" lon="11.729622775769782"><ele>0.0</ele><time>2026-04-19T12:32:39.002Z</time></trkpt><trkpt lat="44.73364098283899" lon="11.729746490706349"><ele>0.0</ele><time>2026-04-19T12:32:40.002Z</time></trkpt><trkpt lat="44.73377565655327" lon="11.72986648191699"><ele>0.0</ele><time>2026-04-19T12:32:41.002Z</time></trkpt><trkpt lat="44.73390627787822" lon="11.729978581413"><ele>0.0</ele><time>2026-04-19T12:32:42.002Z</time></trkpt><trkpt lat="44.73403328255877" lon="11.730084546018503"><ele>0.0</ele><time>2026-04-19T12:32:43.002Z</time></trkpt><trkpt lat="44.73415571897092" lon="11.730189053613183"><ele>0.0</ele><time>2026-04-19T12:32:44.002Z</time></trkpt><trkpt lat="44.734278365651825" lon="11.730292329295295"><ele>0.0</ele><time>2026-04-19T12:32:45.002Z</time></trkpt><trkpt lat="44.7343945274992" lon="11.730378683779044"><ele>-0.5</ele><time>2026-04-19T12:32:46.002Z</time></trkpt><trkpt lat="44.73451375031024" lon="11.73044872472344"><ele>-1.0</ele><time>2026-04-19T12:32:47.002Z</time></trkpt><trkpt lat="44.73465274001967" lon="11.730498829932317"><ele>-1.5</ele><time>2026-04-19T12:32:48.002Z</time></trkpt><trkpt lat="44.734804425655945" lon="11.73050978009877"><ele>-2.0</ele><time>2026-04-19T12:32:49.002Z</time></trkpt><trkpt lat="44.73496254314533" lon="11.730478427634068"><ele>-2.0</ele><time>2026-04-19T12:32:50.002Z</time></trkpt><trkpt lat="44.735119130253445" lon="11.730410633992491"><ele>-2.0</ele><time>2026-04-19T12:32:51.002Z</time></trkpt><trkpt lat="44.73527089626728" lon="11.730335673124728"><ele>-2.0</ele><time>2026-04-19T12:32:52.002Z</time></trkpt><trkpt lat="44.73543045582332" lon="11.73025883081954"><ele>-1.3333333333333333</ele><time>2026-04-19T12:32:53.002Z</time></trkpt><trkpt lat="44.73559442578521" lon="11.73018548056488"><ele>-0.6666666666666666</ele><time>2026-04-19T12:32:54.002Z</time></trkpt><trkpt lat="44.7357585209639" lon="11.730111780766984"><ele>0.0</ele><time>2026-04-19T12:32:55.002Z</time></trkpt><trkpt lat="44.73592871820306" lon="11.730033882044808"><ele>0.0</ele><time>2026-04-19T12:32:56.002Z</time></trkpt><trkpt lat="44.736093882150264" lon="11.72996020344656"><ele>0.0</ele><time>2026-04-19T12:32:57.002Z</time></trkpt><trkpt lat="44.736258796838456" lon="11.729888274966173"><ele>0.0</ele><time>2026-04-19T12:32:58.002Z</time></trkpt><trkpt lat="44.73642413428964" lon="11.729812904517367"><ele>0.0</ele><time>2026-04-19T12:32:59.002Z</time></trkpt><trkpt lat="44.736581778668935" lon="11.729736769426667"><ele>0.0</ele><time>2026-04-19T12:33:00.002Z</time></trkpt><trkpt lat="44.73674275160728" lon="11.729662447015594"><ele>0.0</ele><time>2026-04-19T12:33:01.002Z</time></trkpt><trkpt lat="44.73690583977315" lon="11.729588453800682"><ele>0.0</ele><time>2026-04-19T12:33:02.002Z</time></trkpt><trkpt lat="44.73706300205871" lon="11.729516579575968"><ele>0.0</ele><time>2026-04-19T12:33:03.002Z</time></trkpt><trkpt lat="44.73721213216041" lon="11.729452184289567"><ele>0.0</ele><time>2026-04-19T12:33:04.002Z</time></trkpt><trkpt lat="44.737351328412984" lon="11.729385354173816"><ele>0.0</ele><time>2026-04-19T12:33:05.002Z</time></trkpt><trkpt lat="44.737478261393086" lon="11.729326286281669"><ele>0.0</ele><time>2026-04-19T12:33:06.002Z</time></trkpt><trkpt lat="44.737594568407324" lon="11.729271289349706"><ele>0.0</ele><time>2026-04-19T12:33:07.002Z</time></trkpt><trkpt lat="44.73769936133657" lon="11.72922312941027"><ele>0.0</ele><time>2026-04-19T12:33:08.002Z</time></trkpt><trkpt lat="44.73779285908413" lon="11.729178292879176"><ele>0.2</ele><time>2026-04-19T12:33:09.002Z</time></trkpt><trkpt lat="44.73787855620096" lon="11.729140500905983"><ele>0.4</ele><time>2026-04-19T12:33:10.002Z</time></trkpt><trkpt lat="44.737984625948634" lon="11.729102458653722"><ele>0.6000000000000001</ele><time>2026-04-19T12:33:12.002Z</time></trkpt><trkpt lat="44.73807501468838" lon="11.729181961151125"><ele>0.8</ele><time>2026-04-19T12:33:14.002Z</time></trkpt><trkpt lat="44.73813316068228" lon="11.729350745571056"><ele>1.0</ele><time>2026-04-19T12:33:16.002Z</time></trkpt><trkpt lat="44.73817334880056" lon="11.729466650895427"><ele>1.25</ele><time>2026-04-19T12:33:17.002Z</time></trkpt><trkpt lat="44.73822383019316" lon="11.729608128498247"><ele>1.5</ele><time>2026-04-19T12:33:18.002Z</time></trkpt><trkpt lat="44.73828526636161" lon="11.729781870206573"><ele>1.75</ele><time>2026-04-19T12:33:19.002Z</time></trkpt><trkpt lat="44.7383429801295" lon="11.72995055968259"><ele>2.0</ele><time>2026-04-19T12:33:20.002Z</time></trkpt><trkpt lat="44.73840556195116" lon="11.730138854857012"><ele>1.3333333333333333</ele><time>2026-04-19T12:33:21.002Z</time></trkpt><trkpt lat="44.73846748331919" lon="11.730332424991394"><ele>0.6666666666666666</ele><time>2026-04-19T12:33:22.002Z</time></trkpt><trkpt lat="44.73852653100076" lon="11.730523567088609"><ele>0.0</ele><time>2026-04-19T12:33:23.002Z</time></trkpt><trkpt lat="44.738593537215415" lon="11.730726194909684"><ele>0.0</ele><time>2026-04-19T12:33:24.002Z</time></trkpt><trkpt lat="44.738663463711276" lon="11.730939599091675"><ele>0.0</ele><time>2026-04-19T12:33:25.002Z</time></trkpt><trkpt lat="44.73873160722899" lon="11.731158476985096"><ele>0.0</ele><time>2026-04-19T12:33:26.003Z</time></trkpt><trkpt lat="44.73880157313892" lon="11.731381770455814"><ele>0.0</ele><time>2026-04-19T12:33:27.003Z</time></trkpt><trkpt lat="44.73887135724291" lon="11.731597297506822"><ele>0.0</ele><time>2026-04-19T12:33:28.003Z</time></trkpt><trkpt lat="44.73894637240794" lon="11.731827501223913"><ele>0.0</ele><time>2026-04-19T12:33:29.003Z</time></trkpt><trkpt lat="44.7390229840881" lon="11.732064250713378"><ele>0.3333333333333333</ele><time>2026-04-19T12:33:30.003Z</time></trkpt><trkpt lat="44.7391019249409" lon="11.732301034159367"><ele>0.6666666666666666</ele><time>2026-04-19T12:33:31.003Z</time></trkpt><trkpt lat="44.739181882688655" lon="11.732536600076434"><ele>1.0</ele><time>2026-04-19T12:33:32.003Z</time></trkpt><trkpt lat="44.739255852646096" lon="11.7327656452138"><ele>1.0</ele><time>2026-04-19T12:33:33.003Z</time></trkpt><trkpt lat="44.73932964410692" lon="11.732985345329597"><ele>1.0</ele><time>2026-04-19T12:33:34.003Z</time></trkpt><trkpt lat="44.73940596151853" lon="11.733207948392453"><ele>1.0</ele><time>2026-04-19T12:33:35.003Z</time></trkpt><trkpt lat="44.73948942012752" lon="11.733427789713938"><ele>0.6666666666666666</ele><time>2026-04-19T12:33:36.003Z</time></trkpt><trkpt lat="44.73959801370463" lon="11.733641056624263"><ele>0.3333333333333333</ele><time>2026-04-19T12:33:37.003Z</time></trkpt><trkpt lat="44.739728597685165" lon="11.733848457543818"><ele>0.0</ele><time>2026-04-19T12:33:38.001Z</time></trkpt><trkpt lat="44.73987004062998" lon="11.734051995525252"><ele>0.0</ele><time>2026-04-19T12:33:39.001Z</time></trkpt><trkpt lat="44.74002043929955" lon="11.734258601661171"><ele>0.0</ele><time>2026-04-19T12:33:40.001Z</time></trkpt><trkpt lat="44.740167782262475" lon="11.734468800837243"><ele>0.0</ele><time>2026-04-19T12:33:41.001Z</time></trkpt><trkpt lat="44.74030781370793" lon="11.734685119719806"><ele>0.0</ele><time>2026-04-19T12:33:42.001Z</time></trkpt><trkpt lat="44.74045144070072" lon="11.734902032202768"><ele>0.0</ele><time>2026-04-19T12:33:43.001Z</time></trkpt><trkpt lat="44.740595150594245" lon="11.735114994921904"><ele>0.0</ele><time>2026-04-19T12:33:44.001Z</time></trkpt><trkpt lat="44.74073804056081" lon="11.73532721239933"><ele>0.0</ele><time>2026-04-19T12:33:45.001Z</time></trkpt><trkpt lat="44.74087891932564" lon="11.735542927140097"><ele>0.0</ele><time>2026-04-19T12:33:46.001Z</time></trkpt><trkpt lat="44.741018395493796" lon="11.735750553745701"><ele>0.0</ele><time>2026-04-19T12:33:47.001Z</time></trkpt><trkpt lat="44.74115991634112" lon="11.735959659715004"><ele>-0.3333333333333333</ele><time>2026-04-19T12:33:48.001Z</time></trkpt><trkpt lat="44.74130018338606" lon="11.736177862421625"><ele>-0.6666666666666666</ele><time>2026-04-19T12:33:49.001Z</time></trkpt><trkpt lat="44.74144267175709" lon="11.736392702658566"><ele>-1.0</ele><time>2026-04-19T12:33:50.001Z</time></trkpt><trkpt lat="44.741587019601496" lon="11.73660267856597"><ele>-1.0</ele><time>2026-04-19T12:33:51.001Z</time></trkpt><trkpt lat="44.74172486258179" lon="11.736809804248443"><ele>-1.0</ele><time>2026-04-19T12:33:52.001Z</time></trkpt><trkpt lat="44.741868805470475" lon="11.737020098866935"><ele>-1.0</ele><time>2026-04-19T12:33:53.001Z</time></trkpt><trkpt lat="44.742009337083914" lon="11.737230480201884"><ele>-1.0</ele><time>2026-04-19T12:33:54.001Z</time></trkpt><trkpt lat="44.74214566745775" lon="11.737440232408696"><ele>-1.0</ele><time>2026-04-19T12:33:55.001Z</time></trkpt><trkpt lat="44.74228637267401" lon="11.737652004191093"><ele>-1.0</ele><time>2026-04-19T12:33:56.001Z</time></trkpt><trkpt lat="44.74242871109483" lon="11.737863652031457"><ele>-1.0</ele><time>2026-04-19T12:33:57.001Z</time></trkpt><trkpt lat="44.74256817831154" lon="11.738072664825703"><ele>-1.0</ele><time>2026-04-19T12:33:58.001Z</time></trkpt><trkpt lat="44.74270768632201" lon="11.738280601141641"><ele>-1.0</ele><time>2026-04-19T12:33:59.001Z</time></trkpt><trkpt lat="44.742847578071675" lon="11.738488014874807"><ele>-1.3333333333333333</ele><time>2026-04-19T12:34:00.001Z</time></trkpt><trkpt lat="44.742985338155805" lon="11.738693063164718"><ele>-1.6666666666666665</ele><time>2026-04-19T12:34:01.001Z</time></trkpt><trkpt lat="44.743119758254316" lon="11.738894408019569"><ele>-2.0</ele><time>2026-04-19T12:34:02.001Z</time></trkpt><trkpt lat="44.743254323948506" lon="11.739095860399946"><ele>-2.0</ele><time>2026-04-19T12:34:03.001Z</time></trkpt><trkpt lat="44.743383428893864" lon="11.739291239071644"><ele>-2.0</ele><time>2026-04-19T12:34:04.001Z</time></trkpt><trkpt lat="44.74352271863421" lon="11.739494894205992"><ele>-2.0</ele><time>2026-04-19T12:34:05.001Z</time></trkpt><trkpt lat="44.74365835870735" lon="11.739697010251032"><ele>-1.0</ele><time>2026-04-19T12:34:06.001Z</time></trkpt><trkpt lat="44.74379280799987" lon="11.73989746564951"><ele>0.0</ele><time>2026-04-19T12:34:07.001Z</time></trkpt><trkpt lat="44.74392932598316" lon="11.740099486002148"><ele>1.0</ele><time>2026-04-19T12:34:08.001Z</time></trkpt><trkpt lat="44.74406300558951" lon="11.740296287024584"><ele>1.0</ele><time>2026-04-19T12:34:09.001Z</time></trkpt><trkpt lat="44.74419926739222" lon="11.74049212076659"><ele>1.0</ele><time>2026-04-19T12:34:10.001Z</time></trkpt><trkpt lat="44.744336322503266" lon="11.740689374549323"><ele>1.0</ele><time>2026-04-19T12:34:11.001Z</time></trkpt><trkpt lat="44.74445980095007" lon="11.740882609368846"><ele>0.6666666666666666</ele><time>2026-04-19T12:34:12.001Z</time></trkpt><trkpt lat="44.74458702257308" lon="11.741078443924772"><ele>0.3333333333333333</ele><time>2026-04-19T12:34:13.001Z</time></trkpt><trkpt lat="44.744717108518394" lon="11.74127883359512"><ele>0.0</ele><time>2026-04-19T12:34:14.001Z</time></trkpt><trkpt lat="44.74485705972707" lon="11.741476185776326"><ele>0.0</ele><time>2026-04-19T12:34:15.001Z</time></trkpt><trkpt lat="44.74499345181936" lon="11.741669282896392"><ele>0.0</ele><time>2026-04-19T12:34:16.001Z</time></trkpt><trkpt lat="44.74512360426354" lon="11.7418636007191"><ele>0.0</ele><time>2026-04-19T12:34:17.001Z</time></trkpt><trkpt lat="44.745247811218505" lon="11.742055459341541"><ele>0.0</ele><time>2026-04-19T12:34:18.001Z</time></trkpt><trkpt lat="44.745380448553924" lon="11.742244918463475"><ele>0.0</ele><time>2026-04-19T12:34:19.001Z</time></trkpt><trkpt lat="44.74551055133547" lon="11.742433088136998"><ele>0.0</ele><time>2026-04-19T12:34:20.001Z</time></trkpt><trkpt lat="44.74563644572526" lon="11.742617334602743"><ele>0.0</ele><time>2026-04-19T12:34:21.001Z</time></trkpt><trkpt lat="44.74575268707631" lon="11.742785883902945"><ele>0.0</ele><time>2026-04-19T12:34:22.001Z</time></trkpt><trkpt lat="44.74588926493795" lon="11.742948281520766"><ele>0.0</ele><time>2026-04-19T12:34:23.001Z</time></trkpt><trkpt lat="44.74605842105332" lon="11.743104842835532"><ele>0.0</ele><time>2026-04-19T12:34:24.001Z</time></trkpt><trkpt lat="44.74623815830084" lon="11.743255943744739"><ele>0.0</ele><time>2026-04-19T12:34:25.001Z</time></trkpt><trkpt lat="44.746415894403135" lon="11.743400370743093"><ele>0.0</ele><time>2026-04-19T12:34:26.001Z</time></trkpt><trkpt lat="44.74658979903295" lon="11.743548138430306"><ele>0.3333333333333333</ele><time>2026-04-19T12:34:27.001Z</time></trkpt><trkpt lat="44.74676014289983" lon="11.743695966457114"><ele>0.6666666666666666</ele><time>2026-04-19T12:34:28.001Z</time></trkpt><trkpt lat="44.74692218307551" lon="11.743838057075742"><ele>1.0</ele><time>2026-04-19T12:34:29.001Z</time></trkpt><trkpt lat="44.74708166184343" lon="11.743978203376482"><ele>1.0</ele><time>2026-04-19T12:34:30.001Z</time></trkpt><trkpt lat="44.74724416335305" lon="11.744116845593517"><ele>1.0</ele><time>2026-04-19T12:34:31.001Z</time></trkpt><trkpt lat="44.747402964404955" lon="11.744254652405639"><ele>1.0</ele><time>2026-04-19T12:34:32.001Z</time></trkpt><trkpt lat="44.74755962338434" lon="11.744390401408145"><ele>0.6666666666666666</ele><time>2026-04-19T12:34:33.001Z</time></trkpt><trkpt lat="44.747717509191204" lon="11.744523660498741"><ele>0.3333333333333333</ele><time>2026-04-19T12:34:34.001Z</time></trkpt><trkpt lat="44.74787613601466" lon="11.744658284713658"><ele>0.0</ele><time>2026-04-19T12:34:35.001Z</time></trkpt><trkpt lat="44.748032882285656" lon="11.74479052802204"><ele>0.0</ele><time>2026-04-19T12:34:36.001Z</time></trkpt><trkpt lat="44.74818544869727" lon="11.744924357659425"><ele>0.0</ele><time>2026-04-19T12:34:37.001Z</time></trkpt><trkpt lat="44.74833303056461" lon="11.745053205922613"><ele>0.0</ele><time>2026-04-19T12:34:38.001Z</time></trkpt><trkpt lat="44.748472055828856" lon="11.745176469767229"><ele>0.3333333333333333</ele><time>2026-04-19T12:34:39.001Z</time></trkpt><trkpt lat="44.748603758854664" lon="11.745294329516222"><ele>0.6666666666666666</ele><time>2026-04-19T12:34:40.001Z</time></trkpt><trkpt lat="44.74874625754248" lon="11.745411325296104"><ele>1.0</ele><time>2026-04-19T12:34:41.001Z</time></trkpt><trkpt lat="44.74889950274711" lon="11.745518137665453"><ele>1.0</ele><time>2026-04-19T12:34:42.001Z</time></trkpt><trkpt lat="44.74906838370833" lon="11.745602015026373"><ele>1.0</ele><time>2026-04-19T12:34:43.001Z</time></trkpt><trkpt lat="44.74924221214522" lon="11.745654342447557"><ele>1.0</ele><time>2026-04-19T12:34:44.001Z</time></trkpt><trkpt lat="44.74940631659676" lon="11.745698034514282"><ele>1.0</ele><time>2026-04-19T12:34:45.001Z</time></trkpt><trkpt lat="44.74955130527569" lon="11.745741932336347"><ele>1.0</ele><time>2026-04-19T12:34:46.001Z</time></trkpt><trkpt lat="44.74969038807316" lon="11.745787770701742"><ele>1.0</ele><time>2026-04-19T12:34:47.001Z</time></trkpt><trkpt lat="44.74982283956615" lon="11.745832946198135"><ele>1.0</ele><time>2026-04-19T12:34:48.001Z</time></trkpt><trkpt lat="44.74995577858513" lon="11.745876531515185"><ele>1.0</ele><time>2026-04-19T12:34:49.001Z</time></trkpt><trkpt lat="44.75007658333627" lon="11.745918287966783"><ele>1.0</ele><time>2026-04-19T12:34:50.001Z</time></trkpt><trkpt lat="44.75019774180569" lon="11.745961565403425"><ele>1.0</ele><time>2026-04-19T12:34:51.001Z</time></trkpt><trkpt lat="44.75032212189079" lon="11.746005619311315"><ele>1.0</ele><time>2026-04-19T12:34:52.001Z</time></trkpt><trkpt lat="44.75044671481107" lon="11.746043419116136"><ele>1.25</ele><time>2026-04-19T12:34:53.001Z</time></trkpt><trkpt lat="44.75057246036126" lon="11.746085111704046"><ele>1.5</ele><time>2026-04-19T12:34:54.001Z</time></trkpt><trkpt lat="44.75070021580012" lon="11.746129071193222"><ele>1.75</ele><time>2026-04-19T12:34:55.001Z</time></trkpt><trkpt lat="44.75082375029095" lon="11.74616820336009"><ele>2.0</ele><time>2026-04-19T12:34:56.001Z</time></trkpt><trkpt lat="44.750951856308234" lon="11.74620910193952"><ele>2.0</ele><time>2026-04-19T12:34:57.001Z</time></trkpt><trkpt lat="44.751076178718144" lon="11.746250752906686"><ele>2.0</ele><time>2026-04-19T12:34:58.001Z</time></trkpt><trkpt lat="44.75120013992089" lon="11.746292611470373"><ele>2.0</ele><time>2026-04-19T12:34:59.001Z</time></trkpt><trkpt lat="44.75132821523272" lon="11.746329418775975"><ele>2.0</ele><time>2026-04-19T12:35:00.001Z</time></trkpt><trkpt lat="44.7514500902503" lon="11.746371743508792"><ele>2.0</ele><time>2026-04-19T12:35:01.002Z</time></trkpt><trkpt lat="44.75157399323634" lon="11.746412123165413"><ele>2.0</ele><time>2026-04-19T12:35:02.002Z</time></trkpt><trkpt lat="44.751695521262626" lon="11.74645442329084"><ele>2.0</ele><time>2026-04-19T12:35:03.002Z</time></trkpt><trkpt lat="44.75181944271943" lon="11.746495569483494"><ele>2.0</ele><time>2026-04-19T12:35:04.002Z</time></trkpt><trkpt lat="44.751941181884796" lon="11.746533621685206"><ele>2.25</ele><time>2026-04-19T12:35:05.002Z</time></trkpt><trkpt lat="44.75206061191491" lon="11.746572930315972"><ele>2.5</ele><time>2026-04-19T12:35:06.002Z</time></trkpt><trkpt lat="44.75217988961386" lon="11.746616236054505"><ele>2.75</ele><time>2026-04-19T12:35:07.002Z</time></trkpt><trkpt lat="44.75229844578085" lon="11.746657404845575"><ele>3.0</ele><time>2026-04-19T12:35:08.002Z</time></trkpt><trkpt lat="44.75241923984634" lon="11.746693168631857"><ele>3.0</ele><time>2026-04-19T12:35:09.002Z</time></trkpt><trkpt lat="44.75253593851188" lon="11.746729534485652"><ele>3.0</ele><time>2026-04-19T12:35:10.002Z</time></trkpt><trkpt lat="44.75265460961708" lon="11.746768033835439"><ele>3.0</ele><time>2026-04-19T12:35:11.002Z</time></trkpt><trkpt lat="44.75277207430418" lon="11.746806687485256"><ele>3.0</ele><time>2026-04-19T12:35:12.002Z</time></trkpt><trkpt lat="44.752888878504436" lon="11.746844012177982"><ele>2.5</ele><time>2026-04-19T12:35:13.002Z</time></trkpt><trkpt lat="44.75301024701663" lon="11.746884446982026"><ele>2.0</ele><time>2026-04-19T12:35:14.002Z</time></trkpt><trkpt lat="44.75312895386795" lon="11.746922952556762"><ele>1.5</ele><time>2026-04-19T12:35:15.002Z</time></trkpt><trkpt lat="44.75325056289716" lon="11.746960937463166"><ele>1.0</ele><time>2026-04-19T12:35:16.002Z</time></trkpt><trkpt lat="44.75337757130452" lon="11.747005506859145"><ele>1.0</ele><time>2026-04-19T12:35:17.002Z</time></trkpt><trkpt lat="44.7534935210768" lon="11.747045617216836"><ele>1.0</ele><time>2026-04-19T12:35:18.002Z</time></trkpt><trkpt lat="44.75362080312135" lon="11.747088117381722"><ele>1.0</ele><time>2026-04-19T12:35:19.002Z</time></trkpt><trkpt lat="44.75376698193799" lon="11.747136328488613"><ele>1.0</ele><time>2026-04-19T12:35:20.002Z</time></trkpt><trkpt lat="44.75391384832634" lon="11.747186626902616"><ele>1.6666666666666665</ele><time>2026-04-19T12:35:21.002Z</time></trkpt><trkpt lat="44.75406531489837" lon="11.747236005407144"><ele>2.3333333333333335</ele><time>2026-04-19T12:35:22.002Z</time></trkpt><trkpt lat="44.7542169639428" lon="11.747282512462812"><ele>3.0</ele><time>2026-04-19T12:35:23.002Z</time></trkpt><trkpt lat="44.75436619816349" lon="11.7473219504749"><ele>2.75</ele><time>2026-04-19T12:35:24.002Z</time></trkpt><trkpt lat="44.75451433418775" lon="11.747370631344479"><ele>2.5</ele><time>2026-04-19T12:35:25.002Z</time></trkpt><trkpt lat="44.75466187304238" lon="11.74741476042757"><ele>2.25</ele><time>2026-04-19T12:35:26.002Z</time></trkpt><trkpt lat="44.754803015162686" lon="11.747465230507066"><ele>2.0</ele><time>2026-04-19T12:35:27.002Z</time></trkpt><trkpt lat="44.75494957598614" lon="11.74751115533461"><ele>2.0</ele><time>2026-04-19T12:35:28.002Z</time></trkpt><trkpt lat="44.75509092308733" lon="11.747562053121179"><ele>2.0</ele><time>2026-04-19T12:35:29.002Z</time></trkpt><trkpt lat="44.75522822709721" lon="11.747606899824504"><ele>2.0</ele><time>2026-04-19T12:35:30.002Z</time></trkpt><trkpt lat="44.75536591068267" lon="11.747651743905235"><ele>2.0</ele><time>2026-04-19T12:35:31.002Z</time></trkpt><trkpt lat="44.75550492358771" lon="11.747695539268507"><ele>2.0</ele><time>2026-04-19T12:35:32.002Z</time></trkpt><trkpt lat="44.75564212977" lon="11.747728410367742"><ele>2.0</ele><time>2026-04-19T12:35:33.002Z</time></trkpt><trkpt lat="44.75577817828768" lon="11.747773210503546"><ele>2.0</ele><time>2026-04-19T12:35:34.002Z</time></trkpt><trkpt lat="44.75591395851655" lon="11.74782005498143"><ele>2.0</ele><time>2026-04-19T12:35:35.002Z</time></trkpt><trkpt lat="44.75604618561141" lon="11.747879025749377"><ele>2.5</ele><time>2026-04-19T12:35:36.002Z</time></trkpt><trkpt lat="44.75616867088749" lon="11.747966510442769"><ele>3.0</ele><time>2026-04-19T12:35:37.002Z</time></trkpt><trkpt lat="44.75627903534764" lon="11.748057558860788"><ele>3.5</ele><time>2026-04-19T12:35:38.002Z</time></trkpt><trkpt lat="44.756406243156356" lon="11.74815406699065"><ele>4.0</ele><time>2026-04-19T12:35:39.002Z</time></trkpt><trkpt lat="44.75651581548828" lon="11.748267045059837"><ele>4.0</ele><time>2026-04-19T12:35:40.002Z</time></trkpt><trkpt lat="44.75661639764146" lon="11.74839072440883"><ele>4.0</ele><time>2026-04-19T12:35:41.002Z</time></trkpt><trkpt lat="44.7567128769865" lon="11.748520832622248"><ele>4.0</ele><time>2026-04-19T12:35:42.002Z</time></trkpt><trkpt lat="44.756799214862475" lon="11.748670201804341"><ele>4.0</ele><time>2026-04-19T12:35:43.002Z</time></trkpt><trkpt lat="44.75687478016721" lon="11.748823788611324"><ele>4.25</ele><time>2026-04-19T12:35:43.999Z</time></trkpt><trkpt lat="44.75695397656829" lon="11.74897462532426"><ele>4.5</ele><time>2026-04-19T12:35:44.999Z</time></trkpt><trkpt lat="44.75703371116209" lon="11.749127633952954"><ele>4.75</ele><time>2026-04-19T12:35:45.999Z</time></trkpt><trkpt lat="44.75711525104027" lon="11.749282274771302"><ele>5.0</ele><time>2026-04-19T12:35:46.999Z</time></trkpt><trkpt lat="44.757198041213464" lon="11.749436248380915"><ele>5.2</ele><time>2026-04-19T12:35:47.999Z</time></trkpt><trkpt lat="44.75727744773074" lon="11.749579657486253"><ele>5.4</ele><time>2026-04-19T12:35:48.999Z</time></trkpt><trkpt lat="44.75734852437541" lon="11.749700238498828"><ele>5.6</ele><time>2026-04-19T12:35:49.999Z</time></trkpt><trkpt lat="44.75740691241278" lon="11.749814845878747"><ele>5.8</ele><time>2026-04-19T12:35:50.999Z</time></trkpt><trkpt lat="44.75745220439771" lon="11.74990999774128"><ele>6.0</ele><time>2026-04-19T12:35:51.999Z</time></trkpt><trkpt lat="44.75749960342439" lon="11.749994832610604"><ele>6.0</ele><time>2026-04-19T12:35:52.999Z</time></trkpt><trkpt lat="44.75754361012986" lon="11.750066690834506"><ele>6.0</ele><time>2026-04-19T12:35:53.999Z</time></trkpt><trkpt lat="44.75759905771769" lon="11.750111252472893"><ele>6.0</ele><time>2026-04-19T12:35:54.999Z</time></trkpt><trkpt lat="44.75767406367974" lon="11.750118780917667"><ele>6.0</ele><time>2026-04-19T12:35:55.999Z</time></trkpt><trkpt lat="44.7577511862763" lon="11.750063156797356"><ele>6.0</ele><time>2026-04-19T12:35:56.999Z</time></trkpt><trkpt lat="44.75781992938362" lon="11.749993078746472"><ele>6.0</ele><time>2026-04-19T12:35:57.999Z</time></trkpt><trkpt lat="44.75793108995047" lon="11.74992584276341"><ele>5.833333333333333</ele><time>2026-04-19T12:35:59.999Z</time></trkpt><trkpt lat="44.757997373355195" lon="11.749966805011136"><ele>5.666666666666667</ele><time>2026-04-19T12:36:00.999Z</time></trkpt><trkpt lat="44.758067483172326" lon="11.750069127595403"><ele>5.5</ele><time>2026-04-19T12:36:01.999Z</time></trkpt><trkpt lat="44.75812351199835" lon="11.750160071633339"><ele>5.333333333333334</ele><time>2026-04-19T12:36:03Z</time></trkpt><trkpt lat="44.75818440479357" lon="11.750240719125635"><ele>5.166666666666667</ele><time>2026-04-19T12:36:04Z</time></trkpt><trkpt lat="44.75824717186551" lon="11.750315802415722"><ele>5.0</ele><time>2026-04-19T12:36:05Z</time></trkpt><trkpt lat="44.758298343568605" lon="11.750385203397894"><ele>5.0</ele><time>2026-04-19T12:36:06Z</time></trkpt><trkpt lat="44.758344656008404" lon="11.750450474319576"><ele>5.0</ele><time>2026-04-19T12:36:07Z</time></trkpt><trkpt lat="44.75839890226307" lon="11.750515720628949"><ele>5.0</ele><time>2026-04-19T12:36:08Z</time></trkpt><trkpt lat="44.75844760741825" lon="11.750575644475738"><ele>5.0</ele><time>2026-04-19T12:36:09Z</time></trkpt><trkpt lat="44.758516601970506" lon="11.750654597233016"><ele>5.0</ele><time>2026-04-19T12:36:11Z</time></trkpt><trkpt lat="44.75856249893906" lon="11.750716928457567"><ele>5.0</ele><time>2026-04-19T12:36:18Z</time></trkpt><trkpt lat="44.75869328324832" lon="11.750596644511953"><ele>4.6</ele><time>2026-04-19T12:36:20Z</time></trkpt><trkpt lat="44.75874389268491" lon="11.750501573230197"><ele>4.2</ele><time>2026-04-19T12:36:21Z</time></trkpt><trkpt lat="44.75879892344231" lon="11.750395018291085"><ele>3.8</ele><time>2026-04-19T12:36:22Z</time></trkpt><trkpt lat="44.75886565009631" lon="11.750287921023702"><ele>3.4</ele><time>2026-04-19T12:36:23Z</time></trkpt><trkpt lat="44.75892456545354" lon="11.750190079618678"><ele>3.0</ele><time>2026-04-19T12:36:24Z</time></trkpt><trkpt lat="44.758984677581" lon="11.750089585304927"><ele>3.0</ele><time>2026-04-19T12:36:25Z</time></trkpt><trkpt lat="44.75905435803422" lon="11.749978172843472"><ele>3.0</ele><time>2026-04-19T12:36:26Z</time></trkpt><trkpt lat="44.75913374759333" lon="11.749846663488318"><ele>3.0</ele><time>2026-04-19T12:36:27Z</time></trkpt><trkpt lat="44.75920904500417" lon="11.749721067558822"><ele>3.0</ele><time>2026-04-19T12:36:28Z</time></trkpt><trkpt lat="44.75928681520885" lon="11.749591012836824"><ele>3.0</ele><time>2026-04-19T12:36:29Z</time></trkpt><trkpt lat="44.75935989890547" lon="11.749461959376047"><ele>3.0</ele><time>2026-04-19T12:36:30Z</time></trkpt><trkpt lat="44.75943027375261" lon="11.74933335201383"><ele>3.0</ele><time>2026-04-19T12:36:31Z</time></trkpt><trkpt lat="44.75949858088898" lon="11.749206364356494"><ele>3.0</ele><time>2026-04-19T12:36:32Z</time></trkpt><trkpt lat="44.759565671813085" lon="11.749082456620782"><ele>2.75</ele><time>2026-04-19T12:36:33Z</time></trkpt><trkpt lat="44.75963736619186" lon="11.748958479619597"><ele>2.5</ele><time>2026-04-19T12:36:34Z</time></trkpt><trkpt lat="44.75971166456469" lon="11.748833135011107"><ele>2.25</ele><time>2026-04-19T12:36:35Z</time></trkpt><trkpt lat="44.75979193597616" lon="11.748707733422403"><ele>2.0</ele><time>2026-04-19T12:36:36Z</time></trkpt><trkpt lat="44.75986792416329" lon="11.748581827512844"><ele>2.5</ele><time>2026-04-19T12:36:37Z</time></trkpt><trkpt lat="44.759944194140346" lon="11.748457372046815"><ele>3.0</ele><time>2026-04-19T12:36:38Z</time></trkpt><trkpt lat="44.76002357862612" lon="11.748335443904589"><ele>3.5</ele><time>2026-04-19T12:36:39Z</time></trkpt><trkpt lat="44.760105621069215" lon="11.74822180990596"><ele>4.0</ele><time>2026-04-19T12:36:40Z</time></trkpt><trkpt lat="44.7601918195635" lon="11.748113640801046"><ele>4.5</ele><time>2026-04-19T12:36:41Z</time></trkpt><trkpt lat="44.7602812981071" lon="11.748007836401081"><ele>5.0</ele><time>2026-04-19T12:36:42Z</time></trkpt><trkpt lat="44.7603792667514" lon="11.747909019429514"><ele>5.5</ele><time>2026-04-19T12:36:43Z</time></trkpt><trkpt lat="44.76047834873326" lon="11.747815900365913"><ele>6.0</ele><time>2026-04-19T12:36:44Z</time></trkpt><trkpt lat="44.76056684335337" lon="11.747720894971504"><ele>5.8</ele><time>2026-04-19T12:36:45Z</time></trkpt><trkpt lat="44.76064444398873" lon="11.747632331952477"><ele>5.6</ele><time>2026-04-19T12:36:46.001Z</time></trkpt><trkpt lat="44.76070576157002" lon="11.747580006186608"><ele>5.4</ele><time>2026-04-19T12:36:47.001Z</time></trkpt><trkpt lat="44.76075303092975" lon="11.747429819965124"><ele>5.2</ele><time>2026-04-19T12:36:49.001Z</time></trkpt><trkpt lat="44.76078678908615" lon="11.74728745224973"><ele>5.0</ele><time>2026-04-19T12:36:51.001Z</time></trkpt><trkpt lat="44.76084497707015" lon="11.747247321803567"><ele>5.0</ele><time>2026-04-19T12:36:53.001Z</time></trkpt><trkpt lat="44.760959585946516" lon="11.747165746315881"><ele>5.0</ele><time>2026-04-19T12:40:24.001Z</time></trkpt><trkpt lat="44.76099329207743" lon="11.747060699765598"><ele>5.0</ele><time>2026-04-19T12:40:27.001Z</time></trkpt><trkpt lat="44.76105856362166" lon="11.747049956927803"><ele>5.0</ele><time>2026-04-19T12:40:30.001Z</time></trkpt><trkpt lat="44.761024516582545" lon="11.747144104334899"><ele>5.0</ele><time>2026-04-19T12:40:56.001Z</time></trkpt><trkpt lat="44.760974864775434" lon="11.747245112588637"><ele>5.0</ele><time>2026-04-19T12:41:18.002Z</time></trkpt><trkpt lat="44.76092191702726" lon="11.74729890488749"><ele>5.0</ele><time>2026-04-19T12:41:19.002Z</time></trkpt><trkpt lat="44.76086479183699" lon="11.747353475358763"><ele>5.0</ele><time>2026-04-19T12:41:20.002Z</time></trkpt><trkpt lat="44.760792421076935" lon="11.747433705015421"><ele>5.0</ele><time>2026-04-19T12:41:21.002Z</time></trkpt><trkpt lat="44.76070953308277" lon="11.747530418626578"><ele>5.0</ele><time>2026-04-19T12:41:22.002Z</time></trkpt><trkpt lat="44.76063560053036" lon="11.747612579878268"><ele>5.0</ele><time>2026-04-19T12:41:23.002Z</time></trkpt><trkpt lat="44.76056024049987" lon="11.7476918825861"><ele>5.2</ele><time>2026-04-19T12:41:24.002Z</time></trkpt><trkpt lat="44.76047504511536" lon="11.747780778066005"><ele>5.4</ele><time>2026-04-19T12:41:25.002Z</time></trkpt><trkpt lat="44.76039183940234" lon="11.747875222740726"><ele>5.6</ele><time>2026-04-19T12:41:26.002Z</time></trkpt><trkpt lat="44.760303340041844" lon="11.747969215678243"><ele>5.8</ele><time>2026-04-19T12:41:27.002Z</time></trkpt><trkpt lat="44.76022865158796" lon="11.748050387087098"><ele>6.0</ele><time>2026-04-19T12:41:28.002Z</time></trkpt><trkpt lat="44.76016301348853" lon="11.748114345895091"><ele>6.0</ele><time>2026-04-19T12:41:29.002Z</time></trkpt><trkpt lat="44.7601104166197" lon="11.748173159527845"><ele>6.0</ele><time>2026-04-19T12:41:30.002Z</time></trkpt><trkpt lat="44.76002924834276" lon="11.748268158507948"><ele>6.0</ele><time>2026-04-19T12:41:32.002Z</time></trkpt><trkpt lat="44.76016759508388" lon="11.748504866098209"><ele>6.0</ele><time>2026-04-19T12:41:35.002Z</time></trkpt><trkpt lat="44.76024423550439" lon="11.74858103315434"><ele>6.0</ele><time>2026-04-19T12:41:36.002Z</time></trkpt><trkpt lat="44.76031777823299" lon="11.74866344911815"><ele>6.0</ele><time>2026-04-19T12:41:37.002Z</time></trkpt><trkpt lat="44.76038792002442" lon="11.748747530265618"><ele>6.0</ele><time>2026-04-19T12:41:38.002Z</time></trkpt><trkpt lat="44.76047389252816" lon="11.748840076796876"><ele>6.0</ele><time>2026-04-19T12:41:39.002Z</time></trkpt><trkpt lat="44.760561383425745" lon="11.748949567243791"><ele>6.0</ele><time>2026-04-19T12:41:40.002Z</time></trkpt><trkpt lat="44.760664038788676" lon="11.749086127516588"><ele>6.0</ele><time>2026-04-19T12:41:41.002Z</time></trkpt><trkpt lat="44.76077447983926" lon="11.74923675049115"><ele>6.0</ele><time>2026-04-19T12:41:42.002Z</time></trkpt><trkpt lat="44.7608813169568" lon="11.74936772629123"><ele>6.0</ele><time>2026-04-19T12:41:43.002Z</time></trkpt><trkpt lat="44.76096628005666" lon="11.749477401193879"><ele>6.0</ele><time>2026-04-19T12:41:44.002Z</time></trkpt><trkpt lat="44.76103763931105" lon="11.749584854338368"><ele>5.8</ele><time>2026-04-19T12:41:45.002Z</time></trkpt><trkpt lat="44.76110299752666" lon="11.74967133412781"><ele>5.6</ele><time>2026-04-19T12:41:46.002Z</time></trkpt><trkpt lat="44.7611696266909" lon="11.749741982425181"><ele>5.4</ele><time>2026-04-19T12:41:47.002Z</time></trkpt><trkpt lat="44.76125476404519" lon="11.74977243079867"><ele>5.2</ele><time>2026-04-19T12:41:48.002Z</time></trkpt><trkpt lat="44.76136523914422" lon="11.749792965882113"><ele>5.0</ele><time>2026-04-19T12:41:49.002Z</time></trkpt><trkpt lat="44.76149022117674" lon="11.749786639925858"><ele>5.0</ele><time>2026-04-19T12:41:50.002Z</time></trkpt><trkpt lat="44.76160926777509" lon="11.749754345675349"><ele>5.0</ele><time>2026-04-19T12:41:51.002Z</time></trkpt><trkpt lat="44.76174248647969" lon="11.749741655947107"><ele>5.0</ele><time>2026-04-19T12:41:52.002Z</time></trkpt><trkpt lat="44.76188957637754" lon="11.749708092648872"><ele>5.0</ele><time>2026-04-19T12:41:53.002Z</time></trkpt><trkpt lat="44.762014120720586" lon="11.749689824387561"><ele>4.666666666666667</ele><time>2026-04-19T12:41:54.002Z</time></trkpt><trkpt lat="44.762156259585794" lon="11.74966440851242"><ele>4.333333333333333</ele><time>2026-04-19T12:41:55.002Z</time></trkpt><trkpt lat="44.76230831078516" lon="11.74967020212044"><ele>4.0</ele><time>2026-04-19T12:41:56.002Z</time></trkpt><trkpt lat="44.76246439121052" lon="11.749670680841113"><ele>4.0</ele><time>2026-04-19T12:41:57.002Z</time></trkpt><trkpt lat="44.76261124919999" lon="11.749664748962127"><ele>4.0</ele><time>2026-04-19T12:41:58.002Z</time></trkpt><trkpt lat="44.76277209858025" lon="11.749676252109767"><ele>4.0</ele><time>2026-04-19T12:41:59.002Z</time></trkpt><trkpt lat="44.7629263196978" lon="11.749682337255019"><ele>4.0</ele><time>2026-04-19T12:42:00.002Z</time></trkpt><trkpt lat="44.76320674880305" lon="11.749714003454832"><ele>4.0</ele><time>2026-04-19T12:42:02.001Z</time></trkpt><trkpt lat="44.763349332690126" lon="11.749734264143676"><ele>4.0</ele><time>2026-04-19T12:42:03.001Z</time></trkpt><trkpt lat="44.763487777899314" lon="11.749753920557655"><ele>4.5</ele><time>2026-04-19T12:42:04.001Z</time></trkpt><trkpt lat="44.76362716072389" lon="11.749789586882425"><ele>5.0</ele><time>2026-04-19T12:42:05.001Z</time></trkpt><trkpt lat="44.763766129244644" lon="11.749816501899058"><ele>5.5</ele><time>2026-04-19T12:42:06.001Z</time></trkpt><trkpt lat="44.76390073918037" lon="11.749816881591133"><ele>6.0</ele><time>2026-04-19T12:42:07.001Z</time></trkpt><trkpt lat="44.764039885050884" lon="11.749824414300472"><ele>6.0</ele><time>2026-04-19T12:42:08.001Z</time></trkpt><trkpt lat="44.76417517117086" lon="11.749834944523503"><ele>6.0</ele><time>2026-04-19T12:42:09.001Z</time></trkpt><trkpt lat="44.764311843399014" lon="11.74982891570867"><ele>6.0</ele><time>2026-04-19T12:42:10.001Z</time></trkpt><trkpt lat="44.764448785663696" lon="11.749826662500306"><ele>6.0</ele><time>2026-04-19T12:42:11.001Z</time></trkpt><trkpt lat="44.76457919300613" lon="11.749834115617748"><ele>6.75</ele><time>2026-04-19T12:42:12.001Z</time></trkpt><trkpt lat="44.76469846465663" lon="11.749814766758803"><ele>7.5</ele><time>2026-04-19T12:42:13.001Z</time></trkpt><trkpt lat="44.76481680542741" lon="11.749810093191492"><ele>8.25</ele><time>2026-04-19T12:42:14.001Z</time></trkpt><trkpt lat="44.7649553636017" lon="11.74980662386441"><ele>9.0</ele><time>2026-04-19T12:42:15.001Z</time></trkpt><trkpt lat="44.76508391348912" lon="11.749798946202587"><ele>8.25</ele><time>2026-04-19T12:42:16.001Z</time></trkpt><trkpt lat="44.76521804555003" lon="11.749791880298302"><ele>7.5</ele><time>2026-04-19T12:42:17.001Z</time></trkpt><trkpt lat="44.765341153570226" lon="11.749784488695093"><ele>6.75</ele><time>2026-04-19T12:42:18.001Z</time></trkpt><trkpt lat="44.76546307135241" lon="11.749762994110489"><ele>6.0</ele><time>2026-04-19T12:42:19.001Z</time></trkpt><trkpt lat="44.76557545747779" lon="11.749720585974043"><ele>6.0</ele><time>2026-04-19T12:42:20.001Z</time></trkpt><trkpt lat="44.7656803719261" lon="11.749667770388708"><ele>6.0</ele><time>2026-04-19T12:42:21.001Z</time></trkpt><trkpt lat="44.76576828282181" lon="11.749619611498233"><ele>6.0</ele><time>2026-04-19T12:42:22.001Z</time></trkpt><trkpt lat="44.76585213170332" lon="11.74955785442523"><ele>6.0</ele><time>2026-04-19T12:42:23.001Z</time></trkpt><trkpt lat="44.76592254048416" lon="11.74950523202566"><ele>6.0</ele><time>2026-04-19T12:42:24.001Z</time></trkpt><trkpt lat="44.76599082828678" lon="11.749454723611446"><ele>5.8</ele><time>2026-04-19T12:42:25.001Z</time></trkpt><trkpt lat="44.76605390619798" lon="11.749387032330503"><ele>5.6</ele><time>2026-04-19T12:42:26.001Z</time></trkpt><trkpt lat="44.766148968697834" lon="11.749358051621664"><ele>5.4</ele><time>2026-04-19T12:42:28.001Z</time></trkpt><trkpt lat="44.766242227241065" lon="11.74951717450178"><ele>5.2</ele><time>2026-04-19T12:42:30.001Z</time></trkpt><trkpt lat="44.7662857281627" lon="11.749649158515524"><ele>5.0</ele><time>2026-04-19T12:42:31.001Z</time></trkpt><trkpt lat="44.766336887086595" lon="11.749766358660501"><ele>5.0</ele><time>2026-04-19T12:42:32.001Z</time></trkpt><trkpt lat="44.76638828708632" lon="11.749902070331297"><ele>5.0</ele><time>2026-04-19T12:42:33.001Z</time></trkpt><trkpt lat="44.766454308305406" lon="11.750050885411238"><ele>5.0</ele><time>2026-04-19T12:42:34.001Z</time></trkpt><trkpt lat="44.76651380171602" lon="11.750190910850664"><ele>5.0</ele><time>2026-04-19T12:42:35.001Z</time></trkpt><trkpt lat="44.76656248630497" lon="11.750340157036335"><ele>5.25</ele><time>2026-04-19T12:42:36.001Z</time></trkpt><trkpt lat="44.76663310281976" lon="11.7505038264777"><ele>5.5</ele><time>2026-04-19T12:42:37.001Z</time></trkpt><trkpt lat="44.7667148450743" lon="11.750676937398818"><ele>5.75</ele><time>2026-04-19T12:42:38.001Z</time></trkpt><trkpt lat="44.766789020305474" lon="11.750843004879636"><ele>6.0</ele><time>2026-04-19T12:42:39.001Z</time></trkpt><trkpt lat="44.76686117402536" lon="11.7510067925136"><ele>5.0</ele><time>2026-04-19T12:42:40.001Z</time></trkpt><trkpt lat="44.76693843676961" lon="11.751178279282618"><ele>4.0</ele><time>2026-04-19T12:42:41.001Z</time></trkpt><trkpt lat="44.76702100389451" lon="11.751354478827968"><ele>3.0</ele><time>2026-04-19T12:42:42.001Z</time></trkpt><trkpt lat="44.76710484522431" lon="11.751542382979233"><ele>3.0</ele><time>2026-04-19T12:42:43.001Z</time></trkpt><trkpt lat="44.76718462677511" lon="11.751726904929704"><ele>3.0</ele><time>2026-04-19T12:42:44.001Z</time></trkpt><trkpt lat="44.76725965479462" lon="11.75191133334532"><ele>3.0</ele><time>2026-04-19T12:42:45.001Z</time></trkpt><trkpt lat="44.76733795312755" lon="11.752099935137567"><ele>3.0</ele><time>2026-04-19T12:42:46.001Z</time></trkpt><trkpt lat="44.767415580141396" lon="11.752280339848419"><ele>3.0</ele><time>2026-04-19T12:42:47.001Z</time></trkpt><trkpt lat="44.767487381581645" lon="11.752457949023503"><ele>3.0</ele><time>2026-04-19T12:42:48.001Z</time></trkpt><trkpt lat="44.767564330073064" lon="11.752643322695269"><ele>3.0</ele><time>2026-04-19T12:42:49.001Z</time></trkpt><trkpt lat="44.76763756310599" lon="11.752829994895768"><ele>2.75</ele><time>2026-04-19T12:42:50.001Z</time></trkpt><trkpt lat="44.767706636844714" lon="11.753024104755475"><ele>2.5</ele><time>2026-04-19T12:42:51.001Z</time></trkpt><trkpt lat="44.767759096798386" lon="11.75321684001006"><ele>2.25</ele><time>2026-04-19T12:42:52.001Z</time></trkpt><trkpt lat="44.76780442598951" lon="11.753409225033947"><ele>2.0</ele><time>2026-04-19T12:42:53.001Z</time></trkpt><trkpt lat="44.767858868780515" lon="11.753602613519107"><ele>1.75</ele><time>2026-04-19T12:42:54.001Z</time></trkpt><trkpt lat="44.76790480506158" lon="11.75379526543123"><ele>1.5</ele><time>2026-04-19T12:42:55.001Z</time></trkpt><trkpt lat="44.76795785304246" lon="11.753978544431636"><ele>1.25</ele><time>2026-04-19T12:42:56.001Z</time></trkpt><trkpt lat="44.76802313068124" lon="11.754154529017027"><ele>1.0</ele><time>2026-04-19T12:42:57.001Z</time></trkpt><trkpt lat="44.76809576773936" lon="11.754325889620503"><ele>1.25</ele><time>2026-04-19T12:42:58.001Z</time></trkpt><trkpt lat="44.768173047388764" lon="11.754493428853573"><ele>1.5</ele><time>2026-04-19T12:42:59.001Z</time></trkpt><trkpt lat="44.76825255400731" lon="11.754665338889144"><ele>1.75</ele><time>2026-04-19T12:43:00.001Z</time></trkpt><trkpt lat="44.76833343667795" lon="11.754836800308485"><ele>2.0</ele><time>2026-04-19T12:43:01.001Z</time></trkpt><trkpt lat="44.76842007307224" lon="11.755010313538119"><ele>2.0</ele><time>2026-04-19T12:43:02.001Z</time></trkpt><trkpt lat="44.768510734479904" lon="11.755177956130614"><ele>2.0</ele><time>2026-04-19T12:43:03.001Z</time></trkpt><trkpt lat="44.768605601939804" lon="11.755339583455394"><ele>2.0</ele><time>2026-04-19T12:43:04.001Z</time></trkpt><trkpt lat="44.76871470077738" lon="11.755497275918852"><ele>2.0</ele><time>2026-04-19T12:43:05.001Z</time></trkpt><trkpt lat="44.76882085514018" lon="11.755654675432543"><ele>2.0</ele><time>2026-04-19T12:43:06.001Z</time></trkpt><trkpt lat="44.76892317023297" lon="11.755805581175066"><ele>2.0</ele><time>2026-04-19T12:43:07.001Z</time></trkpt><trkpt lat="44.76902777523414" lon="11.755954534620843"><ele>1.5</ele><time>2026-04-19T12:43:08.001Z</time></trkpt><trkpt lat="44.76913236105179" lon="11.756103679821944"><ele>1.0</ele><time>2026-04-19T12:43:09.001Z</time></trkpt><trkpt lat="44.769234116187235" lon="11.756253137117607"><ele>0.5</ele><time>2026-04-19T12:43:10.001Z</time></trkpt><trkpt lat="44.769332070284534" lon="11.756399579101949"><ele>0.0</ele><time>2026-04-19T12:43:11.001Z</time></trkpt><trkpt lat="44.76943179057441" lon="11.756547220681263"><ele>0.0</ele><time>2026-04-19T12:43:12.001Z</time></trkpt><trkpt lat="44.76953143065942" lon="11.756696557653337"><ele>0.0</ele><time>2026-04-19T12:43:13.001Z</time></trkpt><trkpt lat="44.769627835845924" lon="11.756842755695736"><ele>0.0</ele><time>2026-04-19T12:43:14.001Z</time></trkpt><trkpt lat="44.7697273889765" lon="11.757001392094002"><ele>0.0</ele><time>2026-04-19T12:43:15.001Z</time></trkpt><trkpt lat="44.76982928869459" lon="11.757173016466458"><ele>0.0</ele><time>2026-04-19T12:43:16.001Z</time></trkpt><trkpt lat="44.76991869697444" lon="11.75736350653118"><ele>0.0</ele><time>2026-04-19T12:43:17.001Z</time></trkpt><trkpt lat="44.7699996250843" lon="11.75756851070363"><ele>0.0</ele><time>2026-04-19T12:43:18.001Z</time></trkpt><trkpt lat="44.770073878179645" lon="11.757773144963563"><ele>0.0</ele><time>2026-04-19T12:43:19.001Z</time></trkpt><trkpt lat="44.77014766330262" lon="11.757969167093483"><ele>0.0</ele><time>2026-04-19T12:43:20.001Z</time></trkpt><trkpt lat="44.77022626305888" lon="11.758165864332707"><ele>0.0</ele><time>2026-04-19T12:43:21.001Z</time></trkpt><trkpt lat="44.77030411543372" lon="11.7583607293724"><ele>0.0</ele><time>2026-04-19T12:43:22.001Z</time></trkpt><trkpt lat="44.770381714000145" lon="11.758556245924076"><ele>0.0</ele><time>2026-04-19T12:43:23.001Z</time></trkpt><trkpt lat="44.77045984560592" lon="11.758751093396834"><ele>0.0</ele><time>2026-04-19T12:43:24.001Z</time></trkpt><trkpt lat="44.770540142173274" lon="11.758951400069439"><ele>0.0</ele><time>2026-04-19T12:43:25.001Z</time></trkpt><trkpt lat="44.770623262088584" lon="11.759154709799324"><ele>0.0</ele><time>2026-04-19T12:43:26.001Z</time></trkpt><trkpt lat="44.7707035611277" lon="11.759349207235816"><ele>0.0</ele><time>2026-04-19T12:43:27.001Z</time></trkpt><trkpt lat="44.77078217046538" lon="11.759545295885522"><ele>0.3333333333333333</ele><time>2026-04-19T12:43:28.001Z</time></trkpt><trkpt lat="44.77085931923075" lon="11.75973866449436"><ele>0.6666666666666666</ele><time>2026-04-19T12:43:29.001Z</time></trkpt><trkpt lat="44.770937643184325" lon="11.759937893364283"><ele>1.0</ele><time>2026-04-19T12:43:30.001Z</time></trkpt><trkpt lat="44.771016187123244" lon="11.760131529894018"><ele>0.6666666666666666</ele><time>2026-04-19T12:43:31.001Z</time></trkpt><trkpt lat="44.77109407578893" lon="11.76032315539043"><ele>0.3333333333333333</ele><time>2026-04-19T12:43:32.001Z</time></trkpt><trkpt lat="44.77116898928119" lon="11.76051735152953"><ele>0.0</ele><time>2026-04-19T12:43:33.001Z</time></trkpt><trkpt lat="44.77124630547166" lon="11.760725279866937"><ele>0.0</ele><time>2026-04-19T12:43:34.001Z</time></trkpt><trkpt lat="44.77132672976143" lon="11.760929843019214"><ele>0.0</ele><time>2026-04-19T12:43:35.001Z</time></trkpt><trkpt lat="44.771404750358016" lon="11.761138706923628"><ele>0.0</ele><time>2026-04-19T12:43:36.001Z</time></trkpt><trkpt lat="44.77148121073148" lon="11.76134564716883"><ele>0.0</ele><time>2026-04-19T12:43:37.001Z</time></trkpt><trkpt lat="44.77155917294585" lon="11.761555418593154"><ele>0.0</ele><time>2026-04-19T12:43:38.001Z</time></trkpt><trkpt lat="44.77164007926657" lon="11.76176411298606"><ele>0.0</ele><time>2026-04-19T12:43:39.001Z</time></trkpt><trkpt lat="44.77171668647111" lon="11.76197138263683"><ele>-0.3333333333333333</ele><time>2026-04-19T12:43:40.001Z</time></trkpt><trkpt lat="44.77179761470882" lon="11.762174761783013"><ele>-0.6666666666666666</ele><time>2026-04-19T12:43:41.001Z</time></trkpt><trkpt lat="44.77188626786803" lon="11.762380768787935"><ele>-1.0</ele><time>2026-04-19T12:43:42.002Z</time></trkpt><trkpt lat="44.77197663340165" lon="11.762582150063086"><ele>-0.6666666666666666</ele><time>2026-04-19T12:43:43.002Z</time></trkpt><trkpt lat="44.77207062131454" lon="11.762772855431413"><ele>-0.3333333333333333</ele><time>2026-04-19T12:43:44.002Z</time></trkpt><trkpt lat="44.772169212486894" lon="11.762957357788363"><ele>0.0</ele><time>2026-04-19T12:43:45.002Z</time></trkpt><trkpt lat="44.77227076289548" lon="11.763147100857651"><ele>0.0</ele><time>2026-04-19T12:43:46.002Z</time></trkpt><trkpt lat="44.77236668587572" lon="11.763327898760288"><ele>0.0</ele><time>2026-04-19T12:43:47.002Z</time></trkpt><trkpt lat="44.77246196797765" lon="11.76351095580025"><ele>0.0</ele><time>2026-04-19T12:43:48.002Z</time></trkpt><trkpt lat="44.77255844639759" lon="11.763701026377241"><ele>0.0</ele><time>2026-04-19T12:43:49.002Z</time></trkpt><trkpt lat="44.7726532951606" lon="11.763886738912978"><ele>0.0</ele><time>2026-04-19T12:43:50.002Z</time></trkpt><trkpt lat="44.77275335239393" lon="11.764074370708512"><ele>0.0</ele><time>2026-04-19T12:43:51.002Z</time></trkpt><trkpt lat="44.77284618948795" lon="11.76425163494834"><ele>0.0</ele><time>2026-04-19T12:43:52.002Z</time></trkpt><trkpt lat="44.77293006271985" lon="11.764414539685127"><ele>0.0</ele><time>2026-04-19T12:43:53.002Z</time></trkpt><trkpt lat="44.7730127194745" lon="11.764569746049197"><ele>0.0</ele><time>2026-04-19T12:43:54.002Z</time></trkpt><trkpt lat="44.77309358610091" lon="11.764716783190678"><ele>0.0</ele><time>2026-04-19T12:43:55.002Z</time></trkpt><trkpt lat="44.77317860511408" lon="11.764852379839454"><ele>0.0</ele><time>2026-04-19T12:43:56.002Z</time></trkpt><trkpt lat="44.77327752390216" lon="11.764980515114324"><ele>0.0</ele><time>2026-04-19T12:43:57.002Z</time></trkpt><trkpt lat="44.77339407291478" lon="11.765102237693943"><ele>0.0</ele><time>2026-04-19T12:43:58.002Z</time></trkpt><trkpt lat="44.77352101335055" lon="11.765216942490055"><ele>0.0</ele><time>2026-04-19T12:43:59.002Z</time></trkpt><trkpt lat="44.77365577391411" lon="11.765338490606014"><ele>-0.6666666666666666</ele><time>2026-04-19T12:44:00.002Z</time></trkpt><trkpt lat="44.77379407320102" lon="11.765458833965653"><ele>-1.3333333333333333</ele><time>2026-04-19T12:44:01.002Z</time></trkpt><trkpt lat="44.77393094861329" lon="11.765575495513511"><ele>-2.0</ele><time>2026-04-19T12:44:02.002Z</time></trkpt><trkpt lat="44.774059660617255" lon="11.76568790177916"><ele>-2.0</ele><time>2026-04-19T12:44:03.002Z</time></trkpt><trkpt lat="44.77420225351902" lon="11.765800259512112"><ele>-2.0</ele><time>2026-04-19T12:44:04.002Z</time></trkpt><trkpt lat="44.774334920806474" lon="11.765918690545726"><ele>-2.0</ele><time>2026-04-19T12:44:05.002Z</time></trkpt><trkpt lat="44.774472272236686" lon="11.766041022822913"><ele>-1.3333333333333333</ele><time>2026-04-19T12:44:06.002Z</time></trkpt><trkpt lat="44.77460680625551" lon="11.766165800549684"><ele>-0.6666666666666666</ele><time>2026-04-19T12:44:07.002Z</time></trkpt><trkpt lat="44.77473558158313" lon="11.76629603792479"><ele>0.0</ele><time>2026-04-19T12:44:08Z</time></trkpt><trkpt lat="44.77486183816684" lon="11.766439193648417"><ele>0.0</ele><time>2026-04-19T12:44:09Z</time></trkpt><trkpt lat="44.774981147633994" lon="11.766578964855835"><ele>0.0</ele><time>2026-04-19T12:44:10Z</time></trkpt><trkpt lat="44.77509859488397" lon="11.766726042629838"><ele>0.0</ele><time>2026-04-19T12:44:11Z</time></trkpt><trkpt lat="44.77522111971736" lon="11.766865319728685"><ele>-0.3333333333333333</ele><time>2026-04-19T12:44:12Z</time></trkpt><trkpt lat="44.77534616296345" lon="11.767004674183527"><ele>-0.6666666666666666</ele><time>2026-04-19T12:44:13Z</time></trkpt><trkpt lat="44.77547184991712" lon="11.767150659922166"><ele>-1.0</ele><time>2026-04-19T12:44:14Z</time></trkpt><trkpt lat="44.775607784637614" lon="11.767306121904468"><ele>-1.0</ele><time>2026-04-19T12:44:15Z</time></trkpt><trkpt lat="44.77573465720245" lon="11.767450581270383"><ele>-1.0</ele><time>2026-04-19T12:44:16Z</time></trkpt><trkpt lat="44.77586527446501" lon="11.767590654111633"><ele>-1.0</ele><time>2026-04-19T12:44:17Z</time></trkpt><trkpt lat="44.77599203059411" lon="11.767726307911111"><ele>-0.6666666666666666</ele><time>2026-04-19T12:44:18Z</time></trkpt><trkpt lat="44.77613075273454" lon="11.767856442788185"><ele>-0.3333333333333333</ele><time>2026-04-19T12:44:19Z</time></trkpt><trkpt lat="44.77627482986684" lon="11.767982384195651"><ele>0.0</ele><time>2026-04-19T12:44:20Z</time></trkpt><trkpt lat="44.77641671847566" lon="11.768105635699667"><ele>0.0</ele><time>2026-04-19T12:44:21Z</time></trkpt><trkpt lat="44.776553382018854" lon="11.768232712550903"><ele>0.0</ele><time>2026-04-19T12:44:22Z</time></trkpt><trkpt lat="44.77669460132408" lon="11.768360378358256"><ele>0.0</ele><time>2026-04-19T12:44:23Z</time></trkpt><trkpt lat="44.776842112518544" lon="11.768489823397736"><ele>-0.3333333333333333</ele><time>2026-04-19T12:44:24Z</time></trkpt><trkpt lat="44.776981072656554" lon="11.768616673748028"><ele>-0.6666666666666666</ele><time>2026-04-19T12:44:25Z</time></trkpt><trkpt lat="44.77712290177516" lon="11.76874309155508"><ele>-1.0</ele><time>2026-04-19T12:44:26Z</time></trkpt><trkpt lat="44.77726300830623" lon="11.768865612960514"><ele>-1.0</ele><time>2026-04-19T12:44:27Z</time></trkpt><trkpt lat="44.77739738565498" lon="11.768987880871974"><ele>-1.0</ele><time>2026-04-19T12:44:28Z</time></trkpt><trkpt lat="44.777523097922604" lon="11.769101665287328"><ele>-1.0</ele><time>2026-04-19T12:44:29Z</time></trkpt><trkpt lat="44.777637154197144" lon="11.769203545143437"><ele>-1.0</ele><time>2026-04-19T12:44:30Z</time></trkpt><trkpt lat="44.77774452256412" lon="11.769303264903742"><ele>-0.25</ele><time>2026-04-19T12:44:31Z</time></trkpt><trkpt lat="44.77784484027614" lon="11.769404349419696"><ele>0.5</ele><time>2026-04-19T12:44:32Z</time></trkpt><trkpt lat="44.777937466800466" lon="11.769533453126579"><ele>1.25</ele><time>2026-04-19T12:44:33Z</time></trkpt><trkpt lat="44.77800859937408" lon="11.76969744509969"><ele>2.0</ele><time>2026-04-19T12:44:34Z</time></trkpt><trkpt lat="44.77805955190837" lon="11.769886067607612"><ele>2.0</ele><time>2026-04-19T12:44:35Z</time></trkpt><trkpt lat="44.77808302784161" lon="11.770086669544106"><ele>2.0</ele><time>2026-04-19T12:44:36Z</time></trkpt><trkpt lat="44.77807961644237" lon="11.77029121096642"><ele>2.0</ele><time>2026-04-19T12:44:37Z</time></trkpt><trkpt lat="44.778051063489826" lon="11.7704978828642"><ele>2.0</ele><time>2026-04-19T12:44:38Z</time></trkpt><trkpt lat="44.7780061402947" lon="11.770696757161327"><ele>1.0</ele><time>2026-04-19T12:44:39Z</time></trkpt><trkpt lat="44.777946972279715" lon="11.770905141490783"><ele>0.0</ele><time>2026-04-19T12:44:40Z</time></trkpt><trkpt lat="44.77787788225428" lon="11.77114689403449"><ele>-1.0</ele><time>2026-04-19T12:44:41Z</time></trkpt><trkpt lat="44.777811786411384" lon="11.77138182195573"><ele>-1.0</ele><time>2026-04-19T12:44:42Z</time></trkpt><trkpt lat="44.77775614254704" lon="11.771581412655523"><ele>-1.0</ele><time>2026-04-19T12:44:43Z</time></trkpt><trkpt lat="44.7777054625096" lon="11.771761151776223"><ele>-1.0</ele><time>2026-04-19T12:44:44Z</time></trkpt><trkpt lat="44.77765993924614" lon="11.771928010312717"><ele>-1.0</ele><time>2026-04-19T12:44:45Z</time></trkpt><trkpt lat="44.77761293275764" lon="11.772101728679274"><ele>-1.0</ele><time>2026-04-19T12:44:46Z</time></trkpt><trkpt lat="44.77756703982784" lon="11.772274041016818"><ele>-1.0</ele><time>2026-04-19T12:44:47Z</time></trkpt><trkpt lat="44.77751946638306" lon="11.772439999146979"><ele>-1.0</ele><time>2026-04-19T12:44:48Z</time></trkpt><trkpt lat="44.77747943505986" lon="11.772617647949255"><ele>-1.0</ele><time>2026-04-19T12:44:49Z</time></trkpt><trkpt lat="44.77746310978144" lon="11.772803007626235"><ele>-0.75</ele><time>2026-04-19T12:44:50Z</time></trkpt><trkpt lat="44.77748467148541" lon="11.772999123023341"><ele>-0.5</ele><time>2026-04-19T12:44:51Z</time></trkpt><trkpt lat="44.777520419157455" lon="11.773195133495989"><ele>-0.25</ele><time>2026-04-19T12:44:52Z</time></trkpt><trkpt lat="44.777576831764954" lon="11.773385031711133"><ele>0.0</ele><time>2026-04-19T12:44:53Z</time></trkpt><trkpt lat="44.77763834130172" lon="11.773572642062936"><ele>0.5</ele><time>2026-04-19T12:44:54Z</time></trkpt><trkpt lat="44.777706712333085" lon="11.773759188130235"><ele>1.0</ele><time>2026-04-19T12:44:55Z</time></trkpt><trkpt lat="44.77777432252731" lon="11.773935831040772"><ele>1.5</ele><time>2026-04-19T12:44:56Z</time></trkpt><trkpt lat="44.77784880039601" lon="11.77412441577255"><ele>2.0</ele><time>2026-04-19T12:44:57Z</time></trkpt><trkpt lat="44.77791669239566" lon="11.77430733572388"><ele>1.75</ele><time>2026-04-19T12:44:58Z</time></trkpt><trkpt lat="44.777981207334626" lon="11.774485494458224"><ele>1.5</ele><time>2026-04-19T12:44:59Z</time></trkpt><trkpt lat="44.77804767750656" lon="11.774662755146629"><ele>1.25</ele><time>2026-04-19T12:45:00Z</time></trkpt><trkpt lat="44.778108946592525" lon="11.774825663487126"><ele>1.0</ele><time>2026-04-19T12:45:01Z</time></trkpt><trkpt lat="44.77817014379106" lon="11.77498565839392"><ele>1.0</ele><time>2026-04-19T12:45:02Z</time></trkpt><trkpt lat="44.77823001526272" lon="11.77514194995812"><ele>1.0</ele><time>2026-04-19T12:45:03Z</time></trkpt><trkpt lat="44.7782837976751" lon="11.775313450864212"><ele>1.0</ele><time>2026-04-19T12:45:04Z</time></trkpt><trkpt lat="44.778310882827604" lon="11.77549423239007"><ele>1.0</ele><time>2026-04-19T12:45:05Z</time></trkpt><trkpt lat="44.77829782015312" lon="11.775678300270558"><ele>1.0</ele><time>2026-04-19T12:45:06Z</time></trkpt><trkpt lat="44.7782391287472" lon="11.775846905082995"><ele>1.0</ele><time>2026-04-19T12:45:07Z</time></trkpt><trkpt lat="44.77816908379999" lon="11.77601630290811"><ele>1.0</ele><time>2026-04-19T12:45:08Z</time></trkpt><trkpt lat="44.7781113002783" lon="11.776194840996444"><ele>1.0</ele><time>2026-04-19T12:45:09Z</time></trkpt><trkpt lat="44.77805709754389" lon="11.776378707263419"><ele>1.0</ele><time>2026-04-19T12:45:10Z</time></trkpt><trkpt lat="44.778002063247534" lon="11.776560068016842"><ele>1.0</ele><time>2026-04-19T12:45:11Z</time></trkpt><trkpt lat="44.777942522617536" lon="11.776749721501808"><ele>1.0</ele><time>2026-04-19T12:45:12.001Z</time></trkpt><trkpt lat="44.777890146131185" lon="11.776948007287611"><ele>1.0</ele><time>2026-04-19T12:45:13.001Z</time></trkpt><trkpt lat="44.77784735725901" lon="11.777158938178276"><ele>1.0</ele><time>2026-04-19T12:45:14.001Z</time></trkpt><trkpt lat="44.777814133448906" lon="11.777370096476695"><ele>1.0</ele><time>2026-04-19T12:45:15.001Z</time></trkpt><trkpt lat="44.77778049083653" lon="11.777578882236995"><ele>1.0</ele><time>2026-04-19T12:45:16.001Z</time></trkpt><trkpt lat="44.77774530895301" lon="11.777782277492511"><ele>1.0</ele><time>2026-04-19T12:45:17.001Z</time></trkpt><trkpt lat="44.7777107316134" lon="11.777985300356828"><ele>1.0</ele><time>2026-04-19T12:45:18.001Z</time></trkpt><trkpt lat="44.777678006458714" lon="11.778181401987023"><ele>1.0</ele><time>2026-04-19T12:45:19.001Z</time></trkpt><trkpt lat="44.77764459644887" lon="11.778372162836744"><ele>1.0</ele><time>2026-04-19T12:45:20.001Z</time></trkpt><trkpt lat="44.777612118353254" lon="11.778559380250472"><ele>1.0</ele><time>2026-04-19T12:45:21.001Z</time></trkpt><trkpt lat="44.77758192384827" lon="11.778753892995349"><ele>1.0</ele><time>2026-04-19T12:45:22.001Z</time></trkpt><trkpt lat="44.777547122696696" lon="11.778952171616137"><ele>1.0</ele><time>2026-04-19T12:45:23.001Z</time></trkpt><trkpt lat="44.777509239478746" lon="11.779158843210693"><ele>1.0</ele><time>2026-04-19T12:45:24.001Z</time></trkpt><trkpt lat="44.77747069024522" lon="11.7793674016521"><ele>0.75</ele><time>2026-04-19T12:45:25.001Z</time></trkpt><trkpt lat="44.777433293158474" lon="11.779575465836553"><ele>0.5</ele><time>2026-04-19T12:45:26.001Z</time></trkpt><trkpt lat="44.777399947973386" lon="11.779777684128756"><ele>0.25</ele><time>2026-04-19T12:45:27.001Z</time></trkpt><trkpt lat="44.77736539528724" lon="11.779982571202622"><ele>0.0</ele><time>2026-04-19T12:45:28.001Z</time></trkpt><trkpt lat="44.77734657450375" lon="11.78019903872256"><ele>0.0</ele><time>2026-04-19T12:45:29.001Z</time></trkpt><trkpt lat="44.777348407829386" lon="11.780417191766395"><ele>0.0</ele><time>2026-04-19T12:45:30.001Z</time></trkpt><trkpt lat="44.77735682595098" lon="11.78064287999882"><ele>0.0</ele><time>2026-04-19T12:45:31.001Z</time></trkpt><trkpt lat="44.777362965251186" lon="11.780872503519264"><ele>0.0</ele><time>2026-04-19T12:45:32.001Z</time></trkpt><trkpt lat="44.7773716093967" lon="11.781109326756605"><ele>0.0</ele><time>2026-04-19T12:45:33.001Z</time></trkpt><trkpt lat="44.77737798220862" lon="11.781345339828606"><ele>0.0</ele><time>2026-04-19T12:45:34.001Z</time></trkpt><trkpt lat="44.77738657106442" lon="11.78158503623478"><ele>0.0</ele><time>2026-04-19T12:45:35.001Z</time></trkpt><trkpt lat="44.77739253459936" lon="11.781820298297045"><ele>0.0</ele><time>2026-04-19T12:45:36.001Z</time></trkpt><trkpt lat="44.777398291886264" lon="11.782071102382144"><ele>0.0</ele><time>2026-04-19T12:45:37.001Z</time></trkpt><trkpt lat="44.77740242701453" lon="11.782304960229398"><ele>0.0</ele><time>2026-04-19T12:45:38.001Z</time></trkpt><trkpt lat="44.77740688808975" lon="11.782537010608811"><ele>0.0</ele><time>2026-04-19T12:45:39.001Z</time></trkpt><trkpt lat="44.777411199497465" lon="11.782761833329513"><ele>0.0</ele><time>2026-04-19T12:45:40.001Z</time></trkpt><trkpt lat="44.77741551372342" lon="11.782989539617786"><ele>0.0</ele><time>2026-04-19T12:45:41.001Z</time></trkpt><trkpt lat="44.77741913032941" lon="11.783211766234915"><ele>0.0</ele><time>2026-04-19T12:45:42.001Z</time></trkpt><trkpt lat="44.77742215739599" lon="11.783437268987267"><ele>0.0</ele><time>2026-04-19T12:45:43.001Z</time></trkpt><trkpt lat="44.77742642815682" lon="11.783647014995708"><ele>0.0</ele><time>2026-04-19T12:45:44.001Z</time></trkpt><trkpt lat="44.77743204032975" lon="11.783835744280468"><ele>0.0</ele><time>2026-04-19T12:45:45.001Z</time></trkpt><trkpt lat="44.77743534817411" lon="11.784027445431967"><ele>0.0</ele><time>2026-04-19T12:45:46.001Z</time></trkpt><trkpt lat="44.77743623697185" lon="11.784231399368807"><ele>0.0</ele><time>2026-04-19T12:45:47.001Z</time></trkpt><trkpt lat="44.777419793556746" lon="11.78443600940102"><ele>0.25</ele><time>2026-04-19T12:45:48.001Z</time></trkpt><trkpt lat="44.77737914918038" lon="11.784639043802086"><ele>0.5</ele><time>2026-04-19T12:45:49.001Z</time></trkpt><trkpt lat="44.77730643683472" lon="11.784818700312035"><ele>0.75</ele><time>2026-04-19T12:45:50.001Z</time></trkpt><trkpt lat="44.777231169630355" lon="11.784990584427245"><ele>1.0</ele><time>2026-04-19T12:45:51.001Z</time></trkpt><trkpt lat="44.777162201211105" lon="11.785160166795228"><ele>1.0</ele><time>2026-04-19T12:45:52.001Z</time></trkpt><trkpt lat="44.77710225280402" lon="11.785348229908212"><ele>1.0</ele><time>2026-04-19T12:45:53.001Z</time></trkpt><trkpt lat="44.77706230177154" lon="11.78554727250928"><ele>1.0</ele><time>2026-04-19T12:45:54.001Z</time></trkpt><trkpt lat="44.777051569368844" lon="11.785750344028846"><ele>1.0</ele><time>2026-04-19T12:45:55.001Z</time></trkpt><trkpt lat="44.7770681364141" lon="11.78596529843473"><ele>1.0</ele><time>2026-04-19T12:45:56.001Z</time></trkpt><trkpt lat="44.77710201347766" lon="11.786175170175296"><ele>1.0</ele><time>2026-04-19T12:45:57.001Z</time></trkpt><trkpt lat="44.77713502388955" lon="11.7863948220032"><ele>1.0</ele><time>2026-04-19T12:45:58.001Z</time></trkpt><trkpt lat="44.77716259008918" lon="11.78660136295451"><ele>1.0</ele><time>2026-04-19T12:45:59.001Z</time></trkpt><trkpt lat="44.77718377267833" lon="11.786805870818661"><ele>1.0</ele><time>2026-04-19T12:46:00.001Z</time></trkpt><trkpt lat="44.7771837632158" lon="11.787011834620301"><ele>1.0</ele><time>2026-04-19T12:46:01.001Z</time></trkpt><trkpt lat="44.77716971599115" lon="11.787215205782841"><ele>1.0</ele><time>2026-04-19T12:46:02.001Z</time></trkpt><trkpt lat="44.77714930698821" lon="11.787410893331103"><ele>1.0</ele><time>2026-04-19T12:46:03.001Z</time></trkpt><trkpt lat="44.777129014634696" lon="11.7876083166423"><ele>1.0</ele><time>2026-04-19T12:46:04.001Z</time></trkpt><trkpt lat="44.77711265992902" lon="11.787801401465716"><ele>1.0</ele><time>2026-04-19T12:46:05.001Z</time></trkpt><trkpt lat="44.777093446745106" lon="11.787994586996552"><ele>1.0</ele><time>2026-04-19T12:46:06.001Z</time></trkpt><trkpt lat="44.77707269622188" lon="11.788184332447189"><ele>1.0</ele><time>2026-04-19T12:46:07.001Z</time></trkpt><trkpt lat="44.777050309251244" lon="11.788375112575693"><ele>1.0</ele><time>2026-04-19T12:46:08.001Z</time></trkpt><trkpt lat="44.77702318404153" lon="11.788567629007998"><ele>1.0</ele><time>2026-04-19T12:46:09.001Z</time></trkpt><trkpt lat="44.776993989681145" lon="11.788754642325962"><ele>1.0</ele><time>2026-04-19T12:46:10.001Z</time></trkpt><trkpt lat="44.7769629139302" lon="11.788952711120853"><ele>1.0</ele><time>2026-04-19T12:46:11.001Z</time></trkpt><trkpt lat="44.77693053289843" lon="11.78914554987138"><ele>1.0</ele><time>2026-04-19T12:46:12.001Z</time></trkpt><trkpt lat="44.77689333876908" lon="11.789336558966264"><ele>1.0</ele><time>2026-04-19T12:46:13.001Z</time></trkpt><trkpt lat="44.77685621209859" lon="11.789518534926058"><ele>1.0</ele><time>2026-04-19T12:46:13.999Z</time></trkpt><trkpt lat="44.776819225785225" lon="11.789700059399388"><ele>1.25</ele><time>2026-04-19T12:46:14.999Z</time></trkpt><trkpt lat="44.77677169201245" lon="11.789886286877058"><ele>1.5</ele><time>2026-04-19T12:46:15.999Z</time></trkpt><trkpt lat="44.77672320350613" lon="11.790079290427311"><ele>1.75</ele><time>2026-04-19T12:46:16.999Z</time></trkpt><trkpt lat="44.77667963738542" lon="11.79027869458611"><ele>2.0</ele><time>2026-04-19T12:46:17.999Z</time></trkpt><trkpt lat="44.77663436159152" lon="11.790478837546974"><ele>2.0</ele><time>2026-04-19T12:46:18.999Z</time></trkpt><trkpt lat="44.776596229519726" lon="11.790674866632623"><ele>2.0</ele><time>2026-04-19T12:46:19.999Z</time></trkpt><trkpt lat="44.77654689663631" lon="11.790864839955955"><ele>2.0</ele><time>2026-04-19T12:46:20.999Z</time></trkpt><trkpt lat="44.776506127074164" lon="11.791069562174455"><ele>2.0</ele><time>2026-04-19T12:46:21.999Z</time></trkpt><trkpt lat="44.77648306828552" lon="11.791269857142844"><ele>2.0</ele><time>2026-04-19T12:46:22.999Z</time></trkpt><trkpt lat="44.776449747749055" lon="11.791463010130784"><ele>2.0</ele><time>2026-04-19T12:46:23.999Z</time></trkpt><trkpt lat="44.7764171105106" lon="11.791660828709153"><ele>2.0</ele><time>2026-04-19T12:46:24.999Z</time></trkpt><trkpt lat="44.776386441692864" lon="11.791849567197216"><ele>2.0</ele><time>2026-04-19T12:46:25.999Z</time></trkpt><trkpt lat="44.77634995561464" lon="11.792035328831231"><ele>2.0</ele><time>2026-04-19T12:46:26.999Z</time></trkpt><trkpt lat="44.776316976508944" lon="11.792211561429335"><ele>2.0</ele><time>2026-04-19T12:46:27.999Z</time></trkpt><trkpt lat="44.77629019940785" lon="11.792384495954451"><ele>2.0</ele><time>2026-04-19T12:46:29Z</time></trkpt><trkpt lat="44.77626380585685" lon="11.792546340288222"><ele>2.0</ele><time>2026-04-19T12:46:30Z</time></trkpt><trkpt lat="44.77622080157916" lon="11.792707725282646"><ele>2.0</ele><time>2026-04-19T12:46:31Z</time></trkpt><trkpt lat="44.77615983456377" lon="11.792857758582144"><ele>2.0</ele><time>2026-04-19T12:46:32Z</time></trkpt><trkpt lat="44.776095941373114" lon="11.792981020423206"><ele>2.0</ele><time>2026-04-19T12:46:33Z</time></trkpt><trkpt lat="44.776035970750264" lon="11.793097897627321"><ele>2.0</ele><time>2026-04-19T12:46:34Z</time></trkpt><trkpt lat="44.775974618993594" lon="11.793218932316085"><ele>2.0</ele><time>2026-04-19T12:46:35Z</time></trkpt><trkpt lat="44.77591428587491" lon="11.79334376257047"><ele>2.0</ele><time>2026-04-19T12:46:36Z</time></trkpt><trkpt lat="44.77586018256198" lon="11.793465665024911"><ele>2.0</ele><time>2026-04-19T12:46:37Z</time></trkpt><trkpt lat="44.77580123783205" lon="11.793587428059618"><ele>2.0</ele><time>2026-04-19T12:46:38Z</time></trkpt><trkpt lat="44.77575097532598" lon="11.793697097314997"><ele>2.0</ele><time>2026-04-19T12:46:39Z</time></trkpt><trkpt lat="44.77570756470724" lon="11.793803320832641"><ele>2.0</ele><time>2026-04-19T12:46:40Z</time></trkpt><trkpt lat="44.77567081157179" lon="11.793922330199651"><ele>2.0</ele><time>2026-04-19T12:46:41Z</time></trkpt><trkpt lat="44.775647491938166" lon="11.7940444026757"><ele>2.0</ele><time>2026-04-19T12:46:42Z</time></trkpt><trkpt lat="44.775645016409726" lon="11.794174993315867"><ele>2.0</ele><time>2026-04-19T12:46:43Z</time></trkpt><trkpt lat="44.7756647891774" lon="11.79431768785343"><ele>2.0</ele><time>2026-04-19T12:46:44Z</time></trkpt><trkpt lat="44.77570935411828" lon="11.794464349691914"><ele>2.0</ele><time>2026-04-19T12:46:45Z</time></trkpt><trkpt lat="44.77577465923021" lon="11.79461691449257"><ele>2.0</ele><time>2026-04-19T12:46:46Z</time></trkpt><trkpt lat="44.77584522803463" lon="11.794776924082218"><ele>2.0</ele><time>2026-04-19T12:46:47Z</time></trkpt><trkpt lat="44.77591899919262" lon="11.794954039936956"><ele>2.0</ele><time>2026-04-19T12:46:48Z</time></trkpt><trkpt lat="44.775977229799665" lon="11.795126625717286"><ele>2.0</ele><time>2026-04-19T12:46:49Z</time></trkpt><trkpt lat="44.776024643841644" lon="11.795306308089367"><ele>1.5</ele><time>2026-04-19T12:46:50Z</time></trkpt><trkpt lat="44.776054488415134" lon="11.795496426728622"><ele>1.0</ele><time>2026-04-19T12:46:51Z</time></trkpt><trkpt lat="44.77607987311694" lon="11.795675506919856"><ele>0.5</ele><time>2026-04-19T12:46:52Z</time></trkpt><trkpt lat="44.776081696740995" lon="11.79586523475051"><ele>0.0</ele><time>2026-04-19T12:46:53Z</time></trkpt><trkpt lat="44.77606849016299" lon="11.796070908556006"><ele>0.0</ele><time>2026-04-19T12:46:54Z</time></trkpt><trkpt lat="44.77606228033033" lon="11.796280583045855"><ele>0.0</ele><time>2026-04-19T12:46:55Z</time></trkpt><trkpt lat="44.776056830218316" lon="11.796482063917166"><ele>0.0</ele><time>2026-04-19T12:46:56Z</time></trkpt><trkpt lat="44.77605504593878" lon="11.796685596066231"><ele>0.0</ele><time>2026-04-19T12:46:57Z</time></trkpt><trkpt lat="44.7760664945916" lon="11.796896009252336"><ele>0.3333333333333333</ele><time>2026-04-19T12:46:58Z</time></trkpt><trkpt lat="44.776093837098315" lon="11.79710047252846"><ele>0.6666666666666666</ele><time>2026-04-19T12:46:59Z</time></trkpt><trkpt lat="44.77613854198523" lon="11.797301796220582"><ele>1.0</ele><time>2026-04-19T12:47:00Z</time></trkpt><trkpt lat="44.77619637210433" lon="11.797501333463542"><ele>1.25</ele><time>2026-04-19T12:47:01Z</time></trkpt><trkpt lat="44.776254001321895" lon="11.79769523311467"><ele>1.5</ele><time>2026-04-19T12:47:02Z</time></trkpt><trkpt lat="44.776303818044404" lon="11.797870148523884"><ele>1.75</ele><time>2026-04-19T12:47:03Z</time></trkpt><trkpt lat="44.776361049304995" lon="11.798047561151552"><ele>2.0</ele><time>2026-04-19T12:47:04Z</time></trkpt><trkpt lat="44.77641260608439" lon="11.798222188433948"><ele>2.0</ele><time>2026-04-19T12:47:05Z</time></trkpt><trkpt lat="44.776472059952546" lon="11.79840859614074"><ele>2.0</ele><time>2026-04-19T12:47:06Z</time></trkpt><trkpt lat="44.776528901943614" lon="11.798599091044787"><ele>2.0</ele><time>2026-04-19T12:47:07Z</time></trkpt><trkpt lat="44.7765852572705" lon="11.798804657635158"><ele>2.0</ele><time>2026-04-19T12:47:08Z</time></trkpt><trkpt lat="44.77664341941113" lon="11.799002506701838"><ele>2.0</ele><time>2026-04-19T12:47:09Z</time></trkpt><trkpt lat="44.776703589001436" lon="11.799212131488616"><ele>2.0</ele><time>2026-04-19T12:47:10Z</time></trkpt><trkpt lat="44.77676329847563" lon="11.79942741331703"><ele>2.0</ele><time>2026-04-19T12:47:11Z</time></trkpt><trkpt lat="44.776827331716845" lon="11.79964370067765"><ele>2.0</ele><time>2026-04-19T12:47:12Z</time></trkpt><trkpt lat="44.77689286831454" lon="11.799862530739247"><ele>2.0</ele><time>2026-04-19T12:47:13Z</time></trkpt><trkpt lat="44.776953844388075" lon="11.800074815909456"><ele>2.0</ele><time>2026-04-19T12:47:14Z</time></trkpt><trkpt lat="44.77701571655046" lon="11.800283209837628"><ele>2.0</ele><time>2026-04-19T12:47:15.001Z</time></trkpt><trkpt lat="44.777078171187235" lon="11.800487675826327"><ele>2.0</ele><time>2026-04-19T12:47:16.001Z</time></trkpt><trkpt lat="44.77713987804661" lon="11.800692967452667"><ele>2.0</ele><time>2026-04-19T12:47:17.001Z</time></trkpt><trkpt lat="44.77719073961101" lon="11.800898002106068"><ele>1.75</ele><time>2026-04-19T12:47:18.001Z</time></trkpt><trkpt lat="44.77722555263804" lon="11.80109107805722"><ele>1.5</ele><time>2026-04-19T12:47:19.001Z</time></trkpt><trkpt lat="44.77724991443778" lon="11.801291169212584"><ele>1.25</ele><time>2026-04-19T12:47:20.001Z</time></trkpt><trkpt lat="44.777269221825875" lon="11.801491339481242"><ele>1.0</ele><time>2026-04-19T12:47:21.001Z</time></trkpt><trkpt lat="44.777283933817785" lon="11.801690397377392"><ele>0.75</ele><time>2026-04-19T12:47:22.001Z</time></trkpt><trkpt lat="44.77731493266272" lon="11.801886617524145"><ele>0.5</ele><time>2026-04-19T12:47:23.001Z</time></trkpt><trkpt lat="44.77737734809939" lon="11.802075013511821"><ele>0.25</ele><time>2026-04-19T12:47:24.001Z</time></trkpt><trkpt lat="44.77745765761772" lon="11.802258242864466"><ele>0.0</ele><time>2026-04-19T12:47:25.001Z</time></trkpt><trkpt lat="44.77754363779605" lon="11.802442372667086"><ele>0.0</ele><time>2026-04-19T12:47:26.001Z</time></trkpt><trkpt lat="44.77762480471153" lon="11.802632546655289"><ele>0.0</ele><time>2026-04-19T12:47:27.001Z</time></trkpt><trkpt lat="44.777702729483856" lon="11.80282115942623"><ele>0.0</ele><time>2026-04-19T12:47:28.001Z</time></trkpt><trkpt lat="44.77778336670539" lon="11.803009130332367"><ele>0.5</ele><time>2026-04-19T12:47:29.001Z</time></trkpt><trkpt lat="44.77785986289436" lon="11.803188629604694"><ele>1.0</ele><time>2026-04-19T12:47:30.001Z</time></trkpt><trkpt lat="44.777931912333806" lon="11.803355472175452"><ele>1.5</ele><time>2026-04-19T12:47:31.001Z</time></trkpt><trkpt lat="44.77799978407196" lon="11.803514238596458"><ele>2.0</ele><time>2026-04-19T12:47:32.001Z</time></trkpt><trkpt lat="44.778054750498995" lon="11.80365049937779"><ele>2.0</ele><time>2026-04-19T12:47:33.001Z</time></trkpt><trkpt lat="44.77809950419866" lon="11.803765835247225"><ele>2.0</ele><time>2026-04-19T12:47:34.001Z</time></trkpt><trkpt lat="44.77814142577112" lon="11.803847869740624"><ele>2.0</ele><time>2026-04-19T12:47:35.001Z</time></trkpt><trkpt lat="44.77820586011486" lon="11.80386683045319"><ele>2.0</ele><time>2026-04-19T12:47:36.001Z</time></trkpt><trkpt lat="44.7783469252593" lon="11.803807357395284"><ele>2.0</ele><time>2026-04-19T12:47:38.001Z</time></trkpt><trkpt lat="44.77844531032357" lon="11.80372969403197"><ele>1.75</ele><time>2026-04-19T12:47:39.001Z</time></trkpt><trkpt lat="44.778546735721015" lon="11.803646094788888"><ele>1.5</ele><time>2026-04-19T12:47:40.001Z</time></trkpt><trkpt lat="44.77866111620413" lon="11.803560998962693"><ele>1.25</ele><time>2026-04-19T12:47:41.001Z</time></trkpt><trkpt lat="44.778765033077725" lon="11.80348357606159"><ele>1.0</ele><time>2026-04-19T12:47:42.001Z</time></trkpt><trkpt lat="44.77888632799664" lon="11.803426836540211"><ele>1.0</ele><time>2026-04-19T12:47:43.001Z</time></trkpt><trkpt lat="44.779010552666044" lon="11.803360219119226"><ele>1.0</ele><time>2026-04-19T12:47:44.001Z</time></trkpt><trkpt lat="44.779137048777976" lon="11.803312909375135"><ele>1.0</ele><time>2026-04-19T12:47:45.001Z</time></trkpt><trkpt lat="44.77925683463036" lon="11.803278930691945"><ele>1.0</ele><time>2026-04-19T12:47:46.001Z</time></trkpt><trkpt lat="44.77937933421195" lon="11.803232327343705"><ele>1.0</ele><time>2026-04-19T12:47:47.001Z</time></trkpt><trkpt lat="44.77951195942" lon="11.803211149629112"><ele>1.0</ele><time>2026-04-19T12:47:48.001Z</time></trkpt><trkpt lat="44.779647299491934" lon="11.803183809811486"><ele>1.0</ele><time>2026-04-19T12:47:49.001Z</time></trkpt><trkpt lat="44.77976705609108" lon="11.803154503481226"><ele>1.0</ele><time>2026-04-19T12:47:50.001Z</time></trkpt><trkpt lat="44.77987357981605" lon="11.80312678474396"><ele>1.0</ele><time>2026-04-19T12:47:51.001Z</time></trkpt><trkpt lat="44.779971143315564" lon="11.803105427076893"><ele>1.0</ele><time>2026-04-19T12:47:52.001Z</time></trkpt><trkpt lat="44.78005913933533" lon="11.803091661217541"><ele>1.0</ele><time>2026-04-19T12:47:53.001Z</time></trkpt><trkpt lat="44.78014382468292" lon="11.803085484139752"><ele>1.0</ele><time>2026-04-19T12:47:54.001Z</time></trkpt><trkpt lat="44.780231557572776" lon="11.803113282818849"><ele>1.0</ele><time>2026-04-19T12:47:55.001Z</time></trkpt><trkpt lat="44.78030833561449" lon="11.803184140169275"><ele>1.0</ele><time>2026-04-19T12:47:56.001Z</time></trkpt><trkpt lat="44.78037391400444" lon="11.803280428189828"><ele>1.0</ele><time>2026-04-19T12:47:57.001Z</time></trkpt><trkpt lat="44.780437640345795" lon="11.803374583409415"><ele>1.0</ele><time>2026-04-19T12:47:58.001Z</time></trkpt><trkpt lat="44.78050334742443" lon="11.803466882593662"><ele>1.0</ele><time>2026-04-19T12:47:59.001Z</time></trkpt><trkpt lat="44.78056739183413" lon="11.803551778393123"><ele>1.0</ele><time>2026-04-19T12:48:00.001Z</time></trkpt><trkpt lat="44.78063936476575" lon="11.803642472003618"><ele>1.0</ele><time>2026-04-19T12:48:01.001Z</time></trkpt><trkpt lat="44.78071361197657" lon="11.803738831646756"><ele>1.0</ele><time>2026-04-19T12:48:02.001Z</time></trkpt><trkpt lat="44.78079512781942" lon="11.803841344519421"><ele>1.0</ele><time>2026-04-19T12:48:03.001Z</time></trkpt><trkpt lat="44.78088516552187" lon="11.803940487420489"><ele>1.0</ele><time>2026-04-19T12:48:04.001Z</time></trkpt><trkpt lat="44.780982381352835" lon="11.804030642651965"><ele>1.0</ele><time>2026-04-19T12:48:05.001Z</time></trkpt><trkpt lat="44.78107198214264" lon="11.804109981935586"><ele>1.2000000000000002</ele><time>2026-04-19T12:48:06.001Z</time></trkpt><trkpt lat="44.781163800495435" lon="11.80419096471386"><ele>1.4000000000000001</ele><time>2026-04-19T12:48:07.001Z</time></trkpt><trkpt lat="44.781258752389625" lon="11.80427534587024"><ele>1.6</ele><time>2026-04-19T12:48:08.001Z</time></trkpt><trkpt lat="44.78135333884331" lon="11.804363163050345"><ele>1.8</ele><time>2026-04-19T12:48:09.001Z</time></trkpt><trkpt lat="44.78144870337094" lon="11.804448314276515"><ele>2.0</ele><time>2026-04-19T12:48:10.001Z</time></trkpt><trkpt lat="44.78154682456228" lon="11.804538682140924"><ele>2.0</ele><time>2026-04-19T12:48:11.001Z</time></trkpt><trkpt lat="44.781642921850064" lon="11.80463094012108"><ele>2.0</ele><time>2026-04-19T12:48:12.001Z</time></trkpt><trkpt lat="44.78174341550941" lon="11.80471474486299"><ele>2.0</ele><time>2026-04-19T12:48:13.001Z</time></trkpt><trkpt lat="44.78183995061459" lon="11.804801587015367"><ele>2.0</ele><time>2026-04-19T12:48:14.001Z</time></trkpt><trkpt lat="44.7819346214956" lon="11.804887998777915"><ele>1.75</ele><time>2026-04-19T12:48:15.001Z</time></trkpt><trkpt lat="44.78203716462523" lon="11.804980429388037"><ele>1.5</ele><time>2026-04-19T12:48:16.001Z</time></trkpt><trkpt lat="44.78214731295822" lon="11.80506829280571"><ele>1.25</ele><time>2026-04-19T12:48:17.002Z</time></trkpt><trkpt lat="44.782251789893756" lon="11.805163583905202"><ele>1.0</ele><time>2026-04-19T12:48:18.002Z</time></trkpt><trkpt lat="44.782359073154765" lon="11.80525504858249"><ele>1.0</ele><time>2026-04-19T12:48:19.002Z</time></trkpt><trkpt lat="44.78247675688947" lon="11.805342006332024"><ele>1.0</ele><time>2026-04-19T12:48:19.999Z</time></trkpt><trkpt lat="44.78259677213118" lon="11.805417335128562"><ele>1.0</ele><time>2026-04-19T12:48:20.999Z</time></trkpt><trkpt lat="44.78272763387368" lon="11.805485534429168"><ele>1.0</ele><time>2026-04-19T12:48:21.999Z</time></trkpt><trkpt lat="44.782866195193726" lon="11.805537403098974"><ele>1.0</ele><time>2026-04-19T12:48:22.999Z</time></trkpt><trkpt lat="44.78300485596796" lon="11.805570589709882"><ele>1.0</ele><time>2026-04-19T12:48:23.999Z</time></trkpt><trkpt lat="44.783148638062215" lon="11.80558443860885"><ele>1.0</ele><time>2026-04-19T12:48:24.999Z</time></trkpt><trkpt lat="44.783291906392975" lon="11.805591451974996"><ele>1.0</ele><time>2026-04-19T12:48:25.999Z</time></trkpt><trkpt lat="44.783440602204536" lon="11.80559625372998"><ele>1.0</ele><time>2026-04-19T12:48:26.999Z</time></trkpt><trkpt lat="44.78359278440881" lon="11.805599831388943"><ele>1.0</ele><time>2026-04-19T12:48:27.999Z</time></trkpt><trkpt lat="44.78374567475633" lon="11.805606977659773"><ele>1.0</ele><time>2026-04-19T12:48:28.999Z</time></trkpt><trkpt lat="44.78390261245687" lon="11.80561259342801"><ele>1.0</ele><time>2026-04-19T12:48:29.999Z</time></trkpt><trkpt lat="44.784054399763534" lon="11.8056259452525"><ele>1.0</ele><time>2026-04-19T12:48:30.999Z</time></trkpt><trkpt lat="44.78420420045592" lon="11.805647521070235"><ele>1.0</ele><time>2026-04-19T12:48:31.999Z</time></trkpt><trkpt lat="44.78435031360698" lon="11.80571114408219"><ele>0.3333333333333333</ele><time>2026-04-19T12:48:32.999Z</time></trkpt><trkpt lat="44.784499894269935" lon="11.805764457857958"><ele>-0.3333333333333333</ele><time>2026-04-19T12:48:33.999Z</time></trkpt><trkpt lat="44.78464156841305" lon="11.805861979257905"><ele>-1.0</ele><time>2026-04-19T12:48:34.999Z</time></trkpt><trkpt lat="44.78478239988096" lon="11.805979197143122"><ele>-1.0</ele><time>2026-04-19T12:48:35.999Z</time></trkpt><trkpt lat="44.784926338690376" lon="11.806101298266658"><ele>-1.0</ele><time>2026-04-19T12:48:36.999Z</time></trkpt><trkpt lat="44.78506462466374" lon="11.806217783707554"><ele>-1.0</ele><time>2026-04-19T12:48:37.999Z</time></trkpt><trkpt lat="44.78520075261667" lon="11.806332701923507"><ele>-0.3333333333333333</ele><time>2026-04-19T12:48:38.999Z</time></trkpt><trkpt lat="44.78533896112072" lon="11.806445664365638"><ele>0.3333333333333333</ele><time>2026-04-19T12:48:40Z</time></trkpt><trkpt lat="44.785476264808594" lon="11.80654797884061"><ele>1.0</ele><time>2026-04-19T12:48:41Z</time></trkpt><trkpt lat="44.7856273154311" lon="11.80664773873251"><ele>1.0</ele><time>2026-04-19T12:48:42Z</time></trkpt><trkpt lat="44.78576989553827" lon="11.806739829816358"><ele>1.0</ele><time>2026-04-19T12:48:43Z</time></trkpt><trkpt lat="44.78591593542887" lon="11.80684062387988"><ele>1.0</ele><time>2026-04-19T12:48:44Z</time></trkpt><trkpt lat="44.78606179709706" lon="11.806942411550983"><ele>0.3333333333333333</ele><time>2026-04-19T12:48:45Z</time></trkpt><trkpt lat="44.78620098767233" lon="11.807037957845179"><ele>-0.3333333333333333</ele><time>2026-04-19T12:48:46Z</time></trkpt><trkpt lat="44.78633631239184" lon="11.80713271424522"><ele>-1.0</ele><time>2026-04-19T12:48:47Z</time></trkpt><trkpt lat="44.78646853929428" lon="11.807227072024624"><ele>-1.0</ele><time>2026-04-19T12:48:48Z</time></trkpt><trkpt lat="44.78660241391833" lon="11.807320684662098"><ele>-1.0</ele><time>2026-04-19T12:48:49Z</time></trkpt><trkpt lat="44.786739286526775" lon="11.807413755371602"><ele>-1.0</ele><time>2026-04-19T12:48:50Z</time></trkpt><trkpt lat="44.78687838551373" lon="11.807511879674689"><ele>-0.75</ele><time>2026-04-19T12:48:51Z</time></trkpt><trkpt lat="44.78701100947438" lon="11.807615781531458"><ele>-0.5</ele><time>2026-04-19T12:48:52Z</time></trkpt><trkpt lat="44.78713989917715" lon="11.807717920683267"><ele>-0.25</ele><time>2026-04-19T12:48:53Z</time></trkpt><trkpt lat="44.78726072755079" lon="11.80781635553616"><ele>0.0</ele><time>2026-04-19T12:48:54Z</time></trkpt><trkpt lat="44.78736560572907" lon="11.80790965986793"><ele>0.25</ele><time>2026-04-19T12:48:55Z</time></trkpt><trkpt lat="44.787465720477094" lon="11.808011545666655"><ele>0.5</ele><time>2026-04-19T12:48:56Z</time></trkpt><trkpt lat="44.787547942373536" lon="11.808119426029409"><ele>0.75</ele><time>2026-04-19T12:48:57Z</time></trkpt><trkpt lat="44.78762459411326" lon="11.80823426151753"><ele>1.0</ele><time>2026-04-19T12:48:58Z</time></trkpt><trkpt lat="44.78768933237161" lon="11.808350550339899"><ele>1.0</ele><time>2026-04-19T12:48:59Z</time></trkpt><trkpt lat="44.78774723012172" lon="11.80845954500376"><ele>1.0</ele><time>2026-04-19T12:49:00Z</time></trkpt><trkpt lat="44.787791906780086" lon="11.808563343065735"><ele>1.0</ele><time>2026-04-19T12:49:01Z</time></trkpt><trkpt lat="44.78782969972395" lon="11.80865878036929"><ele>1.0</ele><time>2026-04-19T12:49:02Z</time></trkpt><trkpt lat="44.78786709314291" lon="11.808736476092138"><ele>1.0</ele><time>2026-04-19T12:49:03Z</time></trkpt><trkpt lat="44.787971933565146" lon="11.808828263061732"><ele>1.0</ele><time>2026-04-19T12:49:05Z</time></trkpt><trkpt lat="44.788070411375855" lon="11.808793611097085"><ele>1.0</ele><time>2026-04-19T12:49:06Z</time></trkpt><trkpt lat="44.78817619658297" lon="11.808783806138116"><ele>1.0</ele><time>2026-04-19T12:49:07Z</time></trkpt><trkpt lat="44.7882922745703" lon="11.80878503625422"><ele>1.0</ele><time>2026-04-19T12:49:08Z</time></trkpt><trkpt lat="44.78843310444385" lon="11.808799965490397"><ele>0.75</ele><time>2026-04-19T12:49:09Z</time></trkpt><trkpt lat="44.78856975028748" lon="11.808793767816443"><ele>0.5</ele><time>2026-04-19T12:49:10Z</time></trkpt><trkpt lat="44.78871045092864" lon="11.808795803932457"><ele>0.25</ele><time>2026-04-19T12:49:11Z</time></trkpt><trkpt lat="44.78884707549873" lon="11.808798183264903"><ele>0.0</ele><time>2026-04-19T12:49:12Z</time></trkpt><trkpt lat="44.78897948558194" lon="11.808804170302704"><ele>0.0</ele><time>2026-04-19T12:49:13Z</time></trkpt><trkpt lat="44.7891115384841" lon="11.80880762383577"><ele>0.0</ele><time>2026-04-19T12:49:14Z</time></trkpt><trkpt lat="44.78924607215167" lon="11.80881270633122"><ele>0.0</ele><time>2026-04-19T12:49:15Z</time></trkpt><trkpt lat="44.78937999935279" lon="11.808818314204574"><ele>0.0</ele><time>2026-04-19T12:49:16Z</time></trkpt><trkpt lat="44.78951275118914" lon="11.808825210994705"><ele>-0.25</ele><time>2026-04-19T12:49:17Z</time></trkpt><trkpt lat="44.789645723711075" lon="11.808827077904512"><ele>-0.5</ele><time>2026-04-19T12:49:18Z</time></trkpt><trkpt lat="44.789783223089266" lon="11.808820003547492"><ele>-0.75</ele><time>2026-04-19T12:49:19Z</time></trkpt><trkpt lat="44.789919690559415" lon="11.808818653633645"><ele>-1.0</ele><time>2026-04-19T12:49:20Z</time></trkpt><trkpt lat="44.79004388064701" lon="11.808827445009964"><ele>-1.0</ele><time>2026-04-19T12:49:21Z</time></trkpt><trkpt lat="44.79015594144881" lon="11.808831633944196"><ele>-1.0</ele><time>2026-04-19T12:49:22Z</time></trkpt><trkpt lat="44.79025824173045" lon="11.808833511110514"><ele>-1.0</ele><time>2026-04-19T12:49:23.001Z</time></trkpt><trkpt lat="44.790347733810876" lon="11.808831711036994"><ele>-1.0</ele><time>2026-04-19T12:49:24.001Z</time></trkpt><trkpt lat="44.79042917320545" lon="11.80883507191886"><ele>-1.0</ele><time>2026-04-19T12:49:25.001Z</time></trkpt><trkpt lat="44.790503420844544" lon="11.808835550516712"><ele>-1.0</ele><time>2026-04-19T12:49:26.001Z</time></trkpt><trkpt lat="44.790594726254604" lon="11.808832100786534"><ele>-1.0</ele><time>2026-04-19T12:49:27.001Z</time></trkpt><trkpt lat="44.790698758942845" lon="11.808830286490824"><ele>-1.0</ele><time>2026-04-19T12:49:28.001Z</time></trkpt><trkpt lat="44.790829569536626" lon="11.80884214683382"><ele>-1.0</ele><time>2026-04-19T12:49:29.001Z</time></trkpt><trkpt lat="44.79096694649949" lon="11.808838001379023"><ele>-1.0</ele><time>2026-04-19T12:49:30.001Z</time></trkpt><trkpt lat="44.79110735865982" lon="11.808837049884925"><ele>-1.0</ele><time>2026-04-19T12:49:31.001Z</time></trkpt><trkpt lat="44.791256178506984" lon="11.808839437405965"><ele>-1.0</ele><time>2026-04-19T12:49:32.001Z</time></trkpt><trkpt lat="44.79141266024752" lon="11.808841178988441"><ele>-1.0</ele><time>2026-04-19T12:49:33.001Z</time></trkpt><trkpt lat="44.79157765517819" lon="11.808843204862493"><ele>-1.0</ele><time>2026-04-19T12:49:34.001Z</time></trkpt><trkpt lat="44.791734057113594" lon="11.808843090349956"><ele>-1.0</ele><time>2026-04-19T12:49:35.001Z</time></trkpt><trkpt lat="44.79189636893085" lon="11.808840923807331"><ele>-1.0</ele><time>2026-04-19T12:49:36.001Z</time></trkpt><trkpt lat="44.79206446511571" lon="11.808840667034202"><ele>-0.6666666666666666</ele><time>2026-04-19T12:49:37.001Z</time></trkpt><trkpt lat="44.79222691405758" lon="11.808845427250635"><ele>-0.3333333333333333</ele><time>2026-04-19T12:49:38.001Z</time></trkpt><trkpt lat="44.79238740003845" lon="11.80884657335087"><ele>0.0</ele><time>2026-04-19T12:49:39.001Z</time></trkpt><trkpt lat="44.79254536892801" lon="11.808847811291468"><ele>0.0</ele><time>2026-04-19T12:49:40.001Z</time></trkpt><trkpt lat="44.792699053001236" lon="11.808849372608895"><ele>0.0</ele><time>2026-04-19T12:49:41.001Z</time></trkpt><trkpt lat="44.79284312103084" lon="11.808850018568648"><ele>0.0</ele><time>2026-04-19T12:49:42.001Z</time></trkpt><trkpt lat="44.79297871115474" lon="11.808851436188366"><ele>0.0</ele><time>2026-04-19T12:49:43.001Z</time></trkpt><trkpt lat="44.79311562039796" lon="11.808851752386875"><ele>0.0</ele><time>2026-04-19T12:49:44.001Z</time></trkpt><trkpt lat="44.79324353781932" lon="11.808852661295536"><ele>0.0</ele><time>2026-04-19T12:49:45.001Z</time></trkpt><trkpt lat="44.7933705556382" lon="11.808855267442958"><ele>0.0</ele><time>2026-04-19T12:49:46.001Z</time></trkpt><trkpt lat="44.79349824941947" lon="11.808855929799567"><ele>0.0</ele><time>2026-04-19T12:49:47.001Z</time></trkpt><trkpt lat="44.793622091317204" lon="11.808860708261212"><ele>0.0</ele><time>2026-04-19T12:49:48.001Z</time></trkpt><trkpt lat="44.79374591561993" lon="11.808863914728347"><ele>0.0</ele><time>2026-04-19T12:49:49.001Z</time></trkpt><trkpt lat="44.793868272618816" lon="11.808868017748635"><ele>0.0</ele><time>2026-04-19T12:49:50.001Z</time></trkpt><trkpt lat="44.79398749164153" lon="11.80887324873814"><ele>0.0</ele><time>2026-04-19T12:49:51.001Z</time></trkpt><trkpt lat="44.79409317145515" lon="11.80887683533223"><ele>0.0</ele><time>2026-04-19T12:49:52.001Z</time></trkpt><trkpt lat="44.7941907155591" lon="11.808879711321216"><ele>0.0</ele><time>2026-04-19T12:49:53.001Z</time></trkpt><trkpt lat="44.79428009946257" lon="11.80888053737921"><ele>0.0</ele><time>2026-04-19T12:49:54.001Z</time></trkpt><trkpt lat="44.79435430534128" lon="11.808884339321814"><ele>0.0</ele><time>2026-04-19T12:49:55.001Z</time></trkpt><trkpt lat="44.79442470752512" lon="11.808887600135327"><ele>0.0</ele><time>2026-04-19T12:49:56.001Z</time></trkpt><trkpt lat="44.79451287100809" lon="11.808889354428686"><ele>0.0</ele><time>2026-04-19T12:49:58.001Z</time></trkpt><trkpt lat="44.794580383160415" lon="11.808891945550272"><ele>0.6</ele><time>2026-04-19T12:50:00.001Z</time></trkpt><trkpt lat="44.79464904120503" lon="11.80888799387311"><ele>1.2</ele><time>2026-04-19T12:50:03.001Z</time></trkpt><trkpt lat="44.79472290159544" lon="11.808878289391323"><ele>1.7999999999999998</ele><time>2026-04-19T12:50:05.001Z</time></trkpt><trkpt lat="44.794824142727755" lon="11.808913888891595"><ele>2.4</ele><time>2026-04-19T12:50:07.001Z</time></trkpt><trkpt lat="44.79485541771851" lon="11.80905909086906"><ele>3.0</ele><time>2026-04-19T12:50:09.001Z</time></trkpt><trkpt lat="44.79485707040794" lon="11.809271559951018"><ele>2.8</ele><time>2026-04-19T12:50:11.001Z</time></trkpt><trkpt lat="44.79486105342242" lon="11.809419238930042"><ele>2.5999999999999996</ele><time>2026-04-19T12:50:12.001Z</time></trkpt><trkpt lat="44.79487002778937" lon="11.80957248530439"><ele>2.4000000000000004</ele><time>2026-04-19T12:50:13.001Z</time></trkpt><trkpt lat="44.79488159658179" lon="11.809725262055874"><ele>2.2</ele><time>2026-04-19T12:50:14.001Z</time></trkpt><trkpt lat="44.79488849695662" lon="11.809879424513092"><ele>2.0</ele><time>2026-04-19T12:50:15.001Z</time></trkpt><trkpt lat="44.7948959302982" lon="11.8100422059016"><ele>2.0</ele><time>2026-04-19T12:50:16.002Z</time></trkpt><trkpt lat="44.79490712113087" lon="11.810227493894542"><ele>2.0</ele><time>2026-04-19T12:50:17.002Z</time></trkpt><trkpt lat="44.794921350643364" lon="11.810424968437857"><ele>2.0</ele><time>2026-04-19T12:50:18.002Z</time></trkpt><trkpt lat="44.79493617051242" lon="11.810625960304167"><ele>2.0</ele><time>2026-04-19T12:50:19.002Z</time></trkpt><trkpt lat="44.79494557753441" lon="11.810820532409595"><ele>2.0</ele><time>2026-04-19T12:50:20.002Z</time></trkpt><trkpt lat="44.794955400015866" lon="11.811016204117111"><ele>2.0</ele><time>2026-04-19T12:50:21.002Z</time></trkpt><trkpt lat="44.79496512793033" lon="11.811210004210947"><ele>2.0</ele><time>2026-04-19T12:50:22.002Z</time></trkpt><trkpt lat="44.79496991465145" lon="11.811415047078562"><ele>2.0</ele><time>2026-04-19T12:50:23.002Z</time></trkpt><trkpt lat="44.794965232510805" lon="11.811621895625606"><ele>1.3333333333333333</ele><time>2026-04-19T12:50:24.002Z</time></trkpt><trkpt lat="44.7949504585204" lon="11.811836159033659"><ele>0.6666666666666666</ele><time>2026-04-19T12:50:25.002Z</time></trkpt><trkpt lat="44.794927816149695" lon="11.812049945035175"><ele>0.0</ele><time>2026-04-19T12:50:25.999Z</time></trkpt><trkpt lat="44.79490050627342" lon="11.812256685866835"><ele>0.0</ele><time>2026-04-19T12:50:26.999Z</time></trkpt><trkpt lat="44.794872659153164" lon="11.812462341793761"><ele>0.0</ele><time>2026-04-19T12:50:27.999Z</time></trkpt><trkpt lat="44.794843915667855" lon="11.812676854441133"><ele>0.0</ele><time>2026-04-19T12:50:28.999Z</time></trkpt><trkpt lat="44.794806860399625" lon="11.812878650739284"><ele>0.0</ele><time>2026-04-19T12:50:29.999Z</time></trkpt><trkpt lat="44.79475787157786" lon="11.813074637609887"><ele>0.0</ele><time>2026-04-19T12:50:30.999Z</time></trkpt><trkpt lat="44.7946858467081" lon="11.813279591748756"><ele>0.0</ele><time>2026-04-19T12:50:31.999Z</time></trkpt><trkpt lat="44.79461244037882" lon="11.81346642130037"><ele>-0.3333333333333333</ele><time>2026-04-19T12:50:32.999Z</time></trkpt><trkpt lat="44.79453176699378" lon="11.813664022626819"><ele>-0.6666666666666666</ele><time>2026-04-19T12:50:34Z</time></trkpt><trkpt lat="44.794453667125545" lon="11.813863087809647"><ele>-1.0</ele><time>2026-04-19T12:50:35Z</time></trkpt><trkpt lat="44.79437663160363" lon="11.814044350016179"><ele>-1.0</ele><time>2026-04-19T12:50:36Z</time></trkpt><trkpt lat="44.794288168713784" lon="11.814230149164093"><ele>-1.0</ele><time>2026-04-19T12:50:37Z</time></trkpt><trkpt lat="44.79419639425581" lon="11.814395476333674"><ele>-1.0</ele><time>2026-04-19T12:50:38Z</time></trkpt><trkpt lat="44.79409817536937" lon="11.814554033739336"><ele>-1.0</ele><time>2026-04-19T12:50:39Z</time></trkpt><trkpt lat="44.79399193943646" lon="11.814716670452897"><ele>-1.0</ele><time>2026-04-19T12:50:40Z</time></trkpt><trkpt lat="44.79387846911573" lon="11.814881707723606"><ele>-1.0</ele><time>2026-04-19T12:50:41Z</time></trkpt><trkpt lat="44.79375766097512" lon="11.815044317279362"><ele>-0.6666666666666666</ele><time>2026-04-19T12:50:42Z</time></trkpt><trkpt lat="44.793626679385795" lon="11.815194055276509"><ele>-0.3333333333333333</ele><time>2026-04-19T12:50:43Z</time></trkpt><trkpt lat="44.79349016956992" lon="11.81531299509737"><ele>0.0</ele><time>2026-04-19T12:50:44Z</time></trkpt><trkpt lat="44.793349376409246" lon="11.815402184221263"><ele>0.0</ele><time>2026-04-19T12:50:45Z</time></trkpt><trkpt lat="44.79320319294655" lon="11.815473191182885"><ele>0.0</ele><time>2026-04-19T12:50:46Z</time></trkpt><trkpt lat="44.793054348935975" lon="11.815542022532805"><ele>0.0</ele><time>2026-04-19T12:50:47Z</time></trkpt><trkpt lat="44.792904811404654" lon="11.815606046370535"><ele>0.0</ele><time>2026-04-19T12:50:48Z</time></trkpt><trkpt lat="44.79275490330076" lon="11.815672429314334"><ele>0.0</ele><time>2026-04-19T12:50:49Z</time></trkpt><trkpt lat="44.79260029602969" lon="11.815750171625055"><ele>0.0</ele><time>2026-04-19T12:50:50Z</time></trkpt><trkpt lat="44.79245597089394" lon="11.815847698817258"><ele>-0.3333333333333333</ele><time>2026-04-19T12:50:51Z</time></trkpt><trkpt lat="44.79230754963033" lon="11.815973465446298"><ele>-0.6666666666666666</ele><time>2026-04-19T12:50:52Z</time></trkpt><trkpt lat="44.79217750720955" lon="11.816114160350903"><ele>-1.0</ele><time>2026-04-19T12:50:53Z</time></trkpt><trkpt lat="44.79205167291745" lon="11.816273194535684"><ele>-1.0</ele><time>2026-04-19T12:50:54Z</time></trkpt><trkpt lat="44.7919297059234" lon="11.81644773533603"><ele>-1.0</ele><time>2026-04-19T12:50:55Z</time></trkpt><trkpt lat="44.79180584911514" lon="11.816606052006819"><ele>-1.0</ele><time>2026-04-19T12:50:56Z</time></trkpt><trkpt lat="44.79168221147089" lon="11.816760671522324"><ele>-0.3333333333333333</ele><time>2026-04-19T12:50:57Z</time></trkpt><trkpt lat="44.79155889482213" lon="11.816906397356865"><ele>0.3333333333333333</ele><time>2026-04-19T12:50:58Z</time></trkpt><trkpt lat="44.791432243581916" lon="11.817048585139242"><ele>1.0</ele><time>2026-04-19T12:50:59Z</time></trkpt><trkpt lat="44.79130285283069" lon="11.817188782992549"><ele>1.0</ele><time>2026-04-19T12:51:00Z</time></trkpt><trkpt lat="44.79116788577696" lon="11.817333837854504"><ele>1.0</ele><time>2026-04-19T12:51:01Z</time></trkpt><trkpt lat="44.79103927217442" lon="11.81747507381233"><ele>1.0</ele><time>2026-04-19T12:51:02Z</time></trkpt><trkpt lat="44.790911517568155" lon="11.817610968227505"><ele>0.3333333333333333</ele><time>2026-04-19T12:51:03Z</time></trkpt><trkpt lat="44.79078464664899" lon="11.817748751457753"><ele>-0.3333333333333333</ele><time>2026-04-19T12:51:04Z</time></trkpt><trkpt lat="44.79065568579775" lon="11.817889716143172"><ele>-1.0</ele><time>2026-04-19T12:51:05Z</time></trkpt><trkpt lat="44.79053064545761" lon="11.818027020788568"><ele>-1.0</ele><time>2026-04-19T12:51:06Z</time></trkpt><trkpt lat="44.7904044269693" lon="11.818166207063037"><ele>-1.0</ele><time>2026-04-19T12:51:07Z</time></trkpt><trkpt lat="44.790279049738984" lon="11.818309662291943"><ele>-1.0</ele><time>2026-04-19T12:51:08Z</time></trkpt><trkpt lat="44.79016748700557" lon="11.818457728631737"><ele>-0.3333333333333333</ele><time>2026-04-19T12:51:09Z</time></trkpt><trkpt lat="44.79006463995027" lon="11.81862709612694"><ele>0.3333333333333333</ele><time>2026-04-19T12:51:10Z</time></trkpt><trkpt lat="44.78996384408112" lon="11.818801498137578"><ele>1.0</ele><time>2026-04-19T12:51:11Z</time></trkpt><trkpt lat="44.7898642826002" lon="11.818974745424557"><ele>1.0</ele><time>2026-04-19T12:51:12Z</time></trkpt><trkpt lat="44.78975926369371" lon="11.819145298941038"><ele>1.0</ele><time>2026-04-19T12:51:13Z</time></trkpt><trkpt lat="44.78965244096501" lon="11.819323419195042"><ele>1.0</ele><time>2026-04-19T12:51:14Z</time></trkpt><trkpt lat="44.78953758418482" lon="11.819504571866545"><ele>0.6666666666666666</ele><time>2026-04-19T12:51:15Z</time></trkpt><trkpt lat="44.78941765036777" lon="11.819680385219872"><ele>0.3333333333333333</ele><time>2026-04-19T12:51:16Z</time></trkpt><trkpt lat="44.7893162677635" lon="11.819843629723316"><ele>0.0</ele><time>2026-04-19T12:51:17.001Z</time></trkpt><trkpt lat="44.78922529401619" lon="11.82001643106246"><ele>0.0</ele><time>2026-04-19T12:51:18.001Z</time></trkpt><trkpt lat="44.78913404889301" lon="11.820154272069722"><ele>0.0</ele><time>2026-04-19T12:51:19.001Z</time></trkpt><trkpt lat="44.7890471314762" lon="11.82029098629184"><ele>0.0</ele><time>2026-04-19T12:51:20.001Z</time></trkpt><trkpt lat="44.7889643058315" lon="11.820407006206713"><ele>0.0</ele><time>2026-04-19T12:51:21.001Z</time></trkpt><trkpt lat="44.78888233982238" lon="11.820513706554332"><ele>0.0</ele><time>2026-04-19T12:51:22.001Z</time></trkpt><trkpt lat="44.78880729211472" lon="11.82059921756342"><ele>0.0</ele><time>2026-04-19T12:51:23.001Z</time></trkpt><trkpt lat="44.78874519978596" lon="11.820678721872193"><ele>0.0</ele><time>2026-04-19T12:51:24.001Z</time></trkpt><trkpt lat="44.78869532686363" lon="11.820738152164472"><ele>0.0</ele><time>2026-04-19T12:51:25.001Z</time></trkpt><trkpt lat="44.788624177017425" lon="11.820842237639383"><ele>0.0</ele><time>2026-04-19T12:51:27.001Z</time></trkpt><trkpt lat="44.78867117563517" lon="11.82098418383354"><ele>-0.2</ele><time>2026-04-19T12:51:29.001Z</time></trkpt><trkpt lat="44.788740122707" lon="11.821054009353942"><ele>-0.4</ele><time>2026-04-19T12:51:30.001Z</time></trkpt><trkpt lat="44.788831214958414" lon="11.821122373605425"><ele>-0.6000000000000001</ele><time>2026-04-19T12:51:31.001Z</time></trkpt><trkpt lat="44.78891606496645" lon="11.821204749491216"><ele>-0.8</ele><time>2026-04-19T12:51:32.001Z</time></trkpt><trkpt lat="44.789006630485424" lon="11.82129072153448"><ele>-1.0</ele><time>2026-04-19T12:51:33.001Z</time></trkpt><trkpt lat="44.789101822852686" lon="11.821378877160466"><ele>-1.0</ele><time>2026-04-19T12:51:34.001Z</time></trkpt><trkpt lat="44.789195571642516" lon="11.821464331692546"><ele>-1.0</ele><time>2026-04-19T12:51:35.001Z</time></trkpt><trkpt lat="44.78928569986901" lon="11.821545359863432"><ele>-1.0</ele><time>2026-04-19T12:51:36.001Z</time></trkpt><trkpt lat="44.78938200588667" lon="11.821634222438389"><ele>-1.0</ele><time>2026-04-19T12:51:37.001Z</time></trkpt><trkpt lat="44.789478411215846" lon="11.821723235075519"><ele>-1.0</ele><time>2026-04-19T12:51:38.001Z</time></trkpt><trkpt lat="44.78957444214376" lon="11.821816209286816"><ele>-1.75</ele><time>2026-04-19T12:51:39.001Z</time></trkpt><trkpt lat="44.78966332977063" lon="11.821896315082322"><ele>-2.5</ele><time>2026-04-19T12:51:40.001Z</time></trkpt><trkpt lat="44.789771421387904" lon="11.822002210558484"><ele>-3.25</ele><time>2026-04-19T12:51:41.001Z</time></trkpt><trkpt lat="44.78990655145395" lon="11.822110147684171"><ele>-4.0</ele><time>2026-04-19T12:51:42.001Z</time></trkpt><trkpt lat="44.79006959659919" lon="11.822262376493839"><ele>-3.6666666666666665</ele><time>2026-04-19T12:51:43.001Z</time></trkpt><trkpt lat="44.7902490868882" lon="11.82243464371993"><ele>-3.333333333333333</ele><time>2026-04-19T12:51:44.001Z</time></trkpt><trkpt lat="44.79042226739487" lon="11.822598940699255"><ele>-3.0</ele><time>2026-04-19T12:51:45.001Z</time></trkpt><trkpt lat="44.79059378018124" lon="11.822758225380289"><ele>-2.6666666666666665</ele><time>2026-04-19T12:51:46.001Z</time></trkpt><trkpt lat="44.79075668865624" lon="11.82291824723734"><ele>-2.333333333333333</ele><time>2026-04-19T12:51:47.001Z</time></trkpt><trkpt lat="44.7909109957512" lon="11.823068336188232"><ele>-2.0</ele><time>2026-04-19T12:51:48.001Z</time></trkpt><trkpt lat="44.79107095136596" lon="11.823216485174642"><ele>-2.0</ele><time>2026-04-19T12:51:49.001Z</time></trkpt><trkpt lat="44.79123462986303" lon="11.823362958958477"><ele>-2.0</ele><time>2026-04-19T12:51:50.001Z</time></trkpt><trkpt lat="44.79139629347324" lon="11.823509091957941"><ele>-2.0</ele><time>2026-04-19T12:51:51.001Z</time></trkpt><trkpt lat="44.79155096672261" lon="11.823647685278907"><ele>-2.333333333333333</ele><time>2026-04-19T12:51:52.001Z</time></trkpt><trkpt lat="44.791701155621965" lon="11.823784121647808"><ele>-2.6666666666666665</ele><time>2026-04-19T12:51:53.001Z</time></trkpt><trkpt lat="44.79185575977923" lon="11.823922720524797"><ele>-3.0</ele><time>2026-04-19T12:51:54.001Z</time></trkpt><trkpt lat="44.79200717738085" lon="11.824062250847694"><ele>-3.0</ele><time>2026-04-19T12:51:55.001Z</time></trkpt><trkpt lat="44.79215993132431" lon="11.824205039676686"><ele>-3.0</ele><time>2026-04-19T12:51:56.001Z</time></trkpt><trkpt lat="44.792312734596884" lon="11.824346038578728"><ele>-3.0</ele><time>2026-04-19T12:51:57.001Z</time></trkpt><trkpt lat="44.7924675628168" lon="11.824486130244702"><ele>-3.0</ele><time>2026-04-19T12:51:58.001Z</time></trkpt><trkpt lat="44.79261725370066" lon="11.824624232773052"><ele>-3.0</ele><time>2026-04-19T12:51:59.001Z</time></trkpt><trkpt lat="44.79276808425321" lon="11.824766882231591"><ele>-3.0</ele><time>2026-04-19T12:52:00.001Z</time></trkpt><trkpt lat="44.79291380883367" lon="11.82490310931518"><ele>-2.3333333333333335</ele><time>2026-04-19T12:52:01.001Z</time></trkpt><trkpt lat="44.7930710159881" lon="11.825041581170563"><ele>-1.6666666666666665</ele><time>2026-04-19T12:52:02.001Z</time></trkpt><trkpt lat="44.79321764403074" lon="11.825181958972365"><ele>-1.0</ele><time>2026-04-19T12:52:03.001Z</time></trkpt><trkpt lat="44.793365181559174" lon="11.825318362948723"><ele>-0.6666666666666666</ele><time>2026-04-19T12:52:04.001Z</time></trkpt><trkpt lat="44.793512681393594" lon="11.825454124372463"><ele>-0.3333333333333333</ele><time>2026-04-19T12:52:05.001Z</time></trkpt><trkpt lat="44.79365812446089" lon="11.825588253137857"><ele>0.0</ele><time>2026-04-19T12:52:06.001Z</time></trkpt><trkpt lat="44.793795962851156" lon="11.825723906945143"><ele>0.0</ele><time>2026-04-19T12:52:07.002Z</time></trkpt><trkpt lat="44.79393771235074" lon="11.825868605807822"><ele>0.0</ele><time>2026-04-19T12:52:08.002Z</time></trkpt><trkpt lat="44.79407237000238" lon="11.826009590722359"><ele>0.0</ele><time>2026-04-19T12:52:09.002Z</time></trkpt><trkpt lat="44.79420398684373" lon="11.826150059785368"><ele>0.0</ele><time>2026-04-19T12:52:10.002Z</time></trkpt><trkpt lat="44.794337025939285" lon="11.826298011326138"><ele>0.0</ele><time>2026-04-19T12:52:11.002Z</time></trkpt><trkpt lat="44.79446435625558" lon="11.82645394377221"><ele>0.0</ele><time>2026-04-19T12:52:12.002Z</time></trkpt><trkpt lat="44.79458910296412" lon="11.826617608169123"><ele>0.0</ele><time>2026-04-19T12:52:13.002Z</time></trkpt><trkpt lat="44.79470573695149" lon="11.826781508168942"><ele>0.0</ele><time>2026-04-19T12:52:14.002Z</time></trkpt><trkpt lat="44.79481973737306" lon="11.826941276026817"><ele>0.0</ele><time>2026-04-19T12:52:15.002Z</time></trkpt><trkpt lat="44.79493272955101" lon="11.827112518489164"><ele>0.0</ele><time>2026-04-19T12:52:16.002Z</time></trkpt><trkpt lat="44.79504694589915" lon="11.827298862905844"><ele>0.0</ele><time>2026-04-19T12:52:17.002Z</time></trkpt><trkpt lat="44.79515365643884" lon="11.827480617585568"><ele>0.0</ele><time>2026-04-19T12:52:18.002Z</time></trkpt><trkpt lat="44.7952586265667" lon="11.827659587224161"><ele>-0.6666666666666666</ele><time>2026-04-19T12:52:19.002Z</time></trkpt><trkpt lat="44.795356707032106" lon="11.827836876044458"><ele>-1.3333333333333333</ele><time>2026-04-19T12:52:20.002Z</time></trkpt><trkpt lat="44.79545480101446" lon="11.82802853325209"><ele>-2.0</ele><time>2026-04-19T12:52:21.002Z</time></trkpt><trkpt lat="44.79554531404718" lon="11.828216748725023"><ele>-2.0</ele><time>2026-04-19T12:52:22.002Z</time></trkpt><trkpt lat="44.795635854591836" lon="11.828409949665138"><ele>-2.0</ele><time>2026-04-19T12:52:23.002Z</time></trkpt><trkpt lat="44.79572394169539" lon="11.828606790072685"><ele>-2.0</ele><time>2026-04-19T12:52:24.002Z</time></trkpt><trkpt lat="44.79580630576255" lon="11.828807833308602"><ele>-2.333333333333333</ele><time>2026-04-19T12:52:25.002Z</time></trkpt><trkpt lat="44.79588718442275" lon="11.829007829507036"><ele>-2.6666666666666665</ele><time>2026-04-19T12:52:26.002Z</time></trkpt><trkpt lat="44.79596357084452" lon="11.829209805018168"><ele>-3.0</ele><time>2026-04-19T12:52:27.002Z</time></trkpt><trkpt lat="44.796033564279426" lon="11.829408302558774"><ele>-2.3333333333333335</ele><time>2026-04-19T12:52:28.002Z</time></trkpt><trkpt lat="44.79611023705219" lon="11.829604774655108"><ele>-1.6666666666666665</ele><time>2026-04-19T12:52:29.002Z</time></trkpt><trkpt lat="44.79618519880584" lon="11.829808013903978"><ele>-1.0</ele><time>2026-04-19T12:52:30.002Z</time></trkpt><trkpt lat="44.79625980910995" lon="11.829997628144655"><ele>-1.6666666666666665</ele><time>2026-04-19T12:52:31.002Z</time></trkpt><trkpt lat="44.79633528780535" lon="11.830200300524128"><ele>-2.3333333333333335</ele><time>2026-04-19T12:52:32Z</time></trkpt><trkpt lat="44.796412141801554" lon="11.830410105016"><ele>-3.0</ele><time>2026-04-19T12:52:33Z</time></trkpt><trkpt lat="44.79648942516813" lon="11.830622971292533"><ele>-3.0</ele><time>2026-04-19T12:52:34Z</time></trkpt><trkpt lat="44.796573518123665" lon="11.83084693262535"><ele>-3.0</ele><time>2026-04-19T12:52:35Z</time></trkpt><trkpt lat="44.79664862063637" lon="11.831054180603553"><ele>-3.0</ele><time>2026-04-19T12:52:36Z</time></trkpt><trkpt lat="44.79672930616888" lon="11.831260786784478"><ele>-3.0</ele><time>2026-04-19T12:52:37Z</time></trkpt><trkpt lat="44.79680824035851" lon="11.831476255218346"><ele>-3.0</ele><time>2026-04-19T12:52:38Z</time></trkpt><trkpt lat="44.796888700929166" lon="11.831688106687118"><ele>-3.0</ele><time>2026-04-19T12:52:39Z</time></trkpt><trkpt lat="44.79697236674332" lon="11.831895947003497"><ele>-2.6666666666666665</ele><time>2026-04-19T12:52:40Z</time></trkpt><trkpt lat="44.79704193502713" lon="11.8321006231615"><ele>-2.333333333333333</ele><time>2026-04-19T12:52:41Z</time></trkpt><trkpt lat="44.79710867171176" lon="11.832284764388104"><ele>-2.0</ele><time>2026-04-19T12:52:42Z</time></trkpt><trkpt lat="44.797174931311154" lon="11.832465064474542"><ele>-2.0</ele><time>2026-04-19T12:52:43Z</time></trkpt><trkpt lat="44.79723840685529" lon="11.832630735773847"><ele>-2.0</ele><time>2026-04-19T12:52:44Z</time></trkpt><trkpt lat="44.79729577334831" lon="11.832777583094302"><ele>-2.0</ele><time>2026-04-19T12:52:45Z</time></trkpt><trkpt lat="44.7973459928469" lon="11.832915077609213"><ele>-2.0</ele><time>2026-04-19T12:52:46Z</time></trkpt><trkpt lat="44.79738989506441" lon="11.833035208050303"><ele>-1.6</ele><time>2026-04-19T12:52:47Z</time></trkpt><trkpt lat="44.79742334847677" lon="11.833127910372083"><ele>-1.2000000000000002</ele><time>2026-04-19T12:52:48Z</time></trkpt><trkpt lat="44.797464543593975" lon="11.833201296870426"><ele>-0.8</ele><time>2026-04-19T12:52:49Z</time></trkpt><trkpt lat="44.797489466018824" lon="11.833331846368013"><ele>-0.4</ele><time>2026-04-19T12:52:51Z</time></trkpt><trkpt lat="44.79766705489735" lon="11.833298849243931"><ele>0.0</ele><time>2026-04-19T12:52:52Z</time></trkpt><trkpt lat="44.79777179655848" lon="11.833290014212018"><ele>0.2</ele><time>2026-04-19T12:52:53Z</time></trkpt><trkpt lat="44.79788915596741" lon="11.83328055345173"><ele>0.4</ele><time>2026-04-19T12:52:54Z</time></trkpt><trkpt lat="44.798001930740696" lon="11.833271536015067"><ele>0.6000000000000001</ele><time>2026-04-19T12:52:55Z</time></trkpt><trkpt lat="44.79811040660128" lon="11.833262862322783"><ele>0.8</ele><time>2026-04-19T12:52:56Z</time></trkpt><trkpt lat="44.798219325879174" lon="11.833254153170255"><ele>1.0</ele><time>2026-04-19T12:52:57Z</time></trkpt><trkpt lat="44.798332274938" lon="11.833245121798283"><ele>1.0</ele><time>2026-04-19T12:52:58Z</time></trkpt><trkpt lat="44.7984450460069" lon="11.833236104660191"><ele>1.0</ele><time>2026-04-19T12:52:59Z</time></trkpt><trkpt lat="44.79856681655941" lon="11.833226367924023"><ele>1.0</ele><time>2026-04-19T12:53:00Z</time></trkpt><trkpt lat="44.798692619049014" lon="11.833194058203905"><ele>1.0</ele><time>2026-04-19T12:53:01Z</time></trkpt><trkpt lat="44.79882760920343" lon="11.833194877876304"><ele>1.0</ele><time>2026-04-19T12:53:02Z</time></trkpt><trkpt lat="44.79896420938534" lon="11.833180134283717"><ele>1.0</ele><time>2026-04-19T12:53:03Z</time></trkpt><trkpt lat="44.799090749184074" lon="11.833171283627243"><ele>1.0</ele><time>2026-04-19T12:53:04Z</time></trkpt><trkpt lat="44.79923258668877" lon="11.833150862887855"><ele>1.0</ele><time>2026-04-19T12:53:05Z</time></trkpt><trkpt lat="44.799375217300394" lon="11.833140939399332"><ele>1.25</ele><time>2026-04-19T12:53:06Z</time></trkpt><trkpt lat="44.79952264320457" lon="11.833131698560578"><ele>1.5</ele><time>2026-04-19T12:53:07Z</time></trkpt><trkpt lat="44.799665277041974" lon="11.833122026977444"><ele>1.75</ele><time>2026-04-19T12:53:08Z</time></trkpt><trkpt lat="44.79981015097692" lon="11.83310873842159"><ele>2.0</ele><time>2026-04-19T12:53:09Z</time></trkpt><trkpt lat="44.799954666164425" lon="11.833099599459622"><ele>2.0</ele><time>2026-04-19T12:53:10Z</time></trkpt><trkpt lat="44.80009449553215" lon="11.833092514059365"><ele>2.0</ele><time>2026-04-19T12:53:11Z</time></trkpt><trkpt lat="44.800233477969975" lon="11.833092593859837"><ele>2.0</ele><time>2026-04-19T12:53:12Z</time></trkpt><trkpt lat="44.800369433485095" lon="11.83310240722487"><ele>2.0</ele><time>2026-04-19T12:53:13.001Z</time></trkpt><trkpt lat="44.80050978005606" lon="11.833132336147552"><ele>1.75</ele><time>2026-04-19T12:53:14.001Z</time></trkpt><trkpt lat="44.80064540849113" lon="11.833194443960748"><ele>1.5</ele><time>2026-04-19T12:53:15.001Z</time></trkpt><trkpt lat="44.800779562883825" lon="11.833279378284578"><ele>1.25</ele><time>2026-04-19T12:53:16.001Z</time></trkpt><trkpt lat="44.80090868886399" lon="11.83338086238681"><ele>1.0</ele><time>2026-04-19T12:53:17.001Z</time></trkpt><trkpt lat="44.801032932426466" lon="11.833505037205036"><ele>1.0</ele><time>2026-04-19T12:53:18.001Z</time></trkpt><trkpt lat="44.801163885313464" lon="11.83362528840795"><ele>1.0</ele><time>2026-04-19T12:53:19.001Z</time></trkpt><trkpt lat="44.80129184651602" lon="11.833749961842967"><ele>1.0</ele><time>2026-04-19T12:53:20.001Z</time></trkpt><trkpt lat="44.80142395643568" lon="11.8338690705438"><ele>1.0</ele><time>2026-04-19T12:53:21.001Z</time></trkpt><trkpt lat="44.8015599520172" lon="11.833990309459773"><ele>1.0</ele><time>2026-04-19T12:53:22.001Z</time></trkpt><trkpt lat="44.80168684357562" lon="11.834112397152566"><ele>1.0</ele><time>2026-04-19T12:53:23.001Z</time></trkpt><trkpt lat="44.80182323168149" lon="11.834238342998495"><ele>0.6666666666666666</ele><time>2026-04-19T12:53:24.001Z</time></trkpt><trkpt lat="44.80196153166569" lon="11.834360199421067"><ele>0.3333333333333333</ele><time>2026-04-19T12:53:25.001Z</time></trkpt><trkpt lat="44.802104010337025" lon="11.834493007037674"><ele>0.0</ele><time>2026-04-19T12:53:26.001Z</time></trkpt><trkpt lat="44.80224745264244" lon="11.834627721915114"><ele>0.0</ele><time>2026-04-19T12:53:27.001Z</time></trkpt><trkpt lat="44.802392500857785" lon="11.834759989266722"><ele>0.0</ele><time>2026-04-19T12:53:28.001Z</time></trkpt><trkpt lat="44.80253961865939" lon="11.834891217314143"><ele>0.0</ele><time>2026-04-19T12:53:29.001Z</time></trkpt><trkpt lat="44.802685704258025" lon="11.835022414621008"><ele>0.0</ele><time>2026-04-19T12:53:30.001Z</time></trkpt><trkpt lat="44.80282891884213" lon="11.835149368015005"><ele>0.0</ele><time>2026-04-19T12:53:31.001Z</time></trkpt><trkpt lat="44.802970017466556" lon="11.835275697892563"><ele>0.0</ele><time>2026-04-19T12:53:32.001Z</time></trkpt><trkpt lat="44.80310956491191" lon="11.83540420028153"><ele>0.0</ele><time>2026-04-19T12:53:33.001Z</time></trkpt><trkpt lat="44.80325212150204" lon="11.835531928416751"><ele>0.0</ele><time>2026-04-19T12:53:34.001Z</time></trkpt><trkpt lat="44.803394976277616" lon="11.835660924154357"><ele>0.0</ele><time>2026-04-19T12:53:35.001Z</time></trkpt><trkpt lat="44.80353114763083" lon="11.835786235904068"><ele>0.0</ele><time>2026-04-19T12:53:36.001Z</time></trkpt><trkpt lat="44.80365781276713" lon="11.835899128888228"><ele>0.0</ele><time>2026-04-19T12:53:37.001Z</time></trkpt><trkpt lat="44.8037752853298" lon="11.836009073905997"><ele>0.0</ele><time>2026-04-19T12:53:38.001Z</time></trkpt><trkpt lat="44.80389134398266" lon="11.836109776500813"><ele>0.0</ele><time>2026-04-19T12:53:39.001Z</time></trkpt><trkpt lat="44.803994654014375" lon="11.836203246287788"><ele>0.0</ele><time>2026-04-19T12:53:40.001Z</time></trkpt><trkpt lat="44.80408749509342" lon="11.836288720713583"><ele>0.0</ele><time>2026-04-19T12:53:41.001Z</time></trkpt><trkpt lat="44.80416493854149" lon="11.836362165691815"><ele>0.0</ele><time>2026-04-19T12:53:42.001Z</time></trkpt><trkpt lat="44.80426882561589" lon="11.836453975929107"><ele>0.0</ele><time>2026-04-19T12:53:44.001Z</time></trkpt><trkpt lat="44.80437216881035" lon="11.836369115351804"><ele>0.0</ele><time>2026-04-19T12:53:48.001Z</time></trkpt><trkpt lat="44.80441643578346" lon="11.836303211394318"><ele>0.0</ele><time>2026-04-19T12:53:50.001Z</time></trkpt><trkpt lat="44.80448752960584" lon="11.836199808184755"><ele>0.0</ele><time>2026-04-19T12:53:53.001Z</time></trkpt><trkpt lat="44.804537060267016" lon="11.83612904757846"><ele>0.0</ele><time>2026-04-19T12:53:55.001Z</time></trkpt><trkpt lat="44.80458712522256" lon="11.836057523555063"><ele>0.0</ele><time>2026-04-19T12:53:57.001Z</time></trkpt><trkpt lat="44.80466765901827" lon="11.835942471081761"><ele>0.0</ele><time>2026-04-19T12:53:59.001Z</time></trkpt><trkpt lat="44.804755120347835" lon="11.835817521846337"><ele>0.0</ele><time>2026-04-19T12:54:01.001Z</time></trkpt><trkpt lat="44.80480261853552" lon="11.835749664782487"><ele>0.0</ele><time>2026-04-19T12:54:02.002Z</time></trkpt><trkpt lat="44.8048543037826" lon="11.835675826130313"><ele>0.0</ele><time>2026-04-19T12:54:03.002Z</time></trkpt><trkpt lat="44.80490667379717" lon="11.835601009108126"><ele>0.0</ele><time>2026-04-19T12:54:04.002Z</time></trkpt><trkpt lat="44.804958985372814" lon="11.83552627556531"><ele>0.0</ele><time>2026-04-19T12:54:05.002Z</time></trkpt><trkpt lat="44.80501058615233" lon="11.835452775408164"><ele>0.0</ele><time>2026-04-19T12:54:06.002Z</time></trkpt><trkpt lat="44.805060369026585" lon="11.835382577449016"><ele>0.0</ele><time>2026-04-19T12:54:07.002Z</time></trkpt><trkpt lat="44.80510103769525" lon="11.835292129263777"><ele>0.0</ele><time>2026-04-19T12:54:08.002Z</time></trkpt><trkpt lat="44.80516137277643" lon="11.83522101417021"><ele>0.0</ele><time>2026-04-19T12:54:09.002Z</time></trkpt><trkpt lat="44.805212542723396" lon="11.835137698355384"><ele>0.0</ele><time>2026-04-19T12:54:10.002Z</time></trkpt><trkpt lat="44.805273636642085" lon="11.83505520940172"><ele>0.0</ele><time>2026-04-19T12:54:11.002Z</time></trkpt><trkpt lat="44.80533222695672" lon="11.834970738440656"><ele>0.0</ele><time>2026-04-19T12:54:12.002Z</time></trkpt><trkpt lat="44.805386342912044" lon="11.83490473904009"><ele>0.0</ele><time>2026-04-19T12:54:13.002Z</time></trkpt><trkpt lat="44.80544524224216" lon="11.83482057048691"><ele>-0.3333333333333333</ele><time>2026-04-19T12:54:14.002Z</time></trkpt><trkpt lat="44.80550088018629" lon="11.834738911745324"><ele>-0.6666666666666666</ele><time>2026-04-19T12:54:15.002Z</time></trkpt><trkpt lat="44.80556055017607" lon="11.834658051724675"><ele>-1.0</ele><time>2026-04-19T12:54:16.002Z</time></trkpt><trkpt lat="44.8056179481595" lon="11.834581463149684"><ele>-1.3333333333333333</ele><time>2026-04-19T12:54:17.002Z</time></trkpt><trkpt lat="44.80567804901582" lon="11.834497783846402"><ele>-1.6666666666666665</ele><time>2026-04-19T12:54:18.002Z</time></trkpt><trkpt lat="44.80573698274162" lon="11.83441414976465"><ele>-2.0</ele><time>2026-04-19T12:54:19.002Z</time></trkpt><trkpt lat="44.805795780795805" lon="11.834333404047152"><ele>-1.9999999999999998</ele><time>2026-04-19T12:54:20.002Z</time></trkpt><trkpt lat="44.805855729286414" lon="11.834250490056508"><ele>-2.0</ele><time>2026-04-19T12:54:21.002Z</time></trkpt><trkpt lat="44.805912548873565" lon="11.834165743882515"><ele>-2.0</ele><time>2026-04-19T12:54:22.002Z</time></trkpt><trkpt lat="44.805974337813794" lon="11.834080447667182"><ele>-2.0</ele><time>2026-04-19T12:54:23.002Z</time></trkpt><trkpt lat="44.80603462121684" lon="11.833996736852688"><ele>-1.9999999999999998</ele><time>2026-04-19T12:54:24.002Z</time></trkpt><trkpt lat="44.80608844270531" lon="11.833917404363499"><ele>-2.0</ele><time>2026-04-19T12:54:25.002Z</time></trkpt><trkpt lat="44.806145528869486" lon="11.833835111494274"><ele>-1.9999999999999998</ele><time>2026-04-19T12:54:26.002Z</time></trkpt><trkpt lat="44.8062045797263" lon="11.833757856642787"><ele>-2.0</ele><time>2026-04-19T12:54:27.002Z</time></trkpt><trkpt lat="44.80626371589776" lon="11.833685770154922"><ele>-2.0</ele><time>2026-04-19T12:54:28.002Z</time></trkpt><trkpt lat="44.80631765243576" lon="11.833602100560102"><ele>-2.0</ele><time>2026-04-19T12:54:29.002Z</time></trkpt><trkpt lat="44.80637902884308" lon="11.833526139363906"><ele>-1.9999999999999998</ele><time>2026-04-19T12:54:30.002Z</time></trkpt><trkpt lat="44.80643214621695" lon="11.833439380367038"><ele>-2.0</ele><time>2026-04-19T12:54:31.002Z</time></trkpt><trkpt lat="44.80649049789243" lon="11.833357173006416"><ele>-1.9999999999999998</ele><time>2026-04-19T12:54:32.002Z</time></trkpt><trkpt lat="44.80654640483317" lon="11.833281234631945"><ele>-2.0</ele><time>2026-04-19T12:54:33.002Z</time></trkpt><trkpt lat="44.80660508108783" lon="11.833206076676852"><ele>-2.0</ele><time>2026-04-19T12:54:34.002Z</time></trkpt><trkpt lat="44.80666128011179" lon="11.833129396299205"><ele>-2.0</ele><time>2026-04-19T12:54:35.002Z</time></trkpt><trkpt lat="44.8067144414529" lon="11.833053809835924"><ele>-1.9999999999999998</ele><time>2026-04-19T12:54:36.002Z</time></trkpt><trkpt lat="44.80676836069211" lon="11.832980279622603"><ele>-2.0</ele><time>2026-04-19T12:54:37.002Z</time></trkpt><trkpt lat="44.80682230931316" lon="11.83290274639383"><ele>-1.9999999999999998</ele><time>2026-04-19T12:54:38Z</time></trkpt><trkpt lat="44.80687369570768" lon="11.832821562585806"><ele>-2.0</ele><time>2026-04-19T12:54:39Z</time></trkpt><trkpt lat="44.80692214950734" lon="11.8327299891601"><ele>-2.0</ele><time>2026-04-19T12:54:40Z</time></trkpt><trkpt lat="44.80698122714868" lon="11.832643305351109"><ele>-2.0</ele><time>2026-04-19T12:54:41Z</time></trkpt><trkpt lat="44.807025954612726" lon="11.83254047323477"><ele>-1.9999999999999998</ele><time>2026-04-19T12:54:42Z</time></trkpt><trkpt lat="44.80708067371134" lon="11.832446478763396"><ele>-2.0</ele><time>2026-04-19T12:54:43Z</time></trkpt><trkpt lat="44.807125917909715" lon="11.832342452445193"><ele>-1.8333333333333333</ele><time>2026-04-19T12:54:44Z</time></trkpt><trkpt lat="44.80717639637924" lon="11.832242283293194"><ele>-1.6666666666666665</ele><time>2026-04-19T12:54:45Z</time></trkpt><trkpt lat="44.80721510283402" lon="11.83213162219389"><ele>-1.5</ele><time>2026-04-19T12:54:46Z</time></trkpt><trkpt lat="44.80725365213817" lon="11.832019405719084"><ele>-1.3333333333333333</ele><time>2026-04-19T12:54:47Z</time></trkpt><trkpt lat="44.80728927253026" lon="11.831907313680675"><ele>-1.1666666666666665</ele><time>2026-04-19T12:54:48Z</time></trkpt><trkpt lat="44.807322524581096" lon="11.831797335013514"><ele>-1.0</ele><time>2026-04-19T12:54:49Z</time></trkpt><trkpt lat="44.80736162431284" lon="11.83169569552583"><ele>-0.9999999999999999</ele><time>2026-04-19T12:54:50Z</time></trkpt><trkpt lat="44.80738689248046" lon="11.831593941863902"><ele>-1.0</ele><time>2026-04-19T12:54:51Z</time></trkpt><trkpt lat="44.80741965704876" lon="11.83149401106417"><ele>-1.0</ele><time>2026-04-19T12:54:52Z</time></trkpt><trkpt lat="44.807451768859174" lon="11.831391124942423"><ele>-1.0</ele><time>2026-04-19T12:54:53Z</time></trkpt><trkpt lat="44.80748079616541" lon="11.831282745759415"><ele>-0.9999999999999999</ele><time>2026-04-19T12:54:54Z</time></trkpt><trkpt lat="44.80751100667442" lon="11.831175057707911"><ele>-1.0</ele><time>2026-04-19T12:54:55Z</time></trkpt><trkpt lat="44.80754683165194" lon="11.83106787499158"><ele>-0.9999999999999999</ele><time>2026-04-19T12:54:56Z</time></trkpt><trkpt lat="44.80757509405506" lon="11.83095239531502"><ele>-1.0</ele><time>2026-04-19T12:54:57Z</time></trkpt><trkpt lat="44.80761247253289" lon="11.830849659830358"><ele>-1.0</ele><time>2026-04-19T12:54:58Z</time></trkpt><trkpt lat="44.807636335444485" lon="11.830744990291489"><ele>-1.0</ele><time>2026-04-19T12:54:59Z</time></trkpt><trkpt lat="44.807664053824446" lon="11.830643579761817"><ele>-0.9999999999999999</ele><time>2026-04-19T12:55:00Z</time></trkpt><trkpt lat="44.80769061476678" lon="11.830540308395788"><ele>-1.0</ele><time>2026-04-19T12:55:01Z</time></trkpt><trkpt lat="44.80771610819599" lon="11.83043172235482"><ele>-1.1666666666666665</ele><time>2026-04-19T12:55:02Z</time></trkpt><trkpt lat="44.807742195491684" lon="11.830317495564621"><ele>-1.3333333333333333</ele><time>2026-04-19T12:55:03Z</time></trkpt><trkpt lat="44.80776925794722" lon="11.830203246323354"><ele>-1.5</ele><time>2026-04-19T12:55:04Z</time></trkpt><trkpt lat="44.807804562491256" lon="11.83009141425263"><ele>-1.6666666666666665</ele><time>2026-04-19T12:55:05Z</time></trkpt><trkpt lat="44.80782490717739" lon="11.829975636265443"><ele>-1.8333333333333333</ele><time>2026-04-19T12:55:06Z</time></trkpt><trkpt lat="44.80784959058963" lon="11.829867484949128"><ele>-2.0</ele><time>2026-04-19T12:55:07Z</time></trkpt><trkpt lat="44.80786548957309" lon="11.829739224859402"><ele>-2.0</ele><time>2026-04-19T12:55:08Z</time></trkpt><trkpt lat="44.80787893238886" lon="11.82959864995061"><ele>-2.0</ele><time>2026-04-19T12:55:09Z</time></trkpt><trkpt lat="44.80788989760008" lon="11.82946542472315"><ele>-2.0</ele><time>2026-04-19T12:55:10Z</time></trkpt><trkpt lat="44.807897167206676" lon="11.829336093154467"><ele>-2.0</ele><time>2026-04-19T12:55:11Z</time></trkpt><trkpt lat="44.80790409219416" lon="11.829208970973609"><ele>-2.0</ele><time>2026-04-19T12:55:12Z</time></trkpt><trkpt lat="44.807907163471896" lon="11.829082562719531"><ele>-2.1666666666666665</ele><time>2026-04-19T12:55:13Z</time></trkpt><trkpt lat="44.80791670030867" lon="11.828958723228846"><ele>-2.333333333333333</ele><time>2026-04-19T12:55:14Z</time></trkpt><trkpt lat="44.80793092575606" lon="11.828839943080839"><ele>-2.5</ele><time>2026-04-19T12:55:15Z</time></trkpt><trkpt lat="44.807948162720386" lon="11.828714443154924"><ele>-2.6666666666666665</ele><time>2026-04-19T12:55:16Z</time></trkpt><trkpt lat="44.807967264318016" lon="11.828598149668164"><ele>-2.8333333333333335</ele><time>2026-04-19T12:55:17Z</time></trkpt><trkpt lat="44.807984264715856" lon="11.828481534160506"><ele>-3.0</ele><time>2026-04-19T12:55:18Z</time></trkpt><trkpt lat="44.80800095795067" lon="11.828357786682576"><ele>-3.0</ele><time>2026-04-19T12:55:19.001Z</time></trkpt><trkpt lat="44.808019041788384" lon="11.828239727757301"><ele>-3.0</ele><time>2026-04-19T12:55:20.001Z</time></trkpt><trkpt lat="44.80802001076074" lon="11.828118148211036"><ele>-3.0</ele><time>2026-04-19T12:55:21.001Z</time></trkpt><trkpt lat="44.80802006998251" lon="11.827985843553138"><ele>-3.0</ele><time>2026-04-19T12:55:22.001Z</time></trkpt><trkpt lat="44.80801881202458" lon="11.827836774364501"><ele>-3.0</ele><time>2026-04-19T12:55:23.001Z</time></trkpt><trkpt lat="44.80802043011949" lon="11.827695047637187"><ele>-3.0</ele><time>2026-04-19T12:55:24.001Z</time></trkpt><trkpt lat="44.80802597618073" lon="11.827560158948167"><ele>-3.0</ele><time>2026-04-19T12:55:25.001Z</time></trkpt><trkpt lat="44.808034511231334" lon="11.827420824580797"><ele>-3.0</ele><time>2026-04-19T12:55:26.001Z</time></trkpt><trkpt lat="44.808047714299875" lon="11.827288901620424"><ele>-3.0</ele><time>2026-04-19T12:55:27.001Z</time></trkpt><trkpt lat="44.80806684481756" lon="11.82715898135777"><ele>-3.0</ele><time>2026-04-19T12:55:28.001Z</time></trkpt><trkpt lat="44.80809048725246" lon="11.827032005383458"><ele>-3.0</ele><time>2026-04-19T12:55:29.001Z</time></trkpt><trkpt lat="44.80812478776217" lon="11.826918803696401"><ele>-3.0</ele><time>2026-04-19T12:55:30.001Z</time></trkpt><trkpt lat="44.8081437071247" lon="11.82680825839852"><ele>-3.0</ele><time>2026-04-19T12:55:31.001Z</time></trkpt><trkpt lat="44.80816002053372" lon="11.826705471899755"><ele>-3.0</ele><time>2026-04-19T12:55:32.001Z</time></trkpt><trkpt lat="44.80818698724861" lon="11.826514112040782"><ele>-3.0</ele><time>2026-04-19T12:55:34.001Z</time></trkpt><trkpt lat="44.80819972003538" lon="11.82641205071715"><ele>-2.6666666666666665</ele><time>2026-04-19T12:55:35.001Z</time></trkpt><trkpt lat="44.808214146452144" lon="11.826310688127787"><ele>-2.3333333333333335</ele><time>2026-04-19T12:55:36.001Z</time></trkpt><trkpt lat="44.8082292776885" lon="11.826159785338161"><ele>-2.0</ele><time>2026-04-19T12:55:38.001Z</time></trkpt><trkpt lat="44.80823878895281" lon="11.826026742325885"><ele>-1.6666666666666665</ele><time>2026-04-19T12:55:40.001Z</time></trkpt><trkpt lat="44.80825232222415" lon="11.825914646636813"><ele>-1.3333333333333333</ele><time>2026-04-19T12:55:42.001Z</time></trkpt><trkpt lat="44.80829484347061" lon="11.825839059003625"><ele>-1.0</ele><time>2026-04-19T12:55:44.001Z</time></trkpt><trkpt lat="44.808396737729325" lon="11.825853280328348"><ele>-1.0</ele><time>2026-04-19T12:55:47.001Z</time></trkpt><trkpt lat="44.808497524705466" lon="11.825877172788218"><ele>-1.0</ele><time>2026-04-19T12:55:49.001Z</time></trkpt><trkpt lat="44.80861752511574" lon="11.825889501675602"><ele>-1.0</ele><time>2026-04-19T12:55:51.001Z</time></trkpt><trkpt lat="44.808722294406046" lon="11.825890474527498"><ele>-1.0</ele><time>2026-04-19T12:55:53.001Z</time></trkpt><trkpt lat="44.808834331874074" lon="11.825902705336388"><ele>-1.0</ele><time>2026-04-19T12:55:55.001Z</time></trkpt><trkpt lat="44.80892037806304" lon="11.825911465627815"><ele>-0.9999999999999999</ele><time>2026-04-19T12:55:57.001Z</time></trkpt><trkpt lat="44.80899758153863" lon="11.825936448030719"><ele>-1.0</ele><time>2026-04-19T12:56:00.001Z</time></trkpt><trkpt lat="44.809065731102415" lon="11.825920793243704"><ele>-1.0</ele><time>2026-04-19T12:56:29.002Z</time></trkpt><trkpt lat="44.809151825469144" lon="11.825945259061722"><ele>-1.0</ele><time>2026-04-19T12:56:43.002Z</time></trkpt><trkpt lat="44.809230513517456" lon="11.82594380823473"><ele>-0.9999999999999999</ele><time>2026-04-19T12:56:45Z</time></trkpt><trkpt lat="44.80930464271814" lon="11.825968468399656"><ele>-1.0</ele><time>2026-04-19T12:56:47Z</time></trkpt><trkpt lat="44.80937580030513" lon="11.825948310672894"><ele>-1.2000000000000002</ele><time>2026-04-19T12:56:49Z</time></trkpt><trkpt lat="44.80944047674494" lon="11.825973563765473"><ele>-1.4000000000000001</ele><time>2026-04-19T12:56:51Z</time></trkpt><trkpt lat="44.8094541694038" lon="11.825776115744649"><ele>-1.6</ele><time>2026-04-19T12:56:56Z</time></trkpt><trkpt lat="44.80944506112269" lon="11.825646523982414"><ele>-1.8</ele><time>2026-04-19T12:56:59Z</time></trkpt><trkpt lat="44.80943508297603" lon="11.825520286466336"><ele>-2.0</ele><time>2026-04-19T12:57:02Z</time></trkpt><trkpt lat="44.80933757825831" lon="11.825480059895671"><ele>-2.0</ele><time>2026-04-19T12:57:03Z</time></trkpt><trkpt lat="44.80933681692772" lon="11.82537172984524"><ele>-2.0</ele><time>2026-04-19T12:57:06Z</time></trkpt><trkpt lat="44.80958852946658" lon="11.825407809008869"><ele>-2.0</ele><time>2026-04-19T12:57:11Z</time></trkpt><trkpt lat="44.80967603341402" lon="11.825393644843235"><ele>-2.0</ele><time>2026-04-19T12:57:14.001Z</time></trkpt><trkpt lat="44.80974631627523" lon="11.825386000062993"><ele>-1.9999999999999998</ele><time>2026-04-19T12:57:16.001Z</time></trkpt><trkpt lat="44.809839501507625" lon="11.825397185306748"><ele>-2.0</ele><time>2026-04-19T12:57:18.001Z</time></trkpt><trkpt lat="44.80991184431622" lon="11.825402646924097"><ele>-2.0</ele><time>2026-04-19T12:57:20.001Z</time></trkpt><trkpt lat="44.80998216758706" lon="11.825401815108712"><ele>-2.0</ele><time>2026-04-19T12:57:22.001Z</time></trkpt><trkpt lat="44.81006640972395" lon="11.825415887362572"><ele>-1.9999999999999998</ele><time>2026-04-19T12:57:25.001Z</time></trkpt><trkpt lat="44.810146936231334" lon="11.825442755504529"><ele>-2.0</ele><time>2026-04-19T12:57:28.001Z</time></trkpt><trkpt lat="44.81018287555147" lon="11.825539945420235"><ele>-2.0</ele><time>2026-04-19T12:57:31.001Z</time></trkpt></trkseg><trkseg><trkpt lat="44.81017315732976" lon="11.825465032783303"><ele>-1.9999999999999998</ele><time>2026-04-19T13:56:20.001Z</time></trkpt><trkpt lat="44.810087032505365" lon="11.825400350385094"><ele>-2.0</ele><time>2026-04-19T13:56:23Z</time></trkpt><trkpt lat="44.81000210634967" lon="11.82539778691422"><ele>-2.0</ele><time>2026-04-19T13:56:25Z</time></trkpt><trkpt lat="44.80993057639865" lon="11.825391742875869"><ele>-2.0</ele><time>2026-04-19T13:56:26Z</time></trkpt><trkpt lat="44.809840466449174" lon="11.825377426594887"><ele>-1.9999999999999998</ele><time>2026-04-19T13:56:27Z</time></trkpt><trkpt lat="44.80976363299568" lon="11.825365349360723"><ele>-2.0</ele><time>2026-04-19T13:56:28Z</time></trkpt><trkpt lat="44.80968852830794" lon="11.825360664006164"><ele>-1.9999999999999998</ele><time>2026-04-19T13:56:29Z</time></trkpt><trkpt lat="44.80957390445103" lon="11.825348485057956"><ele>-2.0</ele><time>2026-04-19T13:56:31Z</time></trkpt><trkpt lat="44.809498222829234" lon="11.825352648500145"><ele>-2.0</ele><time>2026-04-19T13:56:33Z</time></trkpt><trkpt lat="44.80943083223623" lon="11.825426842863424"><ele>-2.0</ele><time>2026-04-19T13:56:35Z</time></trkpt><trkpt lat="44.8094205487404" lon="11.825565446778388"><ele>-1.9999999999999998</ele><time>2026-04-19T13:56:37Z</time></trkpt><trkpt lat="44.80943724294752" lon="11.825656227721746"><ele>-2.0</ele><time>2026-04-19T13:56:38Z</time></trkpt><trkpt lat="44.809469088271484" lon="11.825782460418479"><ele>-2.0</ele><time>2026-04-19T13:56:40Z</time></trkpt><trkpt lat="44.80947023316124" lon="11.825875208606776"><ele>-1.9999999999999998</ele><time>2026-04-19T13:56:42Z</time></trkpt><trkpt lat="44.8094189319993" lon="11.825947509202164"><ele>-2.0</ele><time>2026-04-19T13:56:45Z</time></trkpt><trkpt lat="44.80932800826396" lon="11.825956351592952"><ele>-2.0</ele><time>2026-04-19T13:56:47Z</time></trkpt><trkpt lat="44.80925483312944" lon="11.825937059804422"><ele>-1.9999999999999998</ele><time>2026-04-19T13:56:48Z</time></trkpt><trkpt lat="44.80918718739362" lon="11.82592552701029"><ele>-2.0</ele><time>2026-04-19T13:56:49Z</time></trkpt><trkpt lat="44.8091190146624" lon="11.825916708571503"><ele>-2.0</ele><time>2026-04-19T13:56:50Z</time></trkpt><trkpt lat="44.809043784018904" lon="11.825913177944502"><ele>-1.8333333333333333</ele><time>2026-04-19T13:56:51Z</time></trkpt><trkpt lat="44.80895292463269" lon="11.825905731667612"><ele>-1.6666666666666665</ele><time>2026-04-19T13:56:52Z</time></trkpt><trkpt lat="44.80886777885046" lon="11.825895730592164"><ele>-1.5</ele><time>2026-04-19T13:56:53Z</time></trkpt><trkpt lat="44.80879912584003" lon="11.825889507535397"><ele>-1.3333333333333333</ele><time>2026-04-19T13:56:54Z</time></trkpt><trkpt lat="44.80871537377159" lon="11.825881369361708"><ele>-1.1666666666666665</ele><time>2026-04-19T13:56:55Z</time></trkpt><trkpt lat="44.80863088219915" lon="11.825868297255877"><ele>-1.0</ele><time>2026-04-19T13:56:56Z</time></trkpt><trkpt lat="44.80856545695278" lon="11.825861052617148"><ele>-1.0</ele><time>2026-04-19T13:56:57Z</time></trkpt><trkpt lat="44.80846279760655" lon="11.825852592559139"><ele>-1.0</ele><time>2026-04-19T13:56:59Z</time></trkpt><trkpt lat="44.80838017953225" lon="11.825838740741935"><ele>-1.0</ele><time>2026-04-19T13:57:01Z</time></trkpt><trkpt lat="44.808300741583245" lon="11.825834904638263"><ele>-1.0</ele><time>2026-04-19T13:57:04Z</time></trkpt><trkpt lat="44.80822899460067" lon="11.825983398251156"><ele>-1.0</ele><time>2026-04-19T13:57:08Z</time></trkpt><trkpt lat="44.808222263395045" lon="11.826115636270648"><ele>-0.9999999999999999</ele><time>2026-04-19T13:57:10Z</time></trkpt><trkpt lat="44.80821214442342" lon="11.826216652525233"><ele>-1.0</ele><time>2026-04-19T13:57:11Z</time></trkpt><trkpt lat="44.80819982204016" lon="11.826315451231448"><ele>-1.0</ele><time>2026-04-19T13:57:12Z</time></trkpt><trkpt lat="44.80817548572017" lon="11.826483446045156"><ele>-1.0</ele><time>2026-04-19T13:57:14Z</time></trkpt><trkpt lat="44.80816118371279" lon="11.826587898566524"><ele>-0.9999999999999999</ele><time>2026-04-19T13:57:15Z</time></trkpt><trkpt lat="44.80814632908146" lon="11.826685252425102"><ele>-1.0</ele><time>2026-04-19T13:57:16Z</time></trkpt><trkpt lat="44.80812601187424" lon="11.826810783999992"><ele>-1.4</ele><time>2026-04-19T13:57:17Z</time></trkpt><trkpt lat="44.80809819526829" lon="11.826967232798651"><ele>-1.8</ele><time>2026-04-19T13:57:18Z</time></trkpt><trkpt lat="44.80806973448721" lon="11.827114258394387"><ele>-2.1999999999999997</ele><time>2026-04-19T13:57:19Z</time></trkpt><trkpt lat="44.80804213553663" lon="11.827251501816157"><ele>-2.6</ele><time>2026-04-19T13:57:20Z</time></trkpt><trkpt lat="44.80802358967897" lon="11.82739355564905"><ele>-3.0</ele><time>2026-04-19T13:57:21Z</time></trkpt><trkpt lat="44.80800799173256" lon="11.827547271525654"><ele>-3.0</ele><time>2026-04-19T13:57:22Z</time></trkpt><trkpt lat="44.80800212843894" lon="11.827710407765963"><ele>-3.0</ele><time>2026-04-19T13:57:23Z</time></trkpt><trkpt lat="44.807999197972364" lon="11.827851119289512"><ele>-3.0</ele><time>2026-04-19T13:57:24Z</time></trkpt><trkpt lat="44.80800181180474" lon="11.827965411540609"><ele>-3.0</ele><time>2026-04-19T13:57:25Z</time></trkpt><trkpt lat="44.80800162766771" lon="11.828065717870022"><ele>-3.0</ele><time>2026-04-19T13:57:26Z</time></trkpt><trkpt lat="44.808001716551765" lon="11.828163235535618"><ele>-3.0</ele><time>2026-04-19T13:57:27Z</time></trkpt><trkpt lat="44.807993231858624" lon="11.828336942871713"><ele>-3.0</ele><time>2026-04-19T13:57:29Z</time></trkpt><trkpt lat="44.80798605096558" lon="11.828433707199794"><ele>-3.0</ele><time>2026-04-19T13:57:30Z</time></trkpt><trkpt lat="44.80797027227992" lon="11.828539356082077"><ele>-3.0</ele><time>2026-04-19T13:57:31Z</time></trkpt><trkpt lat="44.8079444785202" lon="11.828669025232017"><ele>-3.0</ele><time>2026-04-19T13:57:32Z</time></trkpt><trkpt lat="44.807922158115865" lon="11.828812758270946"><ele>-3.0</ele><time>2026-04-19T13:57:33Z</time></trkpt><trkpt lat="44.80790530391337" lon="11.828960562987673"><ele>-3.0</ele><time>2026-04-19T13:57:34Z</time></trkpt><trkpt lat="44.80789058405917" lon="11.829108418104523"><ele>-3.0</ele><time>2026-04-19T13:57:35Z</time></trkpt><trkpt lat="44.80788353157878" lon="11.829251595744719"><ele>-3.0</ele><time>2026-04-19T13:57:36Z</time></trkpt><trkpt lat="44.80787682398026" lon="11.829380856858556"><ele>-3.0</ele><time>2026-04-19T13:57:37Z</time></trkpt><trkpt lat="44.807870184611" lon="11.829500641225234"><ele>-3.0</ele><time>2026-04-19T13:57:38Z</time></trkpt><trkpt lat="44.80786124474683" lon="11.829635927468063"><ele>-2.8</ele><time>2026-04-19T13:57:39Z</time></trkpt><trkpt lat="44.80784471634376" lon="11.829764347822469"><ele>-2.5999999999999996</ele><time>2026-04-19T13:57:40Z</time></trkpt><trkpt lat="44.807826220295276" lon="11.82988256628109"><ele>-2.4000000000000004</ele><time>2026-04-19T13:57:41Z</time></trkpt><trkpt lat="44.80780590562734" lon="11.830000014434694"><ele>-2.2</ele><time>2026-04-19T13:57:42Z</time></trkpt><trkpt lat="44.807778504507965" lon="11.830126503042575"><ele>-2.0</ele><time>2026-04-19T13:57:43Z</time></trkpt><trkpt lat="44.80774296354547" lon="11.83026111005866"><ele>-1.9999999999999998</ele><time>2026-04-19T13:57:44Z</time></trkpt><trkpt lat="44.80770710639557" lon="11.830404804806287"><ele>-2.0</ele><time>2026-04-19T13:57:45Z</time></trkpt><trkpt lat="44.80767957363254" lon="11.8305050715003"><ele>-2.0</ele><time>2026-04-19T13:57:46Z</time></trkpt><trkpt lat="44.80765584488821" lon="11.830592473562904"><ele>-2.0</ele><time>2026-04-19T13:57:47Z</time></trkpt><trkpt lat="44.80762775990725" lon="11.830702199680154"><ele>-1.9999999999999998</ele><time>2026-04-19T13:57:48Z</time></trkpt><trkpt lat="44.807590184463166" lon="11.83083396348778"><ele>-2.0</ele><time>2026-04-19T13:57:49Z</time></trkpt><trkpt lat="44.807554538327615" lon="11.830960440983802"><ele>-1.8</ele><time>2026-04-19T13:57:50Z</time></trkpt><trkpt lat="44.80752292259347" lon="11.831072164791044"><ele>-1.6</ele><time>2026-04-19T13:57:51Z</time></trkpt><trkpt lat="44.807491335630736" lon="11.83118474583713"><ele>-1.4000000000000001</ele><time>2026-04-19T13:57:52Z</time></trkpt><trkpt lat="44.807459147882554" lon="11.83130290712415"><ele>-1.2000000000000002</ele><time>2026-04-19T13:57:53Z</time></trkpt><trkpt lat="44.80742229231085" lon="11.831426250491672"><ele>-1.0</ele><time>2026-04-19T13:57:54Z</time></trkpt><trkpt lat="44.80737872294611" lon="11.831566331311759"><ele>-0.9999999999999999</ele><time>2026-04-19T13:57:55Z</time></trkpt><trkpt lat="44.80733675335712" lon="11.831698539481586"><ele>-1.0</ele><time>2026-04-19T13:57:56Z</time></trkpt><trkpt lat="44.807299581096856" lon="11.831808227307826"><ele>-1.0</ele><time>2026-04-19T13:57:57Z</time></trkpt><trkpt lat="44.807266744929485" lon="11.831920458289185"><ele>-1.0</ele><time>2026-04-19T13:57:58Z</time></trkpt><trkpt lat="44.80722913222029" lon="11.832030500197284"><ele>-0.9999999999999999</ele><time>2026-04-19T13:57:59Z</time></trkpt><trkpt lat="44.80719095087187" lon="11.83214096917621"><ele>-1.0</ele><time>2026-04-19T13:58:00Z</time></trkpt><trkpt lat="44.80714957583515" lon="11.832243951539397"><ele>-1.0</ele><time>2026-04-19T13:58:01.001Z</time></trkpt><trkpt lat="44.80710331739851" lon="11.832352009266733"><ele>-1.0</ele><time>2026-04-19T13:58:02.001Z</time></trkpt><trkpt lat="44.80704801766209" lon="11.832465494461513"><ele>-1.0</ele><time>2026-04-19T13:58:03.001Z</time></trkpt><trkpt lat="44.80699357129677" lon="11.832570785246686"><ele>-1.0</ele><time>2026-04-19T13:58:04.001Z</time></trkpt><trkpt lat="44.806934167486645" lon="11.832674856192247"><ele>-1.0</ele><time>2026-04-19T13:58:05.001Z</time></trkpt><trkpt lat="44.806875910214494" lon="11.832774574567056"><ele>-1.2000000000000002</ele><time>2026-04-19T13:58:06.001Z</time></trkpt><trkpt lat="44.80681686306321" lon="11.8328761450443"><ele>-1.4000000000000001</ele><time>2026-04-19T13:58:07.001Z</time></trkpt><trkpt lat="44.806755373326" lon="11.832969813335517"><ele>-1.6</ele><time>2026-04-19T13:58:08.001Z</time></trkpt><trkpt lat="44.80668340215276" lon="11.833067456580617"><ele>-1.8</ele><time>2026-04-19T13:58:09.001Z</time></trkpt><trkpt lat="44.80660796493356" lon="11.833164538772534"><ele>-2.0</ele><time>2026-04-19T13:58:10.001Z</time></trkpt><trkpt lat="44.8065287070754" lon="11.8332667871478"><ele>-2.0</ele><time>2026-04-19T13:58:11.001Z</time></trkpt><trkpt lat="44.80645615739158" lon="11.833365303878878"><ele>-2.0</ele><time>2026-04-19T13:58:12.001Z</time></trkpt><trkpt lat="44.806386549151995" lon="11.833462028066897"><ele>-2.0</ele><time>2026-04-19T13:58:13.001Z</time></trkpt><trkpt lat="44.806316756689256" lon="11.833565685349708"><ele>-2.0</ele><time>2026-04-19T13:58:14.001Z</time></trkpt><trkpt lat="44.806249120259665" lon="11.8336638178812"><ele>-2.0</ele><time>2026-04-19T13:58:15.001Z</time></trkpt><trkpt lat="44.80617533801608" lon="11.83376050615166"><ele>-2.0</ele><time>2026-04-19T13:58:16.001Z</time></trkpt><trkpt lat="44.80610677530921" lon="11.833857930619256"><ele>-2.0</ele><time>2026-04-19T13:58:17.001Z</time></trkpt><trkpt lat="44.80603501495971" lon="11.833955234318521"><ele>-2.0</ele><time>2026-04-19T13:58:18.001Z</time></trkpt><trkpt lat="44.8059656857928" lon="11.83405053100389"><ele>-2.0</ele><time>2026-04-19T13:58:18.999Z</time></trkpt><trkpt lat="44.80589339373921" lon="11.834151492067083"><ele>-2.0</ele><time>2026-04-19T13:58:19.999Z</time></trkpt><trkpt lat="44.805824218355895" lon="11.83424760650153"><ele>-2.0</ele><time>2026-04-19T13:58:20.999Z</time></trkpt><trkpt lat="44.80575083617519" lon="11.834352983294027"><ele>-2.0</ele><time>2026-04-19T13:58:21.999Z</time></trkpt><trkpt lat="44.80567723498755" lon="11.834458281226853"><ele>-2.0</ele><time>2026-04-19T13:58:22.999Z</time></trkpt><trkpt lat="44.805599286655095" lon="11.834566995549856"><ele>-2.0</ele><time>2026-04-19T13:58:23.999Z</time></trkpt><trkpt lat="44.80551257376999" lon="11.834684132433841"><ele>-2.0</ele><time>2026-04-19T13:58:24.999Z</time></trkpt><trkpt lat="44.80542853152733" lon="11.834800661213519"><ele>-2.0</ele><time>2026-04-19T13:58:25.999Z</time></trkpt><trkpt lat="44.80535997467493" lon="11.834899151740144"><ele>-2.0</ele><time>2026-04-19T13:58:26.999Z</time></trkpt><trkpt lat="44.80529801639791" lon="11.834983481014756"><ele>-2.0</ele><time>2026-04-19T13:58:27.999Z</time></trkpt><trkpt lat="44.805240047046716" lon="11.835067907023605"><ele>-2.0</ele><time>2026-04-19T13:58:28.999Z</time></trkpt><trkpt lat="44.80517194674551" lon="11.83516546866052"><ele>-2.0</ele><time>2026-04-19T13:58:29.999Z</time></trkpt><trkpt lat="44.80510123749998" lon="11.835264571158367"><ele>-1.6666666666666665</ele><time>2026-04-19T13:58:30.999Z</time></trkpt><trkpt lat="44.80503163529271" lon="11.835363692948796"><ele>-1.3333333333333333</ele><time>2026-04-19T13:58:31.999Z</time></trkpt><trkpt lat="44.804966467431406" lon="11.835456126263924"><ele>-1.0</ele><time>2026-04-19T13:58:32.999Z</time></trkpt><trkpt lat="44.804914690660524" lon="11.835530085573295"><ele>-0.6666666666666666</ele><time>2026-04-19T13:58:33.999Z</time></trkpt><trkpt lat="44.80486739547357" lon="11.835595888371312"><ele>-0.3333333333333333</ele><time>2026-04-19T13:58:34.999Z</time></trkpt><trkpt lat="44.80481671542122" lon="11.835669532891055"><ele>0.0</ele><time>2026-04-19T13:58:35.999Z</time></trkpt><trkpt lat="44.804762686255266" lon="11.835744522105747"><ele>0.0</ele><time>2026-04-19T13:58:36.999Z</time></trkpt><trkpt lat="44.804717301209536" lon="11.835809456539005"><ele>0.0</ele><time>2026-04-19T13:58:38Z</time></trkpt><trkpt lat="44.80466841105186" lon="11.83588346694938"><ele>0.0</ele><time>2026-04-19T13:58:39Z</time></trkpt><trkpt lat="44.8046177150485" lon="11.83595833824553"><ele>0.0</ele><time>2026-04-19T13:58:40Z</time></trkpt><trkpt lat="44.804568947951786" lon="11.836028974328304"><ele>0.0</ele><time>2026-04-19T13:58:41Z</time></trkpt><trkpt lat="44.804524779764726" lon="11.836092876033897"><ele>0.0</ele><time>2026-04-19T13:58:42Z</time></trkpt><trkpt lat="44.804448991431315" lon="11.83621905710305"><ele>0.0</ele><time>2026-04-19T13:58:44Z</time></trkpt><trkpt lat="44.80438986529769" lon="11.836294346640681"><ele>0.0</ele><time>2026-04-19T13:58:46Z</time></trkpt><trkpt lat="44.80434194548345" lon="11.836353521853855"><ele>0.0</ele><time>2026-04-19T13:58:48Z</time></trkpt><trkpt lat="44.80428238389298" lon="11.836425335603614"><ele>0.0</ele><time>2026-04-19T13:59:54Z</time></trkpt><trkpt lat="44.80418022478771" lon="11.836337199883534"><ele>0.0</ele><time>2026-04-19T13:59:57Z</time></trkpt><trkpt lat="44.80411863074947" lon="11.83628083059776"><ele>0.0</ele><time>2026-04-19T13:59:58Z</time></trkpt><trkpt lat="44.80404211996969" lon="11.83621080972923"><ele>0.0</ele><time>2026-04-19T13:59:59Z</time></trkpt><trkpt lat="44.80396272835039" lon="11.836138152423528"><ele>0.0</ele><time>2026-04-19T14:00:00Z</time></trkpt><trkpt lat="44.803880688509814" lon="11.836063071499826"><ele>0.0</ele><time>2026-04-19T14:00:01Z</time></trkpt><trkpt lat="44.80379821619491" lon="11.835987594828454"><ele>0.0</ele><time>2026-04-19T14:00:02Z</time></trkpt><trkpt lat="44.80372031530261" lon="11.835916301770569"><ele>0.0</ele><time>2026-04-19T14:00:03Z</time></trkpt><trkpt lat="44.80364326886527" lon="11.835845790735632"><ele>0.0</ele><time>2026-04-19T14:00:04Z</time></trkpt><trkpt lat="44.803559869677756" lon="11.835769465779517"><ele>0.0</ele><time>2026-04-19T14:00:05Z</time></trkpt><trkpt lat="44.80347777348843" lon="11.835694333330439"><ele>0.0</ele><time>2026-04-19T14:00:06Z</time></trkpt><trkpt lat="44.80339716108616" lon="11.83562055878335"><ele>0.0</ele><time>2026-04-19T14:00:07Z</time></trkpt><trkpt lat="44.80331205268448" lon="11.835542669627143"><ele>0.0</ele><time>2026-04-19T14:00:08Z</time></trkpt><trkpt lat="44.80319622349315" lon="11.835436665517507"><ele>0.0</ele><time>2026-04-19T14:00:09Z</time></trkpt><trkpt lat="44.803069403067504" lon="11.835320602461662"><ele>0.0</ele><time>2026-04-19T14:00:10Z</time></trkpt><trkpt lat="44.80294826558453" lon="11.83520974035531"><ele>0.0</ele><time>2026-04-19T14:00:11Z</time></trkpt><trkpt lat="44.80281922079371" lon="11.835091641633142"><ele>0.0</ele><time>2026-04-19T14:00:12Z</time></trkpt><trkpt lat="44.80270499200057" lon="11.834987102230526"><ele>0.0</ele><time>2026-04-19T14:00:13Z</time></trkpt><trkpt lat="44.80258990151275" lon="11.834881774160381"><ele>0.0</ele><time>2026-04-19T14:00:14Z</time></trkpt><trkpt lat="44.80247823003225" lon="11.834779953894085"><ele>0.0</ele><time>2026-04-19T14:00:15Z</time></trkpt><trkpt lat="44.802370465352354" lon="11.83468231336146"><ele>0.0</ele><time>2026-04-19T14:00:16Z</time></trkpt><trkpt lat="44.80226113735978" lon="11.834583256376824"><ele>0.0</ele><time>2026-04-19T14:00:17Z</time></trkpt><trkpt lat="44.80214362239691" lon="11.834504330180597"><ele>0.0</ele><time>2026-04-19T14:00:18Z</time></trkpt><trkpt lat="44.80203907854399" lon="11.834400792879899"><ele>0.0</ele><time>2026-04-19T14:00:19Z</time></trkpt><trkpt lat="44.80193389060565" lon="11.834301069076265"><ele>0.0</ele><time>2026-04-19T14:00:20Z</time></trkpt><trkpt lat="44.8018162184254" lon="11.834199592511272"><ele>0.25</ele><time>2026-04-19T14:00:21Z</time></trkpt><trkpt lat="44.801705435533655" lon="11.83409198089795"><ele>0.5</ele><time>2026-04-19T14:00:22Z</time></trkpt><trkpt lat="44.80158579471236" lon="11.833982074398772"><ele>0.75</ele><time>2026-04-19T14:00:23Z</time></trkpt><trkpt lat="44.801466014528486" lon="11.833867207158246"><ele>1.0</ele><time>2026-04-19T14:00:24Z</time></trkpt><trkpt lat="44.80134848424603" lon="11.83375601704337"><ele>1.0</ele><time>2026-04-19T14:00:25Z</time></trkpt><trkpt lat="44.80123644593157" lon="11.833647488071778"><ele>1.0</ele><time>2026-04-19T14:00:26Z</time></trkpt><trkpt lat="44.80112175145134" lon="11.833544260562908"><ele>1.0</ele><time>2026-04-19T14:00:27Z</time></trkpt><trkpt lat="44.80100253167982" lon="11.833435204630629"><ele>1.0</ele><time>2026-04-19T14:00:28Z</time></trkpt><trkpt lat="44.80088482783991" lon="11.833331815740854"><ele>0.5</ele><time>2026-04-19T14:00:29Z</time></trkpt><trkpt lat="44.80077252950523" lon="11.833238066240956"><ele>0.0</ele><time>2026-04-19T14:00:30Z</time></trkpt><trkpt lat="44.80065123014991" lon="11.83315798715987"><ele>-0.5</ele><time>2026-04-19T14:00:31Z</time></trkpt><trkpt lat="44.800518076921946" lon="11.833104647369135"><ele>-1.0</ele><time>2026-04-19T14:00:32Z</time></trkpt><trkpt lat="44.800373385419825" lon="11.833066723416835"><ele>-1.0</ele><time>2026-04-19T14:00:33Z</time></trkpt><trkpt lat="44.80022930811663" lon="11.833059030817056"><ele>-1.0</ele><time>2026-04-19T14:00:34Z</time></trkpt><trkpt lat="44.800087270431995" lon="11.833067098511851"><ele>-1.0</ele><time>2026-04-19T14:00:35Z</time></trkpt><trkpt lat="44.799942911102264" lon="11.83307660524244"><ele>-1.0</ele><time>2026-04-19T14:00:36Z</time></trkpt><trkpt lat="44.79978337599076" lon="11.833090640772253"><ele>-0.5</ele><time>2026-04-19T14:00:37Z</time></trkpt><trkpt lat="44.79963368734146" lon="11.833108417348676"><ele>0.0</ele><time>2026-04-19T14:00:38Z</time></trkpt><trkpt lat="44.799491864051305" lon="11.833118358746587"><ele>0.5</ele><time>2026-04-19T14:00:39Z</time></trkpt><trkpt lat="44.79935456511604" lon="11.833128912069443"><ele>1.0</ele><time>2026-04-19T14:00:40Z</time></trkpt><trkpt lat="44.79921152412943" lon="11.833138603317263"><ele>1.0</ele><time>2026-04-19T14:00:41Z</time></trkpt><trkpt lat="44.799076998483535" lon="11.833149153136663"><ele>1.0</ele><time>2026-04-19T14:00:42Z</time></trkpt><trkpt lat="44.798950506260674" lon="11.833157799188161"><ele>1.0</ele><time>2026-04-19T14:00:43Z</time></trkpt><trkpt lat="44.79882492292682" lon="11.833177189367007"><ele>1.0</ele><time>2026-04-19T14:00:44Z</time></trkpt><trkpt lat="44.798719356500776" lon="11.833180399945942"><ele>1.0</ele><time>2026-04-19T14:00:45Z</time></trkpt><trkpt lat="44.79861385165739" lon="11.833188422769114"><ele>1.0</ele><time>2026-04-19T14:00:46Z</time></trkpt><trkpt lat="44.798500097020785" lon="11.833198680085045"><ele>1.0</ele><time>2026-04-19T14:00:47Z</time></trkpt><trkpt lat="44.798383027577124" lon="11.833204687349873"><ele>1.0</ele><time>2026-04-19T14:00:48Z</time></trkpt><trkpt lat="44.79827197386151" lon="11.833212675820675"><ele>1.0</ele><time>2026-04-19T14:00:49Z</time></trkpt><trkpt lat="44.79817082494039" lon="11.833220540080147"><ele>1.0</ele><time>2026-04-19T14:00:50Z</time></trkpt><trkpt lat="44.79807789295419" lon="11.833229310545203"><ele>1.0</ele><time>2026-04-19T14:00:51Z</time></trkpt><trkpt lat="44.79799705040906" lon="11.833233184596113"><ele>1.0</ele><time>2026-04-19T14:00:52Z</time></trkpt><trkpt lat="44.79791762198578" lon="11.833237559111875"><ele>1.0</ele><time>2026-04-19T14:00:53Z</time></trkpt><trkpt lat="44.797832536338646" lon="11.833244478092348"><ele>1.0</ele><time>2026-04-19T14:00:54Z</time></trkpt><trkpt lat="44.797678320643854" lon="11.833264975521429"><ele>0.8</ele><time>2026-04-19T14:00:56Z</time></trkpt><trkpt lat="44.797564224260334" lon="11.8332619032135"><ele>0.6000000000000001</ele><time>2026-04-19T14:00:58Z</time></trkpt><trkpt lat="44.79747850551705" lon="11.833242603989262"><ele>0.4</ele><time>2026-04-19T14:01:00Z</time></trkpt><trkpt lat="44.797438371831355" lon="11.833096751224614"><ele>0.2</ele><time>2026-04-19T14:01:01Z</time></trkpt><trkpt lat="44.7973986770318" lon="11.832996396546337"><ele>0.0</ele><time>2026-04-19T14:01:02Z</time></trkpt><trkpt lat="44.79736129481694" lon="11.832887412091718"><ele>0.0</ele><time>2026-04-19T14:01:03Z</time></trkpt><trkpt lat="44.79732229053823" lon="11.832785645353823"><ele>0.0</ele><time>2026-04-19T14:01:04Z</time></trkpt><trkpt lat="44.79728138864821" lon="11.832677749141794"><ele>0.0</ele><time>2026-04-19T14:01:05Z</time></trkpt><trkpt lat="44.79722574942905" lon="11.832524547163842"><ele>0.0</ele><time>2026-04-19T14:01:06Z</time></trkpt><trkpt lat="44.79715925652327" lon="11.832343837783274"><ele>0.0</ele><time>2026-04-19T14:01:07Z</time></trkpt><trkpt lat="44.797088446431324" lon="11.832138087627774"><ele>-0.5</ele><time>2026-04-19T14:01:08Z</time></trkpt><trkpt lat="44.79701367336705" lon="11.831947764743862"><ele>-1.0</ele><time>2026-04-19T14:01:09Z</time></trkpt><trkpt lat="44.79694914140284" lon="11.831773964794955"><ele>-1.5</ele><time>2026-04-19T14:01:10Z</time></trkpt><trkpt lat="44.796889274686656" lon="11.831609317546272"><ele>-2.0</ele><time>2026-04-19T14:01:11Z</time></trkpt><trkpt lat="44.796827451865774" lon="11.83144267280845"><ele>-2.0</ele><time>2026-04-19T14:01:12Z</time></trkpt><trkpt lat="44.7967676997673" lon="11.831275366081467"><ele>-2.0</ele><time>2026-04-19T14:01:13Z</time></trkpt><trkpt lat="44.79669835129767" lon="11.831090420933768"><ele>-2.0</ele><time>2026-04-19T14:01:14Z</time></trkpt><trkpt lat="44.79662742225229" lon="11.830903559998514"><ele>-2.0</ele><time>2026-04-19T14:01:15Z</time></trkpt><trkpt lat="44.796554181375434" lon="11.830714400619154"><ele>-2.333333333333333</ele><time>2026-04-19T14:01:16Z</time></trkpt><trkpt lat="44.7964783386699" lon="11.830518178616774"><ele>-2.6666666666666665</ele><time>2026-04-19T14:01:17Z</time></trkpt><trkpt lat="44.79640060712624" lon="11.830325657767103"><ele>-3.0</ele><time>2026-04-19T14:01:18Z</time></trkpt><trkpt lat="44.796328607630194" lon="11.830132348370613"><ele>-2.3333333333333335</ele><time>2026-04-19T14:01:19Z</time></trkpt><trkpt lat="44.79627069048964" lon="11.829931427571799"><ele>-1.6666666666666665</ele><time>2026-04-19T14:01:20Z</time></trkpt><trkpt lat="44.79620013191384" lon="11.829739039479833"><ele>-1.0</ele><time>2026-04-19T14:01:21Z</time></trkpt><trkpt lat="44.79612687057908" lon="11.829540245854371"><ele>-1.0</ele><time>2026-04-19T14:01:22Z</time></trkpt><trkpt lat="44.79605029653696" lon="11.82933495307223"><ele>-1.0</ele><time>2026-04-19T14:01:23Z</time></trkpt><trkpt lat="44.795967189725694" lon="11.82916037412735"><ele>-1.0</ele><time>2026-04-19T14:01:24Z</time></trkpt><trkpt lat="44.79590658230319" lon="11.82895448939122"><ele>-1.3333333333333333</ele><time>2026-04-19T14:01:25Z</time></trkpt><trkpt lat="44.795830819946595" lon="11.82876389741929"><ele>-1.6666666666666665</ele><time>2026-04-19T14:01:26Z</time></trkpt><trkpt lat="44.79574834411598" lon="11.828571800948366"><ele>-2.0</ele><time>2026-04-19T14:01:27Z</time></trkpt><trkpt lat="44.795662230023765" lon="11.828379364100728"><ele>-2.0</ele><time>2026-04-19T14:01:28Z</time></trkpt><trkpt lat="44.795574412459914" lon="11.828193137654914"><ele>-2.0</ele><time>2026-04-19T14:01:29Z</time></trkpt><trkpt lat="44.79548044853083" lon="11.828002767825621"><ele>-2.0</ele><time>2026-04-19T14:01:30Z</time></trkpt><trkpt lat="44.79538639148547" lon="11.827820265158126"><ele>-2.333333333333333</ele><time>2026-04-19T14:01:31Z</time></trkpt><trkpt lat="44.79528548065308" lon="11.827634836067208"><ele>-2.6666666666666665</ele><time>2026-04-19T14:01:32Z</time></trkpt><trkpt lat="44.79517844880106" lon="11.827449530488334"><ele>-3.0</ele><time>2026-04-19T14:01:33Z</time></trkpt><trkpt lat="44.79506668269954" lon="11.82726499227455"><ele>-2.3333333333333335</ele><time>2026-04-19T14:01:34Z</time></trkpt><trkpt lat="44.79495557681685" lon="11.827086047011157"><ele>-1.6666666666666665</ele><time>2026-04-19T14:01:35Z</time></trkpt><trkpt lat="44.7948455901887" lon="11.826926875446016"><ele>-1.0</ele><time>2026-04-19T14:01:36Z</time></trkpt><trkpt lat="44.79472972634273" lon="11.826762729352831"><ele>-1.0</ele><time>2026-04-19T14:01:37Z</time></trkpt><trkpt lat="44.79460666393611" lon="11.826595359640024"><ele>-1.0</ele><time>2026-04-19T14:01:38Z</time></trkpt><trkpt lat="44.794486571155915" lon="11.826429490972487"><ele>-1.0</ele><time>2026-04-19T14:01:39Z</time></trkpt><trkpt lat="44.79435462123156" lon="11.826270226088322"><ele>-0.6666666666666666</ele><time>2026-04-19T14:01:40Z</time></trkpt><trkpt lat="44.794218110222225" lon="11.826119127455266"><ele>-0.3333333333333333</ele><time>2026-04-19T14:01:41Z</time></trkpt><trkpt lat="44.79408067966654" lon="11.825970835408638"><ele>0.0</ele><time>2026-04-19T14:01:42Z</time></trkpt><trkpt lat="44.79394366943332" lon="11.82582478175869"><ele>0.0</ele><time>2026-04-19T14:01:43Z</time></trkpt><trkpt lat="44.79380483372157" lon="11.825681282247542"><ele>0.0</ele><time>2026-04-19T14:01:44Z</time></trkpt><trkpt lat="44.79366765079396" lon="11.82554686178193"><ele>0.0</ele><time>2026-04-19T14:01:45Z</time></trkpt><trkpt lat="44.79351930234955" lon="11.82540956684542"><ele>0.0</ele><time>2026-04-19T14:01:46Z</time></trkpt><trkpt lat="44.79337297168923" lon="11.825274184269773"><ele>0.0</ele><time>2026-04-19T14:01:47Z</time></trkpt><trkpt lat="44.7932363012908" lon="11.825149439294615"><ele>0.0</ele><time>2026-04-19T14:01:48Z</time></trkpt><trkpt lat="44.79310087958383" lon="11.825025834075824"><ele>-0.3333333333333333</ele><time>2026-04-19T14:01:49Z</time></trkpt><trkpt lat="44.79295774667875" lon="11.824895190543108"><ele>-0.6666666666666666</ele><time>2026-04-19T14:01:50Z</time></trkpt><trkpt lat="44.7928207895491" lon="11.824770183917044"><ele>-1.0</ele><time>2026-04-19T14:01:51Z</time></trkpt><trkpt lat="44.79268523150787" lon="11.824646454197326"><ele>-1.0</ele><time>2026-04-19T14:01:52Z</time></trkpt><trkpt lat="44.79255036933612" lon="11.824523359695357"><ele>-1.0</ele><time>2026-04-19T14:01:53Z</time></trkpt><trkpt lat="44.792416948495784" lon="11.824399346933717"><ele>-1.0</ele><time>2026-04-19T14:01:54Z</time></trkpt><trkpt lat="44.792288829685226" lon="11.824279697062716"><ele>-1.0</ele><time>2026-04-19T14:01:55Z</time></trkpt><trkpt lat="44.79216013828757" lon="11.824159512537578"><ele>-1.0</ele><time>2026-04-19T14:01:56Z</time></trkpt><trkpt lat="44.79201879882492" lon="11.82405403482997"><ele>-1.0</ele><time>2026-04-19T14:01:57Z</time></trkpt><trkpt lat="44.791894267116746" lon="11.82393235409354"><ele>-1.6666666666666665</ele><time>2026-04-19T14:01:58Z</time></trkpt><trkpt lat="44.79175940566888" lon="11.823810706107366"><ele>-2.3333333333333335</ele><time>2026-04-19T14:01:59Z</time></trkpt><trkpt lat="44.79162860272571" lon="11.823663112852508"><ele>-3.0</ele><time>2026-04-19T14:02:00Z</time></trkpt><trkpt lat="44.79149389835074" lon="11.823537312772354"><ele>-2.6666666666666665</ele><time>2026-04-19T14:02:01Z</time></trkpt><trkpt lat="44.79135942779937" lon="11.823411873898664"><ele>-2.333333333333333</ele><time>2026-04-19T14:02:02Z</time></trkpt><trkpt lat="44.7912233389838" lon="11.823285461121857"><ele>-2.0</ele><time>2026-04-19T14:02:03Z</time></trkpt><trkpt lat="44.79108416127277" lon="11.82315700872918"><ele>-2.0</ele><time>2026-04-19T14:02:04Z</time></trkpt><trkpt lat="44.79094947426727" lon="11.823033200579506"><ele>-2.0</ele><time>2026-04-19T14:02:05Z</time></trkpt><trkpt lat="44.79081792266983" lon="11.82291227494813"><ele>-2.0</ele><time>2026-04-19T14:02:06Z</time></trkpt><trkpt lat="44.79068528587342" lon="11.82279035121532"><ele>-2.0</ele><time>2026-04-19T14:02:07Z</time></trkpt><trkpt lat="44.790560250114886" lon="11.822675414775798"><ele>-2.0</ele><time>2026-04-19T14:02:08Z</time></trkpt><trkpt lat="44.79043590555998" lon="11.822561113685058"><ele>-2.0</ele><time>2026-04-19T14:02:09Z</time></trkpt><trkpt lat="44.790314264412466" lon="11.822449297754812"><ele>-2.0</ele><time>2026-04-19T14:02:10Z</time></trkpt><trkpt lat="44.790191673759175" lon="11.822336610390847"><ele>-2.6666666666666665</ele><time>2026-04-19T14:02:11Z</time></trkpt><trkpt lat="44.79006901313728" lon="11.822222976280496"><ele>-3.333333333333333</ele><time>2026-04-19T14:02:12Z</time></trkpt><trkpt lat="44.78994053338936" lon="11.82210345104173"><ele>-4.0</ele><time>2026-04-19T14:02:13Z</time></trkpt><trkpt lat="44.78980591974036" lon="11.821978219442727"><ele>-4.0</ele><time>2026-04-19T14:02:14Z</time></trkpt><trkpt lat="44.78967194903174" lon="11.821853585890475"><ele>-4.0</ele><time>2026-04-19T14:02:15Z</time></trkpt><trkpt lat="44.78954247311168" lon="11.821733230245071"><ele>-4.0</ele><time>2026-04-19T14:02:16Z</time></trkpt><trkpt lat="44.78943058616074" lon="11.821629661684918"><ele>-4.0</ele><time>2026-04-19T14:02:17Z</time></trkpt><trkpt lat="44.78931650784503" lon="11.821551004955948"><ele>-3.4000000000000004</ele><time>2026-04-19T14:02:18Z</time></trkpt><trkpt lat="44.789230399928215" lon="11.821454721069244"><ele>-2.8000000000000003</ele><time>2026-04-19T14:02:19Z</time></trkpt><trkpt lat="44.789136285635095" lon="11.821376760716065"><ele>-2.2</ele><time>2026-04-19T14:02:20Z</time></trkpt><trkpt lat="44.78905647679228" lon="11.821301657914715"><ele>-1.6</ele><time>2026-04-19T14:02:21Z</time></trkpt><trkpt lat="44.78898587861165" lon="11.82123205415045"><ele>-1.0</ele><time>2026-04-19T14:02:22Z</time></trkpt><trkpt lat="44.78891923832457" lon="11.82116775066117"><ele>-0.9999999999999999</ele><time>2026-04-19T14:02:23Z</time></trkpt><trkpt lat="44.78885805497261" lon="11.821108065543667"><ele>-1.0</ele><time>2026-04-19T14:02:24Z</time></trkpt><trkpt lat="44.78880112404109" lon="11.821058392820538"><ele>-1.0</ele><time>2026-04-19T14:02:25Z</time></trkpt><trkpt lat="44.788718039077835" lon="11.82097940260842"><ele>-1.0</ele><time>2026-04-19T14:02:27Z</time></trkpt><trkpt lat="44.78866711855524" lon="11.820906190104242"><ele>-0.9999999999999999</ele><time>2026-04-19T14:02:37.999Z</time></trkpt><trkpt lat="44.78860993923739" lon="11.820837495667758"><ele>-1.0</ele><time>2026-04-19T14:02:41.999Z</time></trkpt><trkpt lat="44.78850252849701" lon="11.820992986079"><ele>-1.0</ele><time>2026-04-19T14:02:42.999Z</time></trkpt><trkpt lat="44.78844041281072" lon="11.821076383997625"><ele>-1.0</ele><time>2026-04-19T14:02:43.999Z</time></trkpt><trkpt lat="44.788373352398565" lon="11.821165419036111"><ele>-1.0</ele><time>2026-04-19T14:02:44.999Z</time></trkpt><trkpt lat="44.78830837629028" lon="11.82125057502801"><ele>-1.0</ele><time>2026-04-19T14:02:46Z</time></trkpt><trkpt lat="44.78823675105672" lon="11.821339925127727"><ele>-1.0</ele><time>2026-04-19T14:02:47Z</time></trkpt><trkpt lat="44.78815304969121" lon="11.821447230803841"><ele>-1.0</ele><time>2026-04-19T14:02:48Z</time></trkpt><trkpt lat="44.78806965909247" lon="11.821554948941262"><ele>-1.0</ele><time>2026-04-19T14:02:49Z</time></trkpt><trkpt lat="44.787977793799556" lon="11.82167257422999"><ele>-1.0</ele><time>2026-04-19T14:02:50Z</time></trkpt><trkpt lat="44.787883321418306" lon="11.821788926194529"><ele>-1.0</ele><time>2026-04-19T14:02:51Z</time></trkpt><trkpt lat="44.787791623988845" lon="11.821902531096713"><ele>-1.25</ele><time>2026-04-19T14:02:52Z</time></trkpt><trkpt lat="44.78770531663954" lon="11.82201245730123"><ele>-1.5</ele><time>2026-04-19T14:02:53Z</time></trkpt><trkpt lat="44.78761306202685" lon="11.822132327123596"><ele>-1.75</ele><time>2026-04-19T14:02:54Z</time></trkpt><trkpt lat="44.78751410708986" lon="11.822254123668753"><ele>-2.0</ele><time>2026-04-19T14:02:55Z</time></trkpt><trkpt lat="44.78741598285479" lon="11.82238049246742"><ele>-1.25</ele><time>2026-04-19T14:02:56Z</time></trkpt><trkpt lat="44.78731518783038" lon="11.822512647841569"><ele>-0.5</ele><time>2026-04-19T14:02:57Z</time></trkpt><trkpt lat="44.787212676184886" lon="11.82265252803501"><ele>0.25</ele><time>2026-04-19T14:02:58Z</time></trkpt><trkpt lat="44.78712325095227" lon="11.822784223270217"><ele>1.0</ele><time>2026-04-19T14:02:59Z</time></trkpt><trkpt lat="44.78703144728326" lon="11.822941908090893"><ele>1.0</ele><time>2026-04-19T14:03:00Z</time></trkpt><trkpt lat="44.786933769034185" lon="11.823106377381524"><ele>1.0</ele><time>2026-04-19T14:03:01Z</time></trkpt><trkpt lat="44.78683909335177" lon="11.823274054989113"><ele>1.0</ele><time>2026-04-19T14:03:02Z</time></trkpt><trkpt lat="44.78674456741183" lon="11.823444526837545"><ele>0.3333333333333333</ele><time>2026-04-19T14:03:03Z</time></trkpt><trkpt lat="44.78664936895499" lon="11.82362090492355"><ele>-0.3333333333333333</ele><time>2026-04-19T14:03:04Z</time></trkpt><trkpt lat="44.786548216580925" lon="11.823796810241822"><ele>-1.0</ele><time>2026-04-19T14:03:05Z</time></trkpt><trkpt lat="44.7864475806775" lon="11.823970381647731"><ele>-1.0</ele><time>2026-04-19T14:03:06Z</time></trkpt><trkpt lat="44.786349572429145" lon="11.824150429184039"><ele>-1.0</ele><time>2026-04-19T14:03:07Z</time></trkpt><trkpt lat="44.7862504003328" lon="11.824321857338097"><ele>-1.0</ele><time>2026-04-19T14:03:08Z</time></trkpt><trkpt lat="44.7861485322213" lon="11.824493799185717"><ele>-1.25</ele><time>2026-04-19T14:03:09Z</time></trkpt><trkpt lat="44.78605057468481" lon="11.824667924854127"><ele>-1.5</ele><time>2026-04-19T14:03:10Z</time></trkpt><trkpt lat="44.78595416800046" lon="11.824820642407062"><ele>-1.75</ele><time>2026-04-19T14:03:11Z</time></trkpt><trkpt lat="44.78586411427212" lon="11.824983106303726"><ele>-2.0</ele><time>2026-04-19T14:03:12Z</time></trkpt><trkpt lat="44.78575562498711" lon="11.825170504466179"><ele>-1.3333333333333333</ele><time>2026-04-19T14:03:13Z</time></trkpt><trkpt lat="44.78565430668906" lon="11.825351168287666"><ele>-0.6666666666666666</ele><time>2026-04-19T14:03:14Z</time></trkpt><trkpt lat="44.78555131454176" lon="11.825527019343141"><ele>0.0</ele><time>2026-04-19T14:03:15Z</time></trkpt><trkpt lat="44.78545608397525" lon="11.825695071229717"><ele>0.0</ele><time>2026-04-19T14:03:16Z</time></trkpt><trkpt lat="44.78535351954515" lon="11.825877615516536"><ele>0.0</ele><time>2026-04-19T14:03:17Z</time></trkpt><trkpt lat="44.78525443756061" lon="11.826051889137423"><ele>0.0</ele><time>2026-04-19T14:03:18Z</time></trkpt><trkpt lat="44.78515020011641" lon="11.826235141210777"><ele>0.3333333333333333</ele><time>2026-04-19T14:03:19Z</time></trkpt><trkpt lat="44.785046881547466" lon="11.826415915292745"><ele>0.6666666666666666</ele><time>2026-04-19T14:03:20Z</time></trkpt><trkpt lat="44.784946890721514" lon="11.82659836829188"><ele>1.0</ele><time>2026-04-19T14:03:21Z</time></trkpt><trkpt lat="44.784847931905986" lon="11.826777823757439"><ele>0.6666666666666666</ele><time>2026-04-19T14:03:22Z</time></trkpt><trkpt lat="44.784737844167836" lon="11.826957051446733"><ele>0.3333333333333333</ele><time>2026-04-19T14:03:23Z</time></trkpt><trkpt lat="44.784631867439224" lon="11.827139709795837"><ele>0.0</ele><time>2026-04-19T14:03:24Z</time></trkpt><trkpt lat="44.78452824610074" lon="11.827324917909408"><ele>0.0</ele><time>2026-04-19T14:03:25Z</time></trkpt><trkpt lat="44.78442460542452" lon="11.827498308647312"><ele>0.0</ele><time>2026-04-19T14:03:26Z</time></trkpt><trkpt lat="44.78432204308284" lon="11.827689628380154"><ele>0.0</ele><time>2026-04-19T14:03:27Z</time></trkpt><trkpt lat="44.784222260819625" lon="11.827873136582392"><ele>0.3333333333333333</ele><time>2026-04-19T14:03:28Z</time></trkpt><trkpt lat="44.78411634112575" lon="11.828054935130455"><ele>0.6666666666666666</ele><time>2026-04-19T14:03:29Z</time></trkpt><trkpt lat="44.78401018041942" lon="11.828240742773014"><ele>1.0</ele><time>2026-04-19T14:03:30Z</time></trkpt><trkpt lat="44.78390425678678" lon="11.828426193993456"><ele>0.6666666666666666</ele><time>2026-04-19T14:03:31Z</time></trkpt><trkpt lat="44.78379868450266" lon="11.828617375957855"><ele>0.3333333333333333</ele><time>2026-04-19T14:03:32Z</time></trkpt><trkpt lat="44.783696428025124" lon="11.828766463706026"><ele>0.0</ele><time>2026-04-19T14:03:33Z</time></trkpt><trkpt lat="44.78359046178816" lon="11.828952160332049"><ele>0.0</ele><time>2026-04-19T14:03:34Z</time></trkpt><trkpt lat="44.78350094096012" lon="11.829145007342577"><ele>0.0</ele><time>2026-04-19T14:03:35Z</time></trkpt><trkpt lat="44.78339503368189" lon="11.829329667930534"><ele>0.0</ele><time>2026-04-19T14:03:36Z</time></trkpt><trkpt lat="44.7832925726714" lon="11.82950218462807"><ele>0.0</ele><time>2026-04-19T14:03:37Z</time></trkpt><trkpt lat="44.78317612743393" lon="11.829659071695232"><ele>0.0</ele><time>2026-04-19T14:03:38Z</time></trkpt><trkpt lat="44.78306895548933" lon="11.829822400373923"><ele>0.0</ele><time>2026-04-19T14:03:39Z</time></trkpt><trkpt lat="44.78297494571063" lon="11.8299832831473"><ele>0.0</ele><time>2026-04-19T14:03:40Z</time></trkpt><trkpt lat="44.78287319619649" lon="11.830105438453478"><ele>0.0</ele><time>2026-04-19T14:03:41Z</time></trkpt><trkpt lat="44.78276004241399" lon="11.830196685111096"><ele>0.0</ele><time>2026-04-19T14:03:42Z</time></trkpt><trkpt lat="44.78266240250568" lon="11.830290233879353"><ele>0.0</ele><time>2026-04-19T14:03:43Z</time></trkpt><trkpt lat="44.7825801800431" lon="11.83037715291496"><ele>0.0</ele><time>2026-04-19T14:03:44Z</time></trkpt><trkpt lat="44.78249272440572" lon="11.83044960462849"><ele>0.0</ele><time>2026-04-19T14:03:45Z</time></trkpt><trkpt lat="44.7823934281559" lon="11.830519016695936"><ele>0.0</ele><time>2026-04-19T14:03:46Z</time></trkpt><trkpt lat="44.7822855203734" lon="11.830615855265814"><ele>0.0</ele><time>2026-04-19T14:03:47Z</time></trkpt><trkpt lat="44.782173806682515" lon="11.830718235427204"><ele>0.0</ele><time>2026-04-19T14:03:48Z</time></trkpt><trkpt lat="44.78205520129981" lon="11.830842789278229"><ele>0.0</ele><time>2026-04-19T14:03:49Z</time></trkpt><trkpt lat="44.781932748818726" lon="11.830987745942679"><ele>0.0</ele><time>2026-04-19T14:03:50Z</time></trkpt><trkpt lat="44.781816167959384" lon="11.83115634395824"><ele>0.0</ele><time>2026-04-19T14:03:51Z</time></trkpt><trkpt lat="44.78171027240862" lon="11.831329881498732"><ele>0.0</ele><time>2026-04-19T14:03:52Z</time></trkpt><trkpt lat="44.78160736026558" lon="11.831512494983848"><ele>0.0</ele><time>2026-04-19T14:03:53Z</time></trkpt><trkpt lat="44.781509114241935" lon="11.831702794633124"><ele>-0.3333333333333333</ele><time>2026-04-19T14:03:54Z</time></trkpt><trkpt lat="44.781426223515865" lon="11.831893376666994"><ele>-0.6666666666666666</ele><time>2026-04-19T14:03:55Z</time></trkpt><trkpt lat="44.781347994136155" lon="11.832099467630215"><ele>-1.0</ele><time>2026-04-19T14:03:56Z</time></trkpt><trkpt lat="44.78128307059141" lon="11.832307604346813"><ele>-1.0</ele><time>2026-04-19T14:03:57Z</time></trkpt><trkpt lat="44.78122251263184" lon="11.832524814506433"><ele>-1.0</ele><time>2026-04-19T14:03:58Z</time></trkpt><trkpt lat="44.78116549066949" lon="11.832745361159619"><ele>-1.0</ele><time>2026-04-19T14:03:59Z</time></trkpt><trkpt lat="44.78110545591935" lon="11.83297299230031"><ele>-1.3333333333333333</ele><time>2026-04-19T14:04:00Z</time></trkpt><trkpt lat="44.78105284763987" lon="11.83318070728254"><ele>-1.6666666666666665</ele><time>2026-04-19T14:04:01Z</time></trkpt><trkpt lat="44.780998275141094" lon="11.83339196761178"><ele>-2.0</ele><time>2026-04-19T14:04:02Z</time></trkpt><trkpt lat="44.780947704951565" lon="11.833593495031044"><ele>0.0</ele><time>2026-04-19T14:04:03Z</time></trkpt><trkpt lat="44.780897414156186" lon="11.833794779775443"><ele>2.0</ele><time>2026-04-19T14:04:04Z</time></trkpt><trkpt lat="44.780843534786925" lon="11.834015539595407"><ele>4.0</ele><time>2026-04-19T14:04:05Z</time></trkpt><trkpt lat="44.780809199283006" lon="11.834210984071262"><ele>3.5</ele><time>2026-04-19T14:04:06Z</time></trkpt><trkpt lat="44.78078284547659" lon="11.834413059843632"><ele>3.0</ele><time>2026-04-19T14:04:07Z</time></trkpt><trkpt lat="44.780766264886104" lon="11.834625795003"><ele>2.5</ele><time>2026-04-19T14:04:08Z</time></trkpt><trkpt lat="44.78074927851713" lon="11.834834946032357"><ele>2.0</ele><time>2026-04-19T14:04:09Z</time></trkpt><trkpt lat="44.78074100473034" lon="11.835042674473215"><ele>2.0</ele><time>2026-04-19T14:04:10Z</time></trkpt><trkpt lat="44.78072121826831" lon="11.835258416760702"><ele>2.0</ele><time>2026-04-19T14:04:11Z</time></trkpt><trkpt lat="44.7807047303762" lon="11.8354684743954"><ele>2.0</ele><time>2026-04-19T14:04:12Z</time></trkpt><trkpt lat="44.780691026727716" lon="11.835678278591885"><ele>2.0</ele><time>2026-04-19T14:04:13Z</time></trkpt><trkpt lat="44.78067491058822" lon="11.83587337222154"><ele>2.0</ele><time>2026-04-19T14:04:14Z</time></trkpt><trkpt lat="44.78064899464901" lon="11.836077897412448"><ele>2.0</ele><time>2026-04-19T14:04:15Z</time></trkpt><trkpt lat="44.78061886112061" lon="11.83628029245525"><ele>2.0</ele><time>2026-04-19T14:04:16Z</time></trkpt><trkpt lat="44.7806025256996" lon="11.836487466449999"><ele>1.75</ele><time>2026-04-19T14:04:17Z</time></trkpt><trkpt lat="44.7805677005223" lon="11.836691699831722"><ele>1.5</ele><time>2026-04-19T14:04:18Z</time></trkpt><trkpt lat="44.78052095755772" lon="11.836881920890248"><ele>1.25</ele><time>2026-04-19T14:04:19Z</time></trkpt><trkpt lat="44.78047778560286" lon="11.83707872452707"><ele>1.0</ele><time>2026-04-19T14:04:20Z</time></trkpt><trkpt lat="44.78042446507763" lon="11.837280871733677"><ele>1.0</ele><time>2026-04-19T14:04:21Z</time></trkpt><trkpt lat="44.78037732133797" lon="11.837474541320356"><ele>1.0</ele><time>2026-04-19T14:04:22.001Z</time></trkpt><trkpt lat="44.7803007662202" lon="11.837670722289843"><ele>1.0</ele><time>2026-04-19T14:04:23.001Z</time></trkpt><trkpt lat="44.7802290262663" lon="11.837873724892077"><ele>1.0</ele><time>2026-04-19T14:04:24.001Z</time></trkpt><trkpt lat="44.78015729908467" lon="11.838050509400723"><ele>1.0</ele><time>2026-04-19T14:04:25.001Z</time></trkpt><trkpt lat="44.78009407408758" lon="11.838199601280149"><ele>1.0</ele><time>2026-04-19T14:04:26.001Z</time></trkpt><trkpt lat="44.78001758410555" lon="11.838371588476521"><ele>1.0</ele><time>2026-04-19T14:04:27.001Z</time></trkpt><trkpt lat="44.779940128833516" lon="11.838533430296545"><ele>1.0</ele><time>2026-04-19T14:04:28.001Z</time></trkpt><trkpt lat="44.77986550727632" lon="11.838682004495778"><ele>1.0</ele><time>2026-04-19T14:04:29.001Z</time></trkpt><trkpt lat="44.77980292709635" lon="11.838834456603115"><ele>1.0</ele><time>2026-04-19T14:04:30.001Z</time></trkpt><trkpt lat="44.77973177602129" lon="11.838989762853524"><ele>1.0</ele><time>2026-04-19T14:04:31.001Z</time></trkpt><trkpt lat="44.77966712598237" lon="11.839133781601555"><ele>1.0</ele><time>2026-04-19T14:04:32.001Z</time></trkpt><trkpt lat="44.7795903401659" lon="11.839275515001543"><ele>1.0</ele><time>2026-04-19T14:04:33.001Z</time></trkpt><trkpt lat="44.77951299465539" lon="11.839422296303448"><ele>1.0</ele><time>2026-04-19T14:04:34.001Z</time></trkpt><trkpt lat="44.779413878944666" lon="11.839564943870222"><ele>1.0</ele><time>2026-04-19T14:04:35.001Z</time></trkpt><trkpt lat="44.77930136358423" lon="11.839693810247617"><ele>2.0</ele><time>2026-04-19T14:04:36.001Z</time></trkpt><trkpt lat="44.779176758683114" lon="11.83980967348774"><ele>3.0</ele><time>2026-04-19T14:04:36.999Z</time></trkpt><trkpt lat="44.77903905781952" lon="11.839908322964428"><ele>4.0</ele><time>2026-04-19T14:04:37.999Z</time></trkpt><trkpt lat="44.77889824528044" lon="11.839987092748315"><ele>4.0</ele><time>2026-04-19T14:04:38.999Z</time></trkpt><trkpt lat="44.77874255681937" lon="11.840056154609968"><ele>4.0</ele><time>2026-04-19T14:04:39.999Z</time></trkpt><trkpt lat="44.77856773411401" lon="11.840131845688369"><ele>4.0</ele><time>2026-04-19T14:04:40.999Z</time></trkpt><trkpt lat="44.77839299160488" lon="11.840208342418324"><ele>2.6666666666666665</ele><time>2026-04-19T14:04:41.999Z</time></trkpt><trkpt lat="44.778222572126786" lon="11.840286874791698"><ele>1.3333333333333333</ele><time>2026-04-19T14:04:42.999Z</time></trkpt><trkpt lat="44.77805421869191" lon="11.840361271246259"><ele>0.0</ele><time>2026-04-19T14:04:43.999Z</time></trkpt><trkpt lat="44.77789410370253" lon="11.84043304639158"><ele>0.0</ele><time>2026-04-19T14:04:44.999Z</time></trkpt><trkpt lat="44.777732953635216" lon="11.84050883086182"><ele>0.0</ele><time>2026-04-19T14:04:45.999Z</time></trkpt><trkpt lat="44.77758542135761" lon="11.840588310509718"><ele>0.0</ele><time>2026-04-19T14:04:46.999Z</time></trkpt><trkpt lat="44.777442243227235" lon="11.840690045255846"><ele>0.3333333333333333</ele><time>2026-04-19T14:04:47.999Z</time></trkpt><trkpt lat="44.77731076939484" lon="11.840801048938964"><ele>0.6666666666666666</ele><time>2026-04-19T14:04:48.999Z</time></trkpt><trkpt lat="44.77718292460664" lon="11.840935310092545"><ele>1.0</ele><time>2026-04-19T14:04:49.999Z</time></trkpt><trkpt lat="44.77706212145524" lon="11.841083772407417"><ele>1.0</ele><time>2026-04-19T14:04:50.999Z</time></trkpt><trkpt lat="44.77695348272556" lon="11.841228551039045"><ele>1.0</ele><time>2026-04-19T14:04:51.999Z</time></trkpt><trkpt lat="44.77685154559536" lon="11.841375778020273"><ele>1.0</ele><time>2026-04-19T14:04:52.999Z</time></trkpt><trkpt lat="44.77675962738213" lon="11.841533992175899"><ele>1.0</ele><time>2026-04-19T14:04:53.999Z</time></trkpt><trkpt lat="44.77667385081324" lon="11.841717991871377"><ele>1.0</ele><time>2026-04-19T14:04:54.999Z</time></trkpt><trkpt lat="44.776602569117514" lon="11.841907197471846"><ele>1.0</ele><time>2026-04-19T14:04:55.999Z</time></trkpt><trkpt lat="44.77652544776192" lon="11.842107736701072"><ele>1.0</ele><time>2026-04-19T14:04:56.999Z</time></trkpt><trkpt lat="44.7764516789295" lon="11.8422993254005"><ele>1.0</ele><time>2026-04-19T14:04:57.999Z</time></trkpt><trkpt lat="44.7763742840287" lon="11.842503727608129"><ele>1.0</ele><time>2026-04-19T14:04:58.999Z</time></trkpt><trkpt lat="44.77629841289866" lon="11.84270386201857"><ele>1.0</ele><time>2026-04-19T14:04:59.999Z</time></trkpt><trkpt lat="44.776211672909895" lon="11.842875848327173"><ele>1.0</ele><time>2026-04-19T14:05:00.999Z</time></trkpt><trkpt lat="44.776132912616895" lon="11.843073691726833"><ele>1.0</ele><time>2026-04-19T14:05:01.999Z</time></trkpt><trkpt lat="44.77603627547358" lon="11.843246215867588"><ele>1.0</ele><time>2026-04-19T14:05:02.999Z</time></trkpt><trkpt lat="44.775928650959614" lon="11.843403529574221"><ele>1.0</ele><time>2026-04-19T14:05:03.999Z</time></trkpt><trkpt lat="44.77580549405633" lon="11.84352590834539"><ele>1.0</ele><time>2026-04-19T14:05:04.999Z</time></trkpt><trkpt lat="44.77569450408748" lon="11.843676935116221"><ele>1.0</ele><time>2026-04-19T14:05:05.999Z</time></trkpt><trkpt lat="44.77557812072854" lon="11.843795568117798"><ele>1.0</ele><time>2026-04-19T14:05:07Z</time></trkpt><trkpt lat="44.77546234810958" lon="11.843915074657016"><ele>1.0</ele><time>2026-04-19T14:05:08Z</time></trkpt><trkpt lat="44.77534583756865" lon="11.84405053669869"><ele>1.0</ele><time>2026-04-19T14:05:09Z</time></trkpt><trkpt lat="44.775227737495136" lon="11.844184562483868"><ele>1.0</ele><time>2026-04-19T14:05:10Z</time></trkpt><trkpt lat="44.775107283228444" lon="11.844335500430201"><ele>1.0</ele><time>2026-04-19T14:05:11Z</time></trkpt><trkpt lat="44.77499152510115" lon="11.84448848086627"><ele>1.0</ele><time>2026-04-19T14:05:12Z</time></trkpt><trkpt lat="44.77486955457399" lon="11.844657487197379"><ele>1.0</ele><time>2026-04-19T14:05:13Z</time></trkpt><trkpt lat="44.77477030134089" lon="11.844842728070713"><ele>1.0</ele><time>2026-04-19T14:05:14Z</time></trkpt><trkpt lat="44.774675391531524" lon="11.845038417478404"><ele>1.0</ele><time>2026-04-19T14:05:15Z</time></trkpt><trkpt lat="44.77458052277784" lon="11.84524521623483"><ele>1.0</ele><time>2026-04-19T14:05:16Z</time></trkpt><trkpt lat="44.774488170709624" lon="11.845448633292882"><ele>0.6666666666666666</ele><time>2026-04-19T14:05:17Z</time></trkpt><trkpt lat="44.774392918268525" lon="11.845665599607937"><ele>0.3333333333333333</ele><time>2026-04-19T14:05:18Z</time></trkpt><trkpt lat="44.77429766119581" lon="11.845877185146316"><ele>0.0</ele><time>2026-04-19T14:05:19Z</time></trkpt><trkpt lat="44.774201969805716" lon="11.846093682820497"><ele>0.6666666666666666</ele><time>2026-04-19T14:05:20Z</time></trkpt><trkpt lat="44.77410329407637" lon="11.8463127558273"><ele>1.3333333333333333</ele><time>2026-04-19T14:05:21Z</time></trkpt><trkpt lat="44.77400680492556" lon="11.846526446297085"><ele>2.0</ele><time>2026-04-19T14:05:22Z</time></trkpt><trkpt lat="44.773910474554626" lon="11.846741999493766"><ele>1.3333333333333333</ele><time>2026-04-19T14:05:23Z</time></trkpt><trkpt lat="44.77381701833482" lon="11.84695443353104"><ele>0.6666666666666666</ele><time>2026-04-19T14:05:24Z</time></trkpt><trkpt lat="44.77372334970684" lon="11.847161913959535"><ele>0.0</ele><time>2026-04-19T14:05:25Z</time></trkpt><trkpt lat="44.77363797349267" lon="11.847356521913186"><ele>0.0</ele><time>2026-04-19T14:05:26Z</time></trkpt><trkpt lat="44.77355928907456" lon="11.847547770256961"><ele>0.0</ele><time>2026-04-19T14:05:27Z</time></trkpt><trkpt lat="44.773471675474326" lon="11.847737811060576"><ele>0.0</ele><time>2026-04-19T14:05:28Z</time></trkpt><trkpt lat="44.77338587695357" lon="11.847931058010786"><ele>0.0</ele><time>2026-04-19T14:05:29Z</time></trkpt><trkpt lat="44.773298679414545" lon="11.848134828537392"><ele>0.0</ele><time>2026-04-19T14:05:30Z</time></trkpt><trkpt lat="44.77321916562591" lon="11.848336790096154"><ele>0.0</ele><time>2026-04-19T14:05:31Z</time></trkpt><trkpt lat="44.77314228132897" lon="11.848553595035323"><ele>0.0</ele><time>2026-04-19T14:05:32Z</time></trkpt><trkpt lat="44.773068948046294" lon="11.848779319913614"><ele>0.0</ele><time>2026-04-19T14:05:33Z</time></trkpt><trkpt lat="44.77299821790822" lon="11.849011988263587"><ele>0.0</ele><time>2026-04-19T14:05:34Z</time></trkpt><trkpt lat="44.77293426359934" lon="11.849241918668154"><ele>-0.3333333333333333</ele><time>2026-04-19T14:05:35Z</time></trkpt><trkpt lat="44.77286676070557" lon="11.849478201773358"><ele>-0.6666666666666666</ele><time>2026-04-19T14:05:36Z</time></trkpt><trkpt lat="44.77279958673221" lon="11.849713280079103"><ele>-1.0</ele><time>2026-04-19T14:05:37Z</time></trkpt><trkpt lat="44.772733607486494" lon="11.849947416035832"><ele>0.0</ele><time>2026-04-19T14:05:38Z</time></trkpt><trkpt lat="44.772667477616444" lon="11.850173967785636"><ele>1.0</ele><time>2026-04-19T14:05:39Z</time></trkpt><trkpt lat="44.77260145914846" lon="11.85040203454922"><ele>2.0</ele><time>2026-04-19T14:05:40Z</time></trkpt><trkpt lat="44.77253632890196" lon="11.850639869229397"><ele>2.0</ele><time>2026-04-19T14:05:41Z</time></trkpt><trkpt lat="44.772471310189054" lon="11.850875443479364"><ele>2.0</ele><time>2026-04-19T14:05:42Z</time></trkpt><trkpt lat="44.77240588111523" lon="11.85110188766152"><ele>2.0</ele><time>2026-04-19T14:05:43Z</time></trkpt><trkpt lat="44.77233703953188" lon="11.851335946716725"><ele>1.6666666666666665</ele><time>2026-04-19T14:05:44Z</time></trkpt><trkpt lat="44.772267793020134" lon="11.851576030013378"><ele>1.3333333333333333</ele><time>2026-04-19T14:05:45Z</time></trkpt><trkpt lat="44.772203969814974" lon="11.851809984418265"><ele>1.0</ele><time>2026-04-19T14:05:46Z</time></trkpt><trkpt lat="44.7721376009874" lon="11.852040657061227"><ele>1.0</ele><time>2026-04-19T14:05:47Z</time></trkpt><trkpt lat="44.7720775823881" lon="11.852258842302726"><ele>1.0</ele><time>2026-04-19T14:05:48Z</time></trkpt><trkpt lat="44.772015754218216" lon="11.852459666842815"><ele>1.0</ele><time>2026-04-19T14:05:49Z</time></trkpt><trkpt lat="44.7719613120085" lon="11.852661722535462"><ele>1.0</ele><time>2026-04-19T14:05:50Z</time></trkpt><trkpt lat="44.77190654433197" lon="11.852860422923364"><ele>1.0</ele><time>2026-04-19T14:05:51Z</time></trkpt><trkpt lat="44.771852180246874" lon="11.853054234098543"><ele>1.0</ele><time>2026-04-19T14:05:52Z</time></trkpt><trkpt lat="44.77179415706552" lon="11.853256053981543"><ele>0.75</ele><time>2026-04-19T14:05:53Z</time></trkpt><trkpt lat="44.77173505762224" lon="11.853451752609045"><ele>0.5</ele><time>2026-04-19T14:05:54Z</time></trkpt><trkpt lat="44.77165969278459" lon="11.853646557205689"><ele>0.25</ele><time>2026-04-19T14:05:55Z</time></trkpt><trkpt lat="44.77157023758735" lon="11.85377475921868"><ele>0.0</ele><time>2026-04-19T14:05:56Z</time></trkpt><trkpt lat="44.77149640869641" lon="11.8539471754902"><ele>0.0</ele><time>2026-04-19T14:05:57Z</time></trkpt><trkpt lat="44.771380224533935" lon="11.85407150373074"><ele>0.0</ele><time>2026-04-19T14:05:58Z</time></trkpt><trkpt lat="44.771273701347354" lon="11.854201668443663"><ele>0.0</ele><time>2026-04-19T14:05:59Z</time></trkpt><trkpt lat="44.77115839334861" lon="11.854329121923024"><ele>0.0</ele><time>2026-04-19T14:06:00Z</time></trkpt><trkpt lat="44.77104155225441" lon="11.85445588365828"><ele>0.0</ele><time>2026-04-19T14:06:01Z</time></trkpt><trkpt lat="44.77093042604278" lon="11.854577301369476"><ele>0.0</ele><time>2026-04-19T14:06:02Z</time></trkpt><trkpt lat="44.77082580422784" lon="11.854702064200044"><ele>0.0</ele><time>2026-04-19T14:06:03Z</time></trkpt><trkpt lat="44.77072264895753" lon="11.854823009689145"><ele>0.0</ele><time>2026-04-19T14:06:04Z</time></trkpt><trkpt lat="44.77062321164372" lon="11.854941063507704"><ele>0.0</ele><time>2026-04-19T14:06:05Z</time></trkpt><trkpt lat="44.77052386221328" lon="11.855054569616733"><ele>0.0</ele><time>2026-04-19T14:06:06Z</time></trkpt><trkpt lat="44.77042489740097" lon="11.85516526952226"><ele>0.0</ele><time>2026-04-19T14:06:07Z</time></trkpt><trkpt lat="44.77031634118055" lon="11.855260238959628"><ele>0.0</ele><time>2026-04-19T14:06:08Z</time></trkpt><trkpt lat="44.7702254169036" lon="11.855381186415205"><ele>0.0</ele><time>2026-04-19T14:06:09Z</time></trkpt><trkpt lat="44.770123047933765" lon="11.855506100637905"><ele>0.0</ele><time>2026-04-19T14:06:10Z</time></trkpt><trkpt lat="44.77002047491913" lon="11.85562707559349"><ele>0.0</ele><time>2026-04-19T14:06:11Z</time></trkpt><trkpt lat="44.769908709505756" lon="11.855743274039732"><ele>0.0</ele><time>2026-04-19T14:06:12Z</time></trkpt><trkpt lat="44.76978772808691" lon="11.855837905361472"><ele>0.0</ele><time>2026-04-19T14:06:13Z</time></trkpt><trkpt lat="44.76964834738081" lon="11.855891696911987"><ele>0.0</ele><time>2026-04-19T14:06:14Z</time></trkpt><trkpt lat="44.76951367420528" lon="11.855958609879174"><ele>0.0</ele><time>2026-04-19T14:06:15Z</time></trkpt><trkpt lat="44.76938036576949" lon="11.856024249202314"><ele>0.0</ele><time>2026-04-19T14:06:16Z</time></trkpt><trkpt lat="44.7692428004184" lon="11.856114177506116"><ele>-0.6666666666666666</ele><time>2026-04-19T14:06:17Z</time></trkpt><trkpt lat="44.7690908299814" lon="11.856191271689426"><ele>-1.3333333333333333</ele><time>2026-04-19T14:06:18Z</time></trkpt><trkpt lat="44.768929742796935" lon="11.856268348362393"><ele>-2.0</ele><time>2026-04-19T14:06:19Z</time></trkpt><trkpt lat="44.768770437309804" lon="11.8563486220967"><ele>-2.0</ele><time>2026-04-19T14:06:20Z</time></trkpt><trkpt lat="44.768604852477104" lon="11.856441112454224"><ele>-2.0</ele><time>2026-04-19T14:06:21Z</time></trkpt><trkpt lat="44.76844622341944" lon="11.856551925148908"><ele>-2.0</ele><time>2026-04-19T14:06:22.001Z</time></trkpt><trkpt lat="44.76828906551691" lon="11.856672164015503"><ele>-1.3333333333333333</ele><time>2026-04-19T14:06:23.001Z</time></trkpt><trkpt lat="44.76813800804459" lon="11.85680694767388"><ele>-0.6666666666666666</ele><time>2026-04-19T14:06:24.001Z</time></trkpt><trkpt lat="44.76798087137089" lon="11.856956922951674"><ele>0.0</ele><time>2026-04-19T14:06:25.001Z</time></trkpt><trkpt lat="44.767841076631015" lon="11.857090033868491"><ele>0.0</ele><time>2026-04-19T14:06:26.001Z</time></trkpt><trkpt lat="44.76770223171404" lon="11.857224559625811"><ele>0.0</ele><time>2026-04-19T14:06:27.001Z</time></trkpt><trkpt lat="44.767556788885784" lon="11.857368117029129"><ele>0.0</ele><time>2026-04-19T14:06:28.001Z</time></trkpt><trkpt lat="44.767441590976105" lon="11.8574805396377"><ele>0.0</ele><time>2026-04-19T14:06:29.001Z</time></trkpt><trkpt lat="44.76732015358729" lon="11.857590902051973"><ele>0.0</ele><time>2026-04-19T14:06:30.001Z</time></trkpt><trkpt lat="44.76720429109664" lon="11.857708598373407"><ele>0.0</ele><time>2026-04-19T14:06:31.001Z</time></trkpt><trkpt lat="44.76710109596012" lon="11.85781527886862"><ele>0.0</ele><time>2026-04-19T14:06:32.001Z</time></trkpt><trkpt lat="44.76701321924823" lon="11.85792848394915"><ele>0.0</ele><time>2026-04-19T14:06:33.001Z</time></trkpt><trkpt lat="44.766940365162476" lon="11.85804897795599"><ele>0.0</ele><time>2026-04-19T14:06:34.001Z</time></trkpt><trkpt lat="44.76687132553475" lon="11.858179114078837"><ele>0.0</ele><time>2026-04-19T14:06:35.001Z</time></trkpt><trkpt lat="44.76681034135674" lon="11.858321657111377"><ele>0.0</ele><time>2026-04-19T14:06:36.001Z</time></trkpt><trkpt lat="44.7667612857736" lon="11.858478898120186"><ele>0.75</ele><time>2026-04-19T14:06:37.001Z</time></trkpt><trkpt lat="44.76672998007005" lon="11.858645255050698"><ele>1.5</ele><time>2026-04-19T14:06:38.001Z</time></trkpt><trkpt lat="44.766713178895614" lon="11.85883252495674"><ele>2.25</ele><time>2026-04-19T14:06:39.001Z</time></trkpt><trkpt lat="44.76671213296763" lon="11.859021694446849"><ele>3.0</ele><time>2026-04-19T14:06:40.001Z</time></trkpt><trkpt lat="44.76671077788487" lon="11.859213008941902"><ele>3.5</ele><time>2026-04-19T14:06:41.001Z</time></trkpt><trkpt lat="44.76671122712429" lon="11.859402331626237"><ele>4.0</ele><time>2026-04-19T14:06:42.001Z</time></trkpt><trkpt lat="44.76671142821468" lon="11.859594301102428"><ele>4.5</ele><time>2026-04-19T14:06:42.999Z</time></trkpt><trkpt lat="44.766711393073415" lon="11.85979369693264"><ele>5.0</ele><time>2026-04-19T14:06:43.999Z</time></trkpt><trkpt lat="44.76671180066651" lon="11.859982779323769"><ele>4.25</ele><time>2026-04-19T14:06:44.999Z</time></trkpt><trkpt lat="44.76669106265436" lon="11.860179439361424"><ele>3.5</ele><time>2026-04-19T14:06:45.999Z</time></trkpt><trkpt lat="44.76671151484244" lon="11.860365983760556"><ele>2.75</ele><time>2026-04-19T14:06:46.999Z</time></trkpt><trkpt lat="44.766710936920965" lon="11.86056332109154"><ele>2.0</ele><time>2026-04-19T14:06:47.999Z</time></trkpt><trkpt lat="44.76670929497236" lon="11.86076460739921"><ele>1.5</ele><time>2026-04-19T14:06:48.999Z</time></trkpt><trkpt lat="44.76670322168081" lon="11.860970589862813"><ele>1.0</ele><time>2026-04-19T14:06:49.999Z</time></trkpt><trkpt lat="44.766702799095135" lon="11.86117694917562"><ele>0.5</ele><time>2026-04-19T14:06:50.999Z</time></trkpt><trkpt lat="44.76669562949645" lon="11.861380031421106"><ele>0.0</ele><time>2026-04-19T14:06:51.999Z</time></trkpt><trkpt lat="44.76668074665748" lon="11.861598554083672"><ele>0.0</ele><time>2026-04-19T14:06:52.999Z</time></trkpt><trkpt lat="44.766635499471384" lon="11.86181905042339"><ele>0.0</ele><time>2026-04-19T14:06:53.999Z</time></trkpt><trkpt lat="44.766603221862496" lon="11.862051989686043"><ele>0.0</ele><time>2026-04-19T14:06:54.999Z</time></trkpt><trkpt lat="44.76657418006961" lon="11.862269887060988"><ele>0.0</ele><time>2026-04-19T14:06:55.999Z</time></trkpt><trkpt lat="44.766542422038086" lon="11.86251650172067"><ele>0.0</ele><time>2026-04-19T14:06:56.999Z</time></trkpt><trkpt lat="44.76650702538859" lon="11.862760329479578"><ele>0.0</ele><time>2026-04-19T14:06:57.999Z</time></trkpt><trkpt lat="44.76646848380764" lon="11.862997724798678"><ele>0.0</ele><time>2026-04-19T14:06:58.999Z</time></trkpt><trkpt lat="44.76642731207307" lon="11.86323937878182"><ele>0.0</ele><time>2026-04-19T14:06:59.999Z</time></trkpt><trkpt lat="44.76639811045381" lon="11.863476088441502"><ele>0.0</ele><time>2026-04-19T14:07:00.999Z</time></trkpt><trkpt lat="44.76637406164323" lon="11.863717054806864"><ele>0.0</ele><time>2026-04-19T14:07:01.999Z</time></trkpt><trkpt lat="44.76633454692481" lon="11.863960368621687"><ele>0.0</ele><time>2026-04-19T14:07:02.999Z</time></trkpt><trkpt lat="44.76629312827545" lon="11.864206516495736"><ele>0.0</ele><time>2026-04-19T14:07:03.999Z</time></trkpt><trkpt lat="44.76625061627042" lon="11.864443061303218"><ele>0.0</ele><time>2026-04-19T14:07:05Z</time></trkpt><trkpt lat="44.7662003693368" lon="11.864678749432816"><ele>0.0</ele><time>2026-04-19T14:07:06Z</time></trkpt><trkpt lat="44.76617226278019" lon="11.864916743560821"><ele>0.0</ele><time>2026-04-19T14:07:07Z</time></trkpt><trkpt lat="44.76614238562626" lon="11.865156429143331"><ele>0.0</ele><time>2026-04-19T14:07:08Z</time></trkpt><trkpt lat="44.766109596813784" lon="11.865395220439096"><ele>0.0</ele><time>2026-04-19T14:07:09Z</time></trkpt><trkpt lat="44.76607546927809" lon="11.865629973131973"><ele>0.0</ele><time>2026-04-19T14:07:10Z</time></trkpt><trkpt lat="44.76604016579498" lon="11.865862302476282"><ele>0.6666666666666666</ele><time>2026-04-19T14:07:11Z</time></trkpt><trkpt lat="44.766009136498624" lon="11.86609616503195"><ele>1.3333333333333333</ele><time>2026-04-19T14:07:12Z</time></trkpt><trkpt lat="44.76597673514128" lon="11.866326530080356"><ele>2.0</ele><time>2026-04-19T14:07:13Z</time></trkpt><trkpt lat="44.76594533625669" lon="11.866559377302801"><ele>1.3333333333333333</ele><time>2026-04-19T14:07:14Z</time></trkpt><trkpt lat="44.76591220628716" lon="11.866789339656307"><ele>0.6666666666666666</ele><time>2026-04-19T14:07:15Z</time></trkpt><trkpt lat="44.7658748134269" lon="11.867025549104438"><ele>0.0</ele><time>2026-04-19T14:07:16Z</time></trkpt><trkpt lat="44.765843472716504" lon="11.867261114283094"><ele>0.0</ele><time>2026-04-19T14:07:17Z</time></trkpt><trkpt lat="44.76580913052153" lon="11.867483578349196"><ele>0.0</ele><time>2026-04-19T14:07:18Z</time></trkpt><trkpt lat="44.765781201591444" lon="11.867706706590168"><ele>0.0</ele><time>2026-04-19T14:07:19Z</time></trkpt><trkpt lat="44.76574148397147" lon="11.867929834744851"><ele>0.3333333333333333</ele><time>2026-04-19T14:07:20Z</time></trkpt><trkpt lat="44.76570998059764" lon="11.868152390161379"><ele>0.6666666666666666</ele><time>2026-04-19T14:07:21Z</time></trkpt><trkpt lat="44.76567765793159" lon="11.86838239621964"><ele>1.0</ele><time>2026-04-19T14:07:22Z</time></trkpt><trkpt lat="44.76564617017302" lon="11.868602795014246"><ele>1.6666666666666665</ele><time>2026-04-19T14:07:23Z</time></trkpt><trkpt lat="44.76561453871538" lon="11.868825403846088"><ele>2.3333333333333335</ele><time>2026-04-19T14:07:24Z</time></trkpt><trkpt lat="44.765580977318876" lon="11.869036889153254"><ele>3.0</ele><time>2026-04-19T14:07:25Z</time></trkpt><trkpt lat="44.76555257539127" lon="11.86924677286524"><ele>3.0</ele><time>2026-04-19T14:07:26Z</time></trkpt><trkpt lat="44.76552112726913" lon="11.869448432829795"><ele>3.0</ele><time>2026-04-19T14:07:27Z</time></trkpt><trkpt lat="44.76549238320806" lon="11.869641783703198"><ele>3.0</ele><time>2026-04-19T14:07:28Z</time></trkpt><trkpt lat="44.765466372796965" lon="11.86981451416885"><ele>3.0</ele><time>2026-04-19T14:07:29Z</time></trkpt><trkpt lat="44.76544275782225" lon="11.869949226054032"><ele>3.0</ele><time>2026-04-19T14:07:30Z</time></trkpt><trkpt lat="44.76540709131607" lon="11.87005330850516"><ele>3.0</ele><time>2026-04-19T14:07:31Z</time></trkpt><trkpt lat="44.765374802461196" lon="11.87013567646843"><ele>3.0</ele><time>2026-04-19T14:07:32Z</time></trkpt><trkpt lat="44.7653273085872" lon="11.870244245644152"><ele>3.0</ele><time>2026-04-19T14:07:34Z</time></trkpt><trkpt lat="44.76526332769575" lon="11.87033857607317"><ele>3.0</ele><time>2026-04-19T14:07:36Z</time></trkpt><trkpt lat="44.765212041321156" lon="11.870414018288917"><ele>3.0</ele><time>2026-04-19T14:07:37Z</time></trkpt><trkpt lat="44.765161306752816" lon="11.870469067855675"><ele>3.0</ele><time>2026-04-19T14:07:38Z</time></trkpt><trkpt lat="44.76505337800253" lon="11.870594059992865"><ele>3.0</ele><time>2026-04-19T14:07:40Z</time></trkpt><trkpt lat="44.76498026190397" lon="11.870648021552434"><ele>3.0</ele><time>2026-04-19T14:07:41Z</time></trkpt><trkpt lat="44.76490129368495" lon="11.870702065330443"><ele>3.0</ele><time>2026-04-19T14:07:42Z</time></trkpt><trkpt lat="44.764806004701164" lon="11.870760246193418"><ele>3.0</ele><time>2026-04-19T14:07:43Z</time></trkpt><trkpt lat="44.76469884647585" lon="11.870814327510445"><ele>3.0</ele><time>2026-04-19T14:07:44Z</time></trkpt><trkpt lat="44.764602536133786" lon="11.870878521693626"><ele>3.0</ele><time>2026-04-19T14:07:45Z</time></trkpt><trkpt lat="44.7645102792078" lon="11.870956408813997"><ele>3.0</ele><time>2026-04-19T14:07:46Z</time></trkpt><trkpt lat="44.764410483325044" lon="11.87102429700377"><ele>3.0</ele><time>2026-04-19T14:07:47Z</time></trkpt><trkpt lat="44.764310618336424" lon="11.871113885044238"><ele>3.0</ele><time>2026-04-19T14:07:48Z</time></trkpt><trkpt lat="44.76422733701435" lon="11.87122905583397"><ele>2.5</ele><time>2026-04-19T14:07:49Z</time></trkpt><trkpt lat="44.76412982051185" lon="11.871312005008399"><ele>2.0</ele><time>2026-04-19T14:07:50Z</time></trkpt><trkpt lat="44.764045766604376" lon="11.871414691208372"><ele>1.5</ele><time>2026-04-19T14:07:51Z</time></trkpt><trkpt lat="44.763963053391116" lon="11.871520901250188"><ele>1.0</ele><time>2026-04-19T14:07:52Z</time></trkpt><trkpt lat="44.76387526327817" lon="11.87164116589279"><ele>1.0</ele><time>2026-04-19T14:07:53Z</time></trkpt><trkpt lat="44.763784603128485" lon="11.871761987690034"><ele>1.0</ele><time>2026-04-19T14:07:54Z</time></trkpt><trkpt lat="44.76368388254927" lon="11.871892177899975"><ele>1.0</ele><time>2026-04-19T14:07:55Z</time></trkpt><trkpt lat="44.763573221521206" lon="11.87201542641159"><ele>1.0</ele><time>2026-04-19T14:07:56Z</time></trkpt><trkpt lat="44.76346728068136" lon="11.872117461043471"><ele>0.8</ele><time>2026-04-19T14:07:57Z</time></trkpt><trkpt lat="44.76336410279993" lon="11.872205914111131"><ele>0.6000000000000001</ele><time>2026-04-19T14:07:58Z</time></trkpt><trkpt lat="44.763268666903805" lon="11.872279771799624"><ele>0.4</ele><time>2026-04-19T14:07:59.001Z</time></trkpt><trkpt lat="44.76317719982237" lon="11.872335111135122"><ele>0.2</ele><time>2026-04-19T14:08:00.001Z</time></trkpt><trkpt lat="44.76309250412531" lon="11.872373338132267"><ele>0.0</ele><time>2026-04-19T14:08:01.001Z</time></trkpt><trkpt lat="44.7630131931583" lon="11.872408414659278"><ele>0.0</ele><time>2026-04-19T14:08:02.001Z</time></trkpt><trkpt lat="44.76293645414399" lon="11.872434226170881"><ele>0.0</ele><time>2026-04-19T14:08:03.001Z</time></trkpt><trkpt lat="44.76286683314192" lon="11.87247224286681"><ele>0.0</ele><time>2026-04-19T14:08:04.001Z</time></trkpt><trkpt lat="44.76275568794147" lon="11.872520408497115"><ele>0.0</ele><time>2026-04-19T14:08:06.001Z</time></trkpt><trkpt lat="44.76267205720578" lon="11.872547593258423"><ele>0.0</ele><time>2026-04-19T14:08:08.001Z</time></trkpt><trkpt lat="44.76259988283956" lon="11.87257112995164"><ele>0.0</ele><time>2026-04-19T14:08:10.001Z</time></trkpt><trkpt lat="44.76253812250496" lon="11.872597558456174"><ele>0.3333333333333333</ele><time>2026-04-19T14:08:12.001Z</time></trkpt><trkpt lat="44.76246705330189" lon="11.872620569809948"><ele>0.6666666666666666</ele><time>2026-04-19T14:08:14.001Z</time></trkpt><trkpt lat="44.762393566820606" lon="11.872654754458445"><ele>1.0</ele><time>2026-04-19T14:08:16.001Z</time></trkpt><trkpt lat="44.76233299588373" lon="11.872683451375238"><ele>1.3333333333333333</ele><time>2026-04-19T14:08:18.001Z</time></trkpt><trkpt lat="44.762265231319844" lon="11.872712043427873"><ele>1.6666666666666665</ele><time>2026-04-19T14:08:20.001Z</time></trkpt><trkpt lat="44.76220061599684" lon="11.872721612794027"><ele>2.0</ele><time>2026-04-19T14:08:23.001Z</time></trkpt><trkpt lat="44.762486418323064" lon="11.872641056279825"><ele>2.0</ele><time>2026-04-19T14:08:56Z</time></trkpt><trkpt lat="44.76236347229401" lon="11.872709466315937"><ele>2.0</ele><time>2026-04-19T14:08:57Z</time></trkpt><trkpt lat="44.76226222801092" lon="11.872768618703017"><ele>2.0</ele><time>2026-04-19T14:08:58Z</time></trkpt><trkpt lat="44.762189008599705" lon="11.872820884137363"><ele>2.0</ele><time>2026-04-19T14:08:59Z</time></trkpt><trkpt lat="44.7621135530007" lon="11.872879706608717"><ele>2.0</ele><time>2026-04-19T14:09:00Z</time></trkpt><trkpt lat="44.76201794961927" lon="11.872961927148006"><ele>2.0</ele><time>2026-04-19T14:09:01Z</time></trkpt><trkpt lat="44.76193497206904" lon="11.873061080487016"><ele>2.0</ele><time>2026-04-19T14:09:02Z</time></trkpt><trkpt lat="44.7618454517172" lon="11.873164688950592"><ele>2.0</ele><time>2026-04-19T14:09:03Z</time></trkpt><trkpt lat="44.76175639775355" lon="11.873279450621776"><ele>2.0</ele><time>2026-04-19T14:09:04Z</time></trkpt><trkpt lat="44.761662229698985" lon="11.873422247640697"><ele>1.6666666666666665</ele><time>2026-04-19T14:09:05Z</time></trkpt><trkpt lat="44.761560694650335" lon="11.873599712447685"><ele>1.3333333333333333</ele><time>2026-04-19T14:09:06Z</time></trkpt><trkpt lat="44.76146849383858" lon="11.873790099432345"><ele>1.0</ele><time>2026-04-19T14:09:07Z</time></trkpt><trkpt lat="44.76137393813848" lon="11.873982567467598"><ele>1.0</ele><time>2026-04-19T14:09:08Z</time></trkpt><trkpt lat="44.76130247251353" lon="11.874191091653053"><ele>1.0</ele><time>2026-04-19T14:09:09Z</time></trkpt><trkpt lat="44.76122288446689" lon="11.874400723582015"><ele>1.0</ele><time>2026-04-19T14:09:10Z</time></trkpt><trkpt lat="44.761137127772855" lon="11.87460992548256"><ele>1.0</ele><time>2026-04-19T14:09:11Z</time></trkpt><trkpt lat="44.76106162244723" lon="11.874798024966928"><ele>1.0</ele><time>2026-04-19T14:09:12Z</time></trkpt><trkpt lat="44.76098877591138" lon="11.874975977678611"><ele>1.0</ele><time>2026-04-19T14:09:13Z</time></trkpt><trkpt lat="44.76089892100169" lon="11.875126692201132"><ele>1.0</ele><time>2026-04-19T14:09:14Z</time></trkpt><trkpt lat="44.760772870597286" lon="11.875240827748373"><ele>0.6666666666666666</ele><time>2026-04-19T14:09:15Z</time></trkpt><trkpt lat="44.76063507446651" lon="11.875347034969923"><ele>0.3333333333333333</ele><time>2026-04-19T14:09:16Z</time></trkpt><trkpt lat="44.760495318984994" lon="11.875437233956891"><ele>0.0</ele><time>2026-04-19T14:09:17Z</time></trkpt><trkpt lat="44.76035728586442" lon="11.87553997647445"><ele>0.0</ele><time>2026-04-19T14:09:18Z</time></trkpt><trkpt lat="44.7602096071853" lon="11.87561073979498"><ele>0.0</ele><time>2026-04-19T14:09:19Z</time></trkpt><trkpt lat="44.7600507395887" lon="11.875645992076977"><ele>0.0</ele><time>2026-04-19T14:09:20Z</time></trkpt><trkpt lat="44.7598959902883" lon="11.875680701371499"><ele>0.3333333333333333</ele><time>2026-04-19T14:09:21Z</time></trkpt><trkpt lat="44.7597356349219" lon="11.875707313192455"><ele>0.6666666666666666</ele><time>2026-04-19T14:09:22Z</time></trkpt><trkpt lat="44.759573589806884" lon="11.875723955208816"><ele>1.0</ele><time>2026-04-19T14:09:23Z</time></trkpt><trkpt lat="44.75940388326461" lon="11.875723724306454"><ele>1.3333333333333333</ele><time>2026-04-19T14:09:24Z</time></trkpt><trkpt lat="44.759234395585516" lon="11.875714508460625"><ele>1.6666666666666665</ele><time>2026-04-19T14:09:25Z</time></trkpt><trkpt lat="44.759066152650085" lon="11.87570186812696"><ele>2.0</ele><time>2026-04-19T14:09:26Z</time></trkpt><trkpt lat="44.75890070171651" lon="11.875680583007673"><ele>2.0</ele><time>2026-04-19T14:09:27Z</time></trkpt><trkpt lat="44.758738721466194" lon="11.875649761169665"><ele>2.0</ele><time>2026-04-19T14:09:28Z</time></trkpt><trkpt lat="44.75857951282973" lon="11.875636074175048"><ele>2.0</ele><time>2026-04-19T14:09:29Z</time></trkpt><trkpt lat="44.75841378906491" lon="11.875593180409718"><ele>2.0</ele><time>2026-04-19T14:09:30Z</time></trkpt><trkpt lat="44.7582532904745" lon="11.875529953826327"><ele>2.0</ele><time>2026-04-19T14:09:31Z</time></trkpt><trkpt lat="44.75808993838764" lon="11.87550528813853"><ele>2.0</ele><time>2026-04-19T14:09:32Z</time></trkpt><trkpt lat="44.75791581627554" lon="11.875457923913444"><ele>2.0</ele><time>2026-04-19T14:09:33Z</time></trkpt><trkpt lat="44.757738998123926" lon="11.875405783336893"><ele>2.0</ele><time>2026-04-19T14:09:34Z</time></trkpt><trkpt lat="44.757564053530196" lon="11.875355087803934"><ele>2.0</ele><time>2026-04-19T14:09:35Z</time></trkpt><trkpt lat="44.75739035426898" lon="11.875307953846697"><ele>1.3333333333333333</ele><time>2026-04-19T14:09:36Z</time></trkpt><trkpt lat="44.757222272514724" lon="11.875255922558985"><ele>0.6666666666666666</ele><time>2026-04-19T14:09:37Z</time></trkpt><trkpt lat="44.757048772480836" lon="11.875199817801954"><ele>0.0</ele><time>2026-04-19T14:09:38Z</time></trkpt><trkpt lat="44.75687355483105" lon="11.875152334093588"><ele>0.0</ele><time>2026-04-19T14:09:39Z</time></trkpt><trkpt lat="44.75669939504394" lon="11.875087574662539"><ele>0.0</ele><time>2026-04-19T14:09:40.001Z</time></trkpt><trkpt lat="44.756527895524805" lon="11.875038421596882"><ele>0.0</ele><time>2026-04-19T14:09:41.001Z</time></trkpt><trkpt lat="44.75635763030062" lon="11.875009152517219"><ele>0.0</ele><time>2026-04-19T14:09:42.001Z</time></trkpt><trkpt lat="44.75618614846383" lon="11.874957820954815"><ele>0.0</ele><time>2026-04-19T14:09:43.001Z</time></trkpt><trkpt lat="44.75602958838734" lon="11.874909971387396"><ele>0.0</ele><time>2026-04-19T14:09:44.001Z</time></trkpt><trkpt lat="44.75587790130236" lon="11.874862789774596"><ele>0.3333333333333333</ele><time>2026-04-19T14:09:45.001Z</time></trkpt><trkpt lat="44.75572714690945" lon="11.874821699767438"><ele>0.6666666666666666</ele><time>2026-04-19T14:09:46.001Z</time></trkpt><trkpt lat="44.755574640220196" lon="11.874772316025279"><ele>1.0</ele><time>2026-04-19T14:09:47.001Z</time></trkpt><trkpt lat="44.75542879223104" lon="11.874732957636567"><ele>1.0</ele><time>2026-04-19T14:09:48.001Z</time></trkpt><trkpt lat="44.75528993104124" lon="11.874688282163465"><ele>1.0</ele><time>2026-04-19T14:09:49.001Z</time></trkpt><trkpt lat="44.75514897673234" lon="11.874647747083147"><ele>1.0</ele><time>2026-04-19T14:09:50.001Z</time></trkpt><trkpt lat="44.755005280441026" lon="11.87460952934821"><ele>1.0</ele><time>2026-04-19T14:09:51.001Z</time></trkpt><trkpt lat="44.75486491172636" lon="11.874570081084348"><ele>1.25</ele><time>2026-04-19T14:09:52.001Z</time></trkpt><trkpt lat="44.754719527251424" lon="11.874532345497672"><ele>1.5</ele><time>2026-04-19T14:09:53.001Z</time></trkpt><trkpt lat="44.75457813188475" lon="11.874484293859995"><ele>1.75</ele><time>2026-04-19T14:09:54.001Z</time></trkpt><trkpt lat="44.75443706333153" lon="11.874443738410092"><ele>2.0</ele><time>2026-04-19T14:09:55.001Z</time></trkpt><trkpt lat="44.754294390608386" lon="11.874402865884598"><ele>2.0</ele><time>2026-04-19T14:09:56.001Z</time></trkpt><trkpt lat="44.75415487593442" lon="11.874371726988187"><ele>2.0</ele><time>2026-04-19T14:09:57.001Z</time></trkpt><trkpt lat="44.75400534181389" lon="11.87436079111716"><ele>2.0</ele><time>2026-04-19T14:09:58.001Z</time></trkpt><trkpt lat="44.75385805240292" lon="11.874384398241718"><ele>2.0</ele><time>2026-04-19T14:09:59.001Z</time></trkpt><trkpt lat="44.753710754720515" lon="11.874437594699431"><ele>2.0</ele><time>2026-04-19T14:10:00.001Z</time></trkpt><trkpt lat="44.753565806699285" lon="11.874495300285385"><ele>2.0</ele><time>2026-04-19T14:10:01.001Z</time></trkpt><trkpt lat="44.75341353955091" lon="11.874555478435882"><ele>2.0</ele><time>2026-04-19T14:10:02.001Z</time></trkpt><trkpt lat="44.75325144422188" lon="11.874627287455738"><ele>1.3333333333333333</ele><time>2026-04-19T14:10:03.001Z</time></trkpt><trkpt lat="44.75312341821049" lon="11.87474266115136"><ele>0.6666666666666666</ele><time>2026-04-19T14:10:04.001Z</time></trkpt><trkpt lat="44.752995078571466" lon="11.874851454503048"><ele>0.0</ele><time>2026-04-19T14:10:05.001Z</time></trkpt><trkpt lat="44.752875292256185" lon="11.874989315710181"><ele>0.0</ele><time>2026-04-19T14:10:06.001Z</time></trkpt><trkpt lat="44.752767020606825" lon="11.87515497315181"><ele>0.0</ele><time>2026-04-19T14:10:07.001Z</time></trkpt><trkpt lat="44.752669064353" lon="11.875339320979316"><ele>0.0</ele><time>2026-04-19T14:10:08.001Z</time></trkpt><trkpt lat="44.752569382682054" lon="11.87552399291621"><ele>0.0</ele><time>2026-04-19T14:10:09.001Z</time></trkpt><trkpt lat="44.75247251835536" lon="11.875703646259447"><ele>0.0</ele><time>2026-04-19T14:10:10.001Z</time></trkpt><trkpt lat="44.752372447826744" lon="11.875890395461836"><ele>0.0</ele><time>2026-04-19T14:10:11.001Z</time></trkpt><trkpt lat="44.75228893790287" lon="11.876058032015116"><ele>0.0</ele><time>2026-04-19T14:10:12.001Z</time></trkpt><trkpt lat="44.752207966632724" lon="11.876213326432486"><ele>0.0</ele><time>2026-04-19T14:10:13.001Z</time></trkpt><trkpt lat="44.752121672151766" lon="11.876367249673523"><ele>0.0</ele><time>2026-04-19T14:10:14.001Z</time></trkpt><trkpt lat="44.75203455701657" lon="11.876512635317493"><ele>0.0</ele><time>2026-04-19T14:10:15.001Z</time></trkpt><trkpt lat="44.7519347478104" lon="11.876646475466606"><ele>0.25</ele><time>2026-04-19T14:10:16.001Z</time></trkpt><trkpt lat="44.75182841785656" lon="11.876755216435228"><ele>0.5</ele><time>2026-04-19T14:10:17.001Z</time></trkpt><trkpt lat="44.75172479572616" lon="11.876844758820267"><ele>0.75</ele><time>2026-04-19T14:10:18.001Z</time></trkpt><trkpt lat="44.75162258239261" lon="11.87691991464932"><ele>1.0</ele><time>2026-04-19T14:10:19.001Z</time></trkpt><trkpt lat="44.75153086704654" lon="11.87698223064818"><ele>0.9999999999999999</ele><time>2026-04-19T14:10:20.001Z</time></trkpt><trkpt lat="44.75144968310035" lon="11.877041926458537"><ele>1.0</ele><time>2026-04-19T14:10:21.001Z</time></trkpt><trkpt lat="44.75138555376749" lon="11.87709118331492"><ele>1.0</ele><time>2026-04-19T14:10:22.001Z</time></trkpt><trkpt lat="44.751293663406244" lon="11.877165790965083"><ele>1.0</ele><time>2026-04-19T14:10:24.001Z</time></trkpt><trkpt lat="44.75123045912332" lon="11.877216317419242"><ele>0.9999999999999999</ele><time>2026-04-19T14:10:26.001Z</time></trkpt><trkpt lat="44.75119310105371" lon="11.877295024422988"><ele>1.0</ele><time>2026-04-19T14:10:28.001Z</time></trkpt><trkpt lat="44.751209541047515" lon="11.877550975131259"><ele>0.5</ele><time>2026-04-19T14:10:30.001Z</time></trkpt><trkpt lat="44.75123574571774" lon="11.877739369190559"><ele>0.0</ele><time>2026-04-19T14:10:31.001Z</time></trkpt><trkpt lat="44.75125640392039" lon="11.877927328738604"><ele>-0.5</ele><time>2026-04-19T14:10:32.001Z</time></trkpt><trkpt lat="44.751273856280754" lon="11.878094950910599"><ele>-1.0</ele><time>2026-04-19T14:10:33.001Z</time></trkpt><trkpt lat="44.751276712538484" lon="11.878269029059705"><ele>-1.3333333333333333</ele><time>2026-04-19T14:10:34.001Z</time></trkpt><trkpt lat="44.75126377480989" lon="11.87846029008137"><ele>-1.6666666666666665</ele><time>2026-04-19T14:10:35.001Z</time></trkpt><trkpt lat="44.75123765574787" lon="11.878674090679965"><ele>-2.0</ele><time>2026-04-19T14:10:36.001Z</time></trkpt><trkpt lat="44.75116944088545" lon="11.87887636826285"><ele>-2.0</ele><time>2026-04-19T14:10:37.001Z</time></trkpt><trkpt lat="44.75111059627033" lon="11.879074998556845"><ele>-2.0</ele><time>2026-04-19T14:10:38.001Z</time></trkpt><trkpt lat="44.75104483039159" lon="11.879286567843527"><ele>-2.0</ele><time>2026-04-19T14:10:39.001Z</time></trkpt><trkpt lat="44.75098214831741" lon="11.87949546803143"><ele>-1.0</ele><time>2026-04-19T14:10:40.001Z</time></trkpt><trkpt lat="44.75093757646519" lon="11.879716167606373"><ele>0.0</ele><time>2026-04-19T14:10:41.001Z</time></trkpt><trkpt lat="44.750885429745416" lon="11.87994314206686"><ele>1.0</ele><time>2026-04-19T14:10:42.001Z</time></trkpt><trkpt lat="44.75084625218676" lon="11.880185429204674"><ele>1.3333333333333333</ele><time>2026-04-19T14:10:43.001Z</time></trkpt><trkpt lat="44.750820763339384" lon="11.880444008738504"><ele>1.6666666666666665</ele><time>2026-04-19T14:10:44.001Z</time></trkpt><trkpt lat="44.75079385799242" lon="11.88068367742694"><ele>2.0</ele><time>2026-04-19T14:10:45.001Z</time></trkpt><trkpt lat="44.75076180644976" lon="11.880903578223764"><ele>1.6666666666666665</ele><time>2026-04-19T14:10:46.001Z</time></trkpt><trkpt lat="44.75073802570771" lon="11.88113485061768"><ele>1.3333333333333333</ele><time>2026-04-19T14:10:47.001Z</time></trkpt><trkpt lat="44.750716051058646" lon="11.881360501978541"><ele>1.0</ele><time>2026-04-19T14:10:48.001Z</time></trkpt><trkpt lat="44.75069118690714" lon="11.881578171959262"><ele>1.0</ele><time>2026-04-19T14:10:49.001Z</time></trkpt><trkpt lat="44.75067059198014" lon="11.881782164339517"><ele>1.0</ele><time>2026-04-19T14:10:50.001Z</time></trkpt><trkpt lat="44.750657192884894" lon="11.881969512694424"><ele>1.0</ele><time>2026-04-19T14:10:51.001Z</time></trkpt><trkpt lat="44.75064594426667" lon="11.88217306077599"><ele>1.0</ele><time>2026-04-19T14:10:52.002Z</time></trkpt><trkpt lat="44.7506430107031" lon="11.88238233439159"><ele>1.0</ele><time>2026-04-19T14:10:53.002Z</time></trkpt><trkpt lat="44.750622531383584" lon="11.882594223587922"><ele>1.0</ele><time>2026-04-19T14:10:54.002Z</time></trkpt><trkpt lat="44.750617401023234" lon="11.88281143178282"><ele>1.0</ele><time>2026-04-19T14:10:55Z</time></trkpt><trkpt lat="44.75061645237412" lon="11.883034449256362"><ele>1.0</ele><time>2026-04-19T14:10:56Z</time></trkpt><trkpt lat="44.750634206853846" lon="11.883254468749861"><ele>1.0</ele><time>2026-04-19T14:10:57Z</time></trkpt><trkpt lat="44.75062855295329" lon="11.883473748316694"><ele>1.0</ele><time>2026-04-19T14:10:58Z</time></trkpt><trkpt lat="44.75063568862411" lon="11.883696134958884"><ele>1.0</ele><time>2026-04-19T14:10:59Z</time></trkpt><trkpt lat="44.750636285888504" lon="11.883913508182605"><ele>1.0</ele><time>2026-04-19T14:11:00Z</time></trkpt><trkpt lat="44.75063030850516" lon="11.884131983146021"><ele>1.0</ele><time>2026-04-19T14:11:01Z</time></trkpt><trkpt lat="44.75062319756669" lon="11.88434649470078"><ele>1.0</ele><time>2026-04-19T14:11:02Z</time></trkpt><trkpt lat="44.75061274374977" lon="11.884553921054344"><ele>1.0</ele><time>2026-04-19T14:11:03Z</time></trkpt><trkpt lat="44.75060402243459" lon="11.88475752058043"><ele>1.0</ele><time>2026-04-19T14:11:04Z</time></trkpt><trkpt lat="44.75059386377667" lon="11.884961886262525"><ele>1.0</ele><time>2026-04-19T14:11:05Z</time></trkpt><trkpt lat="44.75058357101477" lon="11.885166649680109"><ele>1.0</ele><time>2026-04-19T14:11:06Z</time></trkpt><trkpt lat="44.750574114642724" lon="11.885373416053877"><ele>1.0</ele><time>2026-04-19T14:11:07Z</time></trkpt><trkpt lat="44.750563299471644" lon="11.885584600471706"><ele>1.0</ele><time>2026-04-19T14:11:08Z</time></trkpt><trkpt lat="44.75055202013389" lon="11.885800709377612"><ele>0.6666666666666666</ele><time>2026-04-19T14:11:09Z</time></trkpt><trkpt lat="44.750540566445416" lon="11.88601466841086"><ele>0.3333333333333333</ele><time>2026-04-19T14:11:10Z</time></trkpt><trkpt lat="44.75053006522946" lon="11.886229837582736"><ele>0.0</ele><time>2026-04-19T14:11:11Z</time></trkpt><trkpt lat="44.75051837958087" lon="11.886439567722146"><ele>0.0</ele><time>2026-04-19T14:11:12Z</time></trkpt><trkpt lat="44.75051004106376" lon="11.88664938838575"><ele>0.0</ele><time>2026-04-19T14:11:13Z</time></trkpt><trkpt lat="44.75049904094774" lon="11.886857970869448"><ele>0.0</ele><time>2026-04-19T14:11:14Z</time></trkpt><trkpt lat="44.75049576026977" lon="11.887069908420443"><ele>0.0</ele><time>2026-04-19T14:11:15Z</time></trkpt><trkpt lat="44.75048598209541" lon="11.887276438885962"><ele>0.0</ele><time>2026-04-19T14:11:16Z</time></trkpt><trkpt lat="44.750492563023265" lon="11.88748297163578"><ele>0.0</ele><time>2026-04-19T14:11:17Z</time></trkpt><trkpt lat="44.75050433988408" lon="11.887690314299904"><ele>0.0</ele><time>2026-04-19T14:11:18Z</time></trkpt><trkpt lat="44.75051234798602" lon="11.8878854274354"><ele>0.0</ele><time>2026-04-19T14:11:19Z</time></trkpt><trkpt lat="44.750519152703" lon="11.888063502172754"><ele>0.0</ele><time>2026-04-19T14:11:20Z</time></trkpt><trkpt lat="44.7505249378815" lon="11.888223825943955"><ele>0.0</ele><time>2026-04-19T14:11:21Z</time></trkpt><trkpt lat="44.75052996617536" lon="11.88837785828233"><ele>0.0</ele><time>2026-04-19T14:11:22Z</time></trkpt><trkpt lat="44.75053543726113" lon="11.88854417270068"><ele>0.0</ele><time>2026-04-19T14:11:23Z</time></trkpt><trkpt lat="44.75054358092613" lon="11.888717520461938"><ele>0.25</ele><time>2026-04-19T14:11:24Z</time></trkpt><trkpt lat="44.75055218971473" lon="11.888892550028764"><ele>0.5</ele><time>2026-04-19T14:11:25Z</time></trkpt><trkpt lat="44.75056395028757" lon="11.889070857338348"><ele>0.75</ele><time>2026-04-19T14:11:26Z</time></trkpt><trkpt lat="44.750574381060744" lon="11.889245905458086"><ele>1.0</ele><time>2026-04-19T14:11:27Z</time></trkpt><trkpt lat="44.75058003873904" lon="11.889426461175645"><ele>1.0</ele><time>2026-04-19T14:11:28Z</time></trkpt><trkpt lat="44.7505847553828" lon="11.889612143418887"><ele>1.0</ele><time>2026-04-19T14:11:29Z</time></trkpt><trkpt lat="44.75058809287169" lon="11.889795038408494"><ele>1.0</ele><time>2026-04-19T14:11:30Z</time></trkpt><trkpt lat="44.75059120430767" lon="11.889966412565007"><ele>1.0</ele><time>2026-04-19T14:11:31.001Z</time></trkpt><trkpt lat="44.7505932764355" lon="11.890125485564942"><ele>1.25</ele><time>2026-04-19T14:11:32.001Z</time></trkpt><trkpt lat="44.75060282071859" lon="11.890281851091297"><ele>1.5</ele><time>2026-04-19T14:11:33.001Z</time></trkpt><trkpt lat="44.75060738204688" lon="11.890447301500421"><ele>1.75</ele><time>2026-04-19T14:11:34.001Z</time></trkpt><trkpt lat="44.75060397497218" lon="11.890621459799744"><ele>2.0</ele><time>2026-04-19T14:11:35.001Z</time></trkpt><trkpt lat="44.750589552206" lon="11.890789927403404"><ele>1.8</ele><time>2026-04-19T14:11:36.001Z</time></trkpt><trkpt lat="44.750560662908605" lon="11.890951159341133"><ele>1.6</ele><time>2026-04-19T14:11:37.001Z</time></trkpt><trkpt lat="44.75051746710853" lon="11.891107000561169"><ele>1.4000000000000001</ele><time>2026-04-19T14:11:38.001Z</time></trkpt><trkpt lat="44.75048068432" lon="11.891249821379544"><ele>1.2000000000000002</ele><time>2026-04-19T14:11:39.001Z</time></trkpt><trkpt lat="44.75045361844555" lon="11.891386080982153"><ele>1.0</ele><time>2026-04-19T14:11:40.001Z</time></trkpt><trkpt lat="44.75043014165554" lon="11.891530736310042"><ele>1.0</ele><time>2026-04-19T14:11:41.001Z</time></trkpt><trkpt lat="44.750417535655096" lon="11.89168699210889"><ele>1.0</ele><time>2026-04-19T14:11:42.001Z</time></trkpt><trkpt lat="44.75041120578861" lon="11.891845640503119"><ele>1.0</ele><time>2026-04-19T14:11:43.001Z</time></trkpt><trkpt lat="44.750410324427925" lon="11.892004752016783"><ele>1.0</ele><time>2026-04-19T14:11:44.001Z</time></trkpt><trkpt lat="44.75040893381388" lon="11.892164019877182"><ele>1.0</ele><time>2026-04-19T14:11:45.001Z</time></trkpt><trkpt lat="44.750407857241576" lon="11.892310398960854"><ele>1.0</ele><time>2026-04-19T14:11:46.001Z</time></trkpt><trkpt lat="44.750408048941594" lon="11.892462539187521"><ele>1.0</ele><time>2026-04-19T14:11:47.001Z</time></trkpt><trkpt lat="44.75040532498454" lon="11.892621630958807"><ele>1.0</ele><time>2026-04-19T14:11:48.001Z</time></trkpt><trkpt lat="44.75040043190534" lon="11.892780530817806"><ele>1.0</ele><time>2026-04-19T14:11:49.001Z</time></trkpt><trkpt lat="44.75039180528649" lon="11.892939029302916"><ele>0.75</ele><time>2026-04-19T14:11:50.001Z</time></trkpt><trkpt lat="44.75037384916369" lon="11.893100989599372"><ele>0.5</ele><time>2026-04-19T14:11:51.001Z</time></trkpt><trkpt lat="44.7503510340327" lon="11.893261204672593"><ele>0.25</ele><time>2026-04-19T14:11:52.001Z</time></trkpt><trkpt lat="44.7503220930823" lon="11.89341837158435"><ele>0.0</ele><time>2026-04-19T14:11:53.001Z</time></trkpt><trkpt lat="44.75028103655238" lon="11.893573384710008"><ele>0.0</ele><time>2026-04-19T14:11:54.001Z</time></trkpt><trkpt lat="44.75023734327447" lon="11.893726682840015"><ele>0.0</ele><time>2026-04-19T14:11:55.001Z</time></trkpt><trkpt lat="44.75019409925896" lon="11.893879610760617"><ele>0.0</ele><time>2026-04-19T14:11:56.001Z</time></trkpt><trkpt lat="44.75014991477945" lon="11.894028370997374"><ele>0.0</ele><time>2026-04-19T14:11:57.001Z</time></trkpt><trkpt lat="44.750114621947404" lon="11.894179364405007"><ele>0.25</ele><time>2026-04-19T14:11:58.001Z</time></trkpt><trkpt lat="44.75006427139128" lon="11.894330749892877"><ele>0.5</ele><time>2026-04-19T14:11:59.001Z</time></trkpt><trkpt lat="44.75001531626868" lon="11.894477666658043"><ele>0.75</ele><time>2026-04-19T14:12:00.001Z</time></trkpt><trkpt lat="44.74996863313843" lon="11.894629378832446"><ele>1.0</ele><time>2026-04-19T14:12:01.001Z</time></trkpt><trkpt lat="44.74991917870175" lon="11.894792727210914"><ele>1.0</ele><time>2026-04-19T14:12:02.001Z</time></trkpt><trkpt lat="44.74986564772412" lon="11.894957060732331"><ele>1.0</ele><time>2026-04-19T14:12:03.001Z</time></trkpt><trkpt lat="44.74981554128636" lon="11.895107361115048"><ele>1.0</ele><time>2026-04-19T14:12:04.001Z</time></trkpt><trkpt lat="44.74977213485793" lon="11.895239453249253"><ele>1.0</ele><time>2026-04-19T14:12:05.001Z</time></trkpt><trkpt lat="44.749729510169935" lon="11.895370028584479"><ele>1.0</ele><time>2026-04-19T14:12:06.001Z</time></trkpt><trkpt lat="44.74968542143172" lon="11.895506298561932"><ele>1.0</ele><time>2026-04-19T14:12:07.001Z</time></trkpt><trkpt lat="44.74963865789086" lon="11.895653442353177"><ele>1.0</ele><time>2026-04-19T14:12:08.001Z</time></trkpt><trkpt lat="44.74959331881668" lon="11.895796368673583"><ele>1.0</ele><time>2026-04-19T14:12:09.001Z</time></trkpt><trkpt lat="44.74954685556736" lon="11.895940776533697"><ele>1.0</ele><time>2026-04-19T14:12:10.001Z</time></trkpt><trkpt lat="44.74949923687859" lon="11.89609054433208"><ele>1.0</ele><time>2026-04-19T14:12:11.001Z</time></trkpt><trkpt lat="44.74946847603933" lon="11.896233375433848"><ele>1.0</ele><time>2026-04-19T14:12:12.001Z</time></trkpt><trkpt lat="44.7494595895724" lon="11.896366665782487"><ele>1.0</ele><time>2026-04-19T14:12:13.001Z</time></trkpt><trkpt lat="44.74947666761907" lon="11.89649971887155"><ele>1.0</ele><time>2026-04-19T14:12:14.001Z</time></trkpt><trkpt lat="44.74950691738733" lon="11.896629212115936"><ele>1.0</ele><time>2026-04-19T14:12:15.001Z</time></trkpt><trkpt lat="44.74955187710312" lon="11.89673931690914"><ele>1.2000000000000002</ele><time>2026-04-19T14:12:16.001Z</time></trkpt><trkpt lat="44.74961232295563" lon="11.896849640944602"><ele>1.4000000000000001</ele><time>2026-04-19T14:12:17.001Z</time></trkpt><trkpt lat="44.749681740501224" lon="11.896957220147788"><ele>1.6</ele><time>2026-04-19T14:12:18.001Z</time></trkpt><trkpt lat="44.749751892579646" lon="11.897063232887266"><ele>1.8</ele><time>2026-04-19T14:12:19.001Z</time></trkpt><trkpt lat="44.74981818988924" lon="11.897171788265714"><ele>2.0</ele><time>2026-04-19T14:12:20.001Z</time></trkpt><trkpt lat="44.749883640325166" lon="11.89728558991131"><ele>2.0</ele><time>2026-04-19T14:12:21.001Z</time></trkpt><trkpt lat="44.749946064187036" lon="11.89740548922635"><ele>2.0</ele><time>2026-04-19T14:12:22.001Z</time></trkpt><trkpt lat="44.75000004997255" lon="11.897534886536585"><ele>2.0</ele><time>2026-04-19T14:12:23.001Z</time></trkpt><trkpt lat="44.75002690096496" lon="11.897681471483608"><ele>2.0</ele><time>2026-04-19T14:12:24.001Z</time></trkpt><trkpt lat="44.75004483560549" lon="11.897838402087748"><ele>2.0</ele><time>2026-04-19T14:12:25.001Z</time></trkpt><trkpt lat="44.750042931378154" lon="11.897993803117858"><ele>2.0</ele><time>2026-04-19T14:12:26.001Z</time></trkpt><trkpt lat="44.7500160471033" lon="11.898139976882858"><ele>2.0</ele><time>2026-04-19T14:12:27.001Z</time></trkpt><trkpt lat="44.749973608976234" lon="11.898278137522654"><ele>2.0</ele><time>2026-04-19T14:12:28.001Z</time></trkpt><trkpt lat="44.74992402209948" lon="11.898416576451307"><ele>2.0</ele><time>2026-04-19T14:12:29.001Z</time></trkpt><trkpt lat="44.74986256483008" lon="11.898557183919143"><ele>2.0</ele><time>2026-04-19T14:12:30.001Z</time></trkpt><trkpt lat="44.74978922353411" lon="11.898723993426897"><ele>2.0</ele><time>2026-04-19T14:12:31.001Z</time></trkpt><trkpt lat="44.749702709591645" lon="11.89891207365676"><ele>2.0</ele><time>2026-04-19T14:12:32.001Z</time></trkpt><trkpt lat="44.74962295052213" lon="11.89908316269972"><ele>2.0</ele><time>2026-04-19T14:12:33.001Z</time></trkpt><trkpt lat="44.749552741482596" lon="11.899245339734168"><ele>2.0</ele><time>2026-04-19T14:12:34.001Z</time></trkpt><trkpt lat="44.74947615218576" lon="11.89942417435818"><ele>1.6666666666666665</ele><time>2026-04-19T14:12:35.001Z</time></trkpt><trkpt lat="44.74939851937855" lon="11.899613803515056"><ele>1.3333333333333333</ele><time>2026-04-19T14:12:36.001Z</time></trkpt><trkpt lat="44.749328885130225" lon="11.899820842739281"><ele>1.0</ele><time>2026-04-19T14:12:37.001Z</time></trkpt><trkpt lat="44.74927192888081" lon="11.900028251874753"><ele>1.0</ele><time>2026-04-19T14:12:38.001Z</time></trkpt><trkpt lat="44.74922516689225" lon="11.900245404539518"><ele>1.0</ele><time>2026-04-19T14:12:39.001Z</time></trkpt><trkpt lat="44.74918855466398" lon="11.900463360900257"><ele>1.0</ele><time>2026-04-19T14:12:40.001Z</time></trkpt><trkpt lat="44.74914778645769" lon="11.900685334855991"><ele>1.0</ele><time>2026-04-19T14:12:41.001Z</time></trkpt><trkpt lat="44.74910733534312" lon="11.900907685496723"><ele>1.0</ele><time>2026-04-19T14:12:42.001Z</time></trkpt><trkpt lat="44.74907198112894" lon="11.901114467892015"><ele>1.0</ele><time>2026-04-19T14:12:43.001Z</time></trkpt><trkpt lat="44.74904799589857" lon="11.901332527678091"><ele>0.6666666666666666</ele><time>2026-04-19T14:12:44.001Z</time></trkpt><trkpt lat="44.74900987580368" lon="11.901546220980569"><ele>0.3333333333333333</ele><time>2026-04-19T14:12:45.001Z</time></trkpt><trkpt lat="44.74897126199232" lon="11.901764221233359"><ele>0.0</ele><time>2026-04-19T14:12:46.001Z</time></trkpt><trkpt lat="44.74892604488212" lon="11.901983796286556"><ele>-0.6666666666666666</ele><time>2026-04-19T14:12:47.001Z</time></trkpt><trkpt lat="44.74888461936178" lon="11.90220389446641"><ele>-1.3333333333333333</ele><time>2026-04-19T14:12:48.001Z</time></trkpt><trkpt lat="44.74884504354533" lon="11.902438641064599"><ele>-2.0</ele><time>2026-04-19T14:12:49.001Z</time></trkpt><trkpt lat="44.748818711845054" lon="11.902666809491992"><ele>-2.0</ele><time>2026-04-19T14:12:50.002Z</time></trkpt><trkpt lat="44.748794080551185" lon="11.902907608378682"><ele>-2.0</ele><time>2026-04-19T14:12:51.002Z</time></trkpt><trkpt lat="44.748766412077245" lon="11.903145182911238"><ele>-2.0</ele><time>2026-04-19T14:12:52.002Z</time></trkpt><trkpt lat="44.748742216781416" lon="11.90338045223519"><ele>-2.0</ele><time>2026-04-19T14:12:53.002Z</time></trkpt><trkpt lat="44.748722494652284" lon="11.903633656880098"><ele>-2.0</ele><time>2026-04-19T14:12:54.002Z</time></trkpt><trkpt lat="44.748715948079905" lon="11.903879146742888"><ele>-2.0</ele><time>2026-04-19T14:12:55.002Z</time></trkpt><trkpt lat="44.74871987989773" lon="11.904115146139748"><ele>-2.0</ele><time>2026-04-19T14:12:56.002Z</time></trkpt><trkpt lat="44.74871866538229" lon="11.904344072966353"><ele>-2.0</ele><time>2026-04-19T14:12:57.002Z</time></trkpt><trkpt lat="44.748711254085194" lon="11.90457462910581"><ele>-2.0</ele><time>2026-04-19T14:12:58.002Z</time></trkpt><trkpt lat="44.74869089368981" lon="11.904790688510586"><ele>-2.0</ele><time>2026-04-19T14:12:59.002Z</time></trkpt><trkpt lat="44.748653352769" lon="11.90503547128532"><ele>-2.0</ele><time>2026-04-19T14:13:00.002Z</time></trkpt><trkpt lat="44.74861481152579" lon="11.905272569344515"><ele>-2.0</ele><time>2026-04-19T14:13:01Z</time></trkpt><trkpt lat="44.74858208747972" lon="11.905504649962337"><ele>-2.333333333333333</ele><time>2026-04-19T14:13:02Z</time></trkpt><trkpt lat="44.74855011522523" lon="11.905743871623665"><ele>-2.6666666666666665</ele><time>2026-04-19T14:13:03.001Z</time></trkpt><trkpt lat="44.74851660406514" lon="11.905980975547466"><ele>-3.0</ele><time>2026-04-19T14:13:04Z</time></trkpt><trkpt lat="44.74848650369758" lon="11.906216782110137"><ele>-2.3333333333333335</ele><time>2026-04-19T14:13:05Z</time></trkpt><trkpt lat="44.74845359844244" lon="11.906452320637312"><ele>-1.6666666666666665</ele><time>2026-04-19T14:13:06Z</time></trkpt><trkpt lat="44.74841849668381" lon="11.906689478506582"><ele>-1.0</ele><time>2026-04-19T14:13:07Z</time></trkpt><trkpt lat="44.74838512012489" lon="11.906922059369027"><ele>-0.75</ele><time>2026-04-19T14:13:08Z</time></trkpt><trkpt lat="44.74834959810061" lon="11.907140991297481"><ele>-0.5</ele><time>2026-04-19T14:13:09Z</time></trkpt><trkpt lat="44.74832401779589" lon="11.907343767815165"><ele>-0.25</ele><time>2026-04-19T14:13:10Z</time></trkpt><trkpt lat="44.74830642740191" lon="11.907544277224249"><ele>0.0</ele><time>2026-04-19T14:13:11Z</time></trkpt><trkpt lat="44.74830718997844" lon="11.907755555852463"><ele>0.0</ele><time>2026-04-19T14:13:12Z</time></trkpt><trkpt lat="44.74833353272052" lon="11.907975947967262"><ele>0.0</ele><time>2026-04-19T14:13:13Z</time></trkpt><trkpt lat="44.74838049512836" lon="11.908191203439754"><ele>0.0</ele><time>2026-04-19T14:13:14Z</time></trkpt><trkpt lat="44.74842091728853" lon="11.90840452106495"><ele>0.0</ele><time>2026-04-19T14:13:15Z</time></trkpt><trkpt lat="44.748468838564456" lon="11.908598043801431"><ele>0.0</ele><time>2026-04-19T14:13:16Z</time></trkpt><trkpt lat="44.74850925696702" lon="11.908791901900825"><ele>0.0</ele><time>2026-04-19T14:13:17Z</time></trkpt><trkpt lat="44.748547118507986" lon="11.909008042034197"><ele>0.0</ele><time>2026-04-19T14:13:18Z</time></trkpt><trkpt lat="44.74858237450614" lon="11.90920628834575"><ele>0.0</ele><time>2026-04-19T14:13:19Z</time></trkpt><trkpt lat="44.7486218484421" lon="11.90941308243362"><ele>0.0</ele><time>2026-04-19T14:13:20Z</time></trkpt><trkpt lat="44.74864407311417" lon="11.909630219447864"><ele>0.0</ele><time>2026-04-19T14:13:21Z</time></trkpt><trkpt lat="44.74865548180724" lon="11.909855957899389"><ele>0.0</ele><time>2026-04-19T14:13:22Z</time></trkpt><trkpt lat="44.74866318341459" lon="11.910103665622986"><ele>0.0</ele><time>2026-04-19T14:13:23Z</time></trkpt><trkpt lat="44.74867325413452" lon="11.910347322878328"><ele>0.0</ele><time>2026-04-19T14:13:24Z</time></trkpt><trkpt lat="44.74868577927881" lon="11.910585791634722"><ele>0.0</ele><time>2026-04-19T14:13:25Z</time></trkpt><trkpt lat="44.74870176063091" lon="11.910817416761889"><ele>0.0</ele><time>2026-04-19T14:13:26Z</time></trkpt><trkpt lat="44.74871314497013" lon="11.911052223127841"><ele>0.0</ele><time>2026-04-19T14:13:27Z</time></trkpt><trkpt lat="44.74872562501776" lon="11.911282381118468"><ele>0.0</ele><time>2026-04-19T14:13:28Z</time></trkpt><trkpt lat="44.74873545560646" lon="11.911500913907279"><ele>0.0</ele><time>2026-04-19T14:13:29Z</time></trkpt><trkpt lat="44.74874264377894" lon="11.911701858808064"><ele>0.0</ele><time>2026-04-19T14:13:30Z</time></trkpt><trkpt lat="44.74875458222103" lon="11.91189634915913"><ele>0.0</ele><time>2026-04-19T14:13:31Z</time></trkpt><trkpt lat="44.748767037696446" lon="11.912085032812112"><ele>-0.25</ele><time>2026-04-19T14:13:32Z</time></trkpt><trkpt lat="44.74877686980212" lon="11.912267884336938"><ele>-0.5</ele><time>2026-04-19T14:13:33Z</time></trkpt><trkpt lat="44.74878161034423" lon="11.912440255938085"><ele>-0.75</ele><time>2026-04-19T14:13:34Z</time></trkpt><trkpt lat="44.74879179473528" lon="11.912598155229048"><ele>-1.0</ele><time>2026-04-19T14:13:35Z</time></trkpt><trkpt lat="44.74879744718002" lon="11.912739438357194"><ele>-1.0</ele><time>2026-04-19T14:13:36Z</time></trkpt><trkpt lat="44.74879979554729" lon="11.912869716967869"><ele>-1.0</ele><time>2026-04-19T14:13:37Z</time></trkpt><trkpt lat="44.748807992571486" lon="11.913001056052996"><ele>-1.0</ele><time>2026-04-19T14:13:38Z</time></trkpt><trkpt lat="44.74880939981628" lon="11.913150877342545"><ele>-1.0</ele><time>2026-04-19T14:13:39Z</time></trkpt><trkpt lat="44.74881063218823" lon="11.913318800336427"><ele>-1.0</ele><time>2026-04-19T14:13:40Z</time></trkpt><trkpt lat="44.74881316340042" lon="11.913503851738554"><ele>-1.0</ele><time>2026-04-19T14:13:41.001Z</time></trkpt><trkpt lat="44.74881647080832" lon="11.913684701750604"><ele>-1.0</ele><time>2026-04-19T14:13:42.001Z</time></trkpt><trkpt lat="44.74881676979266" lon="11.91384561124552"><ele>-1.0</ele><time>2026-04-19T14:13:43.001Z</time></trkpt><trkpt lat="44.748817296053275" lon="11.913997316502323"><ele>-1.0</ele><time>2026-04-19T14:13:44.001Z</time></trkpt><trkpt lat="44.74881801591409" lon="11.914134200658808"><ele>-1.0</ele><time>2026-04-19T14:13:45.001Z</time></trkpt><trkpt lat="44.74881678652218" lon="11.914251448170218"><ele>-1.0</ele><time>2026-04-19T14:13:46.001Z</time></trkpt><trkpt lat="44.748812998121174" lon="11.914353181281344"><ele>-1.0</ele><time>2026-04-19T14:13:47.001Z</time></trkpt><trkpt lat="44.748785391843114" lon="11.914502860964117"><ele>-1.0</ele><time>2026-04-19T14:13:49.001Z</time></trkpt><trkpt lat="44.74869939371397" lon="11.914581430738592"><ele>-1.0</ele><time>2026-04-19T14:13:51.001Z</time></trkpt><trkpt lat="44.74863210539822" lon="11.914489341841499"><ele>-1.0</ele><time>2026-04-19T14:13:53.001Z</time></trkpt><trkpt lat="44.74852911645532" lon="11.914747105176284"><ele>2.0</ele><time>2026-04-19T14:13:56.001Z</time></trkpt><trkpt lat="44.74858550732369" lon="11.91480486603473"><ele>-1.0</ele><time>2026-04-19T14:13:58.001Z</time></trkpt></trkseg><trkseg><trkpt lat="44.748598866250504" lon="11.914863713107973"><ele>-1.0</ele><time>2026-04-19T15:38:30Z</time></trkpt><trkpt lat="44.74859211962626" lon="11.914958361319652"><ele>-1.0</ele><time>2026-04-19T15:38:32Z</time></trkpt><trkpt lat="44.748627559874265" lon="11.915074557159206"><ele>-1.0</ele><time>2026-04-19T15:38:35Z</time></trkpt><trkpt lat="44.74868684979807" lon="11.91510455899023"><ele>-1.0</ele><time>2026-04-19T15:38:37Z</time></trkpt><trkpt lat="44.748758539865364" lon="11.915093746338618"><ele>-1.0</ele><time>2026-04-19T15:38:40Z</time></trkpt><trkpt lat="44.74884555604118" lon="11.914826815211898"><ele>-1.0</ele><time>2026-04-19T15:38:57Z</time></trkpt><trkpt lat="44.74884091035101" lon="11.91471714782097"><ele>-1.0</ele><time>2026-04-19T15:38:58Z</time></trkpt><trkpt lat="44.748840177229965" lon="11.914581418202639"><ele>-1.0</ele><time>2026-04-19T15:38:59Z</time></trkpt><trkpt lat="44.74884310556629" lon="11.914453658519392"><ele>-1.0</ele><time>2026-04-19T15:39:00Z</time></trkpt><trkpt lat="44.74884282522076" lon="11.914277626001683"><ele>-1.0</ele><time>2026-04-19T15:39:01Z</time></trkpt><trkpt lat="44.748837802538546" lon="11.914132011931613"><ele>-1.0</ele><time>2026-04-19T15:39:02Z</time></trkpt><trkpt lat="44.74883727753725" lon="11.913985253625142"><ele>-1.0</ele><time>2026-04-19T15:39:03Z</time></trkpt><trkpt lat="44.74883662217992" lon="11.913847654811162"><ele>-1.0</ele><time>2026-04-19T15:39:04Z</time></trkpt><trkpt lat="44.748838160125665" lon="11.913720851098965"><ele>-1.0</ele><time>2026-04-19T15:39:05Z</time></trkpt><trkpt lat="44.74883700335072" lon="11.913605247441394"><ele>-1.0</ele><time>2026-04-19T15:39:06Z</time></trkpt><trkpt lat="44.748836719858026" lon="11.913498007186956"><ele>-0.5</ele><time>2026-04-19T15:39:07Z</time></trkpt><trkpt lat="44.7488560103776" lon="11.913322253095918"><ele>0.0</ele><time>2026-04-19T15:39:09Z</time></trkpt><trkpt lat="44.74890068939033" lon="11.913170034054565"><ele>0.5</ele><time>2026-04-19T15:39:11Z</time></trkpt><trkpt lat="44.7489430234322" lon="11.913057341701704"><ele>1.0</ele><time>2026-04-19T15:39:14Z</time></trkpt><trkpt lat="44.74886550218141" lon="11.912864787892516"><ele>1.0</ele><time>2026-04-19T15:39:16Z</time></trkpt><trkpt lat="44.74883195774653" lon="11.912753840892"><ele>1.0</ele><time>2026-04-19T15:39:17Z</time></trkpt><trkpt lat="44.74881781171521" lon="11.912635564339334"><ele>1.0</ele><time>2026-04-19T15:39:18Z</time></trkpt><trkpt lat="44.748812073500865" lon="11.912487249439524"><ele>1.0</ele><time>2026-04-19T15:39:19Z</time></trkpt><trkpt lat="44.74880774089983" lon="11.912319110689992"><ele>1.0</ele><time>2026-04-19T15:39:20Z</time></trkpt><trkpt lat="44.74880384928182" lon="11.912164945361136"><ele>0.75</ele><time>2026-04-19T15:39:21Z</time></trkpt><trkpt lat="44.74879538055052" lon="11.91200692858921"><ele>0.5</ele><time>2026-04-19T15:39:22Z</time></trkpt><trkpt lat="44.748788723709865" lon="11.911838092560108"><ele>0.25</ele><time>2026-04-19T15:39:23Z</time></trkpt><trkpt lat="44.74877825835748" lon="11.911658423595975"><ele>0.0</ele><time>2026-04-19T15:39:24Z</time></trkpt><trkpt lat="44.748762279264376" lon="11.911465450719604"><ele>0.0</ele><time>2026-04-19T15:39:25Z</time></trkpt><trkpt lat="44.74875372282571" lon="11.91127028937429"><ele>0.0</ele><time>2026-04-19T15:39:26Z</time></trkpt><trkpt lat="44.748744179373034" lon="11.911084991218399"><ele>0.0</ele><time>2026-04-19T15:39:27Z</time></trkpt><trkpt lat="44.74873733382599" lon="11.910896558898358"><ele>0.0</ele><time>2026-04-19T15:39:28Z</time></trkpt><trkpt lat="44.74872217556727" lon="11.91070183382169"><ele>0.0</ele><time>2026-04-19T15:39:29Z</time></trkpt><trkpt lat="44.74871520743661" lon="11.9105032005265"><ele>0.0</ele><time>2026-04-19T15:39:30Z</time></trkpt><trkpt lat="44.74870209168913" lon="11.910307838066338"><ele>0.0</ele><time>2026-04-19T15:39:31Z</time></trkpt><trkpt lat="44.748694865674835" lon="11.910103613234433"><ele>0.0</ele><time>2026-04-19T15:39:32Z</time></trkpt><trkpt lat="44.74868403621157" lon="11.909902504863153"><ele>0.0</ele><time>2026-04-19T15:39:33Z</time></trkpt><trkpt lat="44.74867166317201" lon="11.909702773645916"><ele>0.0</ele><time>2026-04-19T15:39:34Z</time></trkpt><trkpt lat="44.74865940363403" lon="11.909505136188988"><ele>0.0</ele><time>2026-04-19T15:39:35Z</time></trkpt><trkpt lat="44.748637710691455" lon="11.909316540762358"><ele>0.0</ele><time>2026-04-19T15:39:36Z</time></trkpt><trkpt lat="44.74861152345527" lon="11.909133918012483"><ele>0.0</ele><time>2026-04-19T15:39:37Z</time></trkpt><trkpt lat="44.74856939482099" lon="11.908942636822937"><ele>0.0</ele><time>2026-04-19T15:39:38Z</time></trkpt><trkpt lat="44.74853463305016" lon="11.908755197686945"><ele>0.0</ele><time>2026-04-19T15:39:39Z</time></trkpt><trkpt lat="44.74849922202205" lon="11.908570534297956"><ele>0.0</ele><time>2026-04-19T15:39:40Z</time></trkpt><trkpt lat="44.74845852652227" lon="11.908377906166987"><ele>0.0</ele><time>2026-04-19T15:39:41Z</time></trkpt><trkpt lat="44.74841773739815" lon="11.90820149402587"><ele>0.0</ele><time>2026-04-19T15:39:42Z</time></trkpt><trkpt lat="44.7483834181546" lon="11.908027268764577"><ele>0.0</ele><time>2026-04-19T15:39:42.999Z</time></trkpt><trkpt lat="44.74835564867058" lon="11.90784498940659"><ele>0.0</ele><time>2026-04-19T15:39:43.999Z</time></trkpt><trkpt lat="44.748337702158054" lon="11.907669349519159"><ele>0.0</ele><time>2026-04-19T15:39:44.999Z</time></trkpt><trkpt lat="44.74833213375797" lon="11.907474560878558"><ele>0.0</ele><time>2026-04-19T15:39:45.999Z</time></trkpt><trkpt lat="44.74836784185893" lon="11.907286023964005"><ele>0.0</ele><time>2026-04-19T15:39:46.999Z</time></trkpt><trkpt lat="44.74839539569699" lon="11.907087976935767"><ele>0.0</ele><time>2026-04-19T15:39:47.999Z</time></trkpt><trkpt lat="44.74841677099843" lon="11.906880530949175"><ele>-0.3333333333333333</ele><time>2026-04-19T15:39:48.999Z</time></trkpt><trkpt lat="44.748451646989515" lon="11.906673238043801"><ele>-0.6666666666666666</ele><time>2026-04-19T15:39:49.999Z</time></trkpt><trkpt lat="44.74847746716716" lon="11.906463358374255"><ele>-1.0</ele><time>2026-04-19T15:39:50.999Z</time></trkpt><trkpt lat="44.74850528502723" lon="11.906247743875278"><ele>-1.0</ele><time>2026-04-19T15:39:51.999Z</time></trkpt><trkpt lat="44.748542802549224" lon="11.906035602367009"><ele>-1.0</ele><time>2026-04-19T15:39:52.999Z</time></trkpt><trkpt lat="44.748573558676355" lon="11.905826645751054"><ele>-1.0</ele><time>2026-04-19T15:39:53.999Z</time></trkpt><trkpt lat="44.748595966794845" lon="11.905612468013366"><ele>-1.25</ele><time>2026-04-19T15:39:54.999Z</time></trkpt><trkpt lat="44.74862438265156" lon="11.905404895989317"><ele>-1.5</ele><time>2026-04-19T15:39:55.999Z</time></trkpt><trkpt lat="44.74865264322008" lon="11.905196807615194"><ele>-1.75</ele><time>2026-04-19T15:39:56.999Z</time></trkpt><trkpt lat="44.74868200213029" lon="11.904994712128476"><ele>-2.0</ele><time>2026-04-19T15:39:58Z</time></trkpt><trkpt lat="44.74871016074682" lon="11.904789774296368"><ele>-2.0</ele><time>2026-04-19T15:39:59Z</time></trkpt><trkpt lat="44.74873357628638" lon="11.90459184523558"><ele>-2.0</ele><time>2026-04-19T15:40:00Z</time></trkpt><trkpt lat="44.74874638873866" lon="11.904383583951635"><ele>-2.0</ele><time>2026-04-19T15:40:01Z</time></trkpt><trkpt lat="44.74875849080465" lon="11.904176171810713"><ele>-2.0</ele><time>2026-04-19T15:40:02Z</time></trkpt><trkpt lat="44.74875235474966" lon="11.90396591930215"><ele>-2.0</ele><time>2026-04-19T15:40:03Z</time></trkpt><trkpt lat="44.748748033906445" lon="11.903751141784978"><ele>-2.0</ele><time>2026-04-19T15:40:04Z</time></trkpt><trkpt lat="44.748751168969385" lon="11.903542143911736"><ele>-2.0</ele><time>2026-04-19T15:40:05Z</time></trkpt><trkpt lat="44.74876381194666" lon="11.903328441728117"><ele>-2.0</ele><time>2026-04-19T15:40:06Z</time></trkpt><trkpt lat="44.748788947984224" lon="11.903116602328161"><ele>-2.0</ele><time>2026-04-19T15:40:07Z</time></trkpt><trkpt lat="44.74881459878576" lon="11.902899769412903"><ele>-2.0</ele><time>2026-04-19T15:40:08Z</time></trkpt><trkpt lat="44.74884535139798" lon="11.902691504874323"><ele>-2.0</ele><time>2026-04-19T15:40:09Z</time></trkpt><trkpt lat="44.748873930745745" lon="11.902476568528941"><ele>-2.0</ele><time>2026-04-19T15:40:10Z</time></trkpt><trkpt lat="44.748904835734486" lon="11.902262261962786"><ele>-2.0</ele><time>2026-04-19T15:40:11Z</time></trkpt><trkpt lat="44.748939504823774" lon="11.902050820190697"><ele>-2.0</ele><time>2026-04-19T15:40:12Z</time></trkpt><trkpt lat="44.74898008587553" lon="11.901826434858874"><ele>-2.0</ele><time>2026-04-19T15:40:13Z</time></trkpt><trkpt lat="44.74902638354647" lon="11.90161816867201"><ele>-2.0</ele><time>2026-04-19T15:40:14Z</time></trkpt><trkpt lat="44.74905331539078" lon="11.901401734911005"><ele>-1.5</ele><time>2026-04-19T15:40:15Z</time></trkpt><trkpt lat="44.74908725619072" lon="11.901198995783368"><ele>-1.0</ele><time>2026-04-19T15:40:16Z</time></trkpt><trkpt lat="44.74912264623499" lon="11.900992565421078"><ele>-0.5</ele><time>2026-04-19T15:40:17Z</time></trkpt><trkpt lat="44.749153859735465" lon="11.900788981440215"><ele>0.0</ele><time>2026-04-19T15:40:18Z</time></trkpt><trkpt lat="44.749191471658605" lon="11.900580142195778"><ele>0.3333333333333333</ele><time>2026-04-19T15:40:19Z</time></trkpt><trkpt lat="44.74922426403561" lon="11.90035978167669"><ele>0.6666666666666666</ele><time>2026-04-19T15:40:20Z</time></trkpt><trkpt lat="44.749263285534155" lon="11.900163123825925"><ele>1.0</ele><time>2026-04-19T15:40:21Z</time></trkpt><trkpt lat="44.74931122769593" lon="11.899967612279267"><ele>1.0</ele><time>2026-04-19T15:40:22Z</time></trkpt><trkpt lat="44.749368769832984" lon="11.89978509748417"><ele>1.0</ele><time>2026-04-19T15:40:23Z</time></trkpt><trkpt lat="44.74943133395537" lon="11.899598021893409"><ele>1.0</ele><time>2026-04-19T15:40:24Z</time></trkpt><trkpt lat="44.74950160622058" lon="11.899415965138436"><ele>1.0</ele><time>2026-04-19T15:40:25Z</time></trkpt><trkpt lat="44.74957586573104" lon="11.899239164381422"><ele>1.25</ele><time>2026-04-19T15:40:26Z</time></trkpt><trkpt lat="44.749653714719635" lon="11.899065128648907"><ele>1.5</ele><time>2026-04-19T15:40:27Z</time></trkpt><trkpt lat="44.74973075027869" lon="11.898900716778359"><ele>1.75</ele><time>2026-04-19T15:40:28Z</time></trkpt><trkpt lat="44.74980498901665" lon="11.89874245263634"><ele>2.0</ele><time>2026-04-19T15:40:29Z</time></trkpt><trkpt lat="44.74987088603515" lon="11.898585457024808"><ele>2.0</ele><time>2026-04-19T15:40:30Z</time></trkpt><trkpt lat="44.7499325436903" lon="11.89843920152118"><ele>2.0</ele><time>2026-04-19T15:40:31Z</time></trkpt><trkpt lat="44.74997974385961" lon="11.89830743334154"><ele>2.0</ele><time>2026-04-19T15:40:32Z</time></trkpt><trkpt lat="44.75002080744723" lon="11.89818693755531"><ele>2.0</ele><time>2026-04-19T15:40:33Z</time></trkpt><trkpt lat="44.750052153468644" lon="11.898064482981423"><ele>2.0</ele><time>2026-04-19T15:40:34Z</time></trkpt><trkpt lat="44.750068679059424" lon="11.897935141293969"><ele>2.0</ele><time>2026-04-19T15:40:35Z</time></trkpt><trkpt lat="44.7500778800655" lon="11.897800162092336"><ele>2.0</ele><time>2026-04-19T15:40:36Z</time></trkpt><trkpt lat="44.75006110747302" lon="11.897648036256447"><ele>2.0</ele><time>2026-04-19T15:40:37Z</time></trkpt><trkpt lat="44.75002713365962" lon="11.897514570848456"><ele>2.0</ele><time>2026-04-19T15:40:38Z</time></trkpt><trkpt lat="44.74998548549858" lon="11.897386947520621"><ele>2.0</ele><time>2026-04-19T15:40:39Z</time></trkpt><trkpt lat="44.74992731798268" lon="11.897265126927387"><ele>1.9999999999999998</ele><time>2026-04-19T15:40:40Z</time></trkpt><trkpt lat="44.7498631645306" lon="11.897160285991976"><ele>2.0</ele><time>2026-04-19T15:40:41Z</time></trkpt><trkpt lat="44.74979590703454" lon="11.89706467775324"><ele>2.0</ele><time>2026-04-19T15:40:42Z</time></trkpt><trkpt lat="44.74973898474271" lon="11.896977850169115"><ele>2.0</ele><time>2026-04-19T15:40:43Z</time></trkpt><trkpt lat="44.74969387981579" lon="11.89689950538837"><ele>1.9999999999999998</ele><time>2026-04-19T15:40:44Z</time></trkpt><trkpt lat="44.74964457880355" lon="11.896817219587442"><ele>2.0</ele><time>2026-04-19T15:40:45Z</time></trkpt><trkpt lat="44.749583416294165" lon="11.896714591341672"><ele>1.8</ele><time>2026-04-19T15:40:46Z</time></trkpt><trkpt lat="44.749538171268874" lon="11.896600723791105"><ele>1.6</ele><time>2026-04-19T15:40:47Z</time></trkpt><trkpt lat="44.749503695323725" lon="11.896458317798283"><ele>1.4000000000000001</ele><time>2026-04-19T15:40:48Z</time></trkpt><trkpt lat="44.74949421989858" lon="11.896309365256377"><ele>1.2000000000000002</ele><time>2026-04-19T15:40:49Z</time></trkpt><trkpt lat="44.74950281182116" lon="11.896168213849204"><ele>1.0</ele><time>2026-04-19T15:40:50Z</time></trkpt><trkpt lat="44.7495313090576" lon="11.896021522193836"><ele>1.0</ele><time>2026-04-19T15:40:51Z</time></trkpt><trkpt lat="44.7495925138148" lon="11.895883678757283"><ele>1.0</ele><time>2026-04-19T15:40:52Z</time></trkpt><trkpt lat="44.749633185797535" lon="11.895711527348725"><ele>1.0</ele><time>2026-04-19T15:40:53Z</time></trkpt><trkpt lat="44.74968868745774" lon="11.89554312871652"><ele>1.0</ele><time>2026-04-19T15:40:54Z</time></trkpt><trkpt lat="44.749743590509325" lon="11.89537643173152"><ele>1.0</ele><time>2026-04-19T15:40:55Z</time></trkpt><trkpt lat="44.749796562038625" lon="11.895211016728567"><ele>1.0</ele><time>2026-04-19T15:40:56Z</time></trkpt><trkpt lat="44.74985172138719" lon="11.895041216611089"><ele>1.0</ele><time>2026-04-19T15:40:57Z</time></trkpt><trkpt lat="44.749906282478534" lon="11.894864189864734"><ele>1.0</ele><time>2026-04-19T15:40:58Z</time></trkpt><trkpt lat="44.749964571508755" lon="11.894685063481491"><ele>1.0</ele><time>2026-04-19T15:40:59Z</time></trkpt><trkpt lat="44.750020242851406" lon="11.894506302395639"><ele>1.0</ele><time>2026-04-19T15:41:00Z</time></trkpt><trkpt lat="44.75008178892709" lon="11.89432603447992"><ele>1.0</ele><time>2026-04-19T15:41:01Z</time></trkpt><trkpt lat="44.75013969815623" lon="11.894154696364408"><ele>1.0</ele><time>2026-04-19T15:41:02Z</time></trkpt><trkpt lat="44.750195152263636" lon="11.893982741645027"><ele>0.75</ele><time>2026-04-19T15:41:03Z</time></trkpt><trkpt lat="44.75025052176707" lon="11.893816940814853"><ele>0.5</ele><time>2026-04-19T15:41:04Z</time></trkpt><trkpt lat="44.750302077727795" lon="11.893647574901316"><ele>0.25</ele><time>2026-04-19T15:41:05Z</time></trkpt><trkpt lat="44.75034656446096" lon="11.893482571804181"><ele>0.0</ele><time>2026-04-19T15:41:06Z</time></trkpt><trkpt lat="44.75038238924007" lon="11.893317901878163"><ele>0.0</ele><time>2026-04-19T15:41:07Z</time></trkpt><trkpt lat="44.75040785300676" lon="11.893144679832819"><ele>0.0</ele><time>2026-04-19T15:41:08Z</time></trkpt><trkpt lat="44.75042619953112" lon="11.892970436309337"><ele>0.0</ele><time>2026-04-19T15:41:09Z</time></trkpt><trkpt lat="44.75043416187735" lon="11.892790857581064"><ele>0.0</ele><time>2026-04-19T15:41:10Z</time></trkpt><trkpt lat="44.75043584812344" lon="11.892609275200465"><ele>0.25</ele><time>2026-04-19T15:41:11Z</time></trkpt><trkpt lat="44.7504374051655" lon="11.89242450867638"><ele>0.5</ele><time>2026-04-19T15:41:12Z</time></trkpt><trkpt lat="44.750442651557506" lon="11.892235097970916"><ele>0.75</ele><time>2026-04-19T15:41:13Z</time></trkpt><trkpt lat="44.750446820420194" lon="11.892044475722049"><ele>1.0</ele><time>2026-04-19T15:41:14Z</time></trkpt><trkpt lat="44.75045019107559" lon="11.8918590402017"><ele>1.0</ele><time>2026-04-19T15:41:15Z</time></trkpt><trkpt lat="44.75045700930895" lon="11.891679226547271"><ele>1.0</ele><time>2026-04-19T15:41:16Z</time></trkpt><trkpt lat="44.750475706638525" lon="11.89150019601412"><ele>1.0</ele><time>2026-04-19T15:41:17Z</time></trkpt><trkpt lat="44.75050147644708" lon="11.891320395690068"><ele>1.0</ele><time>2026-04-19T15:41:18Z</time></trkpt><trkpt lat="44.75054077520205" lon="11.891142256570753"><ele>1.0</ele><time>2026-04-19T15:41:19Z</time></trkpt><trkpt lat="44.75058149494456" lon="11.890967034971021"><ele>1.0</ele><time>2026-04-19T15:41:20Z</time></trkpt><trkpt lat="44.75061899232198" lon="11.890790157908302"><ele>1.0</ele><time>2026-04-19T15:41:21Z</time></trkpt><trkpt lat="44.750639624595216" lon="11.890606937758074"><ele>1.0</ele><time>2026-04-19T15:41:22Z</time></trkpt><trkpt lat="44.75064480457525" lon="11.890420174062927"><ele>1.0</ele><time>2026-04-19T15:41:23Z</time></trkpt><trkpt lat="44.750639612531415" lon="11.89023636818419"><ele>1.0</ele><time>2026-04-19T15:41:24Z</time></trkpt><trkpt lat="44.750629382397555" lon="11.890042693822746"><ele>1.0</ele><time>2026-04-19T15:41:25Z</time></trkpt><trkpt lat="44.7506209790289" lon="11.889849308684843"><ele>1.0</ele><time>2026-04-19T15:41:26Z</time></trkpt><trkpt lat="44.750616135116005" lon="11.889659042984647"><ele>1.0</ele><time>2026-04-19T15:41:27Z</time></trkpt><trkpt lat="44.75060637847844" lon="11.889471836988605"><ele>1.0</ele><time>2026-04-19T15:41:28Z</time></trkpt><trkpt lat="44.750602059813275" lon="11.889291704651685"><ele>1.0</ele><time>2026-04-19T15:41:29Z</time></trkpt><trkpt lat="44.75059334180861" lon="11.889103755778596"><ele>1.0</ele><time>2026-04-19T15:41:30Z</time></trkpt><trkpt lat="44.75058954744708" lon="11.888918908426295"><ele>1.0</ele><time>2026-04-19T15:41:31Z</time></trkpt><trkpt lat="44.7505832148761" lon="11.88873588171373"><ele>1.0</ele><time>2026-04-19T15:41:32Z</time></trkpt><trkpt lat="44.75058066418428" lon="11.888549883517758"><ele>1.0</ele><time>2026-04-19T15:41:33Z</time></trkpt><trkpt lat="44.750574245319704" lon="11.888369662986102"><ele>1.0</ele><time>2026-04-19T15:41:34Z</time></trkpt><trkpt lat="44.75056966605873" lon="11.888187201258576"><ele>0.8</ele><time>2026-04-19T15:41:35Z</time></trkpt><trkpt lat="44.7505663836504" lon="11.88802728665942"><ele>0.6000000000000001</ele><time>2026-04-19T15:41:36Z</time></trkpt><trkpt lat="44.75056233038401" lon="11.887878878909198"><ele>0.4</ele><time>2026-04-19T15:41:37Z</time></trkpt><trkpt lat="44.7505590754285" lon="11.887750331852512"><ele>0.2</ele><time>2026-04-19T15:41:38Z</time></trkpt><trkpt lat="44.75055561520745" lon="11.887639413780452"><ele>0.0</ele><time>2026-04-19T15:41:39Z</time></trkpt><trkpt lat="44.75055335769721" lon="11.8875336073275"><ele>0.0</ele><time>2026-04-19T15:41:40Z</time></trkpt><trkpt lat="44.750547236217095" lon="11.887432964906013"><ele>0.0</ele><time>2026-04-19T15:41:41Z</time></trkpt><trkpt lat="44.750543606246026" lon="11.887258211136938"><ele>0.0</ele><time>2026-04-19T15:41:43Z</time></trkpt><trkpt lat="44.75053862083479" lon="11.887168301352936"><ele>0.0</ele><time>2026-04-19T15:41:44Z</time></trkpt><trkpt lat="44.750536512138055" lon="11.88707562022698"><ele>0.0</ele><time>2026-04-19T15:41:45Z</time></trkpt><trkpt lat="44.75053769952483" lon="11.886978107680143"><ele>0.0</ele><time>2026-04-19T15:41:46Z</time></trkpt><trkpt lat="44.75053799000679" lon="11.886871011607026"><ele>0.0</ele><time>2026-04-19T15:41:47Z</time></trkpt><trkpt lat="44.75054254150221" lon="11.88676496968601"><ele>0.0</ele><time>2026-04-19T15:41:48Z</time></trkpt><trkpt lat="44.75054501440165" lon="11.88665548010108"><ele>0.0</ele><time>2026-04-19T15:41:48.999Z</time></trkpt><trkpt lat="44.750550437892606" lon="11.886553159725473"><ele>0.0</ele><time>2026-04-19T15:41:49.999Z</time></trkpt><trkpt lat="44.75055507076133" lon="11.886450375595022"><ele>0.0</ele><time>2026-04-19T15:41:50.999Z</time></trkpt><trkpt lat="44.75055684355944" lon="11.886345332915628"><ele>0.0</ele><time>2026-04-19T15:41:52Z</time></trkpt><trkpt lat="44.750562474458356" lon="11.88622792126654"><ele>0.0</ele><time>2026-04-19T15:41:53Z</time></trkpt><trkpt lat="44.750569703040945" lon="11.886099682588405"><ele>0.0</ele><time>2026-04-19T15:41:54Z</time></trkpt><trkpt lat="44.75057738476748" lon="11.885964408578218"><ele>0.0</ele><time>2026-04-19T15:41:55Z</time></trkpt><trkpt lat="44.750588150789504" lon="11.885828173088363"><ele>0.0</ele><time>2026-04-19T15:41:56Z</time></trkpt><trkpt lat="44.750589090458455" lon="11.885679391607262"><ele>0.0</ele><time>2026-04-19T15:41:57Z</time></trkpt><trkpt lat="44.750594132570754" lon="11.88552448434035"><ele>0.2</ele><time>2026-04-19T15:41:58Z</time></trkpt><trkpt lat="44.750598415868616" lon="11.885364179917"><ele>0.4</ele><time>2026-04-19T15:41:59Z</time></trkpt><trkpt lat="44.75060195325956" lon="11.885212878567085"><ele>0.6000000000000001</ele><time>2026-04-19T15:42:00Z</time></trkpt><trkpt lat="44.75061205021453" lon="11.885059654897892"><ele>0.8</ele><time>2026-04-19T15:42:01Z</time></trkpt><trkpt lat="44.75062057920326" lon="11.884898195694385"><ele>1.0</ele><time>2026-04-19T15:42:02Z</time></trkpt><trkpt lat="44.75062756029617" lon="11.884735421964145"><ele>1.0</ele><time>2026-04-19T15:42:03Z</time></trkpt><trkpt lat="44.75063406291882" lon="11.884570470066596"><ele>1.0</ele><time>2026-04-19T15:42:04Z</time></trkpt><trkpt lat="44.7506410238434" lon="11.884405063969027"><ele>1.0</ele><time>2026-04-19T15:42:05Z</time></trkpt><trkpt lat="44.75064684834365" lon="11.884240654637747"><ele>1.0</ele><time>2026-04-19T15:42:06Z</time></trkpt><trkpt lat="44.750652322531806" lon="11.884074325340725"><ele>1.0</ele><time>2026-04-19T15:42:07Z</time></trkpt><trkpt lat="44.7506557445463" lon="11.883904637202972"><ele>1.0</ele><time>2026-04-19T15:42:08Z</time></trkpt><trkpt lat="44.75065711160281" lon="11.883726090977708"><ele>1.0</ele><time>2026-04-19T15:42:09Z</time></trkpt><trkpt lat="44.750654243173926" lon="11.883551279108918"><ele>1.0</ele><time>2026-04-19T15:42:10Z</time></trkpt><trkpt lat="44.75065218896954" lon="11.883378438082879"><ele>1.0</ele><time>2026-04-19T15:42:11Z</time></trkpt><trkpt lat="44.75064683878859" lon="11.88320706981299"><ele>1.0</ele><time>2026-04-19T15:42:12Z</time></trkpt><trkpt lat="44.75064260047203" lon="11.883034325932046"><ele>1.0</ele><time>2026-04-19T15:42:13Z</time></trkpt><trkpt lat="44.7506459699605" lon="11.882859481917196"><ele>1.0</ele><time>2026-04-19T15:42:14Z</time></trkpt><trkpt lat="44.750650331059845" lon="11.882679193178918"><ele>1.0</ele><time>2026-04-19T15:42:15Z</time></trkpt><trkpt lat="44.75065699279028" lon="11.882492051519117"><ele>1.0</ele><time>2026-04-19T15:42:16Z</time></trkpt><trkpt lat="44.75066441611371" lon="11.882304625657696"><ele>1.0</ele><time>2026-04-19T15:42:17Z</time></trkpt><trkpt lat="44.75067494668392" lon="11.88210277831115"><ele>1.0</ele><time>2026-04-19T15:42:18Z</time></trkpt><trkpt lat="44.75068535144091" lon="11.88189766542063"><ele>1.0</ele><time>2026-04-19T15:42:19Z</time></trkpt><trkpt lat="44.75069933255107" lon="11.881705328564934"><ele>1.0</ele><time>2026-04-19T15:42:20Z</time></trkpt><trkpt lat="44.75071819105387" lon="11.881506110466995"><ele>1.0</ele><time>2026-04-19T15:42:21Z</time></trkpt><trkpt lat="44.75074200697676" lon="11.88129479750587"><ele>1.0</ele><time>2026-04-19T15:42:22Z</time></trkpt><trkpt lat="44.750766469214625" lon="11.881088611544666"><ele>1.25</ele><time>2026-04-19T15:42:23Z</time></trkpt><trkpt lat="44.75078456859563" lon="11.880882651093094"><ele>1.5</ele><time>2026-04-19T15:42:24Z</time></trkpt><trkpt lat="44.75081119527795" lon="11.88068744716749"><ele>1.75</ele><time>2026-04-19T15:42:25Z</time></trkpt><trkpt lat="44.750835003362106" lon="11.880486762801075"><ele>2.0</ele><time>2026-04-19T15:42:26Z</time></trkpt><trkpt lat="44.750858542884245" lon="11.880295136153912"><ele>2.0</ele><time>2026-04-19T15:42:27Z</time></trkpt><trkpt lat="44.750883715102866" lon="11.880116218729311"><ele>2.0</ele><time>2026-04-19T15:42:28Z</time></trkpt><trkpt lat="44.750911008993306" lon="11.879940632714876"><ele>2.0</ele><time>2026-04-19T15:42:29Z</time></trkpt><trkpt lat="44.75094417724852" lon="11.879765226736698"><ele>2.0</ele><time>2026-04-19T15:42:30Z</time></trkpt><trkpt lat="44.75098617200361" lon="11.879587613101261"><ele>1.75</ele><time>2026-04-19T15:42:31Z</time></trkpt><trkpt lat="44.751034614072296" lon="11.87942370011288"><ele>1.5</ele><time>2026-04-19T15:42:32Z</time></trkpt><trkpt lat="44.751082839360386" lon="11.879268000315045"><ele>1.25</ele><time>2026-04-19T15:42:33Z</time></trkpt><trkpt lat="44.75113396203693" lon="11.879107775003241"><ele>1.0</ele><time>2026-04-19T15:42:34Z</time></trkpt><trkpt lat="44.75118061086115" lon="11.878960494571478"><ele>0.5</ele><time>2026-04-19T15:42:35Z</time></trkpt><trkpt lat="44.75122846078397" lon="11.878806049347654"><ele>0.0</ele><time>2026-04-19T15:42:36Z</time></trkpt><trkpt lat="44.751268749411416" lon="11.878644405191745"><ele>-0.5</ele><time>2026-04-19T15:42:37Z</time></trkpt><trkpt lat="44.75130048662802" lon="11.878492621557427"><ele>-1.0</ele><time>2026-04-19T15:42:38Z</time></trkpt><trkpt lat="44.75132018085954" lon="11.878344841022235"><ele>-1.0</ele><time>2026-04-19T15:42:39Z</time></trkpt><trkpt lat="44.75133006553588" lon="11.878192918965611"><ele>-1.0</ele><time>2026-04-19T15:42:40Z</time></trkpt><trkpt lat="44.75132973964519" lon="11.87804338492278"><ele>-1.0</ele><time>2026-04-19T15:42:41Z</time></trkpt><trkpt lat="44.7513217090448" lon="11.87788896758316"><ele>-1.0</ele><time>2026-04-19T15:42:42Z</time></trkpt><trkpt lat="44.75130180010023" lon="11.877733772116914"><ele>-1.0</ele><time>2026-04-19T15:42:43Z</time></trkpt><trkpt lat="44.75127081892422" lon="11.877566531054708"><ele>-0.5</ele><time>2026-04-19T15:42:44Z</time></trkpt><trkpt lat="44.751228515920275" lon="11.877393558621536"><ele>0.0</ele><time>2026-04-19T15:42:45Z</time></trkpt><trkpt lat="44.751175147139335" lon="11.877214984247791"><ele>0.5</ele><time>2026-04-19T15:42:46Z</time></trkpt><trkpt lat="44.75111416106536" lon="11.877042849023864"><ele>1.0</ele><time>2026-04-19T15:42:47Z</time></trkpt><trkpt lat="44.75104695073855" lon="11.87686371439811"><ele>1.25</ele><time>2026-04-19T15:42:48Z</time></trkpt><trkpt lat="44.75098545551847" lon="11.876680656761625"><ele>1.5</ele><time>2026-04-19T15:42:49Z</time></trkpt><trkpt lat="44.750921120355876" lon="11.87649628221187"><ele>1.75</ele><time>2026-04-19T15:42:50Z</time></trkpt><trkpt lat="44.750858364578406" lon="11.876320577690283"><ele>2.0</ele><time>2026-04-19T15:42:51Z</time></trkpt><trkpt lat="44.75079803102743" lon="11.876146147259151"><ele>2.0</ele><time>2026-04-19T15:42:52Z</time></trkpt><trkpt lat="44.75073468305914" lon="11.875968963354746"><ele>2.0</ele><time>2026-04-19T15:42:53Z</time></trkpt><trkpt lat="44.75067090151104" lon="11.875789777933056"><ele>2.0</ele><time>2026-04-19T15:42:54Z</time></trkpt><trkpt lat="44.75060226460181" lon="11.875606849273016"><ele>2.0</ele><time>2026-04-19T15:42:55Z</time></trkpt><trkpt lat="44.75052810990771" lon="11.875416615517333"><ele>2.0</ele><time>2026-04-19T15:42:56Z</time></trkpt><trkpt lat="44.75045802064459" lon="11.87523306351136"><ele>2.0</ele><time>2026-04-19T15:42:57Z</time></trkpt><trkpt lat="44.75039219064529" lon="11.875059709667108"><ele>2.0</ele><time>2026-04-19T15:42:58Z</time></trkpt><trkpt lat="44.75033705330716" lon="11.874910941055498"><ele>2.0</ele><time>2026-04-19T15:42:59Z</time></trkpt><trkpt lat="44.75026644372784" lon="11.874746230569398"><ele>1.75</ele><time>2026-04-19T15:43:00Z</time></trkpt><trkpt lat="44.750198581007446" lon="11.874567845411756"><ele>1.5</ele><time>2026-04-19T15:43:01Z</time></trkpt><trkpt lat="44.75012735886654" lon="11.874407794822163"><ele>1.25</ele><time>2026-04-19T15:43:02Z</time></trkpt><trkpt lat="44.750048769028794" lon="11.874258062100598"><ele>1.0</ele><time>2026-04-19T15:43:03Z</time></trkpt><trkpt lat="44.749964953664964" lon="11.87412071648152"><ele>1.0</ele><time>2026-04-19T15:43:04Z</time></trkpt><trkpt lat="44.74986486099356" lon="11.873978798442193"><ele>1.0</ele><time>2026-04-19T15:43:05Z</time></trkpt><trkpt lat="44.74976511467568" lon="11.873838567666581"><ele>1.0</ele><time>2026-04-19T15:43:06Z</time></trkpt><trkpt lat="44.74966560208295" lon="11.873698966113047"><ele>1.0</ele><time>2026-04-19T15:43:07Z</time></trkpt><trkpt lat="44.74957084202432" lon="11.87356503251002"><ele>0.5</ele><time>2026-04-19T15:43:08Z</time></trkpt><trkpt lat="44.749464144869776" lon="11.873436998768906"><ele>0.0</ele><time>2026-04-19T15:43:09Z</time></trkpt><trkpt lat="44.749359171251676" lon="11.873312440717642"><ele>-0.5</ele><time>2026-04-19T15:43:10Z</time></trkpt><trkpt lat="44.749256148505694" lon="11.87319388630088"><ele>-1.0</ele><time>2026-04-19T15:43:11Z</time></trkpt><trkpt lat="44.74915250404323" lon="11.873083185107447"><ele>-1.0</ele><time>2026-04-19T15:43:12Z</time></trkpt><trkpt lat="44.749046534459794" lon="11.872974750270872"><ele>-1.0</ele><time>2026-04-19T15:43:13Z</time></trkpt><trkpt lat="44.74893606476423" lon="11.87288468509629"><ele>-1.0</ele><time>2026-04-19T15:43:14Z</time></trkpt><trkpt lat="44.74880289374664" lon="11.872810537130817"><ele>-1.0</ele><time>2026-04-19T15:43:15Z</time></trkpt><trkpt lat="44.74867623961954" lon="11.872757676165506"><ele>-1.0</ele><time>2026-04-19T15:43:16Z</time></trkpt><trkpt lat="44.74854342580256" lon="11.872710271600752"><ele>-1.0</ele><time>2026-04-19T15:43:17Z</time></trkpt><trkpt lat="44.74840359184237" lon="11.872665645432821"><ele>-1.0</ele><time>2026-04-19T15:43:18Z</time></trkpt><trkpt lat="44.74826529556361" lon="11.87262390907748"><ele>-1.0</ele><time>2026-04-19T15:43:19Z</time></trkpt><trkpt lat="44.74812160764712" lon="11.87257279061876"><ele>-1.0</ele><time>2026-04-19T15:43:20Z</time></trkpt><trkpt lat="44.74797872658957" lon="11.872521755696065"><ele>-1.0</ele><time>2026-04-19T15:43:21Z</time></trkpt><trkpt lat="44.747822796133605" lon="11.872473039209378"><ele>-1.0</ele><time>2026-04-19T15:43:22Z</time></trkpt><trkpt lat="44.74768276378633" lon="11.87241301475472"><ele>-1.0</ele><time>2026-04-19T15:43:23Z</time></trkpt><trkpt lat="44.74754113184331" lon="11.872341615541984"><ele>-1.0</ele><time>2026-04-19T15:43:24Z</time></trkpt><trkpt lat="44.747400389287286" lon="11.872258062338162"><ele>-1.0</ele><time>2026-04-19T15:43:25Z</time></trkpt><trkpt lat="44.74726316653082" lon="11.872166501450682"><ele>-1.0</ele><time>2026-04-19T15:43:26Z</time></trkpt><trkpt lat="44.74712221110675" lon="11.872063266746327"><ele>-1.0</ele><time>2026-04-19T15:43:27Z</time></trkpt><trkpt lat="44.746982769182665" lon="11.87196512190242"><ele>-1.0</ele><time>2026-04-19T15:43:28Z</time></trkpt><trkpt lat="44.74684384533324" lon="11.871845247118674"><ele>-1.0</ele><time>2026-04-19T15:43:29Z</time></trkpt><trkpt lat="44.746704145353746" lon="11.87173624887695"><ele>-1.0</ele><time>2026-04-19T15:43:30Z</time></trkpt><trkpt lat="44.74655999143381" lon="11.871627021372003"><ele>-1.0</ele><time>2026-04-19T15:43:31Z</time></trkpt><trkpt lat="44.746421449409006" lon="11.87151516937585"><ele>-1.0</ele><time>2026-04-19T15:43:32Z</time></trkpt><trkpt lat="44.74628666834151" lon="11.871400948475605"><ele>-1.0</ele><time>2026-04-19T15:43:33Z</time></trkpt><trkpt lat="44.74614917599441" lon="11.871294360008385"><ele>-1.0</ele><time>2026-04-19T15:43:34Z</time></trkpt><trkpt lat="44.7460175983164" lon="11.871191103061843"><ele>-1.0</ele><time>2026-04-19T15:43:35Z</time></trkpt><trkpt lat="44.74588184165673" lon="11.871092894558437"><ele>-1.0</ele><time>2026-04-19T15:43:36Z</time></trkpt><trkpt lat="44.74577617185932" lon="11.8709833597141"><ele>-1.0</ele><time>2026-04-19T15:43:37Z</time></trkpt><trkpt lat="44.74566802046656" lon="11.870882284210456"><ele>-1.0</ele><time>2026-04-19T15:43:38Z</time></trkpt><trkpt lat="44.74556546772388" lon="11.870745240843469"><ele>-1.0</ele><time>2026-04-19T15:43:39Z</time></trkpt><trkpt lat="44.74547715127164" lon="11.870582135237264"><ele>-1.0</ele><time>2026-04-19T15:43:40Z</time></trkpt><trkpt lat="44.745361618819906" lon="11.870433574041835"><ele>-1.0</ele><time>2026-04-19T15:43:41Z</time></trkpt><trkpt lat="44.745261922906614" lon="11.870260726172326"><ele>-1.0</ele><time>2026-04-19T15:43:42Z</time></trkpt><trkpt lat="44.745141536609914" lon="11.870092399473657"><ele>-1.0</ele><time>2026-04-19T15:43:43Z</time></trkpt><trkpt lat="44.7450336469283" lon="11.869927029828599"><ele>-1.0</ele><time>2026-04-19T15:43:44Z</time></trkpt><trkpt lat="44.744934582429956" lon="11.869770346494803"><ele>-1.0</ele><time>2026-04-19T15:43:45Z</time></trkpt><trkpt lat="44.74482337468835" lon="11.869605144742497"><ele>-1.0</ele><time>2026-04-19T15:43:46Z</time></trkpt><trkpt lat="44.74472166742414" lon="11.869453125887294"><ele>-1.0</ele><time>2026-04-19T15:43:47Z</time></trkpt><trkpt lat="44.74462822785569" lon="11.86930481843566"><ele>-1.0</ele><time>2026-04-19T15:43:48Z</time></trkpt><trkpt lat="44.744544428059044" lon="11.869170587004747"><ele>-1.0</ele><time>2026-04-19T15:43:49Z</time></trkpt><trkpt lat="44.744475522724606" lon="11.869039207889022"><ele>-1.0</ele><time>2026-04-19T15:43:50Z</time></trkpt><trkpt lat="44.74440997734047" lon="11.868896395799673"><ele>-1.0</ele><time>2026-04-19T15:43:51Z</time></trkpt><trkpt lat="44.744364420642285" lon="11.86873578196049"><ele>-1.0</ele><time>2026-04-19T15:43:52Z</time></trkpt><trkpt lat="44.7443389280326" lon="11.868578849201478"><ele>-1.0</ele><time>2026-04-19T15:43:53Z</time></trkpt><trkpt lat="44.74431845026502" lon="11.868398938904065"><ele>-1.0</ele><time>2026-04-19T15:43:54Z</time></trkpt><trkpt lat="44.74431063881485" lon="11.86821673484955"><ele>-1.0</ele><time>2026-04-19T15:43:55Z</time></trkpt><trkpt lat="44.74431454637978" lon="11.868028115038353"><ele>-1.0</ele><time>2026-04-19T15:43:56Z</time></trkpt><trkpt lat="44.74433002717407" lon="11.867837641155424"><ele>-1.0</ele><time>2026-04-19T15:43:57Z</time></trkpt><trkpt lat="44.74435039222777" lon="11.867636067680381"><ele>-1.0</ele><time>2026-04-19T15:43:58Z</time></trkpt><trkpt lat="44.744384372887524" lon="11.86743742117418"><ele>-1.0</ele><time>2026-04-19T15:43:59Z</time></trkpt><trkpt lat="44.74441908145509" lon="11.867231439213642"><ele>-1.0</ele><time>2026-04-19T15:44:00Z</time></trkpt><trkpt lat="44.74445767405963" lon="11.86701591770075"><ele>-1.0</ele><time>2026-04-19T15:44:01Z</time></trkpt><trkpt lat="44.744504416193045" lon="11.866798260562938"><ele>-1.0</ele><time>2026-04-19T15:44:02Z</time></trkpt><trkpt lat="44.744551612956" lon="11.866567659032517"><ele>-1.0</ele><time>2026-04-19T15:44:03Z</time></trkpt><trkpt lat="44.74459930797329" lon="11.866344028939459"><ele>-1.0</ele><time>2026-04-19T15:44:04Z</time></trkpt><trkpt lat="44.74464373213494" lon="11.866115877040672"><ele>-1.0</ele><time>2026-04-19T15:44:05Z</time></trkpt><trkpt lat="44.7446897849002" lon="11.865892558778668"><ele>-1.0</ele><time>2026-04-19T15:44:06Z</time></trkpt><trkpt lat="44.74473326671507" lon="11.865672240702496"><ele>-1.0</ele><time>2026-04-19T15:44:07Z</time></trkpt><trkpt lat="44.74477854950881" lon="11.865443997009377"><ele>-1.0</ele><time>2026-04-19T15:44:08Z</time></trkpt><trkpt lat="44.74482336296879" lon="11.865223808657948"><ele>-1.0</ele><time>2026-04-19T15:44:09Z</time></trkpt><trkpt lat="44.74487281541482" lon="11.865001060369238"><ele>-1.0</ele><time>2026-04-19T15:44:10Z</time></trkpt><trkpt lat="44.7449113355235" lon="11.864789338827734"><ele>-1.0</ele><time>2026-04-19T15:44:11Z</time></trkpt><trkpt lat="44.74495240282374" lon="11.864575816533556"><ele>-1.0</ele><time>2026-04-19T15:44:12Z</time></trkpt><trkpt lat="44.744991684683086" lon="11.864363459184734"><ele>-1.0</ele><time>2026-04-19T15:44:13Z</time></trkpt><trkpt lat="44.74503647179987" lon="11.864153741821859"><ele>-1.0</ele><time>2026-04-19T15:44:14Z</time></trkpt><trkpt lat="44.745082529036" lon="11.863945377403216"><ele>-1.0</ele><time>2026-04-19T15:44:15Z</time></trkpt><trkpt lat="44.74512857008065" lon="11.863733914419495"><ele>-1.0</ele><time>2026-04-19T15:44:16Z</time></trkpt><trkpt lat="44.74517897370997" lon="11.863524463675603"><ele>-1.0</ele><time>2026-04-19T15:44:17Z</time></trkpt><trkpt lat="44.745232961385526" lon="11.863322647106287"><ele>-1.0</ele><time>2026-04-19T15:44:18Z</time></trkpt><trkpt lat="44.74530534044365" lon="11.86312964818026"><ele>-1.0</ele><time>2026-04-19T15:44:19Z</time></trkpt><trkpt lat="44.74537006735036" lon="11.86293191956234"><ele>-1.0</ele><time>2026-04-19T15:44:20Z</time></trkpt><trkpt lat="44.74544125534913" lon="11.862750494418137"><ele>-1.0</ele><time>2026-04-19T15:44:21Z</time></trkpt><trkpt lat="44.74551388210487" lon="11.862577209293697"><ele>-1.0</ele><time>2026-04-19T15:44:22Z</time></trkpt><trkpt lat="44.74556647291532" lon="11.86241317975592"><ele>-1.0</ele><time>2026-04-19T15:44:23Z</time></trkpt><trkpt lat="44.74562112031292" lon="11.862251324163717"><ele>-1.0</ele><time>2026-04-19T15:44:24Z</time></trkpt><trkpt lat="44.74566816371494" lon="11.862092012748684"><ele>-1.0</ele><time>2026-04-19T15:44:25Z</time></trkpt><trkpt lat="44.74570832403215" lon="11.861924330231085"><ele>-1.0</ele><time>2026-04-19T15:44:26Z</time></trkpt><trkpt lat="44.74571929552768" lon="11.861741450257387"><ele>-1.0</ele><time>2026-04-19T15:44:27Z</time></trkpt><trkpt lat="44.745713551196985" lon="11.861560492765378"><ele>-1.0</ele><time>2026-04-19T15:44:28Z</time></trkpt><trkpt lat="44.745692585428785" lon="11.861363251339823"><ele>-1.75</ele><time>2026-04-19T15:44:29Z</time></trkpt><trkpt lat="44.745679976788125" lon="11.86116449610403"><ele>-2.5</ele><time>2026-04-19T15:44:30Z</time></trkpt><trkpt lat="44.745669900559676" lon="11.860959484919356"><ele>-3.25</ele><time>2026-04-19T15:44:31Z</time></trkpt><trkpt lat="44.745653858744745" lon="11.860748077114629"><ele>-4.0</ele><time>2026-04-19T15:44:32Z</time></trkpt><trkpt lat="44.745641062172695" lon="11.860522481734982"><ele>-4.0</ele><time>2026-04-19T15:44:33Z</time></trkpt><trkpt lat="44.74562733977092" lon="11.860297948990725"><ele>-4.0</ele><time>2026-04-19T15:44:34Z</time></trkpt><trkpt lat="44.745612826067465" lon="11.860056205693807"><ele>-4.0</ele><time>2026-04-19T15:44:35Z</time></trkpt><trkpt lat="44.745597989855106" lon="11.859818620348095"><ele>-3.6666666666666665</ele><time>2026-04-19T15:44:36Z</time></trkpt><trkpt lat="44.74558331397842" lon="11.859582800411017"><ele>-3.333333333333333</ele><time>2026-04-19T15:44:37Z</time></trkpt><trkpt lat="44.74557142167382" lon="11.859346331861296"><ele>-3.0</ele><time>2026-04-19T15:44:38Z</time></trkpt><trkpt lat="44.7455563762826" lon="11.859114807833354"><ele>-2.6666666666666665</ele><time>2026-04-19T15:44:39Z</time></trkpt><trkpt lat="44.74554404766993" lon="11.858892179574758"><ele>-2.333333333333333</ele><time>2026-04-19T15:44:40Z</time></trkpt><trkpt lat="44.74553024901124" lon="11.85866093762011"><ele>-2.0</ele><time>2026-04-19T15:44:41Z</time></trkpt><trkpt lat="44.745514290344744" lon="11.85843862249861"><ele>-1.3333333333333333</ele><time>2026-04-19T15:44:42Z</time></trkpt><trkpt lat="44.74550203043968" lon="11.858212633858429"><ele>-0.6666666666666666</ele><time>2026-04-19T15:44:43Z</time></trkpt><trkpt lat="44.74548777774364" lon="11.857990132708068"><ele>0.0</ele><time>2026-04-19T15:44:44Z</time></trkpt><trkpt lat="44.74547565558794" lon="11.857769003323927"><ele>-0.3333333333333333</ele><time>2026-04-19T15:44:45Z</time></trkpt><trkpt lat="44.74545969158764" lon="11.857545379110704"><ele>-0.6666666666666666</ele><time>2026-04-19T15:44:46Z</time></trkpt><trkpt lat="44.74544776046149" lon="11.857329462709613"><ele>-1.0</ele><time>2026-04-19T15:44:47Z</time></trkpt><trkpt lat="44.7454371426397" lon="11.857108137108963"><ele>-1.0</ele><time>2026-04-19T15:44:48Z</time></trkpt><trkpt lat="44.74542517599712" lon="11.856885678963648"><ele>-1.0</ele><time>2026-04-19T15:44:49Z</time></trkpt><trkpt lat="44.74541454140078" lon="11.856668077026763"><ele>-1.0</ele><time>2026-04-19T15:44:50Z</time></trkpt><trkpt lat="44.7453979537382" lon="11.85644610902297"><ele>-1.0</ele><time>2026-04-19T15:44:51Z</time></trkpt><trkpt lat="44.74538578658206" lon="11.856232707170888"><ele>-1.0</ele><time>2026-04-19T15:44:52Z</time></trkpt><trkpt lat="44.74538596393972" lon="11.856014853275763"><ele>-1.0</ele><time>2026-04-19T15:44:53Z</time></trkpt><trkpt lat="44.74537326359294" lon="11.855791447089256"><ele>-1.0</ele><time>2026-04-19T15:44:54Z</time></trkpt><trkpt lat="44.74536082788122" lon="11.855572696139737"><ele>-1.0</ele><time>2026-04-19T15:44:55Z</time></trkpt><trkpt lat="44.74533285501067" lon="11.85535638195621"><ele>-1.0</ele><time>2026-04-19T15:44:56Z</time></trkpt><trkpt lat="44.74532122978644" lon="11.855131620147683"><ele>-0.75</ele><time>2026-04-19T15:44:57Z</time></trkpt><trkpt lat="44.74531299818432" lon="11.85493112057846"><ele>-0.5</ele><time>2026-04-19T15:44:58Z</time></trkpt><trkpt lat="44.745303405097225" lon="11.854749504918672"><ele>-0.25</ele><time>2026-04-19T15:44:59Z</time></trkpt><trkpt lat="44.74529370474245" lon="11.854581262747956"><ele>0.0</ele><time>2026-04-19T15:45:00Z</time></trkpt><trkpt lat="44.745285004855695" lon="11.854431769577596"><ele>-0.4</ele><time>2026-04-19T15:45:01Z</time></trkpt><trkpt lat="44.74527778447232" lon="11.85428690167892"><ele>-0.8</ele><time>2026-04-19T15:45:02Z</time></trkpt><trkpt lat="44.74527193179055" lon="11.854154835656647"><ele>-1.2000000000000002</ele><time>2026-04-19T15:45:03Z</time></trkpt><trkpt lat="44.74526664920066" lon="11.85401508883722"><ele>-1.6</ele><time>2026-04-19T15:45:04Z</time></trkpt><trkpt lat="44.74525909129299" lon="11.853874201746903"><ele>-2.0</ele><time>2026-04-19T15:45:05Z</time></trkpt><trkpt lat="44.74524443445554" lon="11.853726503015285"><ele>-2.0</ele><time>2026-04-19T15:45:06Z</time></trkpt><trkpt lat="44.74522183699069" lon="11.853582834631766"><ele>-2.0</ele><time>2026-04-19T15:45:07Z</time></trkpt><trkpt lat="44.74519168726717" lon="11.853442757682775"><ele>-2.0</ele><time>2026-04-19T15:45:08Z</time></trkpt><trkpt lat="44.745131783870875" lon="11.85333078055381"><ele>-2.0</ele><time>2026-04-19T15:45:09Z</time></trkpt><trkpt lat="44.74504990542122" lon="11.85323514377145"><ele>-2.0</ele><time>2026-04-19T15:45:10Z</time></trkpt><trkpt lat="44.74495509009417" lon="11.853146738540824"><ele>-2.0</ele><time>2026-04-19T15:45:11Z</time></trkpt><trkpt lat="44.74485021569143" lon="11.853080424999767"><ele>-2.0</ele><time>2026-04-19T15:45:12Z</time></trkpt><trkpt lat="44.74472704327345" lon="11.853026277594095"><ele>-2.0</ele><time>2026-04-19T15:45:13Z</time></trkpt><trkpt lat="44.7445972607691" lon="11.852970198406988"><ele>-2.0</ele><time>2026-04-19T15:45:14Z</time></trkpt><trkpt lat="44.74446674647363" lon="11.852909511049905"><ele>-2.0</ele><time>2026-04-19T15:45:15Z</time></trkpt><trkpt lat="44.744339709087065" lon="11.852847806482345"><ele>-2.0</ele><time>2026-04-19T15:45:16Z</time></trkpt><trkpt lat="44.74420349556289" lon="11.852781302767866"><ele>-2.0</ele><time>2026-04-19T15:45:17Z</time></trkpt><trkpt lat="44.744062330990566" lon="11.852710563216776"><ele>-2.0</ele><time>2026-04-19T15:45:18Z</time></trkpt><trkpt lat="44.74391393506378" lon="11.852637140810305"><ele>-2.0</ele><time>2026-04-19T15:45:19Z</time></trkpt><trkpt lat="44.74376431151441" lon="11.852563091727529"><ele>-2.0</ele><time>2026-04-19T15:45:20Z</time></trkpt><trkpt lat="44.74361193116789" lon="11.852489939299701"><ele>-2.0</ele><time>2026-04-19T15:45:21Z</time></trkpt><trkpt lat="44.743463072005845" lon="11.852416554643213"><ele>-2.0</ele><time>2026-04-19T15:45:22Z</time></trkpt><trkpt lat="44.74330594768739" lon="11.852341185728397"><ele>-2.0</ele><time>2026-04-19T15:45:23Z</time></trkpt><trkpt lat="44.74315046315021" lon="11.852268531711907"><ele>-2.0</ele><time>2026-04-19T15:45:24Z</time></trkpt><trkpt lat="44.742993232714475" lon="11.852191601415054"><ele>-2.0</ele><time>2026-04-19T15:45:25Z</time></trkpt><trkpt lat="44.74284275123961" lon="11.852113175380191"><ele>-2.0</ele><time>2026-04-19T15:45:26Z</time></trkpt><trkpt lat="44.74268191615265" lon="11.852035019128992"><ele>-2.0</ele><time>2026-04-19T15:45:27Z</time></trkpt><trkpt lat="44.74252743188328" lon="11.851959493035492"><ele>-2.0</ele><time>2026-04-19T15:45:28Z</time></trkpt><trkpt lat="44.74237117374615" lon="11.851883956380334"><ele>-2.0</ele><time>2026-04-19T15:45:29Z</time></trkpt><trkpt lat="44.742215489986286" lon="11.851808523081448"><ele>-2.0</ele><time>2026-04-19T15:45:30Z</time></trkpt><trkpt lat="44.7420661312974" lon="11.85173631290908"><ele>-2.0</ele><time>2026-04-19T15:45:31Z</time></trkpt><trkpt lat="44.74191717956892" lon="11.851664486866936"><ele>-2.0</ele><time>2026-04-19T15:45:32Z</time></trkpt><trkpt lat="44.74176738850484" lon="11.851590569502799"><ele>-2.0</ele><time>2026-04-19T15:45:33Z</time></trkpt><trkpt lat="44.7416214401213" lon="11.851516252727578"><ele>-2.0</ele><time>2026-04-19T15:45:34Z</time></trkpt><trkpt lat="44.741470392423054" lon="11.851442240801521"><ele>-2.0</ele><time>2026-04-19T15:45:35Z</time></trkpt><trkpt lat="44.741323467652215" lon="11.851368697258991"><ele>-2.0</ele><time>2026-04-19T15:45:36Z</time></trkpt><trkpt lat="44.74117618414928" lon="11.851297490967715"><ele>-1.6666666666666665</ele><time>2026-04-19T15:45:37Z</time></trkpt><trkpt lat="44.74102414933675" lon="11.851231319626288"><ele>-1.3333333333333333</ele><time>2026-04-19T15:45:38Z</time></trkpt><trkpt lat="44.740879653267484" lon="11.851158874182644"><ele>-1.0</ele><time>2026-04-19T15:45:39Z</time></trkpt><trkpt lat="44.7407437360454" lon="11.85108968641583"><ele>-1.0</ele><time>2026-04-19T15:45:40Z</time></trkpt><trkpt lat="44.74061728965004" lon="11.851031312864336"><ele>-1.0</ele><time>2026-04-19T15:45:41Z</time></trkpt><trkpt lat="44.740506503042425" lon="11.850977354343787"><ele>-1.0</ele><time>2026-04-19T15:45:42Z</time></trkpt><trkpt lat="44.74040088729537" lon="11.850925357430317"><ele>-1.0</ele><time>2026-04-19T15:45:43Z</time></trkpt><trkpt lat="44.74029836088518" lon="11.850872499625769"><ele>-1.0</ele><time>2026-04-19T15:45:44Z</time></trkpt><trkpt lat="44.740209468823664" lon="11.850820458135527"><ele>-1.0</ele><time>2026-04-19T15:45:45Z</time></trkpt><trkpt lat="44.74013275089871" lon="11.850762012532496"><ele>-1.0</ele><time>2026-04-19T15:45:46Z</time></trkpt><trkpt lat="44.74005790112131" lon="11.850679571532039"><ele>-1.0</ele><time>2026-04-19T15:45:47Z</time></trkpt><trkpt lat="44.73998403082302" lon="11.85057136870966"><ele>-1.0</ele><time>2026-04-19T15:45:48Z</time></trkpt><trkpt lat="44.73991921682155" lon="11.850443800433581"><ele>-1.0</ele><time>2026-04-19T15:45:49Z</time></trkpt><trkpt lat="44.73987117766989" lon="11.850308899931845"><ele>-1.0</ele><time>2026-04-19T15:45:50Z</time></trkpt><trkpt lat="44.739842769623536" lon="11.850158033819282"><ele>-1.0</ele><time>2026-04-19T15:45:51Z</time></trkpt><trkpt lat="44.73982713370558" lon="11.849999174693854"><ele>-1.0</ele><time>2026-04-19T15:45:52Z</time></trkpt><trkpt lat="44.73983346542164" lon="11.84983325982175"><ele>-1.0</ele><time>2026-04-19T15:45:53Z</time></trkpt><trkpt lat="44.739846117569975" lon="11.849662256212849"><ele>-1.0</ele><time>2026-04-19T15:45:54Z</time></trkpt><trkpt lat="44.739867107192815" lon="11.849459579627622"><ele>-1.0</ele><time>2026-04-19T15:45:55Z</time></trkpt><trkpt lat="44.73988598431541" lon="11.849261510364478"><ele>-1.0</ele><time>2026-04-19T15:45:56Z</time></trkpt><trkpt lat="44.73990341330842" lon="11.849059449892481"><ele>-1.0</ele><time>2026-04-19T15:45:57Z</time></trkpt><trkpt lat="44.739924016130864" lon="11.848851990711736"><ele>-1.0</ele><time>2026-04-19T15:45:58Z</time></trkpt><trkpt lat="44.7399406421582" lon="11.848631277295661"><ele>-1.0</ele><time>2026-04-19T15:45:59Z</time></trkpt><trkpt lat="44.73995788460537" lon="11.84840650075094"><ele>-1.0</ele><time>2026-04-19T15:46:00Z</time></trkpt><trkpt lat="44.739976962789065" lon="11.848173399403757"><ele>-1.0</ele><time>2026-04-19T15:46:01Z</time></trkpt><trkpt lat="44.73999685165801" lon="11.847942283895078"><ele>-1.0</ele><time>2026-04-19T15:46:02Z</time></trkpt><trkpt lat="44.74001766333638" lon="11.847711453020082"><ele>-1.0</ele><time>2026-04-19T15:46:03Z</time></trkpt><trkpt lat="44.74003776614082" lon="11.84748663590683"><ele>-1.0</ele><time>2026-04-19T15:46:04Z</time></trkpt><trkpt lat="44.740056956853756" lon="11.847257591972705"><ele>-1.0</ele><time>2026-04-19T15:46:05Z</time></trkpt><trkpt lat="44.74007643130189" lon="11.847031653417895"><ele>-1.0</ele><time>2026-04-19T15:46:06Z</time></trkpt><trkpt lat="44.7400973966502" lon="11.846810432152882"><ele>-1.0</ele><time>2026-04-19T15:46:07Z</time></trkpt><trkpt lat="44.74011521988394" lon="11.846589001630692"><ele>-1.0</ele><time>2026-04-19T15:46:08Z</time></trkpt><trkpt lat="44.74013259529571" lon="11.846370397869299"><ele>-1.5</ele><time>2026-04-19T15:46:09Z</time></trkpt><trkpt lat="44.74015175018932" lon="11.846174767446811"><ele>-2.0</ele><time>2026-04-19T15:46:10Z</time></trkpt><trkpt lat="44.740166970441045" lon="11.845989403812123"><ele>-2.5</ele><time>2026-04-19T15:46:11Z</time></trkpt><trkpt lat="44.74018744937126" lon="11.845813282009349"><ele>-3.0</ele><time>2026-04-19T15:46:12Z</time></trkpt><trkpt lat="44.74020045550081" lon="11.845649545158977"><ele>-3.0</ele><time>2026-04-19T15:46:13Z</time></trkpt><trkpt lat="44.74021180417452" lon="11.845503480764785"><ele>-3.0</ele><time>2026-04-19T15:46:14Z</time></trkpt><trkpt lat="44.74021727992466" lon="11.845351548795145"><ele>-3.0</ele><time>2026-04-19T15:46:15Z</time></trkpt><trkpt lat="44.74021564468484" lon="11.845206497590171"><ele>-3.0</ele><time>2026-04-19T15:46:16Z</time></trkpt><trkpt lat="44.74020675948149" lon="11.845062863900944"><ele>-3.0</ele><time>2026-04-19T15:46:17Z</time></trkpt><trkpt lat="44.740163623624" lon="11.844916656326465"><ele>-2.75</ele><time>2026-04-19T15:46:18Z</time></trkpt><trkpt lat="44.740112605570154" lon="11.844776601212269"><ele>-2.5</ele><time>2026-04-19T15:46:19Z</time></trkpt><trkpt lat="44.74004756334733" lon="11.844639279034551"><ele>-2.25</ele><time>2026-04-19T15:46:20Z</time></trkpt><trkpt lat="44.73995645213729" lon="11.84450013400922"><ele>-2.0</ele><time>2026-04-19T15:46:21Z</time></trkpt><trkpt lat="44.7398560474652" lon="11.844367677509329"><ele>-1.75</ele><time>2026-04-19T15:46:22Z</time></trkpt><trkpt lat="44.73975752674225" lon="11.844229888346275"><ele>-1.5</ele><time>2026-04-19T15:46:23Z</time></trkpt><trkpt lat="44.73966053557023" lon="11.844088813638681"><ele>-1.25</ele><time>2026-04-19T15:46:24Z</time></trkpt><trkpt lat="44.7395623720357" lon="11.843941139933921"><ele>-1.0</ele><time>2026-04-19T15:46:25Z</time></trkpt><trkpt lat="44.7394611471358" lon="11.84379018704429"><ele>-0.6666666666666666</ele><time>2026-04-19T15:46:26Z</time></trkpt><trkpt lat="44.739353207106205" lon="11.843629957515661"><ele>-0.3333333333333333</ele><time>2026-04-19T15:46:27Z</time></trkpt><trkpt lat="44.73924726850737" lon="11.843463949773334"><ele>0.0</ele><time>2026-04-19T15:46:28Z</time></trkpt><trkpt lat="44.73915386988303" lon="11.843304399926415"><ele>0.0</ele><time>2026-04-19T15:46:29Z</time></trkpt><trkpt lat="44.73905412800837" lon="11.843132131632318"><ele>0.0</ele><time>2026-04-19T15:46:30Z</time></trkpt><trkpt lat="44.73896120159265" lon="11.84295870317719"><ele>0.0</ele><time>2026-04-19T15:46:31Z</time></trkpt><trkpt lat="44.73886250386467" lon="11.842793472267223"><ele>0.0</ele><time>2026-04-19T15:46:32Z</time></trkpt><trkpt lat="44.73878374560011" lon="11.842635519419911"><ele>0.0</ele><time>2026-04-19T15:46:33Z</time></trkpt><trkpt lat="44.73870128487063" lon="11.842486404775157"><ele>0.0</ele><time>2026-04-19T15:46:34Z</time></trkpt><trkpt lat="44.73861035589286" lon="11.842341138854048"><ele>0.0</ele><time>2026-04-19T15:46:35Z</time></trkpt><trkpt lat="44.73852120026814" lon="11.842200263536824"><ele>0.0</ele><time>2026-04-19T15:46:36Z</time></trkpt><trkpt lat="44.73841830781049" lon="11.842075966405467"><ele>0.0</ele><time>2026-04-19T15:46:37Z</time></trkpt><trkpt lat="44.73830954060969" lon="11.841957967509883"><ele>0.0</ele><time>2026-04-19T15:46:38Z</time></trkpt><trkpt lat="44.73819254945756" lon="11.841843931844979"><ele>0.0</ele><time>2026-04-19T15:46:39Z</time></trkpt><trkpt lat="44.73808077259762" lon="11.841725725630276"><ele>0.0</ele><time>2026-04-19T15:46:40Z</time></trkpt><trkpt lat="44.73796605086611" lon="11.841607802217355"><ele>0.0</ele><time>2026-04-19T15:46:41Z</time></trkpt><trkpt lat="44.73785456340359" lon="11.841493400587625"><ele>0.0</ele><time>2026-04-19T15:46:42Z</time></trkpt><trkpt lat="44.737741272060944" lon="11.841382875799157"><ele>0.0</ele><time>2026-04-19T15:46:43Z</time></trkpt><trkpt lat="44.737626281934986" lon="11.841286050189026"><ele>0.5</ele><time>2026-04-19T15:46:44Z</time></trkpt><trkpt lat="44.73749945448941" lon="11.84120278301588"><ele>1.0</ele><time>2026-04-19T15:46:45Z</time></trkpt><trkpt lat="44.737371639481346" lon="11.841131420298632"><ele>1.5</ele><time>2026-04-19T15:46:46Z</time></trkpt><trkpt lat="44.73724156446655" lon="11.841063915066675"><ele>2.0</ele><time>2026-04-19T15:46:47Z</time></trkpt><trkpt lat="44.737111072408204" lon="11.840983935345118"><ele>1.75</ele><time>2026-04-19T15:46:48Z</time></trkpt><trkpt lat="44.73698306653297" lon="11.840899058152718"><ele>1.5</ele><time>2026-04-19T15:46:49Z</time></trkpt><trkpt lat="44.736863967752655" lon="11.840800162720834"><ele>1.25</ele><time>2026-04-19T15:46:50Z</time></trkpt><trkpt lat="44.73674116738496" lon="11.840686641203156"><ele>1.0</ele><time>2026-04-19T15:46:51Z</time></trkpt><trkpt lat="44.73662197314502" lon="11.840570981434988"><ele>1.0</ele><time>2026-04-19T15:46:52Z</time></trkpt><trkpt lat="44.736489262976896" lon="11.84046001931398"><ele>1.0</ele><time>2026-04-19T15:46:53Z</time></trkpt><trkpt lat="44.73636718464325" lon="11.840328868840006"><ele>1.0</ele><time>2026-04-19T15:46:54Z</time></trkpt><trkpt lat="44.73624156340805" lon="11.84021162925245"><ele>0.6666666666666666</ele><time>2026-04-19T15:46:55Z</time></trkpt><trkpt lat="44.73610440514206" lon="11.840098459510259"><ele>0.3333333333333333</ele><time>2026-04-19T15:46:56Z</time></trkpt><trkpt lat="44.735983106386826" lon="11.839976432101343"><ele>0.0</ele><time>2026-04-19T15:46:57Z</time></trkpt><trkpt lat="44.73586365400124" lon="11.839851611884104"><ele>0.0</ele><time>2026-04-19T15:46:58Z</time></trkpt><trkpt lat="44.735741318031266" lon="11.839729143164101"><ele>0.0</ele><time>2026-04-19T15:46:59Z</time></trkpt><trkpt lat="44.73561748707259" lon="11.839607621885074"><ele>0.0</ele><time>2026-04-19T15:47:00Z</time></trkpt><trkpt lat="44.73549807677508" lon="11.839490312293874"><ele>0.0</ele><time>2026-04-19T15:47:01Z</time></trkpt><trkpt lat="44.7353804642964" lon="11.839374601858923"><ele>0.0</ele><time>2026-04-19T15:47:02Z</time></trkpt><trkpt lat="44.735259569562366" lon="11.839251831048328"><ele>0.0</ele><time>2026-04-19T15:47:03Z</time></trkpt><trkpt lat="44.735137768112445" lon="11.839131301308196"><ele>0.0</ele><time>2026-04-19T15:47:04Z</time></trkpt><trkpt lat="44.735018044985736" lon="11.839013745724932"><ele>0.0</ele><time>2026-04-19T15:47:05Z</time></trkpt><trkpt lat="44.73489986996082" lon="11.838896840698611"><ele>0.0</ele><time>2026-04-19T15:47:06Z</time></trkpt><trkpt lat="44.73478405720999" lon="11.838779630642332"><ele>0.0</ele><time>2026-04-19T15:47:07Z</time></trkpt><trkpt lat="44.73466391791798" lon="11.83866103874298"><ele>0.0</ele><time>2026-04-19T15:47:08Z</time></trkpt><trkpt lat="44.73454261280646" lon="11.83852975327144"><ele>0.0</ele><time>2026-04-19T15:47:09Z</time></trkpt><trkpt lat="44.73442450507132" lon="11.838407336967345"><ele>0.0</ele><time>2026-04-19T15:47:10Z</time></trkpt><trkpt lat="44.734307856649174" lon="11.838291851706376"><ele>0.0</ele><time>2026-04-19T15:47:11Z</time></trkpt><trkpt lat="44.73418942768012" lon="11.838171292872675"><ele>0.0</ele><time>2026-04-19T15:47:12Z</time></trkpt><trkpt lat="44.734077848050724" lon="11.838054290096041"><ele>0.0</ele><time>2026-04-19T15:47:13Z</time></trkpt><trkpt lat="44.73397443747264" lon="11.837939468871127"><ele>0.0</ele><time>2026-04-19T15:47:14Z</time></trkpt><trkpt lat="44.733884229225936" lon="11.837834544682169"><ele>0.0</ele><time>2026-04-19T15:47:15Z</time></trkpt><trkpt lat="44.73380093062279" lon="11.837732999421567"><ele>0.0</ele><time>2026-04-19T15:47:16Z</time></trkpt><trkpt lat="44.73371844180114" lon="11.837620355819013"><ele>0.0</ele><time>2026-04-19T15:47:17Z</time></trkpt><trkpt lat="44.73364167678779" lon="11.837496087190125"><ele>0.0</ele><time>2026-04-19T15:47:18Z</time></trkpt><trkpt lat="44.733568612580626" lon="11.837362817768533"><ele>0.0</ele><time>2026-04-19T15:47:19Z</time></trkpt><trkpt lat="44.73350072384386" lon="11.837215805130466"><ele>0.0</ele><time>2026-04-19T15:47:20Z</time></trkpt><trkpt lat="44.73345294653878" lon="11.83703856768316"><ele>0.0</ele><time>2026-04-19T15:47:21Z</time></trkpt><trkpt lat="44.73341323756435" lon="11.836874042237229"><ele>-0.4</ele><time>2026-04-19T15:47:22Z</time></trkpt><trkpt lat="44.733369132450825" lon="11.836723438823944"><ele>-0.8</ele><time>2026-04-19T15:47:23Z</time></trkpt><trkpt lat="44.73331652768863" lon="11.83660023522544"><ele>-1.2000000000000002</ele><time>2026-04-19T15:47:24Z</time></trkpt><trkpt lat="44.73326231798028" lon="11.83648642419025"><ele>-1.6</ele><time>2026-04-19T15:47:25Z</time></trkpt><trkpt lat="44.733186733765855" lon="11.836371812261874"><ele>-2.0</ele><time>2026-04-19T15:47:26Z</time></trkpt><trkpt lat="44.73309281437179" lon="11.836259120073922"><ele>-2.0</ele><time>2026-04-19T15:47:27Z</time></trkpt><trkpt lat="44.73299000056696" lon="11.83614836360367"><ele>-2.0</ele><time>2026-04-19T15:47:28Z</time></trkpt><trkpt lat="44.732886010362" lon="11.83603883327427"><ele>-2.0</ele><time>2026-04-19T15:47:29Z</time></trkpt><trkpt lat="44.73278873247949" lon="11.835914233500501"><ele>-2.0</ele><time>2026-04-19T15:47:30Z</time></trkpt><trkpt lat="44.732692575433724" lon="11.835785561653259"><ele>-1.75</ele><time>2026-04-19T15:47:31Z</time></trkpt><trkpt lat="44.73260478756041" lon="11.835637154491284"><ele>-1.5</ele><time>2026-04-19T15:47:32Z</time></trkpt><trkpt lat="44.732516267438946" lon="11.835472992821344"><ele>-1.25</ele><time>2026-04-19T15:47:33Z</time></trkpt><trkpt lat="44.7324315511873" lon="11.835307164927881"><ele>-1.0</ele><time>2026-04-19T15:47:34Z</time></trkpt><trkpt lat="44.73235100176665" lon="11.835133960767058"><ele>-1.0</ele><time>2026-04-19T15:47:35Z</time></trkpt><trkpt lat="44.73227429614556" lon="11.834959156217852"><ele>-1.0</ele><time>2026-04-19T15:47:36Z</time></trkpt><trkpt lat="44.73219597544078" lon="11.834778689725498"><ele>-1.0</ele><time>2026-04-19T15:47:37Z</time></trkpt><trkpt lat="44.73211899473833" lon="11.834597656058028"><ele>-1.0</ele><time>2026-04-19T15:47:38Z</time></trkpt><trkpt lat="44.73204229967389" lon="11.8344173416788"><ele>-1.25</ele><time>2026-04-19T15:47:39Z</time></trkpt><trkpt lat="44.73196280729752" lon="11.834234762128252"><ele>-1.5</ele><time>2026-04-19T15:47:40Z</time></trkpt><trkpt lat="44.7318858711166" lon="11.834058459696232"><ele>-1.75</ele><time>2026-04-19T15:47:41Z</time></trkpt><trkpt lat="44.7318152387914" lon="11.833899597473502"><ele>-2.0</ele><time>2026-04-19T15:47:42Z</time></trkpt><trkpt lat="44.731751742501444" lon="11.833758891927152"><ele>-2.0</ele><time>2026-04-19T15:47:43Z</time></trkpt><trkpt lat="44.73168230875375" lon="11.83361421181495"><ele>-2.0</ele><time>2026-04-19T15:47:44Z</time></trkpt><trkpt lat="44.73160762242783" lon="11.833467417788775"><ele>-2.0</ele><time>2026-04-19T15:47:45Z</time></trkpt><trkpt lat="44.731516363860564" lon="11.833317091020529"><ele>-2.0</ele><time>2026-04-19T15:47:46Z</time></trkpt><trkpt lat="44.73141509331895" lon="11.833183732759762"><ele>-2.0</ele><time>2026-04-19T15:47:47Z</time></trkpt><trkpt lat="44.73130712231694" lon="11.833053164146852"><ele>-2.0</ele><time>2026-04-19T15:47:48Z</time></trkpt><trkpt lat="44.731191178472166" lon="11.832928484372516"><ele>-2.0</ele><time>2026-04-19T15:47:49Z</time></trkpt><trkpt lat="44.73106917445656" lon="11.832802342145772"><ele>-2.0</ele><time>2026-04-19T15:47:50Z</time></trkpt><trkpt lat="44.73094203335757" lon="11.832680069794222"><ele>-2.0</ele><time>2026-04-19T15:47:51Z</time></trkpt><trkpt lat="44.73081331177624" lon="11.832558409276713"><ele>-2.0</ele><time>2026-04-19T15:47:52Z</time></trkpt><trkpt lat="44.73067982337" lon="11.832445087030868"><ele>-2.0</ele><time>2026-04-19T15:47:53Z</time></trkpt><trkpt lat="44.73054259817633" lon="11.83234083954734"><ele>-2.0</ele><time>2026-04-19T15:47:54Z</time></trkpt><trkpt lat="44.730402608677345" lon="11.83223005459288"><ele>-2.0</ele><time>2026-04-19T15:47:55Z</time></trkpt><trkpt lat="44.7302683964219" lon="11.83211727201099"><ele>-2.0</ele><time>2026-04-19T15:47:56Z</time></trkpt><trkpt lat="44.730132644106334" lon="11.831995075659066"><ele>-1.6666666666666665</ele><time>2026-04-19T15:47:57Z</time></trkpt><trkpt lat="44.73001673167676" lon="11.83187529352203"><ele>-1.3333333333333333</ele><time>2026-04-19T15:47:58Z</time></trkpt><trkpt lat="44.72986717337631" lon="11.831735956869597"><ele>-1.0</ele><time>2026-04-19T15:47:59Z</time></trkpt><trkpt lat="44.72974097130754" lon="11.83160411682641"><ele>-1.0</ele><time>2026-04-19T15:48:00Z</time></trkpt><trkpt lat="44.72962112129831" lon="11.831473968719463"><ele>-1.0</ele><time>2026-04-19T15:48:01Z</time></trkpt><trkpt lat="44.72950607260836" lon="11.831347258230869"><ele>-1.0</ele><time>2026-04-19T15:48:02Z</time></trkpt><trkpt lat="44.729387450082854" lon="11.831212661166806"><ele>-1.0</ele><time>2026-04-19T15:48:03Z</time></trkpt><trkpt lat="44.729269819573204" lon="11.831066148956314"><ele>-1.0</ele><time>2026-04-19T15:48:04Z</time></trkpt><trkpt lat="44.729163439546625" lon="11.830914592783769"><ele>-1.0</ele><time>2026-04-19T15:48:05Z</time></trkpt><trkpt lat="44.72906525868364" lon="11.830761179155527"><ele>-1.0</ele><time>2026-04-19T15:48:06Z</time></trkpt><trkpt lat="44.72896237796308" lon="11.830610424302948"><ele>-1.0</ele><time>2026-04-19T15:48:07Z</time></trkpt><trkpt lat="44.7288503510567" lon="11.830471883719577"><ele>-1.0</ele><time>2026-04-19T15:48:08Z</time></trkpt><trkpt lat="44.728724332649726" lon="11.830345791057178"><ele>-1.0</ele><time>2026-04-19T15:48:09Z</time></trkpt><trkpt lat="44.72859400132371" lon="11.830224513943445"><ele>-1.0</ele><time>2026-04-19T15:48:10Z</time></trkpt><trkpt lat="44.72846451939532" lon="11.830097392046195"><ele>-1.0</ele><time>2026-04-19T15:48:11Z</time></trkpt><trkpt lat="44.72832684823952" lon="11.829964857287656"><ele>-0.6666666666666666</ele><time>2026-04-19T15:48:12Z</time></trkpt><trkpt lat="44.72819471310648" lon="11.829836559286365"><ele>-0.3333333333333333</ele><time>2026-04-19T15:48:13Z</time></trkpt><trkpt lat="44.728062114966555" lon="11.829712893874158"><ele>0.0</ele><time>2026-04-19T15:48:14Z</time></trkpt><trkpt lat="44.72792359540152" lon="11.829588885262956"><ele>0.0</ele><time>2026-04-19T15:48:15Z</time></trkpt><trkpt lat="44.72778467735408" lon="11.829479445803184"><ele>0.0</ele><time>2026-04-19T15:48:16Z</time></trkpt><trkpt lat="44.72763849320039" lon="11.829368083562246"><ele>0.0</ele><time>2026-04-19T15:48:17Z</time></trkpt><trkpt lat="44.727498388669915" lon="11.829256182977595"><ele>-0.3333333333333333</ele><time>2026-04-19T15:48:18Z</time></trkpt><trkpt lat="44.72735514804576" lon="11.829146740934593"><ele>-0.6666666666666666</ele><time>2026-04-19T15:48:19Z</time></trkpt><trkpt lat="44.72721869193111" lon="11.829031199267993"><ele>-1.0</ele><time>2026-04-19T15:48:20Z</time></trkpt><trkpt lat="44.727086788669155" lon="11.828934727213289"><ele>-1.0</ele><time>2026-04-19T15:48:21Z</time></trkpt><trkpt lat="44.72695413824314" lon="11.828835424678031"><ele>-1.0</ele><time>2026-04-19T15:48:22Z</time></trkpt><trkpt lat="44.72680895297447" lon="11.82872571249247"><ele>-1.0</ele><time>2026-04-19T15:48:23Z</time></trkpt><trkpt lat="44.72667114732648" lon="11.82861416451748"><ele>-0.75</ele><time>2026-04-19T15:48:24Z</time></trkpt><trkpt lat="44.726543906059504" lon="11.828507789786537"><ele>-0.5</ele><time>2026-04-19T15:48:25Z</time></trkpt><trkpt lat="44.72641347414812" lon="11.828392752429213"><ele>-0.25</ele><time>2026-04-19T15:48:26Z</time></trkpt><trkpt lat="44.7262845426928" lon="11.828294969883224"><ele>0.0</ele><time>2026-04-19T15:48:27Z</time></trkpt><trkpt lat="44.72616039041658" lon="11.828202576447085"><ele>0.25</ele><time>2026-04-19T15:48:28Z</time></trkpt><trkpt lat="44.72603142825047" lon="11.828109352969333"><ele>0.5</ele><time>2026-04-19T15:48:29Z</time></trkpt><trkpt lat="44.725919546861455" lon="11.828035351672439"><ele>0.75</ele><time>2026-04-19T15:48:30Z</time></trkpt><trkpt lat="44.725802128100234" lon="11.82796925273631"><ele>1.0</ele><time>2026-04-19T15:48:31Z</time></trkpt><trkpt lat="44.72568690646255" lon="11.827925625991135"><ele>1.0</ele><time>2026-04-19T15:48:32Z</time></trkpt><trkpt lat="44.72554815780738" lon="11.827901687085378"><ele>1.0</ele><time>2026-04-19T15:48:33Z</time></trkpt><trkpt lat="44.72541166274001" lon="11.827885859693843"><ele>1.0</ele><time>2026-04-19T15:48:34Z</time></trkpt><trkpt lat="44.72527956972794" lon="11.827881014343435"><ele>1.0</ele><time>2026-04-19T15:48:35Z</time></trkpt><trkpt lat="44.72514982630006" lon="11.82787011515926"><ele>1.0</ele><time>2026-04-19T15:48:36Z</time></trkpt><trkpt lat="44.72502239223183" lon="11.82786058525113"><ele>1.0</ele><time>2026-04-19T15:48:37Z</time></trkpt><trkpt lat="44.72490251266303" lon="11.827844678757685"><ele>1.0</ele><time>2026-04-19T15:48:38Z</time></trkpt><trkpt lat="44.72478827115062" lon="11.827831607907479"><ele>1.0</ele><time>2026-04-19T15:48:39Z</time></trkpt><trkpt lat="44.724671249569276" lon="11.827823835408344"><ele>1.0</ele><time>2026-04-19T15:48:40Z</time></trkpt><trkpt lat="44.72454851585884" lon="11.827805441397173"><ele>1.0</ele><time>2026-04-19T15:48:41Z</time></trkpt><trkpt lat="44.72442515902786" lon="11.827789164835757"><ele>1.0</ele><time>2026-04-19T15:48:42Z</time></trkpt><trkpt lat="44.72429598742447" lon="11.827773352959689"><ele>1.0</ele><time>2026-04-19T15:48:43Z</time></trkpt><trkpt lat="44.72415867609176" lon="11.827773754742067"><ele>0.75</ele><time>2026-04-19T15:48:44Z</time></trkpt><trkpt lat="44.724021023316055" lon="11.827761989017691"><ele>0.5</ele><time>2026-04-19T15:48:45Z</time></trkpt><trkpt lat="44.72387995510154" lon="11.827742224352647"><ele>0.25</ele><time>2026-04-19T15:48:46Z</time></trkpt><trkpt lat="44.72373928891274" lon="11.82772935862032"><ele>0.0</ele><time>2026-04-19T15:48:47Z</time></trkpt><trkpt lat="44.72360430219779" lon="11.82772157673399"><ele>0.0</ele><time>2026-04-19T15:48:48Z</time></trkpt><trkpt lat="44.72347599292672" lon="11.827705113263503"><ele>0.0</ele><time>2026-04-19T15:48:49Z</time></trkpt><trkpt lat="44.72336078000644" lon="11.827681231230788"><ele>0.0</ele><time>2026-04-19T15:48:50Z</time></trkpt><trkpt lat="44.72324726605948" lon="11.827655853563765"><ele>0.0</ele><time>2026-04-19T15:48:51Z</time></trkpt><trkpt lat="44.72314362239534" lon="11.827612336334255"><ele>0.0</ele><time>2026-04-19T15:48:52Z</time></trkpt><trkpt lat="44.72303369298017" lon="11.82754494127728"><ele>0.0</ele><time>2026-04-19T15:48:53Z</time></trkpt><trkpt lat="44.72292475273015" lon="11.827450063105585"><ele>0.0</ele><time>2026-04-19T15:48:54Z</time></trkpt><trkpt lat="44.72282434470977" lon="11.827337683087908"><ele>0.0</ele><time>2026-04-19T15:48:55Z</time></trkpt><trkpt lat="44.72272616982088" lon="11.827204222791467"><ele>0.25</ele><time>2026-04-19T15:48:56Z</time></trkpt><trkpt lat="44.7226250155721" lon="11.827063697350102"><ele>0.5</ele><time>2026-04-19T15:48:57Z</time></trkpt><trkpt lat="44.72252925271431" lon="11.82689942195242"><ele>0.75</ele><time>2026-04-19T15:48:58Z</time></trkpt><trkpt lat="44.72242752844223" lon="11.826737366011752"><ele>1.0</ele><time>2026-04-19T15:48:59Z</time></trkpt><trkpt lat="44.72232009037194" lon="11.826564372335637"><ele>0.3333333333333333</ele><time>2026-04-19T15:49:00Z</time></trkpt><trkpt lat="44.72220917969558" lon="11.826399996549588"><ele>-0.3333333333333333</ele><time>2026-04-19T15:49:01Z</time></trkpt><trkpt lat="44.7221102822985" lon="11.826243503195784"><ele>-1.0</ele><time>2026-04-19T15:49:02Z</time></trkpt><trkpt lat="44.72200465212013" lon="11.826083430573428"><ele>-1.0</ele><time>2026-04-19T15:49:03Z</time></trkpt><trkpt lat="44.72190375509359" lon="11.825923955652467"><ele>-1.0</ele><time>2026-04-19T15:49:04Z</time></trkpt><trkpt lat="44.72179725926857" lon="11.825769792231366"><ele>-1.0</ele><time>2026-04-19T15:49:05Z</time></trkpt><trkpt lat="44.72169145544333" lon="11.825610366157294"><ele>0.0</ele><time>2026-04-19T15:49:06Z</time></trkpt><trkpt lat="44.72158973135934" lon="11.825448555197445"><ele>1.0</ele><time>2026-04-19T15:49:07Z</time></trkpt><trkpt lat="44.721489660888174" lon="11.825276731196325"><ele>2.0</ele><time>2026-04-19T15:49:08Z</time></trkpt><trkpt lat="44.72138478926003" lon="11.825120024499691"><ele>2.0</ele><time>2026-04-19T15:49:09Z</time></trkpt><trkpt lat="44.721280203829785" lon="11.82495595739749"><ele>2.0</ele><time>2026-04-19T15:49:10Z</time></trkpt><trkpt lat="44.721174138992836" lon="11.824794227233554"><ele>2.0</ele><time>2026-04-19T15:49:11Z</time></trkpt><trkpt lat="44.72107318416144" lon="11.824635377232564"><ele>1.6666666666666665</ele><time>2026-04-19T15:49:12Z</time></trkpt><trkpt lat="44.72097242253864" lon="11.824474401777135"><ele>1.3333333333333333</ele><time>2026-04-19T15:49:13Z</time></trkpt><trkpt lat="44.72086915828955" lon="11.824326259897827"><ele>1.0</ele><time>2026-04-19T15:49:14Z</time></trkpt><trkpt lat="44.72076571990394" lon="11.824167820783334"><ele>1.0</ele><time>2026-04-19T15:49:15Z</time></trkpt><trkpt lat="44.720671262528285" lon="11.82401676345064"><ele>1.0</ele><time>2026-04-19T15:49:16Z</time></trkpt><trkpt lat="44.720567071519106" lon="11.823859652069155"><ele>1.0</ele><time>2026-04-19T15:49:17Z</time></trkpt><trkpt lat="44.720465101593476" lon="11.823708296822396"><ele>1.0</ele><time>2026-04-19T15:49:18Z</time></trkpt><trkpt lat="44.72036629289356" lon="11.823547615507664"><ele>0.75</ele><time>2026-04-19T15:49:19Z</time></trkpt><trkpt lat="44.720270697109015" lon="11.823383537934728"><ele>0.5</ele><time>2026-04-19T15:49:20Z</time></trkpt><trkpt lat="44.72018059629872" lon="11.823215647707492"><ele>0.25</ele><time>2026-04-19T15:49:21Z</time></trkpt><trkpt lat="44.720103200284164" lon="11.823046297409695"><ele>0.0</ele><time>2026-04-19T15:49:22Z</time></trkpt><trkpt lat="44.720017905005214" lon="11.822870572348574"><ele>0.0</ele><time>2026-04-19T15:49:23Z</time></trkpt><trkpt lat="44.71993676905551" lon="11.822691589066322"><ele>0.0</ele><time>2026-04-19T15:49:24Z</time></trkpt><trkpt lat="44.71987540573618" lon="11.82250970677763"><ele>0.0</ele><time>2026-04-19T15:49:25Z</time></trkpt><trkpt lat="44.719822663716755" lon="11.822313094177446"><ele>0.0</ele><time>2026-04-19T15:49:26Z</time></trkpt><trkpt lat="44.71977442184992" lon="11.822096084796074"><ele>0.0</ele><time>2026-04-19T15:49:27Z</time></trkpt><trkpt lat="44.71973422078817" lon="11.821882238099338"><ele>0.0</ele><time>2026-04-19T15:49:28Z</time></trkpt><trkpt lat="44.71969625299491" lon="11.821672109196731"><ele>0.0</ele><time>2026-04-19T15:49:29Z</time></trkpt><trkpt lat="44.719650987558666" lon="11.8214663420025"><ele>0.0</ele><time>2026-04-19T15:49:30Z</time></trkpt><trkpt lat="44.71961204812018" lon="11.821253330094097"><ele>0.0</ele><time>2026-04-19T15:49:31Z</time></trkpt><trkpt lat="44.719573156019315" lon="11.82104585169046"><ele>0.0</ele><time>2026-04-19T15:49:32Z</time></trkpt><trkpt lat="44.71953187522875" lon="11.820833289222389"><ele>0.0</ele><time>2026-04-19T15:49:33Z</time></trkpt><trkpt lat="44.71949456925144" lon="11.820635334219249"><ele>0.0</ele><time>2026-04-19T15:49:34Z</time></trkpt><trkpt lat="44.719463188843065" lon="11.82045320135517"><ele>0.0</ele><time>2026-04-19T15:49:35Z</time></trkpt><trkpt lat="44.71943268938151" lon="11.820292032058966"><ele>0.0</ele><time>2026-04-19T15:49:36Z</time></trkpt><trkpt lat="44.71940438029106" lon="11.820141774504158"><ele>0.2</ele><time>2026-04-19T15:49:37Z</time></trkpt><trkpt lat="44.71938284627748" lon="11.82000398905073"><ele>0.4</ele><time>2026-04-19T15:49:38Z</time></trkpt><trkpt lat="44.719357532686566" lon="11.819857735861016"><ele>0.6000000000000001</ele><time>2026-04-19T15:49:39Z</time></trkpt><trkpt lat="44.719328688328254" lon="11.81972774456"><ele>0.8</ele><time>2026-04-19T15:49:40Z</time></trkpt><trkpt lat="44.71928521394746" lon="11.819598958556751"><ele>1.0</ele><time>2026-04-19T15:49:41Z</time></trkpt><trkpt lat="44.7192193510417" lon="11.819484807935382"><ele>1.0</ele><time>2026-04-19T15:49:42Z</time></trkpt><trkpt lat="44.719137140134016" lon="11.819382693157369"><ele>1.0</ele><time>2026-04-19T15:49:43Z</time></trkpt><trkpt lat="44.71904019066319" lon="11.819276643100443"><ele>1.0</ele><time>2026-04-19T15:49:44Z</time></trkpt><trkpt lat="44.718933697984546" lon="11.81917383393892"><ele>1.0</ele><time>2026-04-19T15:49:45Z</time></trkpt><trkpt lat="44.71881654356143" lon="11.819067011424996"><ele>1.0</ele><time>2026-04-19T15:49:46Z</time></trkpt><trkpt lat="44.718686213282545" lon="11.818949748140312"><ele>1.0</ele><time>2026-04-19T15:49:47Z</time></trkpt><trkpt lat="44.71856402169779" lon="11.818836263835966"><ele>1.0</ele><time>2026-04-19T15:49:48Z</time></trkpt><trkpt lat="44.71844047144351" lon="11.818719602329812"><ele>1.0</ele><time>2026-04-19T15:49:49Z</time></trkpt><trkpt lat="44.71830551304286" lon="11.818600853748471"><ele>1.0</ele><time>2026-04-19T15:49:50Z</time></trkpt><trkpt lat="44.718170600048666" lon="11.81848264143215"><ele>1.0</ele><time>2026-04-19T15:49:51Z</time></trkpt><trkpt lat="44.718020293221514" lon="11.818370422022332"><ele>1.0</ele><time>2026-04-19T15:49:52Z</time></trkpt><trkpt lat="44.717862456672265" lon="11.818268175268981"><ele>1.0</ele><time>2026-04-19T15:49:53Z</time></trkpt><trkpt lat="44.717700215456375" lon="11.818175506702707"><ele>1.0</ele><time>2026-04-19T15:49:54Z</time></trkpt><trkpt lat="44.717549319304354" lon="11.818086375348111"><ele>1.0</ele><time>2026-04-19T15:49:55Z</time></trkpt><trkpt lat="44.71740587531215" lon="11.818001922207705"><ele>1.0</ele><time>2026-04-19T15:49:56Z</time></trkpt><trkpt lat="44.717265569274254" lon="11.817924881777246"><ele>1.0</ele><time>2026-04-19T15:49:57Z</time></trkpt><trkpt lat="44.71713234143591" lon="11.817849833491096"><ele>1.0</ele><time>2026-04-19T15:49:58Z</time></trkpt><trkpt lat="44.716992409767215" lon="11.817772405903053"><ele>1.0</ele><time>2026-04-19T15:49:59Z</time></trkpt><trkpt lat="44.71685012842162" lon="11.817708518655657"><ele>1.0</ele><time>2026-04-19T15:50:00Z</time></trkpt><trkpt lat="44.71669293707413" lon="11.817654357201809"><ele>1.3333333333333333</ele><time>2026-04-19T15:50:01Z</time></trkpt><trkpt lat="44.71653554555776" lon="11.817617666062864"><ele>1.6666666666666665</ele><time>2026-04-19T15:50:02Z</time></trkpt><trkpt lat="44.71638022137615" lon="11.817585003814719"><ele>2.0</ele><time>2026-04-19T15:50:03Z</time></trkpt><trkpt lat="44.71621617998969" lon="11.817557955510615"><ele>1.6666666666666665</ele><time>2026-04-19T15:50:04Z</time></trkpt><trkpt lat="44.71605418373598" lon="11.817528885528347"><ele>1.3333333333333333</ele><time>2026-04-19T15:50:05Z</time></trkpt><trkpt lat="44.71588949517991" lon="11.817494310180761"><ele>1.0</ele><time>2026-04-19T15:50:06Z</time></trkpt><trkpt lat="44.71573254503494" lon="11.817470239720238"><ele>1.0</ele><time>2026-04-19T15:50:07Z</time></trkpt><trkpt lat="44.715571087818155" lon="11.817436216641857"><ele>1.0</ele><time>2026-04-19T15:50:08Z</time></trkpt><trkpt lat="44.715412744864174" lon="11.817406132424567"><ele>1.0</ele><time>2026-04-19T15:50:09Z</time></trkpt><trkpt lat="44.71524963857675" lon="11.817383923044556"><ele>0.3333333333333333</ele><time>2026-04-19T15:50:10Z</time></trkpt><trkpt lat="44.715089385485896" lon="11.817363876473767"><ele>-0.3333333333333333</ele><time>2026-04-19T15:50:11Z</time></trkpt><trkpt lat="44.71492821615249" lon="11.817334366008724"><ele>-1.0</ele><time>2026-04-19T15:50:12Z</time></trkpt><trkpt lat="44.714768952152056" lon="11.817310173616681"><ele>-1.0</ele><time>2026-04-19T15:50:13Z</time></trkpt><trkpt lat="44.71459903254553" lon="11.817284477531821"><ele>-1.0</ele><time>2026-04-19T15:50:14Z</time></trkpt><trkpt lat="44.71444451605933" lon="11.817272260596882"><ele>-1.0</ele><time>2026-04-19T15:50:15Z</time></trkpt><trkpt lat="44.71428811948458" lon="11.81725162514085"><ele>-0.6666666666666666</ele><time>2026-04-19T15:50:16Z</time></trkpt><trkpt lat="44.71412554973963" lon="11.817219827032586"><ele>-0.3333333333333333</ele><time>2026-04-19T15:50:17Z</time></trkpt><trkpt lat="44.713973273801805" lon="11.81719195011633"><ele>0.0</ele><time>2026-04-19T15:50:18Z</time></trkpt><trkpt lat="44.713808831338426" lon="11.817160037493025"><ele>0.0</ele><time>2026-04-19T15:50:19Z</time></trkpt><trkpt lat="44.713655387196084" lon="11.817121601014975"><ele>0.0</ele><time>2026-04-19T15:50:20Z</time></trkpt><trkpt lat="44.71349258152715" lon="11.81707994014328"><ele>0.0</ele><time>2026-04-19T15:50:21Z</time></trkpt><trkpt lat="44.7133400451298" lon="11.817028319372053"><ele>-0.6666666666666666</ele><time>2026-04-19T15:50:22Z</time></trkpt><trkpt lat="44.713191591669606" lon="11.81697988589442"><ele>-1.3333333333333333</ele><time>2026-04-19T15:50:23Z</time></trkpt><trkpt lat="44.71304702576438" lon="11.816917508827236"><ele>-2.0</ele><time>2026-04-19T15:50:24Z</time></trkpt><trkpt lat="44.71289885458453" lon="11.816836704517184"><ele>-1.6666666666666665</ele><time>2026-04-19T15:50:25Z</time></trkpt><trkpt lat="44.71276679324706" lon="11.816723926687866"><ele>-1.3333333333333333</ele><time>2026-04-19T15:50:26Z</time></trkpt><trkpt lat="44.71262520386265" lon="11.81662465337742"><ele>-1.0</ele><time>2026-04-19T15:50:27Z</time></trkpt><trkpt lat="44.71249144003416" lon="11.816525253719975"><ele>-0.75</ele><time>2026-04-19T15:50:28Z</time></trkpt><trkpt lat="44.71236453788199" lon="11.816423999085847"><ele>-0.5</ele><time>2026-04-19T15:50:29Z</time></trkpt><trkpt lat="44.71223631821233" lon="11.816324327632461"><ele>-0.25</ele><time>2026-04-19T15:50:30Z</time></trkpt><trkpt lat="44.71210614039126" lon="11.81624263653015"><ele>0.0</ele><time>2026-04-19T15:50:31Z</time></trkpt><trkpt lat="44.71199453027094" lon="11.816178483920432"><ele>0.0</ele><time>2026-04-19T15:50:32Z</time></trkpt><trkpt lat="44.71188908783589" lon="11.816129618205665"><ele>0.0</ele><time>2026-04-19T15:50:33Z</time></trkpt><trkpt lat="44.711779117178224" lon="11.816097494367952"><ele>0.0</ele><time>2026-04-19T15:50:34Z</time></trkpt><trkpt lat="44.71165806555872" lon="11.816050963024233"><ele>0.0</ele><time>2026-04-19T15:50:35Z</time></trkpt><trkpt lat="44.71154336034652" lon="11.815986455720022"><ele>0.0</ele><time>2026-04-19T15:50:36Z</time></trkpt><trkpt lat="44.71143220856096" lon="11.81589520114604"><ele>0.0</ele><time>2026-04-19T15:50:37Z</time></trkpt><trkpt lat="44.71132851892119" lon="11.815797898768961"><ele>0.0</ele><time>2026-04-19T15:50:38Z</time></trkpt><trkpt lat="44.711240770809574" lon="11.815703594245203"><ele>0.0</ele><time>2026-04-19T15:50:39Z</time></trkpt><trkpt lat="44.71116730516266" lon="11.815623505968151"><ele>0.0</ele><time>2026-04-19T15:50:40Z</time></trkpt><trkpt lat="44.711102469825825" lon="11.815544126487026"><ele>0.0</ele><time>2026-04-19T15:50:41Z</time></trkpt><trkpt lat="44.71104410081686" lon="11.815474400398719"><ele>0.0</ele><time>2026-04-19T15:50:42Z</time></trkpt><trkpt lat="44.71100303302032" lon="11.815404573222127"><ele>0.0</ele><time>2026-04-19T15:50:43Z</time></trkpt><trkpt lat="44.71097153586415" lon="11.815233795622195"><ele>0.0</ele><time>2026-04-19T15:50:45Z</time></trkpt><trkpt lat="44.71097319699913" lon="11.815131682900333"><ele>0.0</ele><time>2026-04-19T15:50:46Z</time></trkpt><trkpt lat="44.7109591637611" lon="11.815031907861425"><ele>-0.5</ele><time>2026-04-19T15:50:47Z</time></trkpt><trkpt lat="44.71091626742681" lon="11.81495735994746"><ele>-1.0</ele><time>2026-04-19T15:50:48Z</time></trkpt><trkpt lat="44.71084962664161" lon="11.814901428944713"><ele>-1.5</ele><time>2026-04-19T15:50:49Z</time></trkpt><trkpt lat="44.71077035781198" lon="11.814872667510976"><ele>-2.0</ele><time>2026-04-19T15:50:50Z</time></trkpt><trkpt lat="44.71068856901748" lon="11.814894606267437"><ele>-2.5</ele><time>2026-04-19T15:50:51Z</time></trkpt><trkpt lat="44.71060508449668" lon="11.814823016305734"><ele>-3.0</ele><time>2026-04-19T15:50:52Z</time></trkpt><trkpt lat="44.710527169657624" lon="11.81475934477681"><ele>-3.0</ele><time>2026-04-19T15:50:53Z</time></trkpt><trkpt lat="44.71043830512863" lon="11.814705177784123"><ele>-3.0</ele><time>2026-04-19T15:50:54Z</time></trkpt><trkpt lat="44.7103827560959" lon="11.814527706609763"><ele>-3.0</ele><time>2026-04-19T15:50:55Z</time></trkpt><trkpt lat="44.710315600918456" lon="11.814387742129147"><ele>-3.0</ele><time>2026-04-19T15:50:56Z</time></trkpt><trkpt lat="44.71024636285058" lon="11.814236720199627"><ele>-3.0</ele><time>2026-04-19T15:50:57Z</time></trkpt><trkpt lat="44.71017303716215" lon="11.814064543127047"><ele>-3.0</ele><time>2026-04-19T15:50:58Z</time></trkpt><trkpt lat="44.710108430690106" lon="11.81389151422964"><ele>-3.0</ele><time>2026-04-19T15:50:59Z</time></trkpt><trkpt lat="44.71005265593834" lon="11.813710727918492"><ele>-3.0</ele><time>2026-04-19T15:51:00Z</time></trkpt><trkpt lat="44.70999941715437" lon="11.813524344673981"><ele>-2.75</ele><time>2026-04-19T15:51:01Z</time></trkpt><trkpt lat="44.70995158786778" lon="11.813333536252395"><ele>-2.5</ele><time>2026-04-19T15:51:02Z</time></trkpt><trkpt lat="44.70990862073367" lon="11.813136170496374"><ele>-2.25</ele><time>2026-04-19T15:51:03Z</time></trkpt><trkpt lat="44.70987138674407" lon="11.812929164051821"><ele>-2.0</ele><time>2026-04-19T15:51:04Z</time></trkpt><trkpt lat="44.70983832530993" lon="11.812703563748828"><ele>-2.333333333333333</ele><time>2026-04-19T15:51:05Z</time></trkpt><trkpt lat="44.70980868467268" lon="11.81246871450531"><ele>-2.6666666666666665</ele><time>2026-04-19T15:51:06Z</time></trkpt><trkpt lat="44.70978342424674" lon="11.812231281113242"><ele>-3.0</ele><time>2026-04-19T15:51:07Z</time></trkpt><trkpt lat="44.70975936553571" lon="11.811987465287734"><ele>-3.0</ele><time>2026-04-19T15:51:08Z</time></trkpt><trkpt lat="44.70973701894754" lon="11.811746807117663"><ele>-3.0</ele><time>2026-04-19T15:51:09Z</time></trkpt><trkpt lat="44.70971398800938" lon="11.81149666785862"><ele>-3.0</ele><time>2026-04-19T15:51:10Z</time></trkpt><trkpt lat="44.709690244255974" lon="11.811248577824479"><ele>-3.0</ele><time>2026-04-19T15:51:11Z</time></trkpt><trkpt lat="44.70966416854583" lon="11.810993251799477"><ele>-3.0</ele><time>2026-04-19T15:51:12Z</time></trkpt><trkpt lat="44.709635708640576" lon="11.810721713203577"><ele>-3.0</ele><time>2026-04-19T15:51:13Z</time></trkpt><trkpt lat="44.709611482735454" lon="11.810448039506273"><ele>-2.6666666666666665</ele><time>2026-04-19T15:51:14Z</time></trkpt><trkpt lat="44.70958589325322" lon="11.81017917596346"><ele>-2.333333333333333</ele><time>2026-04-19T15:51:15Z</time></trkpt><trkpt lat="44.70956537414285" lon="11.809914770449934"><ele>-2.0</ele><time>2026-04-19T15:51:16Z</time></trkpt><trkpt lat="44.70954059571584" lon="11.809648534219917"><ele>-2.0</ele><time>2026-04-19T15:51:17Z</time></trkpt><trkpt lat="44.70951734407387" lon="11.809386075904664"><ele>-2.0</ele><time>2026-04-19T15:51:18Z</time></trkpt><trkpt lat="44.70949389955847" lon="11.809123395919876"><ele>-2.0</ele><time>2026-04-19T15:51:19Z</time></trkpt><trkpt lat="44.709472216965196" lon="11.808863017282249"><ele>-2.333333333333333</ele><time>2026-04-19T15:51:20Z</time></trkpt><trkpt lat="44.7094477107797" lon="11.808605120542197"><ele>-2.6666666666666665</ele><time>2026-04-19T15:51:21Z</time></trkpt><trkpt lat="44.709422794918794" lon="11.808346473450953"><ele>-3.0</ele><time>2026-04-19T15:51:22Z</time></trkpt><trkpt lat="44.70939775136353" lon="11.808086530643907"><ele>-3.0</ele><time>2026-04-19T15:51:23Z</time></trkpt><trkpt lat="44.709374588728565" lon="11.80783042048347"><ele>-3.0</ele><time>2026-04-19T15:51:24Z</time></trkpt><trkpt lat="44.70935238341312" lon="11.807576293047125"><ele>-3.0</ele><time>2026-04-19T15:51:25Z</time></trkpt><trkpt lat="44.70933033220402" lon="11.80731773550878"><ele>-3.0</ele><time>2026-04-19T15:51:26Z</time></trkpt><trkpt lat="44.70930738640177" lon="11.807066037847843"><ele>-3.0</ele><time>2026-04-19T15:51:27Z</time></trkpt><trkpt lat="44.70928398309272" lon="11.806813867526925"><ele>-3.0</ele><time>2026-04-19T15:51:28Z</time></trkpt><trkpt lat="44.70926436530034" lon="11.80657717733561"><ele>-3.0</ele><time>2026-04-19T15:51:29Z</time></trkpt><trkpt lat="44.70924614430412" lon="11.80636078265073"><ele>-3.0</ele><time>2026-04-19T15:51:30Z</time></trkpt><trkpt lat="44.709226033529816" lon="11.806146635437807"><ele>-3.0</ele><time>2026-04-19T15:51:31Z</time></trkpt><trkpt lat="44.709209483809325" lon="11.80595503146403"><ele>-3.0</ele><time>2026-04-19T15:51:32Z</time></trkpt><trkpt lat="44.70919347817754" lon="11.80577953453273"><ele>-2.8</ele><time>2026-04-19T15:51:33Z</time></trkpt><trkpt lat="44.70917994311368" lon="11.80561743289936"><ele>-2.5999999999999996</ele><time>2026-04-19T15:51:34Z</time></trkpt><trkpt lat="44.70916511076264" lon="11.80546325042515"><ele>-2.4000000000000004</ele><time>2026-04-19T15:51:35Z</time></trkpt><trkpt lat="44.70914931982288" lon="11.805317970093187"><ele>-2.2</ele><time>2026-04-19T15:51:36Z</time></trkpt><trkpt lat="44.70913636679222" lon="11.805170684425832"><ele>-2.0</ele><time>2026-04-19T15:51:37Z</time></trkpt><trkpt lat="44.709124521488164" lon="11.805028566264491"><ele>-1.8333333333333333</ele><time>2026-04-19T15:51:38Z</time></trkpt><trkpt lat="44.70911410359789" lon="11.804902916235424"><ele>-1.6666666666666665</ele><time>2026-04-19T15:51:39Z</time></trkpt><trkpt lat="44.709102084868" lon="11.804789908052012"><ele>-1.5</ele><time>2026-04-19T15:51:40Z</time></trkpt><trkpt lat="44.70909690442078" lon="11.804685986295148"><ele>-1.3333333333333333</ele><time>2026-04-19T15:51:41Z</time></trkpt><trkpt lat="44.709096881686165" lon="11.804586048080365"><ele>-1.1666666666666665</ele><time>2026-04-19T15:51:42Z</time></trkpt><trkpt lat="44.709125214850644" lon="11.80442553054702"><ele>-1.0</ele><time>2026-04-19T15:51:44Z</time></trkpt><trkpt lat="44.709153727335185" lon="11.804343928199264"><ele>-1.3333333333333333</ele><time>2026-04-19T15:51:45Z</time></trkpt><trkpt lat="44.70919500150134" lon="11.804264869273885"><ele>-1.6666666666666665</ele><time>2026-04-19T15:51:46Z</time></trkpt><trkpt lat="44.70923719306014" lon="11.804179751871702"><ele>-2.0</ele><time>2026-04-19T15:51:47Z</time></trkpt><trkpt lat="44.70925952368169" lon="11.804083220257468"><ele>-2.3333333333333335</ele><time>2026-04-19T15:51:48Z</time></trkpt><trkpt lat="44.7092258099449" lon="11.803905826006163"><ele>-2.6666666666666665</ele><time>2026-04-19T15:51:50Z</time></trkpt><trkpt lat="44.70917864604804" lon="11.80382057165074"><ele>-3.0</ele><time>2026-04-19T15:51:51Z</time></trkpt><trkpt lat="44.7091239540113" lon="11.803744295393507"><ele>-3.0</ele><time>2026-04-19T15:51:52Z</time></trkpt><trkpt lat="44.70906539381409" lon="11.803671531529403"><ele>-3.0</ele><time>2026-04-19T15:51:53Z</time></trkpt><trkpt lat="44.70901799766129" lon="11.80358718245136"><ele>-3.0</ele><time>2026-04-19T15:51:54Z</time></trkpt><trkpt lat="44.70898656892952" lon="11.803473150790207"><ele>-3.0</ele><time>2026-04-19T15:51:55Z</time></trkpt><trkpt lat="44.70894538863595" lon="11.803355490412528"><ele>-3.0</ele><time>2026-04-19T15:51:56Z</time></trkpt><trkpt lat="44.70895945575556" lon="11.803165575746442"><ele>-2.75</ele><time>2026-04-19T15:51:57Z</time></trkpt><trkpt lat="44.7089469868362" lon="11.802987968664954"><ele>-2.5</ele><time>2026-04-19T15:51:58Z</time></trkpt><trkpt lat="44.70892947769472" lon="11.802803052285794"><ele>-2.25</ele><time>2026-04-19T15:51:59Z</time></trkpt><trkpt lat="44.70891298265342" lon="11.802597016154202"><ele>-2.0</ele><time>2026-04-19T15:52:00Z</time></trkpt><trkpt lat="44.70889401303269" lon="11.802378149204907"><ele>-2.0</ele><time>2026-04-19T15:52:01Z</time></trkpt><trkpt lat="44.7088741670525" lon="11.80216819247494"><ele>-2.0</ele><time>2026-04-19T15:52:02Z</time></trkpt><trkpt lat="44.70885562531802" lon="11.801954397858076"><ele>-2.0</ele><time>2026-04-19T15:52:03Z</time></trkpt><trkpt lat="44.70883417074726" lon="11.801739644834841"><ele>-1.6666666666666665</ele><time>2026-04-19T15:52:04Z</time></trkpt><trkpt lat="44.7088136864852" lon="11.801519950324979"><ele>-1.3333333333333333</ele><time>2026-04-19T15:52:05Z</time></trkpt><trkpt lat="44.70879403532088" lon="11.801293777315683"><ele>-1.0</ele><time>2026-04-19T15:52:06Z</time></trkpt><trkpt lat="44.70877043040052" lon="11.80105742880608"><ele>-1.0</ele><time>2026-04-19T15:52:07Z</time></trkpt><trkpt lat="44.708747604830144" lon="11.800822123293"><ele>-1.0</ele><time>2026-04-19T15:52:08Z</time></trkpt><trkpt lat="44.70872642436407" lon="11.800592441121736"><ele>-1.0</ele><time>2026-04-19T15:52:09Z</time></trkpt><trkpt lat="44.70870593637233" lon="11.80036848493832"><ele>-1.0</ele><time>2026-04-19T15:52:10Z</time></trkpt><trkpt lat="44.70868704084939" lon="11.80015902388937"><ele>-1.0</ele><time>2026-04-19T15:52:11Z</time></trkpt><trkpt lat="44.70866460161012" lon="11.799945188002996"><ele>-1.0</ele><time>2026-04-19T15:52:12Z</time></trkpt><trkpt lat="44.70863781398747" lon="11.799746481617984"><ele>-1.0</ele><time>2026-04-19T15:52:13Z</time></trkpt><trkpt lat="44.70860622260858" lon="11.79954765558806"><ele>-1.0</ele><time>2026-04-19T15:52:14Z</time></trkpt><trkpt lat="44.708566060995174" lon="11.799357751392622"><ele>-1.0</ele><time>2026-04-19T15:52:15Z</time></trkpt><trkpt lat="44.70851441572192" lon="11.799175282538439"><ele>-1.0</ele><time>2026-04-19T15:52:16Z</time></trkpt><trkpt lat="44.70845334232493" lon="11.798990630713671"><ele>-1.0</ele><time>2026-04-19T15:52:17Z</time></trkpt><trkpt lat="44.708384088880166" lon="11.798803620600772"><ele>-1.0</ele><time>2026-04-19T15:52:18Z</time></trkpt><trkpt lat="44.708307900859644" lon="11.798617213835994"><ele>-1.0</ele><time>2026-04-19T15:52:19Z</time></trkpt><trkpt lat="44.708228600167644" lon="11.79843925830078"><ele>-1.0</ele><time>2026-04-19T15:52:20Z</time></trkpt><trkpt lat="44.70813801873407" lon="11.798263115625925"><ele>-1.25</ele><time>2026-04-19T15:52:21Z</time></trkpt><trkpt lat="44.70804332617673" lon="11.79809574604219"><ele>-1.5</ele><time>2026-04-19T15:52:22Z</time></trkpt><trkpt lat="44.70795010679289" lon="11.797932573594732"><ele>-1.75</ele><time>2026-04-19T15:52:23Z</time></trkpt><trkpt lat="44.707863174087485" lon="11.797778935014051"><ele>-2.0</ele><time>2026-04-19T15:52:24Z</time></trkpt><trkpt lat="44.70778513633643" lon="11.797636136720191"><ele>-1.4000000000000001</ele><time>2026-04-19T15:52:25Z</time></trkpt><trkpt lat="44.707715499509504" lon="11.797500620986394"><ele>-0.8000000000000002</ele><time>2026-04-19T15:52:26Z</time></trkpt><trkpt lat="44.70765398956127" lon="11.797378437711277"><ele>-0.19999999999999996</ele><time>2026-04-19T15:52:27Z</time></trkpt><trkpt lat="44.707599251531896" lon="11.797267955204457"><ele>0.4</ele><time>2026-04-19T15:52:28Z</time></trkpt><trkpt lat="44.70755426758443" lon="11.79716583629886"><ele>1.0</ele><time>2026-04-19T15:52:29Z</time></trkpt><trkpt lat="44.70751308017638" lon="11.797066619572643"><ele>1.0</ele><time>2026-04-19T15:52:30Z</time></trkpt><trkpt lat="44.70747975263069" lon="11.796975022233408"><ele>0.9999999999999999</ele><time>2026-04-19T15:52:31Z</time></trkpt><trkpt lat="44.70745669011201" lon="11.796891649329925"><ele>1.0</ele><time>2026-04-19T15:52:32Z</time></trkpt><trkpt lat="44.7074487428077" lon="11.796747992107003"><ele>1.0</ele><time>2026-04-19T15:52:34Z</time></trkpt><trkpt lat="44.70746347006789" lon="11.796661003795753"><ele>0.9999999999999999</ele><time>2026-04-19T15:52:35Z</time></trkpt><trkpt lat="44.70746584650454" lon="11.796562413579313"><ele>1.0</ele><time>2026-04-19T15:52:36Z</time></trkpt><trkpt lat="44.707452613993354" lon="11.7964624605724"><ele>1.0</ele><time>2026-04-19T15:52:37Z</time></trkpt><trkpt lat="44.70741429622874" lon="11.79637586392845"><ele>0.6666666666666666</ele><time>2026-04-19T15:52:38Z</time></trkpt><trkpt lat="44.707362220862166" lon="11.796312606335462"><ele>0.3333333333333333</ele><time>2026-04-19T15:52:39Z</time></trkpt><trkpt lat="44.707298616138715" lon="11.796281102393223"><ele>0.0</ele><time>2026-04-19T15:52:40Z</time></trkpt><trkpt lat="44.707223681773" lon="11.796265323765962"><ele>-0.3333333333333333</ele><time>2026-04-19T15:52:41Z</time></trkpt><trkpt lat="44.707144213506716" lon="11.79625526661767"><ele>-0.6666666666666666</ele><time>2026-04-19T15:52:42Z</time></trkpt><trkpt lat="44.70706409183198" lon="11.796230092867095"><ele>-1.0</ele><time>2026-04-19T15:52:43Z</time></trkpt><trkpt lat="44.70697498809886" lon="11.796183090587103"><ele>-0.75</ele><time>2026-04-19T15:52:44Z</time></trkpt><trkpt lat="44.706889754089126" lon="11.796098102820052"><ele>-0.5</ele><time>2026-04-19T15:52:45Z</time></trkpt><trkpt lat="44.70681505503826" lon="11.796000075848594"><ele>-0.25</ele><time>2026-04-19T15:52:46Z</time></trkpt><trkpt lat="44.70674205912677" lon="11.795869278828977"><ele>0.0</ele><time>2026-04-19T15:52:47Z</time></trkpt><trkpt lat="44.7066591156576" lon="11.795724479196947"><ele>-0.5</ele><time>2026-04-19T15:52:48Z</time></trkpt><trkpt lat="44.70657165155397" lon="11.795578105682816"><ele>-1.0</ele><time>2026-04-19T15:52:49Z</time></trkpt><trkpt lat="44.70648539046597" lon="11.795429201370274"><ele>-1.5</ele><time>2026-04-19T15:52:50Z</time></trkpt><trkpt lat="44.70639412034949" lon="11.795273800817556"><ele>-2.0</ele><time>2026-04-19T15:52:51Z</time></trkpt><trkpt lat="44.706298979949324" lon="11.7951086277403"><ele>-2.0</ele><time>2026-04-19T15:52:52Z</time></trkpt><trkpt lat="44.70620296325117" lon="11.79494906587493"><ele>-2.0</ele><time>2026-04-19T15:52:53Z</time></trkpt><trkpt lat="44.7061082887784" lon="11.794788061541263"><ele>-2.0</ele><time>2026-04-19T15:52:54Z</time></trkpt><trkpt lat="44.70600919262676" lon="11.794618710062691"><ele>-2.333333333333333</ele><time>2026-04-19T15:52:55Z</time></trkpt><trkpt lat="44.70590607149182" lon="11.79444426745754"><ele>-2.6666666666666665</ele><time>2026-04-19T15:52:56Z</time></trkpt><trkpt lat="44.70580113844972" lon="11.794265557980031"><ele>-3.0</ele><time>2026-04-19T15:52:57Z</time></trkpt><trkpt lat="44.705699932474126" lon="11.794094337519498"><ele>-2.3333333333333335</ele><time>2026-04-19T15:52:58Z</time></trkpt><trkpt lat="44.70559186417381" lon="11.79391700578282"><ele>-1.6666666666666665</ele><time>2026-04-19T15:52:59Z</time></trkpt><trkpt lat="44.705491415519354" lon="11.793744343226372"><ele>-1.0</ele><time>2026-04-19T15:53:00Z</time></trkpt><trkpt lat="44.70538425107301" lon="11.79357028262084"><ele>-0.6666666666666666</ele><time>2026-04-19T15:53:01Z</time></trkpt><trkpt lat="44.70528413591413" lon="11.793410329188774"><ele>-0.3333333333333333</ele><time>2026-04-19T15:53:02Z</time></trkpt><trkpt lat="44.70518728479699" lon="11.793247940466179"><ele>0.0</ele><time>2026-04-19T15:53:03Z</time></trkpt><trkpt lat="44.70509183868938" lon="11.79308943490799"><ele>0.0</ele><time>2026-04-19T15:53:04Z</time></trkpt><trkpt lat="44.70500332789873" lon="11.792944350190872"><ele>0.0</ele><time>2026-04-19T15:53:05Z</time></trkpt><trkpt lat="44.70492455401323" lon="11.792803603949762"><ele>0.0</ele><time>2026-04-19T15:53:06Z</time></trkpt><trkpt lat="44.704846981606615" lon="11.792676379443222"><ele>0.0</ele><time>2026-04-19T15:53:07Z</time></trkpt><trkpt lat="44.70477739164758" lon="11.792553977678098"><ele>-0.2</ele><time>2026-04-19T15:53:08Z</time></trkpt><trkpt lat="44.70470911484489" lon="11.792446698754905"><ele>-0.4</ele><time>2026-04-19T15:53:09Z</time></trkpt><trkpt lat="44.704656900038685" lon="11.792358000561338"><ele>-0.6000000000000001</ele><time>2026-04-19T15:53:10Z</time></trkpt><trkpt lat="44.704591797309774" lon="11.792230796888202"><ele>-0.8</ele><time>2026-04-19T15:53:12Z</time></trkpt><trkpt lat="44.70455833033632" lon="11.792139905644458"><ele>-1.0</ele><time>2026-04-19T15:53:13Z</time></trkpt><trkpt lat="44.70452734360717" lon="11.79203227739455"><ele>-1.0</ele><time>2026-04-19T15:53:14Z</time></trkpt><trkpt lat="44.70449953839171" lon="11.791918736297598"><ele>-0.9999999999999999</ele><time>2026-04-19T15:53:15Z</time></trkpt><trkpt lat="44.70447544380707" lon="11.791814995487256"><ele>-1.0</ele><time>2026-04-19T15:53:16Z</time></trkpt><trkpt lat="44.7044506253851" lon="11.791732267234927"><ele>-1.0</ele><time>2026-04-19T15:53:17Z</time></trkpt><trkpt lat="44.70440615871518" lon="11.791668308319718"><ele>-0.9999999999999999</ele><time>2026-04-19T15:53:18Z</time></trkpt><trkpt lat="44.704347467552246" lon="11.791626609122297"><ele>-1.0</ele><time>2026-04-19T15:53:19Z</time></trkpt><trkpt lat="44.70426676750139" lon="11.791609616015794"><ele>-1.0</ele><time>2026-04-19T15:53:20Z</time></trkpt><trkpt lat="44.704175211820306" lon="11.791590365918644"><ele>-0.6000000000000001</ele><time>2026-04-19T15:53:21Z</time></trkpt><trkpt lat="44.70407767718587" lon="11.791554156602249"><ele>-0.20000000000000007</ele><time>2026-04-19T15:53:22Z</time></trkpt><trkpt lat="44.70397868463228" lon="11.79149491753923"><ele>0.20000000000000007</ele><time>2026-04-19T15:53:23Z</time></trkpt><trkpt lat="44.70387646650356" lon="11.791435389981793"><ele>0.6000000000000001</ele><time>2026-04-19T15:53:24Z</time></trkpt><trkpt lat="44.70375712177293" lon="11.79136780934492"><ele>1.0</ele><time>2026-04-19T15:53:25Z</time></trkpt><trkpt lat="44.70363288855232" lon="11.791294184306235"><ele>0.75</ele><time>2026-04-19T15:53:26Z</time></trkpt><trkpt lat="44.70350593831127" lon="11.791215650256278"><ele>0.5</ele><time>2026-04-19T15:53:27Z</time></trkpt><trkpt lat="44.70337635649023" lon="11.791159854202116"><ele>0.25</ele><time>2026-04-19T15:53:28Z</time></trkpt><trkpt lat="44.703240005080765" lon="11.791100702680614"><ele>0.0</ele><time>2026-04-19T15:53:29Z</time></trkpt><trkpt lat="44.70309303750241" lon="11.791053331059942"><ele>0.0</ele><time>2026-04-19T15:53:30Z</time></trkpt><trkpt lat="44.70293982657867" lon="11.79101087073855"><ele>0.0</ele><time>2026-04-19T15:53:31Z</time></trkpt><trkpt lat="44.702782375190225" lon="11.790967549077191"><ele>0.0</ele><time>2026-04-19T15:53:32Z</time></trkpt><trkpt lat="44.702627361363945" lon="11.790921846651381"><ele>0.3333333333333333</ele><time>2026-04-19T15:53:33Z</time></trkpt><trkpt lat="44.70247759551195" lon="11.790879930150489"><ele>0.6666666666666666</ele><time>2026-04-19T15:53:34Z</time></trkpt><trkpt lat="44.70232648844269" lon="11.79083379251463"><ele>1.0</ele><time>2026-04-19T15:53:35Z</time></trkpt><trkpt lat="44.702171943482654" lon="11.790789667973002"><ele>1.0</ele><time>2026-04-19T15:53:36Z</time></trkpt><trkpt lat="44.70201662895091" lon="11.790743330806219"><ele>1.0</ele><time>2026-04-19T15:53:37Z</time></trkpt><trkpt lat="44.701858012303276" lon="11.79069419482387"><ele>1.0</ele><time>2026-04-19T15:53:38Z</time></trkpt><trkpt lat="44.70169857961355" lon="11.790648760635108"><ele>1.6666666666666665</ele><time>2026-04-19T15:53:39Z</time></trkpt><trkpt lat="44.7015379906247" lon="11.790602140100688"><ele>2.3333333333333335</ele><time>2026-04-19T15:53:40Z</time></trkpt><trkpt lat="44.70137961023337" lon="11.790557053653176"><ele>3.0</ele><time>2026-04-19T15:53:41Z</time></trkpt><trkpt lat="44.70122302339788" lon="11.790511215873217"><ele>2.75</ele><time>2026-04-19T15:53:42Z</time></trkpt><trkpt lat="44.70107762702858" lon="11.790466854182664"><ele>2.5</ele><time>2026-04-19T15:53:43Z</time></trkpt><trkpt lat="44.70093703950756" lon="11.790421146850147"><ele>2.25</ele><time>2026-04-19T15:53:44Z</time></trkpt><trkpt lat="44.70079017299184" lon="11.79037796292991"><ele>2.0</ele><time>2026-04-19T15:53:45Z</time></trkpt><trkpt lat="44.70064053397668" lon="11.790335235892407"><ele>2.0</ele><time>2026-04-19T15:53:46Z</time></trkpt><trkpt lat="44.70048665172329" lon="11.790292857419955"><ele>2.0</ele><time>2026-04-19T15:53:47Z</time></trkpt><trkpt lat="44.700330168383644" lon="11.790245577134895"><ele>2.0</ele><time>2026-04-19T15:53:48Z</time></trkpt><trkpt lat="44.70017668065135" lon="11.79019755213224"><ele>2.6666666666666665</ele><time>2026-04-19T15:53:49Z</time></trkpt><trkpt lat="44.700025908247476" lon="11.790152464262178"><ele>3.333333333333333</ele><time>2026-04-19T15:53:50Z</time></trkpt><trkpt lat="44.69987547463925" lon="11.79011001012395"><ele>4.0</ele><time>2026-04-19T15:53:51Z</time></trkpt><trkpt lat="44.69972494770797" lon="11.790066429441318"><ele>4.0</ele><time>2026-04-19T15:53:52Z</time></trkpt><trkpt lat="44.69957182415091" lon="11.790022138273281"><ele>4.0</ele><time>2026-04-19T15:53:53Z</time></trkpt><trkpt lat="44.699413889318436" lon="11.789976407632777"><ele>4.0</ele><time>2026-04-19T15:53:54Z</time></trkpt><trkpt lat="44.69926264554033" lon="11.789935088381462"><ele>3.0</ele><time>2026-04-19T15:53:55Z</time></trkpt><trkpt lat="44.69911116153755" lon="11.789892001944429"><ele>2.0</ele><time>2026-04-19T15:53:56Z</time></trkpt><trkpt lat="44.69896976401661" lon="11.789843439185178"><ele>1.0</ele><time>2026-04-19T15:53:57Z</time></trkpt><trkpt lat="44.69883612666789" lon="11.789807897919454"><ele>0.0</ele><time>2026-04-19T15:53:58Z</time></trkpt><trkpt lat="44.69871887564935" lon="11.789768643864122"><ele>0.0</ele><time>2026-04-19T15:53:59Z</time></trkpt><trkpt lat="44.69861012337973" lon="11.789721868007165"><ele>0.0</ele><time>2026-04-19T15:54:00Z</time></trkpt><trkpt lat="44.69850033695642" lon="11.789663983155554"><ele>0.0</ele><time>2026-04-19T15:54:01Z</time></trkpt><trkpt lat="44.69837923503227" lon="11.789597136012004"><ele>0.0</ele><time>2026-04-19T15:54:02Z</time></trkpt><trkpt lat="44.698256915630495" lon="11.789516502121815"><ele>0.0</ele><time>2026-04-19T15:54:03Z</time></trkpt><trkpt lat="44.6981321334637" lon="11.789429758005122"><ele>0.0</ele><time>2026-04-19T15:54:04Z</time></trkpt><trkpt lat="44.698004549257426" lon="11.789332990666516"><ele>0.0</ele><time>2026-04-19T15:54:05Z</time></trkpt><trkpt lat="44.697874954739774" lon="11.789221644526906"><ele>0.0</ele><time>2026-04-19T15:54:06Z</time></trkpt><trkpt lat="44.697747529785346" lon="11.789085139407216"><ele>0.0</ele><time>2026-04-19T15:54:07Z</time></trkpt><trkpt lat="44.69762402451776" lon="11.788939830542068"><ele>0.0</ele><time>2026-04-19T15:54:08Z</time></trkpt><trkpt lat="44.697510718748994" lon="11.788776275097607"><ele>0.0</ele><time>2026-04-19T15:54:09Z</time></trkpt><trkpt lat="44.69739630072553" lon="11.788606715772637"><ele>0.3333333333333333</ele><time>2026-04-19T15:54:10Z</time></trkpt><trkpt lat="44.69727793102299" lon="11.788429766438925"><ele>0.6666666666666666</ele><time>2026-04-19T15:54:11Z</time></trkpt><trkpt lat="44.697159258021586" lon="11.78825653242643"><ele>1.0</ele><time>2026-04-19T15:54:12Z</time></trkpt><trkpt lat="44.69704078036361" lon="11.788079456661615"><ele>0.6666666666666666</ele><time>2026-04-19T15:54:13Z</time></trkpt><trkpt lat="44.69691928374694" lon="11.787907434530089"><ele>0.3333333333333333</ele><time>2026-04-19T15:54:14Z</time></trkpt><trkpt lat="44.69679527856837" lon="11.78773369854336"><ele>0.0</ele><time>2026-04-19T15:54:15Z</time></trkpt><trkpt lat="44.696675235795446" lon="11.78755648129852"><ele>0.6666666666666666</ele><time>2026-04-19T15:54:16Z</time></trkpt><trkpt lat="44.69655187381787" lon="11.787370325152835"><ele>1.3333333333333333</ele><time>2026-04-19T15:54:17Z</time></trkpt><trkpt lat="44.69642885511359" lon="11.787188257562864"><ele>2.0</ele><time>2026-04-19T15:54:18Z</time></trkpt><trkpt lat="44.69630610059452" lon="11.787008009637706"><ele>2.0</ele><time>2026-04-19T15:54:19Z</time></trkpt><trkpt lat="44.696183939738056" lon="11.786829739357676"><ele>2.0</ele><time>2026-04-19T15:54:20Z</time></trkpt><trkpt lat="44.69606071597223" lon="11.786648380625337"><ele>2.0</ele><time>2026-04-19T15:54:21Z</time></trkpt><trkpt lat="44.69594051888212" lon="11.786470180832668"><ele>1.6666666666666665</ele><time>2026-04-19T15:54:22Z</time></trkpt><trkpt lat="44.695821710091366" lon="11.78629300085361"><ele>1.3333333333333333</ele><time>2026-04-19T15:54:23Z</time></trkpt><trkpt lat="44.69570245378396" lon="11.786119978289314"><ele>1.0</ele><time>2026-04-19T15:54:24Z</time></trkpt><trkpt lat="44.69558523254986" lon="11.785947779691316"><ele>1.0</ele><time>2026-04-19T15:54:25Z</time></trkpt><trkpt lat="44.695467498311814" lon="11.785773928921769"><ele>1.0</ele><time>2026-04-19T15:54:26Z</time></trkpt><trkpt lat="44.69535109815329" lon="11.785602018377908"><ele>1.0</ele><time>2026-04-19T15:54:27Z</time></trkpt><trkpt lat="44.69523470837601" lon="11.785427054894656"><ele>0.3333333333333333</ele><time>2026-04-19T15:54:28Z</time></trkpt><trkpt lat="44.69511988722648" lon="11.78526294547645"><ele>-0.3333333333333333</ele><time>2026-04-19T15:54:29Z</time></trkpt><trkpt lat="44.69500762282167" lon="11.78510402638849"><ele>-1.0</ele><time>2026-04-19T15:54:30Z</time></trkpt><trkpt lat="44.69490098504564" lon="11.784948046069008"><ele>-1.5</ele><time>2026-04-19T15:54:31Z</time></trkpt><trkpt lat="44.69479271915106" lon="11.784788095691333"><ele>-2.0</ele><time>2026-04-19T15:54:32Z</time></trkpt><trkpt lat="44.69469300248367" lon="11.784643066739765"><ele>-2.5</ele><time>2026-04-19T15:54:33Z</time></trkpt><trkpt lat="44.694602088459575" lon="11.78450873938283"><ele>-3.0</ele><time>2026-04-19T15:54:34Z</time></trkpt><trkpt lat="44.69452138841499" lon="11.784388702043497"><ele>-2.6666666666666665</ele><time>2026-04-19T15:54:35Z</time></trkpt><trkpt lat="44.69444308345951" lon="11.78427674256425"><ele>-2.3333333333333335</ele><time>2026-04-19T15:54:36Z</time></trkpt><trkpt lat="44.69437588772494" lon="11.784180137768422"><ele>-2.0</ele><time>2026-04-19T15:54:37Z</time></trkpt><trkpt lat="44.69431446334632" lon="11.784092901169672"><ele>-1.6666666666666665</ele><time>2026-04-19T15:54:38Z</time></trkpt><trkpt lat="44.69426644102047" lon="11.784010400957031"><ele>-1.3333333333333333</ele><time>2026-04-19T15:54:39Z</time></trkpt><trkpt lat="44.69423370857993" lon="11.783930363004776"><ele>-1.0</ele><time>2026-04-19T15:54:40Z</time></trkpt><trkpt lat="44.69419736528464" lon="11.78374270995762"><ele>-0.9999999999999999</ele><time>2026-04-19T15:54:42Z</time></trkpt><trkpt lat="44.69419950250969" lon="11.783623370461818"><ele>-1.0</ele><time>2026-04-19T15:54:43Z</time></trkpt><trkpt lat="44.69419927730931" lon="11.78351245658498"><ele>-1.0</ele><time>2026-04-19T15:54:44Z</time></trkpt><trkpt lat="44.69416772221933" lon="11.78340677303306"><ele>-1.0</ele><time>2026-04-19T15:54:45Z</time></trkpt><trkpt lat="44.694118203454565" lon="11.783326392466957"><ele>-0.9999999999999999</ele><time>2026-04-19T15:54:46Z</time></trkpt><trkpt lat="44.694043429923354" lon="11.78327990886623"><ele>-1.0</ele><time>2026-04-19T15:54:47Z</time></trkpt><trkpt lat="44.693954101427266" lon="11.78324859153199"><ele>-0.8</ele><time>2026-04-19T15:54:48Z</time></trkpt><trkpt lat="44.69386907017774" lon="11.78324737942338"><ele>-0.6000000000000001</ele><time>2026-04-19T15:54:49Z</time></trkpt><trkpt lat="44.69378614842816" lon="11.783231814079706"><ele>-0.4</ele><time>2026-04-19T15:54:50Z</time></trkpt><trkpt lat="44.69370810177197" lon="11.783186335122522"><ele>-0.2</ele><time>2026-04-19T15:54:51Z</time></trkpt><trkpt lat="44.69363530461998" lon="11.783103463193802"><ele>0.0</ele><time>2026-04-19T15:54:52Z</time></trkpt><trkpt lat="44.69355352337608" lon="11.782981718573533"><ele>0.25</ele><time>2026-04-19T15:54:53Z</time></trkpt><trkpt lat="44.69346551120889" lon="11.782839095884208"><ele>0.5</ele><time>2026-04-19T15:54:54Z</time></trkpt><trkpt lat="44.69337634770354" lon="11.782698557932088"><ele>0.75</ele><time>2026-04-19T15:54:55Z</time></trkpt><trkpt lat="44.69327878189516" lon="11.782555021374986"><ele>1.0</ele><time>2026-04-19T15:54:56Z</time></trkpt><trkpt lat="44.69317660967132" lon="11.782410774056602"><ele>1.0</ele><time>2026-04-19T15:54:57Z</time></trkpt><trkpt lat="44.693079877088024" lon="11.782271803833128"><ele>1.0</ele><time>2026-04-19T15:54:58Z</time></trkpt><trkpt lat="44.692975743129956" lon="11.782126918050876"><ele>1.0</ele><time>2026-04-19T15:54:59Z</time></trkpt><trkpt lat="44.692870883077696" lon="11.781971845920244"><ele>1.0</ele><time>2026-04-19T15:55:00Z</time></trkpt><trkpt lat="44.69276625242164" lon="11.781818498824181"><ele>1.3333333333333333</ele><time>2026-04-19T15:55:01Z</time></trkpt><trkpt lat="44.69265446333719" lon="11.781649730924226"><ele>1.6666666666666665</ele><time>2026-04-19T15:55:02Z</time></trkpt><trkpt lat="44.69253923998604" lon="11.78148034373243"><ele>2.0</ele><time>2026-04-19T15:55:03Z</time></trkpt><trkpt lat="44.692421015895576" lon="11.781309843550433"><ele>2.0</ele><time>2026-04-19T15:55:04Z</time></trkpt><trkpt lat="44.69230362542576" lon="11.781140073454479"><ele>2.0</ele><time>2026-04-19T15:55:05Z</time></trkpt><trkpt lat="44.69218385370843" lon="11.780964406525225"><ele>2.0</ele><time>2026-04-19T15:55:06Z</time></trkpt><trkpt lat="44.6920632965651" lon="11.780783868201421"><ele>2.0</ele><time>2026-04-19T15:55:07Z</time></trkpt><trkpt lat="44.69193976458882" lon="11.780599413513851"><ele>2.0</ele><time>2026-04-19T15:55:08Z</time></trkpt><trkpt lat="44.69181278254018" lon="11.780408101898608"><ele>2.0</ele><time>2026-04-19T15:55:09Z</time></trkpt><trkpt lat="44.69168040277294" lon="11.780217436720509"><ele>2.0</ele><time>2026-04-19T15:55:10Z</time></trkpt><trkpt lat="44.69154859847203" lon="11.780023274641113"><ele>2.0</ele><time>2026-04-19T15:55:11Z</time></trkpt><trkpt lat="44.69141511841054" lon="11.77982870666148"><ele>2.0</ele><time>2026-04-19T15:55:12Z</time></trkpt><trkpt lat="44.69128829570319" lon="11.779642907671347"><ele>2.0</ele><time>2026-04-19T15:55:13Z</time></trkpt><trkpt lat="44.69116298884093" lon="11.77945942374137"><ele>2.0</ele><time>2026-04-19T15:55:14Z</time></trkpt><trkpt lat="44.69104156135868" lon="11.779281722280992"><ele>2.0</ele><time>2026-04-19T15:55:15Z</time></trkpt><trkpt lat="44.69092240407408" lon="11.779108351102842"><ele>2.0</ele><time>2026-04-19T15:55:16Z</time></trkpt><trkpt lat="44.69080335157225" lon="11.778933176361518"><ele>2.0</ele><time>2026-04-19T15:55:17Z</time></trkpt><trkpt lat="44.69068507635462" lon="11.778760327172675"><ele>2.0</ele><time>2026-04-19T15:55:18Z</time></trkpt><trkpt lat="44.69056837540223" lon="11.778587052580281"><ele>1.6666666666666665</ele><time>2026-04-19T15:55:19Z</time></trkpt><trkpt lat="44.69045230547391" lon="11.778415742933849"><ele>1.3333333333333333</ele><time>2026-04-19T15:55:20Z</time></trkpt><trkpt lat="44.69033212029171" lon="11.77824407471705"><ele>1.0</ele><time>2026-04-19T15:55:21Z</time></trkpt><trkpt lat="44.69021248146743" lon="11.778072757738153"><ele>1.0</ele><time>2026-04-19T15:55:22Z</time></trkpt><trkpt lat="44.690095169455724" lon="11.777899822383365"><ele>1.0</ele><time>2026-04-19T15:55:23Z</time></trkpt><trkpt lat="44.689978228535644" lon="11.777731765257148"><ele>1.0</ele><time>2026-04-19T15:55:24Z</time></trkpt><trkpt lat="44.68986096763209" lon="11.777559885565351"><ele>0.6666666666666666</ele><time>2026-04-19T15:55:25Z</time></trkpt><trkpt lat="44.68974362086383" lon="11.777385528838236"><ele>0.3333333333333333</ele><time>2026-04-19T15:55:26Z</time></trkpt><trkpt lat="44.68962726389304" lon="11.777209092758477"><ele>0.0</ele><time>2026-04-19T15:55:27Z</time></trkpt><trkpt lat="44.689506462683894" lon="11.77703494932196"><ele>0.0</ele><time>2026-04-19T15:55:28Z</time></trkpt><trkpt lat="44.68938518632068" lon="11.776862121315448"><ele>0.0</ele><time>2026-04-19T15:55:29Z</time></trkpt><trkpt lat="44.68926483971472" lon="11.776691221180942"><ele>0.0</ele><time>2026-04-19T15:55:30Z</time></trkpt><trkpt lat="44.68914795075523" lon="11.776517593634914"><ele>0.3333333333333333</ele><time>2026-04-19T15:55:31Z</time></trkpt><trkpt lat="44.68903091401011" lon="11.776342531556761"><ele>0.6666666666666666</ele><time>2026-04-19T15:55:32Z</time></trkpt><trkpt lat="44.68891698562603" lon="11.776172385952128"><ele>1.0</ele><time>2026-04-19T15:55:33Z</time></trkpt><trkpt lat="44.68880672536204" lon="11.776005289132266"><ele>1.0</ele><time>2026-04-19T15:55:34Z</time></trkpt><trkpt lat="44.68869387378162" lon="11.775840527478373"><ele>1.0</ele><time>2026-04-19T15:55:35Z</time></trkpt><trkpt lat="44.6885932297492" lon="11.775696204784271"><ele>1.0</ele><time>2026-04-19T15:55:36Z</time></trkpt><trkpt lat="44.688493166653046" lon="11.775549297145309"><ele>1.0</ele><time>2026-04-19T15:55:37Z</time></trkpt><trkpt lat="44.68839136755201" lon="11.775398477377092"><ele>1.0</ele><time>2026-04-19T15:55:38Z</time></trkpt><trkpt lat="44.688302740335644" lon="11.775264656444934"><ele>1.0</ele><time>2026-04-19T15:55:39Z</time></trkpt><trkpt lat="44.688222029278066" lon="11.775140858758123"><ele>1.0</ele><time>2026-04-19T15:55:40Z</time></trkpt><trkpt lat="44.68813888104975" lon="11.775018905052729"><ele>1.0</ele><time>2026-04-19T15:55:41Z</time></trkpt><trkpt lat="44.688061116117794" lon="11.774905296603704"><ele>1.0</ele><time>2026-04-19T15:55:42Z</time></trkpt><trkpt lat="44.68799170680797" lon="11.774804143184793"><ele>1.0</ele><time>2026-04-19T15:55:43Z</time></trkpt><trkpt lat="44.68792584935297" lon="11.774708656236319"><ele>1.0</ele><time>2026-04-19T15:55:44Z</time></trkpt><trkpt lat="44.68786321620513" lon="11.774619180015364"><ele>1.0</ele><time>2026-04-19T15:55:45Z</time></trkpt><trkpt lat="44.68781370956556" lon="11.774537585600651"><ele>0.9999999999999999</ele><time>2026-04-19T15:55:46Z</time></trkpt><trkpt lat="44.687779425681526" lon="11.774457624726484"><ele>1.0</ele><time>2026-04-19T15:55:47Z</time></trkpt><trkpt lat="44.6877652261028" lon="11.77428710462808"><ele>1.0</ele><time>2026-04-19T15:55:49Z</time></trkpt><trkpt lat="44.68777221789002" lon="11.774189403225872"><ele>1.0</ele><time>2026-04-19T15:55:50Z</time></trkpt><trkpt lat="44.68776750788294" lon="11.774086850050823"><ele>0.9999999999999999</ele><time>2026-04-19T15:55:51Z</time></trkpt><trkpt lat="44.68773658691067" lon="11.77399479142405"><ele>1.0</ele><time>2026-04-19T15:55:52Z</time></trkpt><trkpt lat="44.68767965662736" lon="11.773914588121734"><ele>1.0</ele><time>2026-04-19T15:55:53Z</time></trkpt><trkpt lat="44.6876091041518" lon="11.773846106394268"><ele>1.0</ele><time>2026-04-19T15:55:54Z</time></trkpt><trkpt lat="44.687538901187615" lon="11.773792509598463"><ele>1.0</ele><time>2026-04-19T15:55:55Z</time></trkpt><trkpt lat="44.687469100283536" lon="11.773759970230333"><ele>1.0</ele><time>2026-04-19T15:55:56Z</time></trkpt><trkpt lat="44.687450702376275" lon="11.773596812713974"><ele>1.0</ele><time>2026-04-19T15:55:57Z</time></trkpt><trkpt lat="44.68744227825444" lon="11.773454408127979"><ele>0.9999999999999999</ele><time>2026-04-19T15:55:58Z</time></trkpt><trkpt lat="44.687443827530984" lon="11.773310082386589"><ele>1.0</ele><time>2026-04-19T15:55:59Z</time></trkpt><trkpt lat="44.68744892588894" lon="11.773179793048929"><ele>1.0</ele><time>2026-04-19T15:56:00Z</time></trkpt><trkpt lat="44.68745583938084" lon="11.773086944316367"><ele>1.0</ele><time>2026-04-19T15:56:01Z</time></trkpt><trkpt lat="44.68746846207416" lon="11.772988701845977"><ele>0.9999999999999999</ele><time>2026-04-19T15:56:02Z</time></trkpt><trkpt lat="44.687488453202185" lon="11.77290153905601"><ele>1.0</ele><time>2026-04-19T15:56:03Z</time></trkpt><trkpt lat="44.68752538562134" lon="11.77269712327126"><ele>1.0</ele><time>2026-04-19T15:56:05Z</time></trkpt><trkpt lat="44.68754889909177" lon="11.772547933404113"><ele>1.0</ele><time>2026-04-19T15:56:06Z</time></trkpt><trkpt lat="44.68756875324462" lon="11.772402376887209"><ele>1.0</ele><time>2026-04-19T15:56:07Z</time></trkpt><trkpt lat="44.68759008645801" lon="11.772249991761887"><ele>1.0</ele><time>2026-04-19T15:56:08Z</time></trkpt><trkpt lat="44.68761958442388" lon="11.772080710006911"><ele>1.0</ele><time>2026-04-19T15:56:09Z</time></trkpt><trkpt lat="44.68764915154235" lon="11.771928542812446"><ele>1.2000000000000002</ele><time>2026-04-19T15:56:10Z</time></trkpt><trkpt lat="44.68766861696158" lon="11.771796773230863"><ele>1.4000000000000001</ele><time>2026-04-19T15:56:11Z</time></trkpt><trkpt lat="44.68769256965786" lon="11.771668225942278"><ele>1.6</ele><time>2026-04-19T15:56:12Z</time></trkpt><trkpt lat="44.687705749192155" lon="11.77152555175371"><ele>1.8</ele><time>2026-04-19T15:56:13Z</time></trkpt><trkpt lat="44.6876970664504" lon="11.771390826772935"><ele>2.0</ele><time>2026-04-19T15:56:14Z</time></trkpt><trkpt lat="44.68766584824846" lon="11.771261048685687"><ele>2.0</ele><time>2026-04-19T15:56:15Z</time></trkpt><trkpt lat="44.687611742504856" lon="11.771138939695867"><ele>2.0</ele><time>2026-04-19T15:56:16Z</time></trkpt><trkpt lat="44.68754114390599" lon="11.77102901314506"><ele>2.0</ele><time>2026-04-19T15:56:17Z</time></trkpt><trkpt lat="44.68747029651536" lon="11.770928389386826"><ele>2.0</ele><time>2026-04-19T15:56:18Z</time></trkpt><trkpt lat="44.68741148295566" lon="11.77080878853843"><ele>2.0</ele><time>2026-04-19T15:56:19Z</time></trkpt><trkpt lat="44.6873747970647" lon="11.770676067468987"><ele>1.8</ele><time>2026-04-19T15:56:20Z</time></trkpt><trkpt lat="44.68735823015424" lon="11.770548669468933"><ele>1.6</ele><time>2026-04-19T15:56:21Z</time></trkpt><trkpt lat="44.68736900602695" lon="11.770399239649779"><ele>1.4000000000000001</ele><time>2026-04-19T15:56:22Z</time></trkpt><trkpt lat="44.687413252904435" lon="11.770259157962487"><ele>1.2000000000000002</ele><time>2026-04-19T15:56:23Z</time></trkpt><trkpt lat="44.68745673637808" lon="11.77011866281736"><ele>1.0</ele><time>2026-04-19T15:56:24Z</time></trkpt><trkpt lat="44.68755442111913" lon="11.769978865048003"><ele>1.0</ele><time>2026-04-19T15:56:25Z</time></trkpt><trkpt lat="44.687646278102385" lon="11.769813331473301"><ele>1.0</ele><time>2026-04-19T15:56:26Z</time></trkpt><trkpt lat="44.68773804888478" lon="11.769635921786149"><ele>1.0</ele><time>2026-04-19T15:56:27Z</time></trkpt><trkpt lat="44.68783433218432" lon="11.769455043337498"><ele>0.3333333333333333</ele><time>2026-04-19T15:56:28Z</time></trkpt><trkpt lat="44.68792774869106" lon="11.76926898964764"><ele>-0.3333333333333333</ele><time>2026-04-19T15:56:29Z</time></trkpt><trkpt lat="44.68802562657468" lon="11.769082601537285"><ele>-1.0</ele><time>2026-04-19T15:56:30Z</time></trkpt><trkpt lat="44.6881363295172" lon="11.76888302294221"><ele>-1.0</ele><time>2026-04-19T15:56:31Z</time></trkpt><trkpt lat="44.68825307367852" lon="11.768679574402954"><ele>-1.0</ele><time>2026-04-19T15:56:32Z</time></trkpt><trkpt lat="44.68837073757493" lon="11.768472033015435"><ele>-1.0</ele><time>2026-04-19T15:56:33Z</time></trkpt><trkpt lat="44.688485691583764" lon="11.768267783284823"><ele>-1.0</ele><time>2026-04-19T15:56:34Z</time></trkpt><trkpt lat="44.688602695998064" lon="11.768062060866837"><ele>-1.0</ele><time>2026-04-19T15:56:35Z</time></trkpt><trkpt lat="44.688718833013645" lon="11.76785705276298"><ele>-1.0</ele><time>2026-04-19T15:56:36Z</time></trkpt><trkpt lat="44.68883561460948" lon="11.767647673525035"><ele>-1.0</ele><time>2026-04-19T15:56:37Z</time></trkpt><trkpt lat="44.68894965914554" lon="11.767442797238708"><ele>-1.0</ele><time>2026-04-19T15:56:38Z</time></trkpt><trkpt lat="44.689061610319804" lon="11.767243917127054"><ele>-1.0</ele><time>2026-04-19T15:56:39Z</time></trkpt><trkpt lat="44.68917258564709" lon="11.767044316446615"><ele>-1.0</ele><time>2026-04-19T15:56:40Z</time></trkpt><trkpt lat="44.68928270288707" lon="11.766847470446596"><ele>-1.0</ele><time>2026-04-19T15:56:41Z</time></trkpt><trkpt lat="44.68939614185627" lon="11.766647949071888"><ele>-1.0</ele><time>2026-04-19T15:56:42Z</time></trkpt><trkpt lat="44.68950958262854" lon="11.766450474027051"><ele>-0.6666666666666666</ele><time>2026-04-19T15:56:43Z</time></trkpt><trkpt lat="44.68962042548568" lon="11.766254920876897"><ele>-0.3333333333333333</ele><time>2026-04-19T15:56:44Z</time></trkpt><trkpt lat="44.68973374614699" lon="11.766055563952959"><ele>0.0</ele><time>2026-04-19T15:56:45Z</time></trkpt><trkpt lat="44.689845741233896" lon="11.765859924522852"><ele>0.0</ele><time>2026-04-19T15:56:46Z</time></trkpt><trkpt lat="44.689959325291134" lon="11.765657271540276"><ele>0.0</ele><time>2026-04-19T15:56:47Z</time></trkpt><trkpt lat="44.69007658392359" lon="11.76545353764099"><ele>0.0</ele><time>2026-04-19T15:56:48Z</time></trkpt><trkpt lat="44.690189566930016" lon="11.765253096765159"><ele>0.0</ele><time>2026-04-19T15:56:49Z</time></trkpt><trkpt lat="44.69029915451888" lon="11.765051245079114"><ele>0.0</ele><time>2026-04-19T15:56:50Z</time></trkpt><trkpt lat="44.69041082694881" lon="11.764849294714402"><ele>0.0</ele><time>2026-04-19T15:56:51Z</time></trkpt><trkpt lat="44.690520452047146" lon="11.764657704006805"><ele>0.0</ele><time>2026-04-19T15:56:52Z</time></trkpt><trkpt lat="44.69063139939479" lon="11.764458691493095"><ele>0.0</ele><time>2026-04-19T15:56:53Z</time></trkpt><trkpt lat="44.69074247638795" lon="11.76426355060001"><ele>0.0</ele><time>2026-04-19T15:56:54Z</time></trkpt><trkpt lat="44.690851394538136" lon="11.764068637195543"><ele>0.0</ele><time>2026-04-19T15:56:55Z</time></trkpt><trkpt lat="44.690962426068545" lon="11.763863284736967"><ele>0.0</ele><time>2026-04-19T15:56:56Z</time></trkpt><trkpt lat="44.6910708824023" lon="11.76366253588504"><ele>0.0</ele><time>2026-04-19T15:56:57Z</time></trkpt><trkpt lat="44.691179192550585" lon="11.763465711201468"><ele>0.0</ele><time>2026-04-19T15:56:58Z</time></trkpt><trkpt lat="44.69128849798351" lon="11.763268846372188"><ele>0.0</ele><time>2026-04-19T15:56:59Z</time></trkpt><trkpt lat="44.69139975770335" lon="11.763071244023973"><ele>0.0</ele><time>2026-04-19T15:57:00Z</time></trkpt><trkpt lat="44.691511784010466" lon="11.762870400722571"><ele>-0.6666666666666666</ele><time>2026-04-19T15:57:01Z</time></trkpt><trkpt lat="44.691624069564995" lon="11.762671032716689"><ele>-1.3333333333333333</ele><time>2026-04-19T15:57:02Z</time></trkpt><trkpt lat="44.691738908595575" lon="11.762471945618936"><ele>-2.0</ele><time>2026-04-19T15:57:03Z</time></trkpt><trkpt lat="44.691853542228515" lon="11.762266222467268"><ele>-2.0</ele><time>2026-04-19T15:57:04Z</time></trkpt><trkpt lat="44.691964859904836" lon="11.76206648498964"><ele>-2.0</ele><time>2026-04-19T15:57:05Z</time></trkpt><trkpt lat="44.692077691945144" lon="11.761865305476098"><ele>-2.0</ele><time>2026-04-19T15:57:06Z</time></trkpt><trkpt lat="44.69219000709821" lon="11.761672749124315"><ele>-2.0</ele><time>2026-04-19T15:57:07Z</time></trkpt><trkpt lat="44.69230004983874" lon="11.761474432581025"><ele>-2.0</ele><time>2026-04-19T15:57:08Z</time></trkpt><trkpt lat="44.69240855191311" lon="11.761281046739565"><ele>-2.0</ele><time>2026-04-19T15:57:09Z</time></trkpt><trkpt lat="44.692519499227274" lon="11.761086671584847"><ele>-2.0</ele><time>2026-04-19T15:57:10Z</time></trkpt><trkpt lat="44.692626811609955" lon="11.76088710749678"><ele>-2.0</ele><time>2026-04-19T15:57:11Z</time></trkpt><trkpt lat="44.692734204108724" lon="11.760693288942432"><ele>-2.0</ele><time>2026-04-19T15:57:12Z</time></trkpt><trkpt lat="44.69284223994475" lon="11.760499569392916"><ele>-2.0</ele><time>2026-04-19T15:57:13Z</time></trkpt><trkpt lat="44.692947445259854" lon="11.76031443999888"><ele>-2.0</ele><time>2026-04-19T15:57:14Z</time></trkpt><trkpt lat="44.69305384070391" lon="11.760129277677633"><ele>-2.0</ele><time>2026-04-19T15:57:15Z</time></trkpt><trkpt lat="44.69315932248784" lon="11.759939469825493"><ele>-1.6666666666666665</ele><time>2026-04-19T15:57:16Z</time></trkpt><trkpt lat="44.69326635396665" lon="11.759748124735228"><ele>-1.3333333333333333</ele><time>2026-04-19T15:57:17Z</time></trkpt><trkpt lat="44.69336855267689" lon="11.759560830085494"><ele>-1.0</ele><time>2026-04-19T15:57:18Z</time></trkpt><trkpt lat="44.69347499063439" lon="11.759371898891079"><ele>-1.3333333333333333</ele><time>2026-04-19T15:57:19Z</time></trkpt><trkpt lat="44.693581339407025" lon="11.759183721380161"><ele>-1.6666666666666665</ele><time>2026-04-19T15:57:20Z</time></trkpt><trkpt lat="44.693686135183256" lon="11.758995781186398"><ele>-2.0</ele><time>2026-04-19T15:57:21Z</time></trkpt><trkpt lat="44.6937950029165" lon="11.758802903174871"><ele>-2.0</ele><time>2026-04-19T15:57:22Z</time></trkpt><trkpt lat="44.69390265586113" lon="11.75861082425567"><ele>-2.0</ele><time>2026-04-19T15:57:23Z</time></trkpt><trkpt lat="44.69400846918942" lon="11.758417845622192"><ele>-2.0</ele><time>2026-04-19T15:57:24Z</time></trkpt><trkpt lat="44.694116717612516" lon="11.75822564845328"><ele>-2.0</ele><time>2026-04-19T15:57:25Z</time></trkpt><trkpt lat="44.69422494930283" lon="11.75803098692541"><ele>-2.0</ele><time>2026-04-19T15:57:26Z</time></trkpt><trkpt lat="44.69432870563466" lon="11.757842474177822"><ele>-2.0</ele><time>2026-04-19T15:57:27Z</time></trkpt><trkpt lat="44.694435788012754" lon="11.757656822001772"><ele>-2.0</ele><time>2026-04-19T15:57:28Z</time></trkpt><trkpt lat="44.69454105689369" lon="11.757468964392647"><ele>-2.0</ele><time>2026-04-19T15:57:29Z</time></trkpt><trkpt lat="44.694646587457285" lon="11.757278795400701"><ele>-2.0</ele><time>2026-04-19T15:57:30Z</time></trkpt><trkpt lat="44.69475089792248" lon="11.757087206239058"><ele>-2.0</ele><time>2026-04-19T15:57:31Z</time></trkpt><trkpt lat="44.694857248077525" lon="11.756898221546772"><ele>-2.0</ele><time>2026-04-19T15:57:32Z</time></trkpt><trkpt lat="44.694963724064976" lon="11.756710665304846"><ele>-2.0</ele><time>2026-04-19T15:57:33Z</time></trkpt><trkpt lat="44.69507377545194" lon="11.75651593983168"><ele>-2.333333333333333</ele><time>2026-04-19T15:57:34Z</time></trkpt><trkpt lat="44.6951830500402" lon="11.7563228433915"><ele>-2.6666666666666665</ele><time>2026-04-19T15:57:35Z</time></trkpt><trkpt lat="44.69529528164627" lon="11.756127695181696"><ele>-3.0</ele><time>2026-04-19T15:57:36Z</time></trkpt><trkpt lat="44.69540746626646" lon="11.755929146999225"><ele>-2.3333333333333335</ele><time>2026-04-19T15:57:37Z</time></trkpt><trkpt lat="44.695516406460335" lon="11.755736080808795"><ele>-1.6666666666666665</ele><time>2026-04-19T15:57:38Z</time></trkpt><trkpt lat="44.69562521497972" lon="11.755538261321437"><ele>-1.0</ele><time>2026-04-19T15:57:39Z</time></trkpt><trkpt lat="44.69573281773947" lon="11.755346488902031"><ele>-1.3333333333333333</ele><time>2026-04-19T15:57:40Z</time></trkpt><trkpt lat="44.69584402477835" lon="11.75515514811484"><ele>-1.6666666666666665</ele><time>2026-04-19T15:57:41Z</time></trkpt><trkpt lat="44.695954901996686" lon="11.754963197288756"><ele>-2.0</ele><time>2026-04-19T15:57:42Z</time></trkpt><trkpt lat="44.69606146059502" lon="11.754772077371156"><ele>-1.6666666666666665</ele><time>2026-04-19T15:57:43Z</time></trkpt><trkpt lat="44.696170747961304" lon="11.754577255846078"><ele>-1.3333333333333333</ele><time>2026-04-19T15:57:44Z</time></trkpt><trkpt lat="44.696277468772735" lon="11.754390200223536"><ele>-1.0</ele><time>2026-04-19T15:57:45Z</time></trkpt><trkpt lat="44.69638550931043" lon="11.754206412558808"><ele>-1.0</ele><time>2026-04-19T15:57:46Z</time></trkpt><trkpt lat="44.69649171175321" lon="11.754030251415001"><ele>-1.0</ele><time>2026-04-19T15:57:47Z</time></trkpt><trkpt lat="44.6965909077829" lon="11.753857539531412"><ele>-1.0</ele><time>2026-04-19T15:57:48Z</time></trkpt><trkpt lat="44.696688833753015" lon="11.753697705746621"><ele>-1.0</ele><time>2026-04-19T15:57:49Z</time></trkpt><trkpt lat="44.696783923390875" lon="11.753539207737798"><ele>-1.0</ele><time>2026-04-19T15:57:50Z</time></trkpt><trkpt lat="44.69688027132034" lon="11.75337948939756"><ele>-1.0</ele><time>2026-04-19T15:57:51Z</time></trkpt><trkpt lat="44.696980947563894" lon="11.753213484746361"><ele>-0.6666666666666666</ele><time>2026-04-19T15:57:52Z</time></trkpt><trkpt lat="44.69708250883916" lon="11.753052720143597"><ele>-0.3333333333333333</ele><time>2026-04-19T15:57:53Z</time></trkpt><trkpt lat="44.69718184515766" lon="11.752893362015707"><ele>0.0</ele><time>2026-04-19T15:57:54Z</time></trkpt><trkpt lat="44.69728279458973" lon="11.752732669017691"><ele>0.3333333333333333</ele><time>2026-04-19T15:57:55Z</time></trkpt><trkpt lat="44.697383765344256" lon="11.75256984664182"><ele>0.6666666666666666</ele><time>2026-04-19T15:57:56Z</time></trkpt><trkpt lat="44.69748529461984" lon="11.752401510320373"><ele>1.0</ele><time>2026-04-19T15:57:57Z</time></trkpt><trkpt lat="44.697589965266175" lon="11.752231258666916"><ele>1.0</ele><time>2026-04-19T15:57:58Z</time></trkpt><trkpt lat="44.697699426046924" lon="11.752058949138197"><ele>1.0</ele><time>2026-04-19T15:57:59Z</time></trkpt><trkpt lat="44.697806497452895" lon="11.751886741575348"><ele>1.0</ele><time>2026-04-19T15:58:00Z</time></trkpt><trkpt lat="44.697915977097345" lon="11.751708650813598"><ele>1.3333333333333333</ele><time>2026-04-19T15:58:01Z</time></trkpt><trkpt lat="44.69802323079412" lon="11.751534326657236"><ele>1.6666666666666665</ele><time>2026-04-19T15:58:02Z</time></trkpt><trkpt lat="44.69812922027652" lon="11.7513532074672"><ele>2.0</ele><time>2026-04-19T15:58:03Z</time></trkpt><trkpt lat="44.69823337224792" lon="11.751181006817754"><ele>2.0</ele><time>2026-04-19T15:58:04Z</time></trkpt><trkpt lat="44.69834447535346" lon="11.751011269025987"><ele>2.0</ele><time>2026-04-19T15:58:05Z</time></trkpt><trkpt lat="44.698449730401315" lon="11.75084435000096"><ele>2.0</ele><time>2026-04-19T15:58:06Z</time></trkpt><trkpt lat="44.69855736300772" lon="11.75067331839521"><ele>1.6666666666666665</ele><time>2026-04-19T15:58:07Z</time></trkpt><trkpt lat="44.698661476333086" lon="11.750505472869822"><ele>1.3333333333333333</ele><time>2026-04-19T15:58:08Z</time></trkpt><trkpt lat="44.698771215912046" lon="11.750330690931705"><ele>1.0</ele><time>2026-04-19T15:58:09Z</time></trkpt><trkpt lat="44.698883898085874" lon="11.75014581180137"><ele>1.0</ele><time>2026-04-19T15:58:10Z</time></trkpt><trkpt lat="44.69900281411541" lon="11.74996117509659"><ele>1.0</ele><time>2026-04-19T15:58:11Z</time></trkpt><trkpt lat="44.699121374899306" lon="11.749763928600341"><ele>1.0</ele><time>2026-04-19T15:58:12Z</time></trkpt><trkpt lat="44.699241467940745" lon="11.749567085600761"><ele>1.0</ele><time>2026-04-19T15:58:13Z</time></trkpt><trkpt lat="44.69935715414289" lon="11.74938065352442"><ele>1.0</ele><time>2026-04-19T15:58:14Z</time></trkpt><trkpt lat="44.699471293952904" lon="11.749196677387983"><ele>1.0</ele><time>2026-04-19T15:58:15Z</time></trkpt><trkpt lat="44.69957917484948" lon="11.749020209846543"><ele>1.0</ele><time>2026-04-19T15:58:16Z</time></trkpt><trkpt lat="44.69968510558863" lon="11.748848852158138"><ele>1.0</ele><time>2026-04-19T15:58:17Z</time></trkpt><trkpt lat="44.699786099254844" lon="11.748689146729017"><ele>1.0</ele><time>2026-04-19T15:58:18Z</time></trkpt><trkpt lat="44.699882832017124" lon="11.748540728862531"><ele>0.75</ele><time>2026-04-19T15:58:19Z</time></trkpt><trkpt lat="44.69997359193462" lon="11.748398710690322"><ele>0.5</ele><time>2026-04-19T15:58:20Z</time></trkpt><trkpt lat="44.7000597744135" lon="11.748266991677104"><ele>0.25</ele><time>2026-04-19T15:58:21Z</time></trkpt><trkpt lat="44.70014086113779" lon="11.748139833139136"><ele>0.0</ele><time>2026-04-19T15:58:22Z</time></trkpt><trkpt lat="44.700212699173235" lon="11.748021340180562"><ele>0.2</ele><time>2026-04-19T15:58:23Z</time></trkpt><trkpt lat="44.700282586195264" lon="11.747917179779806"><ele>0.4</ele><time>2026-04-19T15:58:24Z</time></trkpt><trkpt lat="44.70034493364585" lon="11.747819833069341"><ele>0.6000000000000001</ele><time>2026-04-19T15:58:25Z</time></trkpt><trkpt lat="44.700406566436136" lon="11.747727370753566"><ele>0.8</ele><time>2026-04-19T15:58:26Z</time></trkpt><trkpt lat="44.70046753318376" lon="11.74764679345785"><ele>1.0</ele><time>2026-04-19T15:58:27Z</time></trkpt><trkpt lat="44.700522264878295" lon="11.747556975706344"><ele>0.9999999999999999</ele><time>2026-04-19T15:58:28Z</time></trkpt><trkpt lat="44.70057965237489" lon="11.747472123592788"><ele>1.0</ele><time>2026-04-19T15:58:29Z</time></trkpt><trkpt lat="44.70063902120421" lon="11.74738174612665"><ele>1.0</ele><time>2026-04-19T15:58:30Z</time></trkpt><trkpt lat="44.70070099337623" lon="11.747289429106734"><ele>1.0</ele><time>2026-04-19T15:58:31Z</time></trkpt><trkpt lat="44.70076082594242" lon="11.74720159630133"><ele>0.9999999999999999</ele><time>2026-04-19T15:58:32Z</time></trkpt><trkpt lat="44.700817800177894" lon="11.747127602932434"><ele>1.0</ele><time>2026-04-19T15:58:33Z</time></trkpt><trkpt lat="44.70088580557743" lon="11.747063955320868"><ele>1.0</ele><time>2026-04-19T15:58:34Z</time></trkpt><trkpt lat="44.70096587369428" lon="11.747019934873762"><ele>1.0</ele><time>2026-04-19T15:58:35Z</time></trkpt><trkpt lat="44.70105420453584" lon="11.747004876140963"><ele>1.0</ele><time>2026-04-19T15:58:36Z</time></trkpt><trkpt lat="44.70115108951169" lon="11.747010545693595"><ele>1.0</ele><time>2026-04-19T15:58:37Z</time></trkpt><trkpt lat="44.70124652608294" lon="11.747049229578579"><ele>1.0</ele><time>2026-04-19T15:58:38Z</time></trkpt><trkpt lat="44.70134473623836" lon="11.74706473168673"><ele>1.0</ele><time>2026-04-19T15:58:39Z</time></trkpt><trkpt lat="44.701431369240034" lon="11.747216226444799"><ele>1.0</ele><time>2026-04-19T15:58:40Z</time></trkpt><trkpt lat="44.70150673448792" lon="11.747326162442707"><ele>1.0</ele><time>2026-04-19T15:58:41Z</time></trkpt><trkpt lat="44.70156738639261" lon="11.74742309573082"><ele>1.0</ele><time>2026-04-19T15:58:42Z</time></trkpt><trkpt lat="44.7016299419885" lon="11.747475177836822"><ele>1.0</ele><time>2026-04-19T15:58:43Z</time></trkpt><trkpt lat="44.701678564594125" lon="11.747533424629866"><ele>0.9999999999999999</ele><time>2026-04-19T15:58:44Z</time></trkpt><trkpt lat="44.70175083123533" lon="11.747607022577586"><ele>1.0</ele><time>2026-04-19T15:58:46Z</time></trkpt><trkpt lat="44.7018235417314" lon="11.747639399446188"><ele>1.0</ele><time>2026-04-19T15:58:50Z</time></trkpt><trkpt lat="44.70187497455196" lon="11.747545287797555"><ele>1.0</ele><time>2026-04-19T15:58:51Z</time></trkpt><trkpt lat="44.701904505423215" lon="11.747451753145512"><ele>0.9999999999999999</ele><time>2026-04-19T15:58:52Z</time></trkpt><trkpt lat="44.70193760318454" lon="11.747322701384647"><ele>1.0</ele><time>2026-04-19T15:58:53Z</time></trkpt><trkpt lat="44.70197207442851" lon="11.747203283130641"><ele>1.0</ele><time>2026-04-19T15:58:54Z</time></trkpt><trkpt lat="44.70202543759508" lon="11.747075782642025"><ele>1.0</ele><time>2026-04-19T15:58:55Z</time></trkpt><trkpt lat="44.70210088960326" lon="11.746927058812952"><ele>1.0</ele><time>2026-04-19T15:58:56Z</time></trkpt><trkpt lat="44.70217939156753" lon="11.746762080579371"><ele>1.0</ele><time>2026-04-19T15:58:57Z</time></trkpt><trkpt lat="44.70224707414877" lon="11.746591012668958"><ele>0.75</ele><time>2026-04-19T15:58:58Z</time></trkpt><trkpt lat="44.70228233912801" lon="11.746400569136362"><ele>0.5</ele><time>2026-04-19T15:58:59Z</time></trkpt><trkpt lat="44.70228392277501" lon="11.746217358815349"><ele>0.25</ele><time>2026-04-19T15:59:00Z</time></trkpt><trkpt lat="44.702267270363464" lon="11.74604431790398"><ele>0.0</ele><time>2026-04-19T15:59:01Z</time></trkpt><trkpt lat="44.70222364444058" lon="11.745881527074745"><ele>0.0</ele><time>2026-04-19T15:59:02Z</time></trkpt><trkpt lat="44.702158240013375" lon="11.74572761959369"><ele>0.0</ele><time>2026-04-19T15:59:03Z</time></trkpt><trkpt lat="44.70206943090639" lon="11.745587381080076"><ele>0.0</ele><time>2026-04-19T15:59:04Z</time></trkpt><trkpt lat="44.70198555544589" lon="11.745475825364244"><ele>0.0</ele><time>2026-04-19T15:59:05Z</time></trkpt><trkpt lat="44.701903145440816" lon="11.745384808595484"><ele>0.0</ele><time>2026-04-19T15:59:06Z</time></trkpt><trkpt lat="44.70181877066708" lon="11.745289309193533"><ele>0.0</ele><time>2026-04-19T15:59:07Z</time></trkpt><trkpt lat="44.70173423160339" lon="11.745187758431646"><ele>0.0</ele><time>2026-04-19T15:59:08Z</time></trkpt><trkpt lat="44.70165099302175" lon="11.745087378745108"><ele>0.0</ele><time>2026-04-19T15:59:09Z</time></trkpt><trkpt lat="44.70157528650746" lon="11.74498740409684"><ele>0.0</ele><time>2026-04-19T15:59:10Z</time></trkpt><trkpt lat="44.7015076622339" lon="11.744903266898051"><ele>0.4</ele><time>2026-04-19T15:59:11Z</time></trkpt><trkpt lat="44.701443322310574" lon="11.744791730971519"><ele>0.8</ele><time>2026-04-19T15:59:12Z</time></trkpt><trkpt lat="44.70139539877177" lon="11.744646403423532"><ele>1.2000000000000002</ele><time>2026-04-19T15:59:13Z</time></trkpt><trkpt lat="44.70136084541663" lon="11.744490972239817"><ele>1.6</ele><time>2026-04-19T15:59:14Z</time></trkpt><trkpt lat="44.7013499804933" lon="11.744340378521093"><ele>2.0</ele><time>2026-04-19T15:59:15Z</time></trkpt><trkpt lat="44.70135020007875" lon="11.744174526756405"><ele>2.0</ele><time>2026-04-19T15:59:16Z</time></trkpt><trkpt lat="44.701371849452165" lon="11.743985759780987"><ele>2.0</ele><time>2026-04-19T15:59:17Z</time></trkpt><trkpt lat="44.701409709870255" lon="11.743800423332724"><ele>2.0</ele><time>2026-04-19T15:59:18Z</time></trkpt><trkpt lat="44.70143821480412" lon="11.74362306464563"><ele>2.0</ele><time>2026-04-19T15:59:19Z</time></trkpt><trkpt lat="44.7014493489303" lon="11.743453465667823"><ele>1.75</ele><time>2026-04-19T15:59:20Z</time></trkpt><trkpt lat="44.70143990101474" lon="11.743285306430238"><ele>1.5</ele><time>2026-04-19T15:59:21Z</time></trkpt><trkpt lat="44.701408213272344" lon="11.743122519912093"><ele>1.25</ele><time>2026-04-19T15:59:22Z</time></trkpt><trkpt lat="44.70135386441888" lon="11.742976307704618"><ele>1.0</ele><time>2026-04-19T15:59:23Z</time></trkpt><trkpt lat="44.701279526980606" lon="11.742825255008663"><ele>1.0</ele><time>2026-04-19T15:59:24Z</time></trkpt><trkpt lat="44.701188432796165" lon="11.742671035119784"><ele>1.0</ele><time>2026-04-19T15:59:25Z</time></trkpt><trkpt lat="44.701086593138726" lon="11.742510766533721"><ele>1.0</ele><time>2026-04-19T15:59:26Z</time></trkpt><trkpt lat="44.70099165123672" lon="11.742348681561571"><ele>1.0</ele><time>2026-04-19T15:59:27Z</time></trkpt><trkpt lat="44.700902769227646" lon="11.742180146035622"><ele>1.0</ele><time>2026-04-19T15:59:28Z</time></trkpt><trkpt lat="44.70082816757138" lon="11.74201707795069"><ele>1.0</ele><time>2026-04-19T15:59:29Z</time></trkpt><trkpt lat="44.70076546368829" lon="11.741858548408588"><ele>1.0</ele><time>2026-04-19T15:59:30Z</time></trkpt><trkpt lat="44.70071354601823" lon="11.741704204316825"><ele>1.0</ele><time>2026-04-19T15:59:31Z</time></trkpt><trkpt lat="44.70067774943634" lon="11.741543927185234"><ele>1.0</ele><time>2026-04-19T15:59:32Z</time></trkpt><trkpt lat="44.70067708978094" lon="11.741364498244224"><ele>1.0</ele><time>2026-04-19T15:59:33Z</time></trkpt><trkpt lat="44.70066472890661" lon="11.74118402576586"><ele>1.0</ele><time>2026-04-19T15:59:34Z</time></trkpt><trkpt lat="44.70067237991288" lon="11.740980610852858"><ele>1.0</ele><time>2026-04-19T15:59:35Z</time></trkpt><trkpt lat="44.70068241017276" lon="11.74075505452113"><ele>1.0</ele><time>2026-04-19T15:59:36Z</time></trkpt><trkpt lat="44.700710201809" lon="11.740527218335847"><ele>1.0</ele><time>2026-04-19T15:59:37Z</time></trkpt><trkpt lat="44.70072142651885" lon="11.740308955577662"><ele>1.0</ele><time>2026-04-19T15:59:38Z</time></trkpt><trkpt lat="44.70073628102594" lon="11.740084905783293"><ele>1.0</ele><time>2026-04-19T15:59:39Z</time></trkpt><trkpt lat="44.70075569157896" lon="11.739848916852349"><ele>1.0</ele><time>2026-04-19T15:59:40Z</time></trkpt><trkpt lat="44.7007718782945" lon="11.739589111786767"><ele>1.0</ele><time>2026-04-19T15:59:41Z</time></trkpt><trkpt lat="44.70079557007828" lon="11.739317282577945"><ele>1.0</ele><time>2026-04-19T15:59:42Z</time></trkpt><trkpt lat="44.70081259375686" lon="11.739048656974456"><ele>1.0</ele><time>2026-04-19T15:59:43Z</time></trkpt><trkpt lat="44.70083088606065" lon="11.738788039065891"><ele>1.0</ele><time>2026-04-19T15:59:44Z</time></trkpt><trkpt lat="44.700848151044575" lon="11.738532902669498"><ele>1.0</ele><time>2026-04-19T15:59:45Z</time></trkpt><trkpt lat="44.70086782337177" lon="11.738279742718557"><ele>1.0</ele><time>2026-04-19T15:59:46Z</time></trkpt><trkpt lat="44.700883918411066" lon="11.738023005738578"><ele>1.0</ele><time>2026-04-19T15:59:47Z</time></trkpt><trkpt lat="44.700900663689836" lon="11.73777033447597"><ele>1.0</ele><time>2026-04-19T15:59:48Z</time></trkpt><trkpt lat="44.70092029958629" lon="11.73752651361673"><ele>1.0</ele><time>2026-04-19T15:59:49Z</time></trkpt><trkpt lat="44.700940902067586" lon="11.737280538712842"><ele>1.0</ele><time>2026-04-19T15:59:50Z</time></trkpt><trkpt lat="44.70096276289402" lon="11.73702798417876"><ele>0.6666666666666666</ele><time>2026-04-19T15:59:51Z</time></trkpt><trkpt lat="44.70098626586109" lon="11.736768372062846"><ele>0.3333333333333333</ele><time>2026-04-19T15:59:52Z</time></trkpt><trkpt lat="44.70100658132933" lon="11.73651434836879"><ele>0.0</ele><time>2026-04-19T15:59:53Z</time></trkpt><trkpt lat="44.701025269484475" lon="11.736260748849018"><ele>-0.3333333333333333</ele><time>2026-04-19T15:59:54Z</time></trkpt><trkpt lat="44.70106333532389" lon="11.736007058170681"><ele>-0.6666666666666666</ele><time>2026-04-19T15:59:55Z</time></trkpt><trkpt lat="44.70107017230149" lon="11.735755439759593"><ele>-1.0</ele><time>2026-04-19T15:59:56Z</time></trkpt><trkpt lat="44.70109341075431" lon="11.735504374472931"><ele>-0.3333333333333333</ele><time>2026-04-19T15:59:57Z</time></trkpt><trkpt lat="44.70111696647375" lon="11.735258604610854"><ele>0.3333333333333333</ele><time>2026-04-19T15:59:58Z</time></trkpt><trkpt lat="44.70113919506229" lon="11.735012129089965"><ele>1.0</ele><time>2026-04-19T15:59:59Z</time></trkpt><trkpt lat="44.7011606483066" lon="11.734761756913763"><ele>1.0</ele><time>2026-04-19T16:00:00Z</time></trkpt><trkpt lat="44.70118029638097" lon="11.734510553834344"><ele>1.0</ele><time>2026-04-19T16:00:01Z</time></trkpt><trkpt lat="44.701199875665864" lon="11.73426175434692"><ele>1.0</ele><time>2026-04-19T16:00:02Z</time></trkpt><trkpt lat="44.701218786997174" lon="11.734012696983509"><ele>0.6666666666666666</ele><time>2026-04-19T16:00:03Z</time></trkpt><trkpt lat="44.70124271885399" lon="11.733772377848176"><ele>0.3333333333333333</ele><time>2026-04-19T16:00:04Z</time></trkpt><trkpt lat="44.70126403124618" lon="11.733519974137828"><ele>0.0</ele><time>2026-04-19T16:00:05Z</time></trkpt><trkpt lat="44.70128626403739" lon="11.73326578373825"><ele>-1.3333333333333333</ele><time>2026-04-19T16:00:06Z</time></trkpt><trkpt lat="44.70130950718279" lon="11.733020272264673"><ele>-2.6666666666666665</ele><time>2026-04-19T16:00:07Z</time></trkpt><trkpt lat="44.70133035588594" lon="11.732772355042364"><ele>-4.0</ele><time>2026-04-19T16:00:08Z</time></trkpt><trkpt lat="44.70135090842083" lon="11.732521978879028"><ele>-4.0</ele><time>2026-04-19T16:00:09Z</time></trkpt><trkpt lat="44.70137211820121" lon="11.732277623891033"><ele>-4.0</ele><time>2026-04-19T16:00:10Z</time></trkpt><trkpt lat="44.70139263674283" lon="11.732030707958714"><ele>-4.0</ele><time>2026-04-19T16:00:11Z</time></trkpt><trkpt lat="44.701413298916485" lon="11.731774768744112"><ele>-2.6666666666666665</ele><time>2026-04-19T16:00:12Z</time></trkpt><trkpt lat="44.701437751277126" lon="11.731528250148743"><ele>-1.3333333333333333</ele><time>2026-04-19T16:00:13Z</time></trkpt><trkpt lat="44.701462649571134" lon="11.731286915718817"><ele>0.0</ele><time>2026-04-19T16:00:14Z</time></trkpt><trkpt lat="44.70148312326773" lon="11.731046890053774"><ele>0.0</ele><time>2026-04-19T16:00:15Z</time></trkpt><trkpt lat="44.701501284464484" lon="11.730806916458702"><ele>0.0</ele><time>2026-04-19T16:00:16Z</time></trkpt><trkpt lat="44.70152235382542" lon="11.73058420476449"><ele>0.0</ele><time>2026-04-19T16:00:17Z</time></trkpt><trkpt lat="44.701543293595655" lon="11.730363987877396"><ele>-0.25</ele><time>2026-04-19T16:00:18Z</time></trkpt><trkpt lat="44.70156515688345" lon="11.730156382965347"><ele>-0.5</ele><time>2026-04-19T16:00:19Z</time></trkpt><trkpt lat="44.70158508068001" lon="11.729955158076226"><ele>-0.75</ele><time>2026-04-19T16:00:20Z</time></trkpt><trkpt lat="44.701602618312286" lon="11.72976863820579"><ele>-1.0</ele><time>2026-04-19T16:00:21Z</time></trkpt><trkpt lat="44.70161991283849" lon="11.729595781716943"><ele>-1.0</ele><time>2026-04-19T16:00:22Z</time></trkpt><trkpt lat="44.701634936153205" lon="11.729426700327455"><ele>-1.0</ele><time>2026-04-19T16:00:23Z</time></trkpt><trkpt lat="44.7016441666095" lon="11.729264308480802"><ele>-1.0</ele><time>2026-04-19T16:00:24Z</time></trkpt><trkpt lat="44.70164838805001" lon="11.729106292128115"><ele>-1.0</ele><time>2026-04-19T16:00:25Z</time></trkpt><trkpt lat="44.70165794936182" lon="11.728946835181194"><ele>-1.0</ele><time>2026-04-19T16:00:26Z</time></trkpt><trkpt lat="44.7016637790443" lon="11.728783962767256"><ele>-1.0</ele><time>2026-04-19T16:00:27Z</time></trkpt><trkpt lat="44.70172313468859" lon="11.728610460720386"><ele>-1.0</ele><time>2026-04-19T16:00:28Z</time></trkpt><trkpt lat="44.70179836538278" lon="11.728444929513618"><ele>-1.0</ele><time>2026-04-19T16:00:29Z</time></trkpt><trkpt lat="44.701874197415975" lon="11.728247559450585"><ele>-0.6666666666666666</ele><time>2026-04-19T16:00:30Z</time></trkpt><trkpt lat="44.70193072332102" lon="11.72803788123435"><ele>-0.3333333333333333</ele><time>2026-04-19T16:00:31Z</time></trkpt><trkpt lat="44.702004060426205" lon="11.727849697559517"><ele>0.0</ele><time>2026-04-19T16:00:32Z</time></trkpt><trkpt lat="44.70206006657257" lon="11.72763233369011"><ele>0.0</ele><time>2026-04-19T16:00:33Z</time></trkpt><trkpt lat="44.7021159292669" lon="11.727410027362316"><ele>0.0</ele><time>2026-04-19T16:00:34Z</time></trkpt><trkpt lat="44.702165096010816" lon="11.727169946755057"><ele>0.0</ele><time>2026-04-19T16:00:35Z</time></trkpt><trkpt lat="44.70221207100517" lon="11.726922632448378"><ele>0.6666666666666666</ele><time>2026-04-19T16:00:36Z</time></trkpt><trkpt lat="44.70226011269595" lon="11.726666524033766"><ele>1.3333333333333333</ele><time>2026-04-19T16:00:37Z</time></trkpt><trkpt lat="44.70230946575821" lon="11.726409799849737"><ele>2.0</ele><time>2026-04-19T16:00:38Z</time></trkpt><trkpt lat="44.70235393527134" lon="11.726168394006415"><ele>2.333333333333333</ele><time>2026-04-19T16:00:39Z</time></trkpt><trkpt lat="44.702398551810816" lon="11.725932477882138"><ele>2.6666666666666665</ele><time>2026-04-19T16:00:40Z</time></trkpt><trkpt lat="44.70244546746186" lon="11.72570371905351"><ele>3.0</ele><time>2026-04-19T16:00:41Z</time></trkpt><trkpt lat="44.70249310139699" lon="11.725481664699002"><ele>3.0</ele><time>2026-04-19T16:00:42Z</time></trkpt><trkpt lat="44.702539381213576" lon="11.725279379206592"><ele>3.0</ele><time>2026-04-19T16:00:43Z</time></trkpt><trkpt lat="44.70258208511952" lon="11.72508891054931"><ele>3.0</ele><time>2026-04-19T16:00:44Z</time></trkpt><trkpt lat="44.70262018875671" lon="11.724918472181987"><ele>3.0</ele><time>2026-04-19T16:00:45Z</time></trkpt><trkpt lat="44.70265541966898" lon="11.724765890009037"><ele>3.0</ele><time>2026-04-19T16:00:46Z</time></trkpt><trkpt lat="44.70267641386647" lon="11.724610673853013"><ele>3.0</ele><time>2026-04-19T16:00:47Z</time></trkpt><trkpt lat="44.70267583335883" lon="11.724435554974297"><ele>3.0</ele><time>2026-04-19T16:00:48Z</time></trkpt><trkpt lat="44.70265111809665" lon="11.724258273619204"><ele>3.0</ele><time>2026-04-19T16:00:49Z</time></trkpt><trkpt lat="44.70262379676651" lon="11.724083726439707"><ele>2.75</ele><time>2026-04-19T16:00:50Z</time></trkpt><trkpt lat="44.70260302739701" lon="11.723898660765322"><ele>2.5</ele><time>2026-04-19T16:00:51Z</time></trkpt><trkpt lat="44.702616541656575" lon="11.723705778813706"><ele>2.25</ele><time>2026-04-19T16:00:52Z</time></trkpt><trkpt lat="44.70264648007228" lon="11.72349798741362"><ele>2.0</ele><time>2026-04-19T16:00:53Z</time></trkpt><trkpt lat="44.70268343159705" lon="11.723288989021352"><ele>2.0</ele><time>2026-04-19T16:00:54Z</time></trkpt><trkpt lat="44.70272329212262" lon="11.7230733908124"><ele>2.0</ele><time>2026-04-19T16:00:55Z</time></trkpt><trkpt lat="44.70277005394259" lon="11.72285467102224"><ele>2.0</ele><time>2026-04-19T16:00:56Z</time></trkpt><trkpt lat="44.70282904637617" lon="11.722640473001057"><ele>2.0</ele><time>2026-04-19T16:00:57Z</time></trkpt><trkpt lat="44.702902845829755" lon="11.722427100839727"><ele>2.0</ele><time>2026-04-19T16:00:58Z</time></trkpt><trkpt lat="44.70298862305078" lon="11.72221331807961"><ele>2.0</ele><time>2026-04-19T16:00:59Z</time></trkpt><trkpt lat="44.70307231701164" lon="11.721995661881591"><ele>1.6666666666666665</ele><time>2026-04-19T16:01:00Z</time></trkpt><trkpt lat="44.70316158409231" lon="11.721787771263356"><ele>1.3333333333333333</ele><time>2026-04-19T16:01:01Z</time></trkpt><trkpt lat="44.70325435637757" lon="11.721577904404374"><ele>1.0</ele><time>2026-04-19T16:01:02Z</time></trkpt><trkpt lat="44.70334399439449" lon="11.721368525158107"><ele>1.0</ele><time>2026-04-19T16:01:03Z</time></trkpt><trkpt lat="44.703436320990924" lon="11.72115291637369"><ele>1.0</ele><time>2026-04-19T16:01:04Z</time></trkpt><trkpt lat="44.70352889340912" lon="11.72094585616872"><ele>1.0</ele><time>2026-04-19T16:01:05Z</time></trkpt><trkpt lat="44.7036215239285" lon="11.720741157498097"><ele>1.0</ele><time>2026-04-19T16:01:06Z</time></trkpt><trkpt lat="44.703715112787485" lon="11.720534641939887"><ele>1.0</ele><time>2026-04-19T16:01:07Z</time></trkpt><trkpt lat="44.70380729639493" lon="11.720329241316769"><ele>1.0</ele><time>2026-04-19T16:01:08Z</time></trkpt><trkpt lat="44.70390082259932" lon="11.720122901964588"><ele>1.0</ele><time>2026-04-19T16:01:09Z</time></trkpt><trkpt lat="44.70399175181825" lon="11.719919094765027"><ele>1.0</ele><time>2026-04-19T16:01:10Z</time></trkpt><trkpt lat="44.7040821420328" lon="11.719713918748138"><ele>1.0</ele><time>2026-04-19T16:01:11Z</time></trkpt><trkpt lat="44.70417110590802" lon="11.719517762662026"><ele>0.75</ele><time>2026-04-19T16:01:12Z</time></trkpt><trkpt lat="44.704254677261325" lon="11.71933940862063"><ele>0.5</ele><time>2026-04-19T16:01:13Z</time></trkpt><trkpt lat="44.704331459885374" lon="11.719169259131348"><ele>0.25</ele><time>2026-04-19T16:01:14Z</time></trkpt><trkpt lat="44.70440552985426" lon="11.718996566445158"><ele>0.0</ele><time>2026-04-19T16:01:15Z</time></trkpt><trkpt lat="44.70448108282504" lon="11.71882800078378"><ele>0.0</ele><time>2026-04-19T16:01:16Z</time></trkpt><trkpt lat="44.70455106848806" lon="11.718675698185352"><ele>0.0</ele><time>2026-04-19T16:01:17Z</time></trkpt><trkpt lat="44.70461828205251" lon="11.718541892463914"><ele>0.0</ele><time>2026-04-19T16:01:18Z</time></trkpt><trkpt lat="44.70468928432911" lon="11.718397115223262"><ele>0.0</ele><time>2026-04-19T16:01:19Z</time></trkpt><trkpt lat="44.70475705418224" lon="11.718253339517753"><ele>0.25</ele><time>2026-04-19T16:01:20Z</time></trkpt><trkpt lat="44.70482490094601" lon="11.718098789732293"><ele>0.5</ele><time>2026-04-19T16:01:21Z</time></trkpt><trkpt lat="44.70488422950935" lon="11.71792380420011"><ele>0.75</ele><time>2026-04-19T16:01:22Z</time></trkpt><trkpt lat="44.70492598468223" lon="11.71773032095632"><ele>1.0</ele><time>2026-04-19T16:01:23Z</time></trkpt><trkpt lat="44.704951977953904" lon="11.717516707508596"><ele>1.0</ele><time>2026-04-19T16:01:24Z</time></trkpt><trkpt lat="44.704968897681795" lon="11.717298769669304"><ele>1.0</ele><time>2026-04-19T16:01:25Z</time></trkpt><trkpt lat="44.70498550512089" lon="11.71707548589099"><ele>1.0</ele><time>2026-04-19T16:01:26Z</time></trkpt><trkpt lat="44.70502358191071" lon="11.716840522975987"><ele>1.0</ele><time>2026-04-19T16:01:27Z</time></trkpt><trkpt lat="44.705030809508905" lon="11.71660655697481"><ele>1.0</ele><time>2026-04-19T16:01:28Z</time></trkpt><trkpt lat="44.705051089389215" lon="11.716359685494286"><ele>1.0</ele><time>2026-04-19T16:01:29Z</time></trkpt><trkpt lat="44.70506862448393" lon="11.716114462462684"><ele>1.0</ele><time>2026-04-19T16:01:30Z</time></trkpt><trkpt lat="44.70508171940384" lon="11.715871898148736"><ele>1.0</ele><time>2026-04-19T16:01:31Z</time></trkpt><trkpt lat="44.70509632797339" lon="11.715634328729221"><ele>1.0</ele><time>2026-04-19T16:01:32Z</time></trkpt><trkpt lat="44.70512503940723" lon="11.715397039342426"><ele>1.3333333333333333</ele><time>2026-04-19T16:01:33Z</time></trkpt><trkpt lat="44.70513105070709" lon="11.7151607724967"><ele>1.6666666666666665</ele><time>2026-04-19T16:01:34Z</time></trkpt><trkpt lat="44.7051420084374" lon="11.714925782987141"><ele>2.0</ele><time>2026-04-19T16:01:35Z</time></trkpt><trkpt lat="44.705153069575516" lon="11.714691844169131"><ele>2.0</ele><time>2026-04-19T16:01:36Z</time></trkpt><trkpt lat="44.70516983536992" lon="11.714463372497448"><ele>2.0</ele><time>2026-04-19T16:01:37Z</time></trkpt><trkpt lat="44.70518960621967" lon="11.714231874662833"><ele>2.0</ele><time>2026-04-19T16:01:38Z</time></trkpt><trkpt lat="44.70520984704756" lon="11.713997048291127"><ele>2.0</ele><time>2026-04-19T16:01:39Z</time></trkpt><trkpt lat="44.705234146950346" lon="11.713763809297568"><ele>2.0</ele><time>2026-04-19T16:01:40Z</time></trkpt><trkpt lat="44.70526217596031" lon="11.713531022705038"><ele>2.0</ele><time>2026-04-19T16:01:41Z</time></trkpt><trkpt lat="44.70529357112133" lon="11.713316656241295"><ele>3.0</ele><time>2026-04-19T16:01:42Z</time></trkpt><trkpt lat="44.70532574440886" lon="11.71311196181724"><ele>4.0</ele><time>2026-04-19T16:01:43Z</time></trkpt><trkpt lat="44.705363344678034" lon="11.712899545758669"><ele>5.0</ele><time>2026-04-19T16:01:44Z</time></trkpt><trkpt lat="44.70539975806901" lon="11.71268763308711"><ele>5.333333333333334</ele><time>2026-04-19T16:01:45Z</time></trkpt><trkpt lat="44.705432714804004" lon="11.712475632739874"><ele>5.666666666666667</ele><time>2026-04-19T16:01:46Z</time></trkpt><trkpt lat="44.705465632739624" lon="11.71226377220062"><ele>6.0</ele><time>2026-04-19T16:01:47Z</time></trkpt><trkpt lat="44.70549485084784" lon="11.712049861826543"><ele>5.75</ele><time>2026-04-19T16:01:48Z</time></trkpt><trkpt lat="44.70552685509997" lon="11.711845615161218"><ele>5.5</ele><time>2026-04-19T16:01:49Z</time></trkpt><trkpt lat="44.70555169426833" lon="11.71164766803961"><ele>5.25</ele><time>2026-04-19T16:01:50Z</time></trkpt><trkpt lat="44.70555956032421" lon="11.711436711447151"><ele>5.0</ele><time>2026-04-19T16:01:51Z</time></trkpt><trkpt lat="44.7055867453872" lon="11.71122567652288"><ele>4.666666666666667</ele><time>2026-04-19T16:01:52Z</time></trkpt><trkpt lat="44.705593292522934" lon="11.711004057208042"><ele>4.333333333333333</ele><time>2026-04-19T16:01:53Z</time></trkpt><trkpt lat="44.705606800604116" lon="11.710803012340584"><ele>4.0</ele><time>2026-04-19T16:01:54Z</time></trkpt><trkpt lat="44.705609317572446" lon="11.710584813051897"><ele>4.0</ele><time>2026-04-19T16:01:55Z</time></trkpt><trkpt lat="44.70561701609198" lon="11.710374775759362"><ele>4.0</ele><time>2026-04-19T16:01:56Z</time></trkpt><trkpt lat="44.705641504189344" lon="11.710175702798264"><ele>4.0</ele><time>2026-04-19T16:01:57Z</time></trkpt><trkpt lat="44.705684453039716" lon="11.709976140643713"><ele>4.0</ele><time>2026-04-19T16:01:58Z</time></trkpt><trkpt lat="44.70573625311526" lon="11.709770017511381"><ele>4.0</ele><time>2026-04-19T16:01:59Z</time></trkpt><trkpt lat="44.70578780270375" lon="11.709578063758688"><ele>4.0</ele><time>2026-04-19T16:02:00Z</time></trkpt><trkpt lat="44.70583690308522" lon="11.709410377840493"><ele>4.0</ele><time>2026-04-19T16:02:01Z</time></trkpt><trkpt lat="44.70587736091642" lon="11.709256530298719"><ele>4.0</ele><time>2026-04-19T16:02:02Z</time></trkpt><trkpt lat="44.70591111002965" lon="11.709107119782283"><ele>4.0</ele><time>2026-04-19T16:02:03Z</time></trkpt><trkpt lat="44.70594357983565" lon="11.708955408105814"><ele>4.0</ele><time>2026-04-19T16:02:04Z</time></trkpt><trkpt lat="44.70598197943372" lon="11.708789731939866"><ele>4.0</ele><time>2026-04-19T16:02:05Z</time></trkpt><trkpt lat="44.70601980575791" lon="11.70863859258638"><ele>4.0</ele><time>2026-04-19T16:02:06Z</time></trkpt><trkpt lat="44.70606107820407" lon="11.70850061339813"><ele>4.166666666666666</ele><time>2026-04-19T16:02:07Z</time></trkpt><trkpt lat="44.70610002797803" lon="11.708376084690787"><ele>4.333333333333333</ele><time>2026-04-19T16:02:08Z</time></trkpt><trkpt lat="44.70614224292454" lon="11.708265365616107"><ele>4.5</ele><time>2026-04-19T16:02:09Z</time></trkpt><trkpt lat="44.7062001281506" lon="11.708172161197943"><ele>4.666666666666667</ele><time>2026-04-19T16:02:10Z</time></trkpt><trkpt lat="44.70626395098015" lon="11.708112511873221"><ele>4.833333333333334</ele><time>2026-04-19T16:02:11Z</time></trkpt><trkpt lat="44.706327809684886" lon="11.708078194183928"><ele>5.0</ele><time>2026-04-19T16:02:12Z</time></trkpt><trkpt lat="44.70640581852819" lon="11.708062296421808"><ele>5.0</ele><time>2026-04-19T16:02:14Z</time></trkpt><trkpt lat="44.70635531436221" lon="11.707865427821018"><ele>5.0</ele><time>2026-04-19T16:02:17Z</time></trkpt><trkpt lat="44.706297770397896" lon="11.707791011169704"><ele>5.0</ele><time>2026-04-19T16:02:18Z</time></trkpt><trkpt lat="44.706219403604884" lon="11.707700797050112"><ele>5.0</ele><time>2026-04-19T16:02:19Z</time></trkpt><trkpt lat="44.70612834780262" lon="11.707579915155584"><ele>5.25</ele><time>2026-04-19T16:02:20Z</time></trkpt><trkpt lat="44.706042655775185" lon="11.70745431141992"><ele>5.5</ele><time>2026-04-19T16:02:21Z</time></trkpt><trkpt lat="44.70595345162577" lon="11.70733301291031"><ele>5.75</ele><time>2026-04-19T16:02:22Z</time></trkpt><trkpt lat="44.70586126919563" lon="11.707204242626966"><ele>6.0</ele><time>2026-04-19T16:02:23Z</time></trkpt><trkpt lat="44.705760540863295" lon="11.707050133969664"><ele>5.75</ele><time>2026-04-19T16:02:24Z</time></trkpt><trkpt lat="44.70565512759455" lon="11.706898881645657"><ele>5.5</ele><time>2026-04-19T16:02:25Z</time></trkpt><trkpt lat="44.705552709434556" lon="11.706745851102818"><ele>5.25</ele><time>2026-04-19T16:02:26Z</time></trkpt><trkpt lat="44.705452316462754" lon="11.706608418707864"><ele>5.0</ele><time>2026-04-19T16:02:27Z</time></trkpt><trkpt lat="44.705356847151386" lon="11.706471161182609"><ele>5.0</ele><time>2026-04-19T16:02:28Z</time></trkpt><trkpt lat="44.70526683174917" lon="11.706342461141945"><ele>5.0</ele><time>2026-04-19T16:02:29Z</time></trkpt><trkpt lat="44.70518222940289" lon="11.706224164665205"><ele>5.0</ele><time>2026-04-19T16:02:30Z</time></trkpt><trkpt lat="44.705099287674784" lon="11.706105227434263"><ele>5.0</ele><time>2026-04-19T16:02:31Z</time></trkpt><trkpt lat="44.70501388979296" lon="11.70598496728327"><ele>5.0</ele><time>2026-04-19T16:02:32Z</time></trkpt><trkpt lat="44.70492872150968" lon="11.705859471502897"><ele>5.0</ele><time>2026-04-19T16:02:33Z</time></trkpt><trkpt lat="44.70484687685671" lon="11.705720712592576"><ele>5.0</ele><time>2026-04-19T16:02:34Z</time></trkpt><trkpt lat="44.70474954401105" lon="11.705594023408572"><ele>5.0</ele><time>2026-04-19T16:02:35Z</time></trkpt><trkpt lat="44.704646274782725" lon="11.705474209376323"><ele>5.0</ele><time>2026-04-19T16:02:36Z</time></trkpt><trkpt lat="44.70454712962721" lon="11.70535888963523"><ele>5.0</ele><time>2026-04-19T16:02:37Z</time></trkpt><trkpt lat="44.704436866286386" lon="11.705245434539961"><ele>5.0</ele><time>2026-04-19T16:02:38Z</time></trkpt><trkpt lat="44.70432676671342" lon="11.70512050258442"><ele>5.0</ele><time>2026-04-19T16:02:39Z</time></trkpt><trkpt lat="44.70422537448204" lon="11.70499674095767"><ele>5.0</ele><time>2026-04-19T16:02:40Z</time></trkpt><trkpt lat="44.7041233397708" lon="11.704877593611602"><ele>5.0</ele><time>2026-04-19T16:02:41Z</time></trkpt><trkpt lat="44.704016987180495" lon="11.704741822286335"><ele>5.0</ele><time>2026-04-19T16:02:42Z</time></trkpt><trkpt lat="44.703924036231875" lon="11.704618901231521"><ele>5.0</ele><time>2026-04-19T16:02:43Z</time></trkpt><trkpt lat="44.70383173263145" lon="11.70450064452268"><ele>4.5</ele><time>2026-04-19T16:02:44Z</time></trkpt><trkpt lat="44.70372933983089" lon="11.704374765891478"><ele>4.0</ele><time>2026-04-19T16:02:45Z</time></trkpt><trkpt lat="44.70362940672059" lon="11.704240332106105"><ele>3.5</ele><time>2026-04-19T16:02:46Z</time></trkpt><trkpt lat="44.703536202715014" lon="11.704090144842572"><ele>3.0</ele><time>2026-04-19T16:02:47Z</time></trkpt><trkpt lat="44.70344857200812" lon="11.703934090883347"><ele>3.0</ele><time>2026-04-19T16:02:48Z</time></trkpt><trkpt lat="44.703364387245436" lon="11.703761514442908"><ele>3.0</ele><time>2026-04-19T16:02:49Z</time></trkpt><trkpt lat="44.70328753378339" lon="11.703575579189849"><ele>3.0</ele><time>2026-04-19T16:02:50Z</time></trkpt><trkpt lat="44.70320754989174" lon="11.70339346688189"><ele>3.0</ele><time>2026-04-19T16:02:51Z</time></trkpt><trkpt lat="44.70313474340239" lon="11.7032089714031"><ele>3.0</ele><time>2026-04-19T16:02:52Z</time></trkpt><trkpt lat="44.70306334234735" lon="11.703023264542994"><ele>3.0</ele><time>2026-04-19T16:02:53Z</time></trkpt><trkpt lat="44.702988631559165" lon="11.702830310700515"><ele>3.333333333333333</ele><time>2026-04-19T16:02:54Z</time></trkpt><trkpt lat="44.70292040536527" lon="11.70263337221737"><ele>3.6666666666666665</ele><time>2026-04-19T16:02:55Z</time></trkpt><trkpt lat="44.70285522664557" lon="11.702433056183786"><ele>4.0</ele><time>2026-04-19T16:02:56Z</time></trkpt><trkpt lat="44.702795426056404" lon="11.702226648304102"><ele>3.0</ele><time>2026-04-19T16:02:57Z</time></trkpt><trkpt lat="44.702736392150975" lon="11.702015578270514"><ele>2.0</ele><time>2026-04-19T16:02:58Z</time></trkpt><trkpt lat="44.70268162282497" lon="11.701821683668747"><ele>1.0</ele><time>2026-04-19T16:02:59Z</time></trkpt><trkpt lat="44.7026246089872" lon="11.701617869022717"><ele>1.0</ele><time>2026-04-19T16:03:00Z</time></trkpt><trkpt lat="44.70256513389199" lon="11.701420940032753"><ele>1.0</ele><time>2026-04-19T16:03:01Z</time></trkpt><trkpt lat="44.70250430317568" lon="11.701221498392604"><ele>1.0</ele><time>2026-04-19T16:03:02Z</time></trkpt><trkpt lat="44.702448985809" lon="11.701021473943461"><ele>2.0</ele><time>2026-04-19T16:03:03Z</time></trkpt><trkpt lat="44.70239782161766" lon="11.700819581137855"><ele>3.0</ele><time>2026-04-19T16:03:04Z</time></trkpt><trkpt lat="44.702355301872565" lon="11.70061759650159"><ele>4.0</ele><time>2026-04-19T16:03:05Z</time></trkpt><trkpt lat="44.70231411748785" lon="11.70041579897748"><ele>4.333333333333333</ele><time>2026-04-19T16:03:06Z</time></trkpt><trkpt lat="44.70226583610694" lon="11.700215273828018"><ele>4.666666666666667</ele><time>2026-04-19T16:03:07Z</time></trkpt><trkpt lat="44.70222372802202" lon="11.700013252400531"><ele>5.0</ele><time>2026-04-19T16:03:08Z</time></trkpt><trkpt lat="44.70217561261387" lon="11.699811550444197"><ele>5.0</ele><time>2026-04-19T16:03:09Z</time></trkpt><trkpt lat="44.70212802700175" lon="11.699610576639724"><ele>5.0</ele><time>2026-04-19T16:03:10Z</time></trkpt><trkpt lat="44.70207747572389" lon="11.699409497989764"><ele>5.0</ele><time>2026-04-19T16:03:11Z</time></trkpt><trkpt lat="44.702028109136556" lon="11.699211996858681"><ele>5.0</ele><time>2026-04-19T16:03:12Z</time></trkpt><trkpt lat="44.701971316501016" lon="11.699009914354749"><ele>5.0</ele><time>2026-04-19T16:03:13Z</time></trkpt><trkpt lat="44.70191437441333" lon="11.698813641183435"><ele>5.0</ele><time>2026-04-19T16:03:14Z</time></trkpt><trkpt lat="44.70185569726149" lon="11.698620483254658"><ele>4.75</ele><time>2026-04-19T16:03:15Z</time></trkpt><trkpt lat="44.701795438890386" lon="11.698426760896556"><ele>4.5</ele><time>2026-04-19T16:03:16Z</time></trkpt><trkpt lat="44.70173842195757" lon="11.698237011923165"><ele>4.25</ele><time>2026-04-19T16:03:17Z</time></trkpt><trkpt lat="44.70168307379125" lon="11.698043730028305"><ele>4.0</ele><time>2026-04-19T16:03:18Z</time></trkpt><trkpt lat="44.70162069743804" lon="11.697845004974663"><ele>4.0</ele><time>2026-04-19T16:03:19Z</time></trkpt><trkpt lat="44.70156312621274" lon="11.697657036090046"><ele>4.0</ele><time>2026-04-19T16:03:20Z</time></trkpt><trkpt lat="44.70149817111424" lon="11.697462816570823"><ele>4.0</ele><time>2026-04-19T16:03:21Z</time></trkpt><trkpt lat="44.70143032383681" lon="11.697268576065538"><ele>4.0</ele><time>2026-04-19T16:03:22Z</time></trkpt><trkpt lat="44.70136160915758" lon="11.697073089138735"><ele>4.0</ele><time>2026-04-19T16:03:23Z</time></trkpt><trkpt lat="44.70129078354899" lon="11.696876156550697"><ele>4.0</ele><time>2026-04-19T16:03:24Z</time></trkpt><trkpt lat="44.70121278108511" lon="11.696676145011928"><ele>4.0</ele><time>2026-04-19T16:03:25Z</time></trkpt><trkpt lat="44.70113578428781" lon="11.696484894923765"><ele>4.0</ele><time>2026-04-19T16:03:26Z</time></trkpt><trkpt lat="44.701057606996905" lon="11.696293825389473"><ele>4.0</ele><time>2026-04-19T16:03:27Z</time></trkpt><trkpt lat="44.70097543114016" lon="11.696100503525713"><ele>4.0</ele><time>2026-04-19T16:03:28Z</time></trkpt><trkpt lat="44.700890806039745" lon="11.69591061945139"><ele>4.0</ele><time>2026-04-19T16:03:29Z</time></trkpt><trkpt lat="44.70080714308354" lon="11.695726809860322"><ele>4.0</ele><time>2026-04-19T16:03:30Z</time></trkpt><trkpt lat="44.700716906576424" lon="11.695544583653517"><ele>4.0</ele><time>2026-04-19T16:03:31Z</time></trkpt><trkpt lat="44.70062268671122" lon="11.695360980873984"><ele>4.0</ele><time>2026-04-19T16:03:32Z</time></trkpt><trkpt lat="44.70053029727446" lon="11.695181239518204"><ele>4.0</ele><time>2026-04-19T16:03:33Z</time></trkpt><trkpt lat="44.700438495766015" lon="11.695004612991193"><ele>4.333333333333333</ele><time>2026-04-19T16:03:34Z</time></trkpt><trkpt lat="44.700346287526415" lon="11.694831587902739"><ele>4.666666666666667</ele><time>2026-04-19T16:03:35Z</time></trkpt><trkpt lat="44.700250867815775" lon="11.694651661159531"><ele>5.0</ele><time>2026-04-19T16:03:36Z</time></trkpt><trkpt lat="44.7001555427524" lon="11.694475106250641"><ele>5.333333333333334</ele><time>2026-04-19T16:03:37Z</time></trkpt><trkpt lat="44.700063901697995" lon="11.69430451754633"><ele>5.666666666666667</ele><time>2026-04-19T16:03:38Z</time></trkpt><trkpt lat="44.699969752710345" lon="11.694135022448812"><ele>6.0</ele><time>2026-04-19T16:03:39Z</time></trkpt><trkpt lat="44.69987588361756" lon="11.69396455231886"><ele>6.0</ele><time>2026-04-19T16:03:40Z</time></trkpt><trkpt lat="44.69978076519796" lon="11.69380013228101"><ele>6.0</ele><time>2026-04-19T16:03:41Z</time></trkpt><trkpt lat="44.69968845321394" lon="11.693641996508909"><ele>6.0</ele><time>2026-04-19T16:03:42Z</time></trkpt><trkpt lat="44.699594383388636" lon="11.693485216338757"><ele>6.0</ele><time>2026-04-19T16:03:43Z</time></trkpt><trkpt lat="44.699509080665834" lon="11.693342537115894"><ele>5.5</ele><time>2026-04-19T16:03:44Z</time></trkpt><trkpt lat="44.69941454324082" lon="11.693203528022819"><ele>5.0</ele><time>2026-04-19T16:03:45Z</time></trkpt><trkpt lat="44.69931418894105" lon="11.693072473410616"><ele>4.5</ele><time>2026-04-19T16:03:46Z</time></trkpt><trkpt lat="44.69920415761986" lon="11.692952716055839"><ele>4.0</ele><time>2026-04-19T16:03:47Z</time></trkpt><trkpt lat="44.69908469751373" lon="11.692838134541192"><ele>4.0</ele><time>2026-04-19T16:03:48Z</time></trkpt><trkpt lat="44.69895787378141" lon="11.692735529779215"><ele>4.0</ele><time>2026-04-19T16:03:49Z</time></trkpt><trkpt lat="44.6988250406406" lon="11.692645157963092"><ele>4.0</ele><time>2026-04-19T16:03:50Z</time></trkpt><trkpt lat="44.69868786268051" lon="11.692555945609557"><ele>4.0</ele><time>2026-04-19T16:03:51Z</time></trkpt><trkpt lat="44.69854181891364" lon="11.692469686009392"><ele>4.333333333333333</ele><time>2026-04-19T16:03:52Z</time></trkpt><trkpt lat="44.698396377112395" lon="11.692386649616614"><ele>4.666666666666667</ele><time>2026-04-19T16:03:53Z</time></trkpt><trkpt lat="44.69825715605043" lon="11.692300219634962"><ele>5.0</ele><time>2026-04-19T16:03:54Z</time></trkpt><trkpt lat="44.69811399154819" lon="11.692211601283411"><ele>5.0</ele><time>2026-04-19T16:03:55Z</time></trkpt><trkpt lat="44.69796757747245" lon="11.692126458622345"><ele>5.0</ele><time>2026-04-19T16:03:56Z</time></trkpt><trkpt lat="44.69781940335953" lon="11.692043738244738"><ele>5.0</ele><time>2026-04-19T16:03:57Z</time></trkpt><trkpt lat="44.697672058173595" lon="11.691959583439917"><ele>4.666666666666667</ele><time>2026-04-19T16:03:58Z</time></trkpt><trkpt lat="44.697524391003434" lon="11.691870944062863"><ele>4.333333333333333</ele><time>2026-04-19T16:03:59Z</time></trkpt><trkpt lat="44.69737493458671" lon="11.691788997437055"><ele>4.0</ele><time>2026-04-19T16:04:00Z</time></trkpt><trkpt lat="44.69722152725105" lon="11.691706796099858"><ele>4.0</ele><time>2026-04-19T16:04:01Z</time></trkpt><trkpt lat="44.69706549760756" lon="11.691636561261838"><ele>4.0</ele><time>2026-04-19T16:04:02Z</time></trkpt><trkpt lat="44.69691953745059" lon="11.691568511411871"><ele>4.0</ele><time>2026-04-19T16:04:03Z</time></trkpt><trkpt lat="44.69675613430724" lon="11.691489230804157"><ele>4.333333333333333</ele><time>2026-04-19T16:04:04Z</time></trkpt><trkpt lat="44.69660851032328" lon="11.691426710214417"><ele>4.666666666666667</ele><time>2026-04-19T16:04:05Z</time></trkpt><trkpt lat="44.69647069174127" lon="11.691367671378206"><ele>5.0</ele><time>2026-04-19T16:04:06Z</time></trkpt><trkpt lat="44.69632509696522" lon="11.691306768737677"><ele>5.0</ele><time>2026-04-19T16:04:07Z</time></trkpt><trkpt lat="44.69617719801779" lon="11.691247729254455"><ele>5.0</ele><time>2026-04-19T16:04:08Z</time></trkpt><trkpt lat="44.69602246606831" lon="11.691212494599137"><ele>5.0</ele><time>2026-04-19T16:04:09Z</time></trkpt><trkpt lat="44.69587315136662" lon="11.691157432206785"><ele>4.666666666666667</ele><time>2026-04-19T16:04:10Z</time></trkpt><trkpt lat="44.695721643254956" lon="11.691105573103663"><ele>4.333333333333333</ele><time>2026-04-19T16:04:11Z</time></trkpt><trkpt lat="44.6955747566035" lon="11.691061669247693"><ele>4.0</ele><time>2026-04-19T16:04:12Z</time></trkpt><trkpt lat="44.6954285006701" lon="11.691014482887654"><ele>4.0</ele><time>2026-04-19T16:04:13Z</time></trkpt><trkpt lat="44.69527699553187" lon="11.690977631153732"><ele>4.0</ele><time>2026-04-19T16:04:14Z</time></trkpt><trkpt lat="44.69512153524985" lon="11.690941228453644"><ele>4.0</ele><time>2026-04-19T16:04:15Z</time></trkpt><trkpt lat="44.694973159739924" lon="11.69090520100257"><ele>4.0</ele><time>2026-04-19T16:04:16Z</time></trkpt><trkpt lat="44.69482264468509" lon="11.690870274565023"><ele>4.0</ele><time>2026-04-19T16:04:17Z</time></trkpt><trkpt lat="44.69467286482146" lon="11.690834333199863"><ele>4.0</ele><time>2026-04-19T16:04:18Z</time></trkpt><trkpt lat="44.694518916074884" lon="11.690799638859211"><ele>4.0</ele><time>2026-04-19T16:04:19Z</time></trkpt><trkpt lat="44.69436950678207" lon="11.690766227018573"><ele>4.0</ele><time>2026-04-19T16:04:20Z</time></trkpt><trkpt lat="44.69421576798703" lon="11.690731573668028"><ele>4.0</ele><time>2026-04-19T16:04:21Z</time></trkpt><trkpt lat="44.69406154050292" lon="11.690696961327093"><ele>4.0</ele><time>2026-04-19T16:04:22Z</time></trkpt><trkpt lat="44.69390302663631" lon="11.690663877688086"><ele>4.0</ele><time>2026-04-19T16:04:23Z</time></trkpt><trkpt lat="44.693747943532586" lon="11.690626782602495"><ele>4.0</ele><time>2026-04-19T16:04:24Z</time></trkpt><trkpt lat="44.69359752994434" lon="11.690589733415981"><ele>4.25</ele><time>2026-04-19T16:04:25Z</time></trkpt><trkpt lat="44.69344958799768" lon="11.69055127004895"><ele>4.5</ele><time>2026-04-19T16:04:26Z</time></trkpt><trkpt lat="44.69330432863078" lon="11.69052929921835"><ele>4.75</ele><time>2026-04-19T16:04:27Z</time></trkpt><trkpt lat="44.693154294465174" lon="11.690512569594611"><ele>5.0</ele><time>2026-04-19T16:04:28Z</time></trkpt><trkpt lat="44.69299889586871" lon="11.69052418259653"><ele>5.0</ele><time>2026-04-19T16:04:29Z</time></trkpt><trkpt lat="44.6928409558191" lon="11.690551171250688"><ele>5.0</ele><time>2026-04-19T16:04:30Z</time></trkpt><trkpt lat="44.69268050459758" lon="11.69054991031564"><ele>5.0</ele><time>2026-04-19T16:04:31Z</time></trkpt><trkpt lat="44.692527646296064" lon="11.6905927308883"><ele>4.666666666666667</ele><time>2026-04-19T16:04:32Z</time></trkpt><trkpt lat="44.69237415762668" lon="11.690610023716342"><ele>4.333333333333333</ele><time>2026-04-19T16:04:33Z</time></trkpt><trkpt lat="44.69221964865405" lon="11.690633121039113"><ele>4.0</ele><time>2026-04-19T16:04:34Z</time></trkpt><trkpt lat="44.69206794262212" lon="11.690658790708397"><ele>4.0</ele><time>2026-04-19T16:04:35Z</time></trkpt><trkpt lat="44.691923530544486" lon="11.690679869712167"><ele>4.0</ele><time>2026-04-19T16:04:36Z</time></trkpt><trkpt lat="44.69178951752295" lon="11.690711243429812"><ele>4.0</ele><time>2026-04-19T16:04:37Z</time></trkpt><trkpt lat="44.6916656534297" lon="11.690736250198313"><ele>4.0</ele><time>2026-04-19T16:04:38Z</time></trkpt><trkpt lat="44.69155416152018" lon="11.690769302763833"><ele>4.25</ele><time>2026-04-19T16:04:39Z</time></trkpt><trkpt lat="44.691442996356066" lon="11.690803783585297"><ele>4.5</ele><time>2026-04-19T16:04:40Z</time></trkpt><trkpt lat="44.69132533236244" lon="11.690836940677874"><ele>4.75</ele><time>2026-04-19T16:04:41Z</time></trkpt><trkpt lat="44.69121174369445" lon="11.690893373348542"><ele>5.0</ele><time>2026-04-19T16:04:42Z</time></trkpt><trkpt lat="44.69109888981241" lon="11.69094601701566"><ele>5.0</ele><time>2026-04-19T16:04:43Z</time></trkpt><trkpt lat="44.69100191039456" lon="11.691000075017632"><ele>5.0</ele><time>2026-04-19T16:04:44Z</time></trkpt><trkpt lat="44.6909213555578" lon="11.691070660678527"><ele>5.0</ele><time>2026-04-19T16:04:45Z</time></trkpt><trkpt lat="44.69084005206739" lon="11.691146870579677"><ele>5.0</ele><time>2026-04-19T16:04:46Z</time></trkpt><trkpt lat="44.69076302616519" lon="11.691198662075546"><ele>5.0</ele><time>2026-04-19T16:04:47Z</time></trkpt><trkpt lat="44.69069860192003" lon="11.691250339253436"><ele>5.0</ele><time>2026-04-19T16:04:48Z</time></trkpt><trkpt lat="44.69059461867009" lon="11.6912924030094"><ele>5.0</ele><time>2026-04-19T16:04:50Z</time></trkpt><trkpt lat="44.690523362669964" lon="11.691335010657905"><ele>5.0</ele><time>2026-04-19T16:04:52Z</time></trkpt><trkpt lat="44.690432078456965" lon="11.691095115478182"><ele>5.0</ele><time>2026-04-19T16:04:53Z</time></trkpt><trkpt lat="44.690381121877806" lon="11.690976211072451"><ele>5.0</ele><time>2026-04-19T16:04:54Z</time></trkpt><trkpt lat="44.69034780037017" lon="11.690850614987669"><ele>5.0</ele><time>2026-04-19T16:04:55Z</time></trkpt><trkpt lat="44.69029323546752" lon="11.690689128976988"><ele>5.0</ele><time>2026-04-19T16:04:56Z</time></trkpt><trkpt lat="44.69024657156545" lon="11.6905477006359"><ele>5.0</ele><time>2026-04-19T16:04:57Z</time></trkpt><trkpt lat="44.69020531613863" lon="11.690395835553668"><ele>5.0</ele><time>2026-04-19T16:04:58Z</time></trkpt><trkpt lat="44.69015723704886" lon="11.690229877002027"><ele>5.0</ele><time>2026-04-19T16:04:59Z</time></trkpt><trkpt lat="44.69012918906877" lon="11.690034954967333"><ele>5.0</ele><time>2026-04-19T16:05:00Z</time></trkpt><trkpt lat="44.69007334231893" lon="11.689836599356815"><ele>5.0</ele><time>2026-04-19T16:05:01Z</time></trkpt><trkpt lat="44.69002951517734" lon="11.689622711887006"><ele>4.333333333333334</ele><time>2026-04-19T16:05:02Z</time></trkpt><trkpt lat="44.68998834744257" lon="11.689406497575536"><ele>3.666666666666667</ele><time>2026-04-19T16:05:03Z</time></trkpt><trkpt lat="44.6899407963302" lon="11.689187666526674"><ele>3.0</ele><time>2026-04-19T16:05:04Z</time></trkpt><trkpt lat="44.689900403208085" lon="11.688967607257528"><ele>3.0</ele><time>2026-04-19T16:05:05Z</time></trkpt><trkpt lat="44.689860930534934" lon="11.688750007612729"><ele>3.0</ele><time>2026-04-19T16:05:06Z</time></trkpt><trkpt lat="44.689821758344515" lon="11.68852811998408"><ele>3.0</ele><time>2026-04-19T16:05:07Z</time></trkpt><trkpt lat="44.68977832516231" lon="11.688320462048537"><ele>3.0</ele><time>2026-04-19T16:05:08Z</time></trkpt><trkpt lat="44.689739828727674" lon="11.688101202468724"><ele>3.0</ele><time>2026-04-19T16:05:09Z</time></trkpt><trkpt lat="44.689699667860246" lon="11.687883164681468"><ele>3.0</ele><time>2026-04-19T16:05:10Z</time></trkpt><trkpt lat="44.689660994304134" lon="11.687671674786516"><ele>3.333333333333333</ele><time>2026-04-19T16:05:11Z</time></trkpt><trkpt lat="44.68962053849995" lon="11.687455847678434"><ele>3.6666666666666665</ele><time>2026-04-19T16:05:12Z</time></trkpt><trkpt lat="44.68958032223702" lon="11.68724551480569"><ele>4.0</ele><time>2026-04-19T16:05:13Z</time></trkpt><trkpt lat="44.68954074521518" lon="11.687037178627746"><ele>4.0</ele><time>2026-04-19T16:05:14Z</time></trkpt><trkpt lat="44.68950363001617" lon="11.68683238538761"><ele>4.0</ele><time>2026-04-19T16:05:15Z</time></trkpt><trkpt lat="44.689466744843514" lon="11.686630981717796"><ele>4.0</ele><time>2026-04-19T16:05:16Z</time></trkpt><trkpt lat="44.68942637997095" lon="11.686424891485661"><ele>3.333333333333333</ele><time>2026-04-19T16:05:17Z</time></trkpt><trkpt lat="44.68939074532536" lon="11.686216568226527"><ele>2.6666666666666665</ele><time>2026-04-19T16:05:18Z</time></trkpt><trkpt lat="44.68935154177911" lon="11.68600733359372"><ele>2.0</ele><time>2026-04-19T16:05:19Z</time></trkpt><trkpt lat="44.6893109197968" lon="11.685796872183799"><ele>2.0</ele><time>2026-04-19T16:05:20Z</time></trkpt><trkpt lat="44.68927168668139" lon="11.68558413660521"><ele>2.0</ele><time>2026-04-19T16:05:21Z</time></trkpt><trkpt lat="44.689229833417016" lon="11.685369230559283"><ele>2.0</ele><time>2026-04-19T16:05:22Z</time></trkpt><trkpt lat="44.68919038080036" lon="11.685158069865002"><ele>2.0</ele><time>2026-04-19T16:05:23Z</time></trkpt><trkpt lat="44.68915208438327" lon="11.684949870882562"><ele>2.0</ele><time>2026-04-19T16:05:24Z</time></trkpt><trkpt lat="44.689113633724865" lon="11.684738625765345"><ele>2.0</ele><time>2026-04-19T16:05:25Z</time></trkpt><trkpt lat="44.6890751110407" lon="11.684527033954378"><ele>3.0</ele><time>2026-04-19T16:05:26Z</time></trkpt><trkpt lat="44.689035134010574" lon="11.684315719710233"><ele>4.0</ele><time>2026-04-19T16:05:27Z</time></trkpt><trkpt lat="44.68899270977058" lon="11.684102062129297"><ele>5.0</ele><time>2026-04-19T16:05:28Z</time></trkpt><trkpt lat="44.68895276848622" lon="11.683891391095608"><ele>5.0</ele><time>2026-04-19T16:05:29Z</time></trkpt><trkpt lat="44.68891030989737" lon="11.683680618069875"><ele>5.0</ele><time>2026-04-19T16:05:30Z</time></trkpt><trkpt lat="44.688873647933875" lon="11.683470800517906"><ele>5.0</ele><time>2026-04-19T16:05:31Z</time></trkpt><trkpt lat="44.688834599362856" lon="11.683258972897102"><ele>5.0</ele><time>2026-04-19T16:05:32Z</time></trkpt><trkpt lat="44.68879489565389" lon="11.683048512022957"><ele>5.0</ele><time>2026-04-19T16:05:33Z</time></trkpt><trkpt lat="44.68875604147878" lon="11.682840318956561"><ele>5.0</ele><time>2026-04-19T16:05:34Z</time></trkpt><trkpt lat="44.688715601959814" lon="11.682631881466179"><ele>4.666666666666667</ele><time>2026-04-19T16:05:35Z</time></trkpt><trkpt lat="44.688672488409864" lon="11.682412208483846"><ele>4.333333333333333</ele><time>2026-04-19T16:05:36Z</time></trkpt><trkpt lat="44.68862970333138" lon="11.682197262321408"><ele>4.0</ele><time>2026-04-19T16:05:37Z</time></trkpt><trkpt lat="44.688587935457896" lon="11.681979651691412"><ele>4.0</ele><time>2026-04-19T16:05:38Z</time></trkpt><trkpt lat="44.688547525826884" lon="11.681769088877099"><ele>4.0</ele><time>2026-04-19T16:05:39Z</time></trkpt><trkpt lat="44.68851432251586" lon="11.68155410194745"><ele>4.0</ele><time>2026-04-19T16:05:40Z</time></trkpt><trkpt lat="44.688467680494256" lon="11.681337407579534"><ele>4.0</ele><time>2026-04-19T16:05:41Z</time></trkpt><trkpt lat="44.68843380420328" lon="11.681127867000143"><ele>4.0</ele><time>2026-04-19T16:05:42Z</time></trkpt><trkpt lat="44.688394704455135" lon="11.680913950849197"><ele>4.0</ele><time>2026-04-19T16:05:43Z</time></trkpt><trkpt lat="44.68835561005289" lon="11.680700000126452"><ele>4.0</ele><time>2026-04-19T16:05:44Z</time></trkpt><trkpt lat="44.68831953721725" lon="11.68048571404025"><ele>4.0</ele><time>2026-04-19T16:05:45Z</time></trkpt><trkpt lat="44.68828572210934" lon="11.68027325715447"><ele>4.0</ele><time>2026-04-19T16:05:46Z</time></trkpt><trkpt lat="44.68825151444622" lon="11.680070806937543"><ele>4.0</ele><time>2026-04-19T16:05:47Z</time></trkpt><trkpt lat="44.68822036304338" lon="11.679871605388799"><ele>4.0</ele><time>2026-04-19T16:05:48Z</time></trkpt><trkpt lat="44.6881853106093" lon="11.679670829451664"><ele>4.0</ele><time>2026-04-19T16:05:49Z</time></trkpt><trkpt lat="44.68814908915801" lon="11.679464433502115"><ele>4.0</ele><time>2026-04-19T16:05:50Z</time></trkpt><trkpt lat="44.68811060629314" lon="11.67925238420424"><ele>4.0</ele><time>2026-04-19T16:05:51Z</time></trkpt><trkpt lat="44.68807186476485" lon="11.679043087080572"><ele>4.0</ele><time>2026-04-19T16:05:52Z</time></trkpt><trkpt lat="44.68802918823503" lon="11.678822165611042"><ele>4.0</ele><time>2026-04-19T16:05:53Z</time></trkpt><trkpt lat="44.687986264654306" lon="11.67860365314751"><ele>4.0</ele><time>2026-04-19T16:05:54Z</time></trkpt><trkpt lat="44.68794556023292" lon="11.67838921261388"><ele>4.0</ele><time>2026-04-19T16:05:55Z</time></trkpt><trkpt lat="44.68790287511462" lon="11.678168104424204"><ele>4.0</ele><time>2026-04-19T16:05:56Z</time></trkpt><trkpt lat="44.68786352118017" lon="11.677960007178294"><ele>4.0</ele><time>2026-04-19T16:05:57Z</time></trkpt><trkpt lat="44.68782162178233" lon="11.677748019746206"><ele>4.0</ele><time>2026-04-19T16:05:58Z</time></trkpt><trkpt lat="44.687780490339975" lon="11.677536257183686"><ele>4.0</ele><time>2026-04-19T16:05:59Z</time></trkpt><trkpt lat="44.68773627378585" lon="11.677321705185003"><ele>4.0</ele><time>2026-04-19T16:06:00Z</time></trkpt><trkpt lat="44.68769544461879" lon="11.677102579198747"><ele>4.0</ele><time>2026-04-19T16:06:01Z</time></trkpt><trkpt lat="44.687651821702886" lon="11.676886752350804"><ele>4.0</ele><time>2026-04-19T16:06:02Z</time></trkpt><trkpt lat="44.68760705237174" lon="11.676670219111633"><ele>4.0</ele><time>2026-04-19T16:06:03Z</time></trkpt><trkpt lat="44.6875679528782" lon="11.67645660534508"><ele>4.0</ele><time>2026-04-19T16:06:04Z</time></trkpt><trkpt lat="44.687527277781726" lon="11.676237367796723"><ele>4.0</ele><time>2026-04-19T16:06:05Z</time></trkpt><trkpt lat="44.687487197869494" lon="11.676020498533804"><ele>4.0</ele><time>2026-04-19T16:06:06Z</time></trkpt><trkpt lat="44.68744844441802" lon="11.675807632680721"><ele>4.0</ele><time>2026-04-19T16:06:07Z</time></trkpt><trkpt lat="44.6874086759623" lon="11.6755914850436"><ele>4.0</ele><time>2026-04-19T16:06:08Z</time></trkpt><trkpt lat="44.68736590081238" lon="11.675370539399433"><ele>4.333333333333333</ele><time>2026-04-19T16:06:09Z</time></trkpt><trkpt lat="44.68732859868282" lon="11.675163104581028"><ele>4.666666666666667</ele><time>2026-04-19T16:06:10Z</time></trkpt><trkpt lat="44.68729501701164" lon="11.674952281617378"><ele>5.0</ele><time>2026-04-19T16:06:11Z</time></trkpt><trkpt lat="44.68726133476424" lon="11.674737158528039"><ele>5.0</ele><time>2026-04-19T16:06:12Z</time></trkpt><trkpt lat="44.68722873556012" lon="11.674519171338401"><ele>5.0</ele><time>2026-04-19T16:06:13Z</time></trkpt><trkpt lat="44.68719734507382" lon="11.674301410125848"><ele>5.0</ele><time>2026-04-19T16:06:14Z</time></trkpt><trkpt lat="44.687167843407074" lon="11.674079805463533"><ele>5.333333333333334</ele><time>2026-04-19T16:06:15Z</time></trkpt><trkpt lat="44.68713603736029" lon="11.673857030872272"><ele>5.666666666666667</ele><time>2026-04-19T16:06:16Z</time></trkpt><trkpt lat="44.68710540254914" lon="11.673651218604652"><ele>6.0</ele><time>2026-04-19T16:06:17Z</time></trkpt><trkpt lat="44.68706821881099" lon="11.67344114734679"><ele>6.333333333333334</ele><time>2026-04-19T16:06:18Z</time></trkpt><trkpt lat="44.68702887867113" lon="11.673234258505738"><ele>6.666666666666667</ele><time>2026-04-19T16:06:19Z</time></trkpt><trkpt lat="44.68698289090151" lon="11.673030686415709"><ele>7.0</ele><time>2026-04-19T16:06:20Z</time></trkpt><trkpt lat="44.686934907236825" lon="11.672829501254515"><ele>6.0</ele><time>2026-04-19T16:06:21Z</time></trkpt><trkpt lat="44.68688954479284" lon="11.67263691097483"><ele>5.0</ele><time>2026-04-19T16:06:22Z</time></trkpt><trkpt lat="44.68684766208637" lon="11.67246095567307"><ele>4.0</ele><time>2026-04-19T16:06:23Z</time></trkpt><trkpt lat="44.686810863730386" lon="11.672299338076092"><ele>3.0</ele><time>2026-04-19T16:06:24Z</time></trkpt><trkpt lat="44.686776651466644" lon="11.672150590297791"><ele>3.0</ele><time>2026-04-19T16:06:25Z</time></trkpt><trkpt lat="44.686743565544205" lon="11.67200905007922"><ele>3.0</ele><time>2026-04-19T16:06:26Z</time></trkpt><trkpt lat="44.686709509935056" lon="11.671861844351907"><ele>3.0</ele><time>2026-04-19T16:06:27Z</time></trkpt><trkpt lat="44.6866758929592" lon="11.671718873895456"><ele>3.0</ele><time>2026-04-19T16:06:28Z</time></trkpt><trkpt lat="44.68664577503509" lon="11.671588835761948"><ele>3.0</ele><time>2026-04-19T16:06:29Z</time></trkpt><trkpt lat="44.68661775657539" lon="11.671471118913486"><ele>3.3333333333333335</ele><time>2026-04-19T16:06:30Z</time></trkpt><trkpt lat="44.68658640490251" lon="11.671353396298947"><ele>3.666666666666667</ele><time>2026-04-19T16:06:31Z</time></trkpt><trkpt lat="44.686556695156334" lon="11.671226671819726"><ele>4.0</ele><time>2026-04-19T16:06:32Z</time></trkpt><trkpt lat="44.68652839781896" lon="11.671107183651028"><ele>4.333333333333334</ele><time>2026-04-19T16:06:33Z</time></trkpt><trkpt lat="44.68650460836736" lon="11.671000503761409"><ele>4.666666666666667</ele><time>2026-04-19T16:06:34Z</time></trkpt><trkpt lat="44.686482535380875" lon="11.67090640960332"><ele>5.0</ele><time>2026-04-19T16:06:35Z</time></trkpt><trkpt lat="44.68649879795535" lon="11.670728269669695"><ele>5.0</ele><time>2026-04-19T16:06:37Z</time></trkpt><trkpt lat="44.68654677056865" lon="11.670635139037914"><ele>5.0</ele><time>2026-04-19T16:06:38Z</time></trkpt><trkpt lat="44.68662544661062" lon="11.670572294324952"><ele>5.0</ele><time>2026-04-19T16:06:39Z</time></trkpt><trkpt lat="44.68672844085684" lon="11.67052192400038"><ele>5.0</ele><time>2026-04-19T16:06:40Z</time></trkpt><trkpt lat="44.68684868096916" lon="11.670459611668912"><ele>5.0</ele><time>2026-04-19T16:06:41Z</time></trkpt><trkpt lat="44.68695305922522" lon="11.670402187075231"><ele>5.0</ele><time>2026-04-19T16:06:42Z</time></trkpt><trkpt lat="44.68704161277541" lon="11.670343674138213"><ele>5.0</ele><time>2026-04-19T16:06:43Z</time></trkpt><trkpt lat="44.68712425445272" lon="11.670298865111459"><ele>5.0</ele><time>2026-04-19T16:06:44Z</time></trkpt><trkpt lat="44.68719470802005" lon="11.670256424862343"><ele>5.0</ele><time>2026-04-19T16:06:45Z</time></trkpt><trkpt lat="44.68725238779868" lon="11.670198440773392"><ele>5.0</ele><time>2026-04-19T16:06:46Z</time></trkpt><trkpt lat="44.68729762736003" lon="11.670130880643736"><ele>5.0</ele><time>2026-04-19T16:06:47Z</time></trkpt><trkpt lat="44.68729222874434" lon="11.669951996311044"><ele>5.0</ele><time>2026-04-19T16:06:49Z</time></trkpt><trkpt lat="44.68724721260097" lon="11.669831927440924"><ele>5.0</ele><time>2026-04-19T16:06:50Z</time></trkpt><trkpt lat="44.68717487973329" lon="11.66972709067913"><ele>5.0</ele><time>2026-04-19T16:06:51Z</time></trkpt><trkpt lat="44.68708725379433" lon="11.669602796235083"><ele>5.0</ele><time>2026-04-19T16:06:52Z</time></trkpt><trkpt lat="44.686997057950165" lon="11.66946541688547"><ele>5.0</ele><time>2026-04-19T16:06:53Z</time></trkpt><trkpt lat="44.68690830029591" lon="11.669324547028866"><ele>5.0</ele><time>2026-04-19T16:06:54Z</time></trkpt><trkpt lat="44.68681262235102" lon="11.669175420852934"><ele>5.0</ele><time>2026-04-19T16:06:55Z</time></trkpt><trkpt lat="44.68671912824672" lon="11.669024697146167"><ele>5.0</ele><time>2026-04-19T16:06:56Z</time></trkpt><trkpt lat="44.686621882203134" lon="11.668870625848644"><ele>5.0</ele><time>2026-04-19T16:06:57Z</time></trkpt><trkpt lat="44.68652052026177" lon="11.668715800321538"><ele>5.0</ele><time>2026-04-19T16:06:58Z</time></trkpt><trkpt lat="44.68642281770787" lon="11.66856322573891"><ele>5.0</ele><time>2026-04-19T16:06:59Z</time></trkpt><trkpt lat="44.68632410638097" lon="11.66840360077646"><ele>5.0</ele><time>2026-04-19T16:07:00Z</time></trkpt><trkpt lat="44.68622221301776" lon="11.668247623690986"><ele>5.0</ele><time>2026-04-19T16:07:01Z</time></trkpt><trkpt lat="44.68611518969926" lon="11.668081258449046"><ele>5.0</ele><time>2026-04-19T16:07:02Z</time></trkpt><trkpt lat="44.68601235587863" lon="11.667916184141582"><ele>5.0</ele><time>2026-04-19T16:07:03Z</time></trkpt><trkpt lat="44.68591245904563" lon="11.667751225696497"><ele>5.0</ele><time>2026-04-19T16:07:04Z</time></trkpt><trkpt lat="44.68581289814642" lon="11.667581015133676"><ele>5.0</ele><time>2026-04-19T16:07:05Z</time></trkpt><trkpt lat="44.685708924639584" lon="11.667408675205094"><ele>5.0</ele><time>2026-04-19T16:07:06Z</time></trkpt><trkpt lat="44.685608191132424" lon="11.667230857229502"><ele>5.0</ele><time>2026-04-19T16:07:07Z</time></trkpt><trkpt lat="44.685510193611165" lon="11.667051141687917"><ele>5.0</ele><time>2026-04-19T16:07:08Z</time></trkpt><trkpt lat="44.68541669560864" lon="11.666872160707776"><ele>5.0</ele><time>2026-04-19T16:07:09Z</time></trkpt><trkpt lat="44.685321319871534" lon="11.666693868694015"><ele>4.333333333333334</ele><time>2026-04-19T16:07:10Z</time></trkpt><trkpt lat="44.68523242907025" lon="11.66652383067712"><ele>3.666666666666667</ele><time>2026-04-19T16:07:11Z</time></trkpt><trkpt lat="44.68514021974253" lon="11.666345496279183"><ele>3.0</ele><time>2026-04-19T16:07:12Z</time></trkpt><trkpt lat="44.685046333341276" lon="11.666172849290225"><ele>4.0</ele><time>2026-04-19T16:07:13Z</time></trkpt><trkpt lat="44.6849475290988" lon="11.666007252894543"><ele>5.0</ele><time>2026-04-19T16:07:14Z</time></trkpt><trkpt lat="44.68484723516224" lon="11.665852561906672"><ele>6.0</ele><time>2026-04-19T16:07:15Z</time></trkpt><trkpt lat="44.684744430373705" lon="11.665702419432751"><ele>6.0</ele><time>2026-04-19T16:07:16Z</time></trkpt><trkpt lat="44.68463743665826" lon="11.665565836305566"><ele>6.0</ele><time>2026-04-19T16:07:17Z</time></trkpt><trkpt lat="44.68452917574853" lon="11.665432167156814"><ele>6.0</ele><time>2026-04-19T16:07:18Z</time></trkpt><trkpt lat="44.6844238453919" lon="11.66529714572993"><ele>6.0</ele><time>2026-04-19T16:07:19Z</time></trkpt><trkpt lat="44.68432639649825" lon="11.665162536703843"><ele>5.75</ele><time>2026-04-19T16:07:20Z</time></trkpt><trkpt lat="44.68423833668419" lon="11.665018440971185"><ele>5.5</ele><time>2026-04-19T16:07:21Z</time></trkpt><trkpt lat="44.68416543006537" lon="11.664850322133727"><ele>5.25</ele><time>2026-04-19T16:07:22Z</time></trkpt><trkpt lat="44.68409701695803" lon="11.66467384586919"><ele>5.0</ele><time>2026-04-19T16:07:23Z</time></trkpt><trkpt lat="44.684035353870975" lon="11.66449525799067"><ele>5.0</ele><time>2026-04-19T16:07:24Z</time></trkpt><trkpt lat="44.68398351743069" lon="11.66431404180835"><ele>5.0</ele><time>2026-04-19T16:07:25Z</time></trkpt><trkpt lat="44.68394048310631" lon="11.664132364181139"><ele>5.0</ele><time>2026-04-19T16:07:26Z</time></trkpt><trkpt lat="44.683906103018494" lon="11.66395477503247"><ele>5.0</ele><time>2026-04-19T16:07:27Z</time></trkpt><trkpt lat="44.683880611173485" lon="11.663781451903233"><ele>5.0</ele><time>2026-04-19T16:07:28Z</time></trkpt><trkpt lat="44.68385473299077" lon="11.663617953567513"><ele>5.0</ele><time>2026-04-19T16:07:29Z</time></trkpt><trkpt lat="44.683831461422805" lon="11.663470889147726"><ele>5.0</ele><time>2026-04-19T16:07:30Z</time></trkpt><trkpt lat="44.68380138126661" lon="11.66334293802576"><ele>5.0</ele><time>2026-04-19T16:07:31Z</time></trkpt><trkpt lat="44.683751181484524" lon="11.663218635576204"><ele>5.0</ele><time>2026-04-19T16:07:32Z</time></trkpt><trkpt lat="44.683681206128114" lon="11.663107143056274"><ele>4.75</ele><time>2026-04-19T16:07:33Z</time></trkpt><trkpt lat="44.683584052855025" lon="11.66301921609204"><ele>4.5</ele><time>2026-04-19T16:07:34Z</time></trkpt><trkpt lat="44.68347642410845" lon="11.662959051854365"><ele>4.25</ele><time>2026-04-19T16:07:35Z</time></trkpt><trkpt lat="44.68334757666408" lon="11.662928533838986"><ele>4.0</ele><time>2026-04-19T16:07:36Z</time></trkpt><trkpt lat="44.68320546937491" lon="11.66291605919469"><ele>4.0</ele><time>2026-04-19T16:07:37Z</time></trkpt><trkpt lat="44.683053529518155" lon="11.662909125878025"><ele>4.0</ele><time>2026-04-19T16:07:38Z</time></trkpt><trkpt lat="44.68290684992926" lon="11.662881237293162"><ele>4.0</ele><time>2026-04-19T16:07:39Z</time></trkpt><trkpt lat="44.682767196175135" lon="11.662872565198073"><ele>4.0</ele><time>2026-04-19T16:07:40Z</time></trkpt><trkpt lat="44.682629112174325" lon="11.662857998063343"><ele>4.25</ele><time>2026-04-19T16:07:41Z</time></trkpt><trkpt lat="44.68249589952528" lon="11.662841924666655"><ele>4.5</ele><time>2026-04-19T16:07:42Z</time></trkpt><trkpt lat="44.6823703150379" lon="11.662815582066353"><ele>4.75</ele><time>2026-04-19T16:07:43Z</time></trkpt><trkpt lat="44.682247134814105" lon="11.662752901973242"><ele>5.0</ele><time>2026-04-19T16:07:44Z</time></trkpt><trkpt lat="44.68212827592193" lon="11.66271345696655"><ele>5.0</ele><time>2026-04-19T16:07:45Z</time></trkpt><trkpt lat="44.68202669770583" lon="11.662609161876091"><ele>5.0</ele><time>2026-04-19T16:07:46Z</time></trkpt><trkpt lat="44.68192242898902" lon="11.662506007541442"><ele>5.0</ele><time>2026-04-19T16:07:47Z</time></trkpt><trkpt lat="44.68181853312485" lon="11.662383834073998"><ele>5.0</ele><time>2026-04-19T16:07:48Z</time></trkpt><trkpt lat="44.68170707901248" lon="11.662262328295158"><ele>5.0</ele><time>2026-04-19T16:07:49Z</time></trkpt><trkpt lat="44.681611410390026" lon="11.662114564678685"><ele>5.0</ele><time>2026-04-19T16:07:50Z</time></trkpt><trkpt lat="44.68152613914184" lon="11.661948002323541"><ele>5.0</ele><time>2026-04-19T16:07:51Z</time></trkpt><trkpt lat="44.68146865594092" lon="11.661756946261255"><ele>5.0</ele><time>2026-04-19T16:07:52Z</time></trkpt><trkpt lat="44.68138529337094" lon="11.661569959640312"><ele>5.0</ele><time>2026-04-19T16:07:53Z</time></trkpt><trkpt lat="44.68131612135241" lon="11.661346728292875"><ele>5.0</ele><time>2026-04-19T16:07:54Z</time></trkpt><trkpt lat="44.681248637442344" lon="11.661130196579427"><ele>5.0</ele><time>2026-04-19T16:07:55Z</time></trkpt><trkpt lat="44.681185993323" lon="11.660930854439728"><ele>5.0</ele><time>2026-04-19T16:07:56Z</time></trkpt><trkpt lat="44.68112833729211" lon="11.660743315391606"><ele>5.0</ele><time>2026-04-19T16:07:57Z</time></trkpt><trkpt lat="44.681067399452964" lon="11.66055044447803"><ele>5.0</ele><time>2026-04-19T16:07:58Z</time></trkpt><trkpt lat="44.6810153663226" lon="11.660386480112596"><ele>5.0</ele><time>2026-04-19T16:07:59Z</time></trkpt><trkpt lat="44.680980394708676" lon="11.660239097559815"><ele>5.166666666666667</ele><time>2026-04-19T16:08:00Z</time></trkpt><trkpt lat="44.68093991960162" lon="11.66010634042684"><ele>5.333333333333334</ele><time>2026-04-19T16:08:01Z</time></trkpt><trkpt lat="44.680902887892934" lon="11.659990454744012"><ele>5.5</ele><time>2026-04-19T16:08:02Z</time></trkpt><trkpt lat="44.68086311411442" lon="11.659896858917868"><ele>5.666666666666667</ele><time>2026-04-19T16:08:03Z</time></trkpt><trkpt lat="44.680810092838264" lon="11.65981888347711"><ele>5.833333333333333</ele><time>2026-04-19T16:08:04Z</time></trkpt><trkpt lat="44.680731811152256" lon="11.659752922294432"><ele>6.0</ele><time>2026-04-19T16:08:05Z</time></trkpt><trkpt lat="44.68063159933468" lon="11.659721561149144"><ele>6.0</ele><time>2026-04-19T16:08:06Z</time></trkpt><trkpt lat="44.680517285345275" lon="11.659740453134239"><ele>6.0</ele><time>2026-04-19T16:08:07Z</time></trkpt><trkpt lat="44.68039720956989" lon="11.659778662447014"><ele>6.0</ele><time>2026-04-19T16:08:08Z</time></trkpt><trkpt lat="44.68026603736136" lon="11.659833532010579"><ele>6.0</ele><time>2026-04-19T16:08:09Z</time></trkpt><trkpt lat="44.68012373835946" lon="11.659890044109382"><ele>5.333333333333333</ele><time>2026-04-19T16:08:10Z</time></trkpt><trkpt lat="44.67997080239619" lon="11.65994282362846"><ele>4.666666666666666</ele><time>2026-04-19T16:08:11Z</time></trkpt><trkpt lat="44.679809481500406" lon="11.65999148354002"><ele>4.0</ele><time>2026-04-19T16:08:12Z</time></trkpt><trkpt lat="44.67965386189004" lon="11.660033453767282"><ele>4.0</ele><time>2026-04-19T16:08:13Z</time></trkpt><trkpt lat="44.67949857479905" lon="11.660075354583016"><ele>4.0</ele><time>2026-04-19T16:08:14Z</time></trkpt><trkpt lat="44.67933961402504" lon="11.660118756825705"><ele>4.0</ele><time>2026-04-19T16:08:15Z</time></trkpt><trkpt lat="44.6791918447881" lon="11.660153002882105"><ele>4.0</ele><time>2026-04-19T16:08:16Z</time></trkpt><trkpt lat="44.679041557826075" lon="11.66018088130499"><ele>4.0</ele><time>2026-04-19T16:08:17Z</time></trkpt><trkpt lat="44.67889242053438" lon="11.660208258463193"><ele>4.0</ele><time>2026-04-19T16:08:18Z</time></trkpt><trkpt lat="44.678744486419724" lon="11.660229656085177"><ele>4.5</ele><time>2026-04-19T16:08:19Z</time></trkpt><trkpt lat="44.678592687784366" lon="11.660251957999195"><ele>5.0</ele><time>2026-04-19T16:08:20Z</time></trkpt><trkpt lat="44.67844281566078" lon="11.66024921594867"><ele>5.5</ele><time>2026-04-19T16:08:21Z</time></trkpt><trkpt lat="44.678297530792904" lon="11.660277061476503"><ele>6.0</ele><time>2026-04-19T16:08:22Z</time></trkpt><trkpt lat="44.67815261287854" lon="11.660273105793978"><ele>6.0</ele><time>2026-04-19T16:08:23Z</time></trkpt><trkpt lat="44.67800487658452" lon="11.66026207143958"><ele>6.0</ele><time>2026-04-19T16:08:24Z</time></trkpt><trkpt lat="44.67786312979817" lon="11.660238215124437"><ele>6.0</ele><time>2026-04-19T16:08:25Z</time></trkpt><trkpt lat="44.677723236997494" lon="11.660221672376856"><ele>6.0</ele><time>2026-04-19T16:08:26Z</time></trkpt><trkpt lat="44.67759941343155" lon="11.660192459384255"><ele>5.8</ele><time>2026-04-19T16:08:27Z</time></trkpt><trkpt lat="44.677485264144096" lon="11.660175270046873"><ele>5.6</ele><time>2026-04-19T16:08:28Z</time></trkpt><trkpt lat="44.67738560469357" lon="11.660161438442726"><ele>5.4</ele><time>2026-04-19T16:08:29Z</time></trkpt><trkpt lat="44.67729794179194" lon="11.660128333986012"><ele>5.2</ele><time>2026-04-19T16:08:30Z</time></trkpt><trkpt lat="44.67721064788986" lon="11.660109476687197"><ele>5.0</ele><time>2026-04-19T16:08:31Z</time></trkpt><trkpt lat="44.67713623799406" lon="11.660063216745222"><ele>5.0</ele><time>2026-04-19T16:08:32Z</time></trkpt><trkpt lat="44.67706061462182" lon="11.659994223726793"><ele>5.0</ele><time>2026-04-19T16:08:33Z</time></trkpt><trkpt lat="44.67700239054322" lon="11.659907810263741"><ele>5.0</ele><time>2026-04-19T16:08:34Z</time></trkpt><trkpt lat="44.676959111440866" lon="11.659808362129029"><ele>5.0</ele><time>2026-04-19T16:08:35Z</time></trkpt><trkpt lat="44.67693861326525" lon="11.659682849516413"><ele>5.0</ele><time>2026-04-19T16:08:36Z</time></trkpt><trkpt lat="44.67695334876586" lon="11.65954037562235"><ele>5.0</ele><time>2026-04-19T16:08:37Z</time></trkpt><trkpt lat="44.67698324122952" lon="11.659386479538108"><ele>5.0</ele><time>2026-04-19T16:08:38Z</time></trkpt><trkpt lat="44.67701449212362" lon="11.659234796179938"><ele>5.0</ele><time>2026-04-19T16:08:39Z</time></trkpt><trkpt lat="44.67702263789367" lon="11.659096668273147"><ele>5.0</ele><time>2026-04-19T16:08:40Z</time></trkpt><trkpt lat="44.677000093764114" lon="11.658972574994165"><ele>5.0</ele><time>2026-04-19T16:08:41Z</time></trkpt><trkpt lat="44.67694779176994" lon="11.65886069973998"><ele>5.0</ele><time>2026-04-19T16:08:42Z</time></trkpt><trkpt lat="44.676873852082075" lon="11.65875673051954"><ele>5.0</ele><time>2026-04-19T16:08:43Z</time></trkpt><trkpt lat="44.6767736397304" lon="11.658670674519609"><ele>5.0</ele><time>2026-04-19T16:08:44Z</time></trkpt><trkpt lat="44.676663213120555" lon="11.658617753757834"><ele>5.0</ele><time>2026-04-19T16:08:45Z</time></trkpt><trkpt lat="44.67654638716745" lon="11.658598731357706"><ele>5.0</ele><time>2026-04-19T16:08:46Z</time></trkpt><trkpt lat="44.6764152998337" lon="11.658585133022227"><ele>5.0</ele><time>2026-04-19T16:08:47Z</time></trkpt><trkpt lat="44.67627602018531" lon="11.658567262797789"><ele>5.0</ele><time>2026-04-19T16:08:48Z</time></trkpt><trkpt lat="44.6761304350814" lon="11.658545828738776"><ele>5.0</ele><time>2026-04-19T16:08:49Z</time></trkpt><trkpt lat="44.675974358559564" lon="11.658522050464962"><ele>5.333333333333334</ele><time>2026-04-19T16:08:50Z</time></trkpt><trkpt lat="44.6758220923145" lon="11.658499680004045"><ele>5.666666666666667</ele><time>2026-04-19T16:08:51Z</time></trkpt><trkpt lat="44.67566544341806" lon="11.658473395302746"><ele>6.0</ele><time>2026-04-19T16:08:52Z</time></trkpt><trkpt lat="44.67549784005172" lon="11.65844755485184"><ele>6.0</ele><time>2026-04-19T16:08:53Z</time></trkpt><trkpt lat="44.67532632469501" lon="11.658419733778404"><ele>6.0</ele><time>2026-04-19T16:08:54Z</time></trkpt><trkpt lat="44.675169989446914" lon="11.658393654748235"><ele>6.0</ele><time>2026-04-19T16:08:55Z</time></trkpt><trkpt lat="44.67502608881032" lon="11.658369141037353"><ele>6.0</ele><time>2026-04-19T16:08:56Z</time></trkpt><trkpt lat="44.6748881595591" lon="11.658342811043013"><ele>6.0</ele><time>2026-04-19T16:08:57Z</time></trkpt><trkpt lat="44.67473733996034" lon="11.658298508299008"><ele>6.0</ele><time>2026-04-19T16:08:58Z</time></trkpt><trkpt lat="44.67461092987692" lon="11.658274214489447"><ele>6.0</ele><time>2026-04-19T16:08:59Z</time></trkpt><trkpt lat="44.674495849011386" lon="11.658253868713148"><ele>6.0</ele><time>2026-04-19T16:09:00Z</time></trkpt><trkpt lat="44.6743810391182" lon="11.65824101187174"><ele>6.0</ele><time>2026-04-19T16:09:01Z</time></trkpt><trkpt lat="44.67426713340585" lon="11.65823996765384"><ele>6.0</ele><time>2026-04-19T16:09:02Z</time></trkpt><trkpt lat="44.67416081831583" lon="11.658299162484202"><ele>6.0</ele><time>2026-04-19T16:09:03Z</time></trkpt><trkpt lat="44.67406407530041" lon="11.65833742968347"><ele>6.0</ele><time>2026-04-19T16:09:04Z</time></trkpt><trkpt lat="44.67398300333104" lon="11.658377372505491"><ele>6.0</ele><time>2026-04-19T16:09:05Z</time></trkpt><trkpt lat="44.67391289353913" lon="11.658387983589124"><ele>6.0</ele><time>2026-04-19T16:09:06Z</time></trkpt><trkpt lat="44.67384380230136" lon="11.658428179872168"><ele>6.0</ele><time>2026-04-19T16:09:07Z</time></trkpt><trkpt lat="44.67373998509161" lon="11.658426458716379"><ele>6.0</ele><time>2026-04-19T16:09:09Z</time></trkpt><trkpt lat="44.673684429844336" lon="11.658364669872599"><ele>6.0</ele><time>2026-04-19T16:09:10Z</time></trkpt><trkpt lat="44.67363029199838" lon="11.65826270615024"><ele>6.0</ele><time>2026-04-19T16:09:11Z</time></trkpt><trkpt lat="44.67356052232261" lon="11.658120564710384"><ele>6.0</ele><time>2026-04-19T16:09:12Z</time></trkpt><trkpt lat="44.673488631279334" lon="11.657971301193783"><ele>6.0</ele><time>2026-04-19T16:09:13Z</time></trkpt><trkpt lat="44.67341482063284" lon="11.657837469397426"><ele>6.0</ele><time>2026-04-19T16:09:14Z</time></trkpt><trkpt lat="44.673349017234536" lon="11.657684335979377"><ele>6.0</ele><time>2026-04-19T16:09:15Z</time></trkpt><trkpt lat="44.67328840496773" lon="11.657502988772618"><ele>6.25</ele><time>2026-04-19T16:09:16Z</time></trkpt><trkpt lat="44.67324206652891" lon="11.657316835649505"><ele>6.5</ele><time>2026-04-19T16:09:17Z</time></trkpt><trkpt lat="44.673204630729714" lon="11.657125153940225"><ele>6.75</ele><time>2026-04-19T16:09:18Z</time></trkpt><trkpt lat="44.673163825646775" lon="11.656919522764772"><ele>7.0</ele><time>2026-04-19T16:09:19Z</time></trkpt><trkpt lat="44.67310543277733" lon="11.656720506912752"><ele>7.0</ele><time>2026-04-19T16:09:20Z</time></trkpt><trkpt lat="44.6730364645847" lon="11.656529789414604"><ele>7.0</ele><time>2026-04-19T16:09:21Z</time></trkpt><trkpt lat="44.672964823975285" lon="11.656322077080905"><ele>7.0</ele><time>2026-04-19T16:09:22Z</time></trkpt><trkpt lat="44.672893259905536" lon="11.656113608186581"><ele>7.0</ele><time>2026-04-19T16:09:23Z</time></trkpt><trkpt lat="44.67282223464579" lon="11.655906356273666"><ele>7.0</ele><time>2026-04-19T16:09:24Z</time></trkpt><trkpt lat="44.67275028123116" lon="11.655701768538915"><ele>7.0</ele><time>2026-04-19T16:09:25Z</time></trkpt><trkpt lat="44.672678564077735" lon="11.655506513611106"><ele>7.333333333333334</ele><time>2026-04-19T16:09:26Z</time></trkpt><trkpt lat="44.6726062421218" lon="11.655304698839766"><ele>7.666666666666666</ele><time>2026-04-19T16:09:27Z</time></trkpt><trkpt lat="44.67253813435743" lon="11.655108672171211"><ele>8.0</ele><time>2026-04-19T16:09:28Z</time></trkpt><trkpt lat="44.67246660277943" lon="11.654910603644632"><ele>8.0</ele><time>2026-04-19T16:09:29Z</time></trkpt><trkpt lat="44.67239859004329" lon="11.654722617738955"><ele>8.0</ele><time>2026-04-19T16:09:30Z</time></trkpt><trkpt lat="44.672336006745276" lon="11.654532879317113"><ele>8.0</ele><time>2026-04-19T16:09:31Z</time></trkpt><trkpt lat="44.67227338213959" lon="11.654347096726783"><ele>8.0</ele><time>2026-04-19T16:09:32Z</time></trkpt><trkpt lat="44.67220894476808" lon="11.654167597643184"><ele>7.75</ele><time>2026-04-19T16:09:33Z</time></trkpt><trkpt lat="44.67214830490001" lon="11.653989405600251"><ele>7.5</ele><time>2026-04-19T16:09:34Z</time></trkpt><trkpt lat="44.672083199680955" lon="11.653822809395725"><ele>7.25</ele><time>2026-04-19T16:09:35Z</time></trkpt><trkpt lat="44.672019061061114" lon="11.653674948660298"><ele>7.0</ele><time>2026-04-19T16:09:36Z</time></trkpt><trkpt lat="44.67195547907442" lon="11.653555423471698"><ele>7.166666666666667</ele><time>2026-04-19T16:09:37Z</time></trkpt><trkpt lat="44.671893963001494" lon="11.653448268053161"><ele>7.333333333333334</ele><time>2026-04-19T16:09:38Z</time></trkpt><trkpt lat="44.67183578337879" lon="11.653354484804495"><ele>7.5</ele><time>2026-04-19T16:09:39Z</time></trkpt><trkpt lat="44.67178301680372" lon="11.653281448487952"><ele>7.666666666666666</ele><time>2026-04-19T16:09:40Z</time></trkpt><trkpt lat="44.67173126031626" lon="11.653207642267896"><ele>7.833333333333333</ele><time>2026-04-19T16:09:41Z</time></trkpt><trkpt lat="44.67168377321581" lon="11.653138644485786"><ele>8.0</ele><time>2026-04-19T16:09:42Z</time></trkpt><trkpt lat="44.671643615542976" lon="11.653051517925151"><ele>7.999999999999999</ele><time>2026-04-19T16:09:44Z</time></trkpt><trkpt lat="44.67171219129457" lon="11.652980631681341"><ele>8.0</ele><time>2026-04-19T16:09:46Z</time></trkpt><trkpt lat="44.67176432965871" lon="11.652914725118883"><ele>8.0</ele><time>2026-04-19T16:09:47Z</time></trkpt><trkpt lat="44.671831263986995" lon="11.652856411651126"><ele>8.0</ele><time>2026-04-19T16:09:48Z</time></trkpt><trkpt lat="44.67189776549639" lon="11.652787472430813"><ele>7.999999999999999</ele><time>2026-04-19T16:09:49Z</time></trkpt><trkpt lat="44.67199001357028" lon="11.652709188817468"><ele>8.0</ele><time>2026-04-19T16:09:50Z</time></trkpt><trkpt lat="44.672068226560725" lon="11.652638159317918"><ele>7.833333333333333</ele><time>2026-04-19T16:09:51Z</time></trkpt><trkpt lat="44.67213043175224" lon="11.652583483360752"><ele>7.666666666666666</ele><time>2026-04-19T16:09:52Z</time></trkpt><trkpt lat="44.67219445304544" lon="11.652526911449423"><ele>7.5</ele><time>2026-04-19T16:09:53Z</time></trkpt><trkpt lat="44.67226145000528" lon="11.652445690430174"><ele>7.333333333333334</ele><time>2026-04-19T16:09:54Z</time></trkpt><trkpt lat="44.672333240781704" lon="11.652379972635966"><ele>7.166666666666667</ele><time>2026-04-19T16:09:55Z</time></trkpt><trkpt lat="44.672396722316535" lon="11.652328161950718"><ele>7.0</ele><time>2026-04-19T16:09:56Z</time></trkpt><trkpt lat="44.67248918000084" lon="11.652242706404383"><ele>7.0</ele><time>2026-04-19T16:09:58Z</time></trkpt><trkpt lat="44.67255203959369" lon="11.652184607390318"><ele>6.999999999999999</ele><time>2026-04-19T16:10:00Z</time></trkpt><trkpt lat="44.67261206328061" lon="11.652157077126422"><ele>6.999999999999999</ele><time>2026-04-19T16:10:05Z</time></trkpt><trkpt lat="44.672745096630116" lon="11.65236361040925"><ele>7.0</ele><time>2026-04-19T16:10:32Z</time></trkpt><trkpt lat="44.67278634415379" lon="11.652448529644246"><ele>7.0</ele><time>2026-04-19T16:10:35Z</time></trkpt><trkpt lat="44.67274690162405" lon="11.652521263694181"><ele>7.000000000000001</ele><time>2026-04-19T16:10:38Z</time></trkpt><trkpt lat="44.672682673485404" lon="11.652560128972038"><ele>7.0</ele><time>2026-04-19T16:10:42Z</time></trkpt><trkpt lat="44.67274104627405" lon="11.652482479617959"><ele>7.0</ele><time>2026-04-19T16:11:48Z</time></trkpt><trkpt lat="44.67268056287873" lon="11.652515280076408"><ele>7.0</ele><time>2026-04-19T16:11:51Z</time></trkpt><trkpt lat="44.67261436192349" lon="11.652470747465896"><ele>7.000000000000001</ele><time>2026-04-19T16:12:01Z</time></trkpt><trkpt lat="44.67257317272261" lon="11.65236267824777"><ele>7.0</ele><time>2026-04-19T16:12:04Z</time></trkpt><trkpt lat="44.67253205032936" lon="11.652275157161323"><ele>7.0</ele><time>2026-04-19T16:12:08Z</time></trkpt><trkpt lat="44.67261254548024" lon="11.652477036608111"><ele>7.0</ele><time>2026-04-19T16:12:15Z</time></trkpt></trkseg></trk></gpx>